GFSSGP_sfc_wetblb_000.txt.gz
Wetbulb
67.51 66.56 61.21 60.35 49.61 42.24 37.81 40.12 42.41 42.04 42.96 44.93 45.54 44.27 43.46 44.07 43.33 37.20 50.67 56.62 59.69 58.63 63.36 69.74 73.15 71.54 70.59 70.22 69.24 68.97 67.66 66.49 66.03 65.37 64.59 64.06 64.66 65.67 66.51 67.02 67.60 67.71 68.20 67.93 67.81 68.63 68.51 68.74 69.66
63.27 62.61 59.73 53.14 44.13 34.90 37.02 40.07 41.69 43.97 45.19 45.24 46.32 45.22 44.18 43.77 50.56 51.43 51.21 56.61 59.22 60.76 62.37 66.99 72.73 72.43 71.14 70.11 70.13 69.62 67.73 67.11 66.49 65.99 65.01 64.59 64.98 65.80 66.47 66.61 66.92 67.09 67.90 68.17 67.98 68.11 68.35 68.70 69.44
61.96 62.76 55.21 48.43 41.15 38.78 37.07 40.85 43.49 44.41 45.63 45.43 43.87 48.48 48.23 47.62 52.47 52.57 54.29 56.08 56.64 59.64 62.48 65.79 72.15 72.36 71.15 69.86 69.85 69.52 67.72 67.52 67.24 66.43 65.40 64.90 65.13 65.58 65.63 66.06 66.56 66.91 67.12 67.68 67.97 68.00 68.30 68.51 69.08
60.70 58.00 51.77 45.79 42.46 42.87 41.26 42.36 43.77 43.76 44.47 45.10 46.29 46.05 50.31 53.71 53.40 54.15 55.16 55.48 54.39 57.15 62.65 65.87 70.93 71.57 70.39 69.54 69.34 69.38 68.26 67.63 67.20 66.61 66.03 65.21 65.11 65.31 65.22 65.42 65.58 66.08 66.89 67.24 68.36 68.22 68.32 68.73 68.92
56.72 51.77 45.07 41.76 42.74 40.93 42.11 43.52 44.40 43.78 43.29 43.54 47.12 46.20 47.52 52.92 55.06 54.02 52.62 53.50 51.50 55.64 61.73 64.92 69.95 70.78 70.17 69.33 69.23 69.42 68.58 68.38 67.17 66.26 65.78 65.78 65.32 65.28 65.20 65.13 65.14 65.45 66.04 67.02 67.17 68.40 69.64 69.85 70.51
51.02 49.84 43.30 41.53 43.62 43.36 43.63 44.48 45.05 44.17 44.02 45.52 46.69 46.80 47.03 52.12 52.27 50.42 54.03 53.25 55.06 58.92 59.77 61.67 67.13 69.77 70.39 68.78 68.78 68.23 67.73 67.49 66.81 66.54 66.65 65.52 65.52 65.42 65.24 65.59 65.16 64.92 65.46 66.87 66.74 67.91 69.13 70.26 70.75
49.44 46.98 43.06 43.04 43.81 40.69 43.84 44.96 43.78 44.13 43.11 44.58 48.59 44.88 46.36 48.90 49.02 49.79 49.21 49.38 50.91 52.95 54.20 55.00 53.89 58.62 62.02 63.55 64.58 64.92 64.96 65.15 64.96 65.51 65.72 65.50 65.44 65.30 65.18 65.36 65.00 64.95 65.25 66.25 66.89 67.56 68.23 69.36 69.98
51.82 48.66 41.29 41.15 40.28 39.91 44.66 43.97 43.43 45.63 44.88 49.79 50.69 44.28 43.09 47.28 48.97 48.91 49.22 49.52 48.71 49.79 50.48 50.31 53.55 55.54 56.06 56.77 61.84 63.03 63.22 63.27 63.84 64.55 64.81 64.55 64.98 65.06 65.41 64.94 64.93 64.81 65.23 66.19 66.64 67.13 67.70 68.51 69.46
50.48 44.01 40.78 42.63 39.91 41.86 42.14 41.48 44.97 48.36 47.56 48.48 48.73 48.05 49.02 49.43 49.36 48.34 47.73 49.38 49.79 52.63 52.19 52.22 54.50 55.12 55.61 56.81 57.63 59.76 61.11 62.39 62.67 61.57 61.85 61.37 59.46 60.05 62.13 63.86 64.63 64.79 65.24 66.11 66.58 67.12 67.82 68.40 68.78
48.01 42.49 44.39 47.10 43.73 43.14 43.30 43.40 45.98 46.79 46.97 45.96 46.72 49.00 49.82 49.72 48.11 47.65 47.44 48.09 48.93 51.04 52.82 53.37 53.64 54.84 55.37 57.07 55.95 55.71 57.08 57.85 58.11 59.13 58.03 59.22 58.22 58.73 60.26 62.39 64.21 64.27 65.10 65.99 66.28 67.12 67.98 68.03 66.93
47.12 45.83 47.56 48.27 46.50 45.48 44.26 42.93 46.21 45.85 43.75 46.05 45.02 47.10 48.13 48.14 47.69 47.96 48.25 48.34 49.44 51.60 53.53 52.90 53.46 54.43 54.66 54.75 55.55 54.82 56.23 58.39 59.44 58.97 57.75 59.93 60.39 59.20 59.60 60.43 61.06 61.57 62.96 63.31 65.16 65.89 65.76 65.40 66.47
45.13 49.33 48.64 48.81 48.56 44.89 44.49 46.16 46.88 46.33 46.56 49.66 48.27 48.63 47.84 47.42 47.32 47.92 48.73 49.46 51.16 51.30 52.59 53.03 53.91 53.94 54.16 54.65 55.08 54.82 57.37 58.95 58.98 57.88 58.03 58.03 58.54 58.69 57.35 57.87 58.78 60.02 60.79 61.54 62.54 62.71 64.08 65.24 65.08
46.70 47.61 47.81 47.39 45.13 45.81 46.60 45.64 45.95 46.56 49.38 49.94 48.65 48.58 47.65 47.16 47.86 48.53 50.13 51.75 51.86 51.43 52.60 52.84 54.52 54.52 54.65 54.81 55.28 55.32 57.23 58.45 58.40 56.79 56.79 57.53 56.69 56.67 57.37 57.77 58.69 59.53 60.47 61.16 61.93 63.13 63.97 64.38 65.33
49.22 47.21 46.79 45.07 43.65 44.76 45.20 44.80 46.09 47.48 49.51 48.43 47.62 46.87 47.31 47.95 48.49 48.84 50.97 51.24 52.00 52.73 52.92 53.25 54.21 55.10 54.91 54.51 54.99 55.38 56.20 55.78 57.86 56.00 56.01 57.31 56.51 56.33 57.07 58.01 58.49 58.83 60.20 61.23 61.54 62.94 63.48 64.54 65.58
47.02 44.49 46.17 45.71 44.29 44.15 45.60 43.26 44.46 47.96 48.29 46.51 46.30 46.59 47.42 47.95 49.04 49.99 51.73 51.53 51.87 52.29 53.44 52.76 55.56 55.47 55.05 54.55 54.96 55.72 56.35 56.29 55.93 56.39 57.05 57.52 57.74 57.27 58.75 58.25 58.03 59.07 59.86 61.10 61.36 62.85 63.74 64.61 64.74
44.47 42.39 39.00 43.85 45.50 45.90 44.77 39.90 45.50 47.74 46.86 45.33 45.74 46.34 47.02 47.60 49.09 50.82 53.36 52.27 52.73 52.17 53.34 52.53 55.30 55.71 55.31 55.07 55.45 56.15 56.99 57.17 57.47 57.43 57.41 58.16 58.89 59.20 58.55 58.01 58.09 59.11 60.89 61.13 61.86 62.97 63.23 63.60 64.22
42.71 39.68 40.36 42.88 45.50 44.59 42.93 41.53 45.43 47.02 46.84 45.08 44.69 45.81 46.57 46.99 48.79 50.84 53.66 52.99 52.96 52.67 53.58 53.10 53.58 55.23 55.37 55.65 56.27 57.03 57.33 57.63 58.42 58.92 59.07 59.70 60.84 60.99 58.99 59.40 60.68 61.37 61.69 61.99 62.12 62.52 62.51 62.75 63.63
38.59 39.04 40.89 40.91 43.97 43.31 41.21 41.66 43.88 46.72 46.52 45.55 44.47 45.43 46.10 46.99 48.69 51.53 53.22 53.84 53.47 53.38 52.68 53.31 52.80 54.53 55.04 55.81 56.41 57.03 57.33 57.87 58.19 58.52 59.40 60.29 60.96 60.71 61.20 60.32 61.41 62.01 61.59 61.87 61.91 62.34 62.96 63.32 63.26
43.42 41.26 40.95 43.66 45.56 42.63 42.03 42.10 45.32 45.43 44.76 43.95 43.50 44.06 44.88 46.42 49.10 51.14 52.98 53.75 54.29 54.21 52.98 52.78 52.15 52.61 53.10 55.00 54.76 55.33 55.71 56.93 57.55 58.84 60.10 60.55 61.47 60.67 61.78 61.90 61.36 62.79 61.44 62.00 62.12 62.35 62.14 62.21 63.48
41.94 39.92 39.28 42.50 44.51 42.03 42.24 41.58 43.10 44.51 45.02 45.20 43.90 43.60 44.67 45.63 47.75 50.50 51.84 52.76 52.55 52.59 53.81 53.57 52.82 53.34 53.68 54.36 54.91 55.03 56.27 58.30 58.50 59.48 60.26 60.97 61.57 61.77 61.78 62.24 61.95 62.13 61.96 62.04 62.37 61.85 61.29 61.98 62.85
41.28 39.27 39.51 40.33 42.35 41.66 39.57 38.11 40.35 43.60 44.41 45.58 44.26 45.02 45.40 45.71 46.73 48.81 50.29 50.26 52.11 51.25 51.77 54.41 53.60 52.20 51.43 54.13 56.19 56.79 57.99 58.88 59.45 59.52 59.34 60.67 62.04 62.09 61.80 62.00 62.07 61.93 62.30 61.60 61.66 61.96 62.01 60.52 62.02
38.47 44.22 43.53 41.94 38.74 33.90 39.93 30.21 38.11 40.98 42.33 44.58 43.13 42.99 44.83 45.46 47.32 48.53 49.02 48.24 51.69 52.20 53.29 53.36 53.40 52.91 53.50 53.35 56.29 56.05 56.17 56.73 58.38 59.67 60.13 60.63 61.21 62.09 61.98 61.59 61.70 61.57 62.15 61.15 61.68 62.03 62.31 61.97 59.72
42.49 45.27 42.79 41.75 37.52 34.15 36.13 30.92 36.52 40.56 41.51 42.67 43.25 43.27 44.21 45.34 46.94 48.31 48.47 49.11 51.03 53.65 53.48 53.90 54.06 54.08 53.95 54.64 56.97 57.58 57.23 57.55 58.54 58.72 59.03 60.06 61.20 62.21 62.40 62.29 62.18 62.01 61.87 61.68 61.69 61.47 61.65 62.10 60.60
46.78 42.25 39.76 37.58 34.63 28.34 35.39 34.02 33.46 37.46 42.03 43.39 44.03 44.14 44.64 45.02 46.69 48.78 49.21 49.12 49.89 52.57 54.08 53.52 54.76 55.10 54.08 55.41 56.77 56.56 54.90 54.44 55.51 56.69 57.97 59.26 60.51 61.55 62.54 62.19 61.95 62.07 61.82 62.04 61.67 61.78 61.56 61.22 61.43
41.41 36.23 29.87 27.53 27.09 28.28 36.38 33.86 36.47 42.40 44.54 45.60 45.87 44.28 44.71 46.04 46.26 48.00 47.83 47.96 49.12 51.22 53.73 53.86 54.51 54.10 54.04 54.98 55.97 56.28 54.29 54.36 55.25 56.24 58.05 59.00 59.99 60.91 61.25 61.62 61.65 61.55 61.93 62.13 62.17 61.30 61.10 61.51 60.65
38.67 37.31 31.10 25.33 25.09 29.85 37.03 33.04 38.79 44.52 47.44 48.18 48.03 46.21 45.55 45.50 46.74 47.81 48.14 48.17 49.37 50.88 53.55 54.62 54.01 53.53 53.40 53.78 54.82 54.59 54.35 54.02 53.62 55.02 57.91 58.59 60.01 60.27 60.86 61.40 61.72 61.77 62.44 62.27 62.45 61.74 61.37 61.00 60.36
39.00 35.70 38.83 33.26 32.63 30.36 33.36 38.35 44.36 47.00 47.18 46.82 44.55 44.88 44.44 45.44 45.49 47.91 48.23 48.34 49.24 50.16 51.80 54.48 54.59 52.78 52.98 53.24 54.00 54.38 54.24 54.11 53.73 53.70 55.45 57.72 59.61 61.11 60.71 60.00 59.48 60.58 61.68 61.96 61.61 61.42 60.54 61.83 60.83
43.02 43.13 34.76 31.97 26.84 25.69 31.11 34.64 36.97 42.39 44.84 46.42 44.96 43.04 44.30 45.40 45.46 47.32 48.27 48.60 49.18 50.39 51.18 54.75 54.60 52.64 52.83 52.44 53.11 53.61 53.56 54.04 53.44 53.33 54.09 56.15 56.71 57.11 56.21 56.14 56.28 56.80 57.81 59.37 60.22 59.49 60.61 59.80 59.54
39.35 37.68 37.59 35.37 32.86 27.76 24.87 31.94 41.67 44.35 47.78 48.14 46.08 44.36 44.86 45.91 46.56 47.51 48.33 48.64 49.17 49.51 50.75 53.71 53.87 52.12 52.24 51.47 52.60 53.20 53.30 53.46 53.40 53.08 53.29 54.51 55.46 56.23 55.53 56.40 56.66 56.80 57.15 58.37 57.49 57.29 58.51 57.85 57.46
43.35 40.44 40.14 33.59 31.77 33.61 32.05 34.42 45.41 47.39 49.22 50.12 48.69 45.57 44.95 46.74 47.67 47.85 48.42 48.09 48.51 49.36 50.55 52.94 53.19 52.00 51.52 51.33 52.67 52.87 52.65 52.42 52.88 53.03 53.00 53.77 54.74 55.76 56.30 57.23 56.28 55.90 55.75 56.32 57.10 56.52 56.64 55.95 56.25

GFSSGP_sfc_wetblb_003.txt.gz
Wetbulb
69.23 69.03 66.45 65.01 56.37 51.97 49.61 49.35 49.71 49.04 49.33 51.68 51.21 50.29 50.49 51.03 50.73 46.37 60.19 61.95 65.44 64.79 67.96 70.15 74.19 73.17 72.53 72.26 72.12 71.63 70.85 69.64 67.72 67.00 66.55 65.71 65.18 65.37 66.33 67.17 67.87 68.53 68.73 69.25 68.55 68.68 69.10 69.19 70.07
67.92 65.37 64.62 60.87 53.26 48.84 49.64 48.83 49.11 51.11 51.20 51.39 51.24 50.96 49.87 48.87 54.43 56.56 59.36 63.40 65.51 64.93 68.38 68.69 73.07 73.99 72.99 72.57 72.25 71.61 70.51 69.72 68.08 67.85 67.33 66.57 65.63 65.62 66.46 67.28 67.63 67.88 68.48 68.95 69.02 68.68 69.13 69.35 69.89
65.49 65.58 62.01 57.66 52.89 48.81 48.68 48.96 50.29 50.97 51.44 51.26 50.49 52.96 52.17 51.58 55.70 57.70 61.31 62.60 63.71 65.16 67.02 68.94 71.22 73.76 73.12 72.47 71.73 70.70 69.95 69.16 68.40 68.33 67.80 67.24 66.34 65.80 66.35 66.85 67.33 67.52 67.91 68.27 69.11 68.71 68.85 69.03 69.51
64.47 63.83 58.82 54.38 50.29 52.14 51.79 54.37 50.22 50.43 50.17 50.81 51.05 49.96 54.56 57.35 57.13 59.34 60.23 60.45 60.98 61.37 65.00 67.66 69.72 72.36 72.53 71.10 70.48 70.45 69.74 69.48 69.16 67.98 67.62 67.42 66.99 66.27 66.18 66.39 66.61 66.84 67.50 67.95 68.46 69.06 69.59 69.33 69.51
63.46 60.13 54.50 51.84 50.82 51.69 50.22 50.13 50.50 50.62 50.20 49.94 51.65 50.41 52.53 56.71 58.48 58.66 58.81 58.91 59.76 60.78 65.83 67.68 69.04 71.29 71.20 70.96 70.72 69.59 69.36 68.93 68.34 67.33 67.92 67.47 67.40 66.43 66.04 66.43 66.42 66.28 66.62 66.95 68.25 68.63 69.35 70.41 70.51
58.78 58.59 51.92 49.65 51.09 52.88 51.65 50.90 50.62 50.67 50.90 50.81 50.81 51.34 53.38 57.30 57.29 57.61 59.77 60.86 61.29 61.29 66.72 67.69 67.92 69.57 70.14 69.73 70.12 68.73 67.49 66.83 66.81 66.97 66.87 67.59 67.28 66.37 66.32 66.27 66.08 66.06 65.92 66.09 67.18 68.31 68.24 70.07 71.00
56.40 55.32 50.02 50.46 51.17 50.60 51.21 50.86 49.57 50.83 49.99 50.15 53.54 50.43 53.65 55.36 55.45 56.70 56.56 57.81 59.65 60.79 61.17 63.48 63.71 62.96 62.46 63.08 64.12 64.41 64.74 64.98 65.13 65.34 65.80 66.10 66.13 66.23 66.08 66.14 66.18 66.21 65.84 65.58 66.31 67.99 68.60 68.43 69.77
58.60 56.23 50.84 50.70 49.81 50.52 51.09 49.85 50.21 50.76 50.89 53.80 54.72 50.50 51.38 54.89 54.90 56.12 57.10 57.38 57.27 57.74 58.86 59.77 59.96 61.39 62.56 62.54 62.17 62.64 63.43 63.48 63.84 64.33 64.33 65.02 65.25 65.45 65.91 66.13 65.48 65.58 65.96 65.98 66.13 67.46 67.93 68.04 68.82
57.10 52.21 48.63 49.64 49.87 51.54 49.96 49.38 50.49 52.44 51.49 52.13 53.31 52.75 53.32 54.54 54.76 55.69 56.26 56.55 58.79 59.14 60.13 60.51 60.50 61.29 61.22 61.51 61.27 61.69 61.82 62.46 62.65 62.59 62.53 63.25 64.26 64.69 64.82 64.94 65.32 65.25 65.71 65.99 66.16 67.10 68.12 67.68 68.21
54.80 50.89 50.52 54.17 53.42 51.96 50.83 50.36 50.98 51.04 50.40 50.72 51.24 52.06 52.85 53.74 54.26 54.58 54.78 55.85 57.10 58.67 60.11 60.72 60.52 60.51 61.03 60.74 61.82 62.05 61.74 61.79 61.50 61.96 62.23 62.80 63.56 63.05 61.78 63.59 64.53 64.82 65.56 65.70 66.20 66.88 67.05 67.68 68.58
53.79 49.99 52.49 52.85 54.31 52.92 51.00 48.90 51.47 50.71 49.27 52.21 51.92 52.13 52.62 53.56 54.43 54.48 54.58 56.13 57.75 59.42 60.16 60.39 60.30 60.30 60.97 60.99 61.69 61.90 60.98 59.66 60.02 60.52 61.35 62.14 62.60 63.94 62.12 62.42 63.62 65.99 65.05 65.70 66.23 66.84 67.80 68.50 68.32
50.51 53.14 53.83 53.79 52.86 49.84 49.03 50.39 49.61 51.22 52.46 53.49 53.96 54.00 53.11 53.34 54.08 54.22 54.81 56.84 58.62 59.18 59.73 60.26 59.91 60.90 61.72 61.35 61.59 62.38 60.45 61.24 61.30 60.50 61.94 61.52 61.00 61.97 60.35 61.38 63.13 64.55 65.41 65.01 65.92 66.95 68.30 68.43 68.38
51.34 52.63 51.93 52.07 50.07 49.94 49.86 49.43 50.07 50.72 53.13 53.42 53.13 52.80 53.00 53.74 54.33 54.94 56.66 58.72 59.17 58.74 59.33 59.93 60.31 61.27 61.66 61.76 61.76 62.37 62.27 61.40 61.54 60.56 61.47 59.92 61.15 60.84 61.08 61.17 62.42 63.07 63.39 64.18 65.41 66.53 66.59 67.15 67.75
53.46 52.13 50.32 49.31 49.05 49.30 48.96 48.58 49.69 51.70 53.21 52.34 52.19 52.48 52.97 53.23 54.27 55.34 56.58 58.08 58.63 59.08 59.80 60.22 61.01 61.63 61.80 61.79 62.19 62.32 62.31 62.27 60.49 59.86 62.25 62.35 62.28 62.36 62.25 61.31 61.06 61.99 63.47 64.82 66.35 66.85 66.59 66.35 67.34
51.68 49.19 49.29 49.03 49.25 49.41 50.18 47.64 48.41 52.65 53.10 52.06 51.77 52.09 52.32 53.70 54.52 55.50 57.78 58.27 59.12 59.82 60.48 60.07 61.09 62.38 62.40 62.26 62.09 62.67 62.84 62.60 61.79 62.48 63.12 62.74 62.96 62.73 62.84 63.11 62.63 63.07 64.64 65.44 66.00 65.77 66.30 65.72 67.39
48.99 48.65 45.95 48.56 48.24 48.61 49.28 45.36 51.83 52.53 51.75 51.60 50.88 50.82 51.69 53.17 54.24 56.36 58.51 58.97 59.84 60.11 60.09 60.45 61.13 62.76 62.61 62.66 62.38 62.45 63.56 62.84 63.19 63.84 64.01 63.60 63.80 63.83 63.52 63.12 64.02 63.81 64.34 64.79 64.63 64.29 63.95 64.60 65.70
47.63 45.22 46.27 47.02 48.91 47.85 47.91 46.22 51.29 51.09 51.40 51.56 50.61 50.56 51.47 52.50 54.47 57.14 58.99 59.09 59.85 60.48 60.23 60.10 61.32 62.29 62.57 62.86 63.14 63.24 63.85 63.76 63.70 64.06 63.92 64.31 64.62 64.49 64.00 63.45 63.91 64.56 63.48 64.21 64.63 64.71 64.52 64.29 64.83
44.63 44.62 45.14 45.42 48.41 47.41 46.80 46.27 50.31 51.37 50.63 50.85 50.64 50.57 51.38 52.16 54.05 57.41 59.36 59.34 60.18 60.70 60.19 60.31 60.49 61.38 61.06 62.28 63.09 63.05 64.33 63.78 63.99 63.98 63.54 63.64 64.90 64.16 64.41 63.45 62.77 62.88 63.63 64.05 64.35 64.40 64.85 65.09 65.11
48.45 46.68 45.81 47.42 49.90 47.78 47.90 48.28 49.73 51.81 50.30 50.17 50.40 50.59 51.52 52.38 55.63 57.75 59.08 59.46 60.10 61.19 61.43 60.61 61.19 61.55 61.13 61.69 61.17 61.58 61.58 61.68 63.50 63.30 61.40 61.64 63.15 63.30 64.41 64.56 64.53 64.71 62.23 63.30 64.74 64.60 64.49 65.27 66.40
47.18 45.74 45.56 47.80 48.90 47.94 48.26 47.46 50.31 50.84 50.89 51.47 51.37 50.72 51.41 52.72 53.98 56.35 58.30 59.08 59.95 59.60 59.97 61.64 60.31 60.77 59.47 60.70 62.25 59.87 62.31 62.43 62.27 62.45 63.09 63.12 61.97 63.08 63.71 63.55 63.31 64.26 63.45 63.72 64.72 64.97 64.31 64.73 66.13
46.69 45.92 45.70 46.12 47.15 47.78 46.45 45.60 48.05 51.21 50.02 50.73 52.01 52.66 52.47 52.68 53.56 55.81 57.09 58.49 59.50 58.96 58.88 60.76 61.24 60.75 59.91 60.97 62.66 63.27 63.71 62.71 61.60 61.57 60.91 61.27 62.01 62.60 63.81 63.77 64.45 64.40 65.04 64.63 65.20 66.00 64.87 61.87 64.83
45.13 48.73 47.84 46.35 44.91 41.90 46.50 39.66 46.29 49.56 49.76 50.11 51.13 50.86 51.52 52.64 54.51 56.11 57.02 57.55 59.13 59.41 59.44 59.47 60.57 61.00 60.41 62.20 63.47 63.02 61.95 60.66 61.68 62.27 63.05 63.54 62.63 62.63 62.62 62.72 62.64 62.56 64.28 65.09 65.22 66.71 64.39 62.96 61.54
47.33 49.38 47.86 46.67 45.47 43.18 43.47 40.70 44.87 46.85 47.92 50.98 53.26 51.39 51.80 52.90 54.08 55.20 56.31 57.19 59.27 60.05 60.82 61.76 61.25 61.57 61.55 63.00 63.55 61.98 61.74 62.13 63.37 63.73 62.85 64.38 63.67 64.81 64.08 62.98 64.36 63.26 62.88 63.49 65.13 64.11 63.05 64.36 63.55
50.92 47.38 45.34 44.59 43.80 39.03 43.74 42.18 43.04 46.09 48.82 51.28 53.09 52.55 51.45 52.49 53.84 55.91 57.18 57.38 58.56 60.34 60.48 61.48 62.42 61.03 61.69 62.67 62.94 62.21 61.03 61.55 61.91 61.86 61.77 62.29 62.41 64.45 65.21 64.69 64.65 63.50 64.35 63.85 65.26 66.12 66.12 65.52 65.30
48.90 46.29 40.13 38.43 38.89 37.81 42.22 40.86 44.69 50.15 51.40 51.66 52.52 52.87 51.84 52.63 53.46 55.34 55.58 55.36 57.29 59.08 60.32 60.94 61.39 60.28 60.99 61.71 63.10 62.48 61.11 61.64 59.90 59.86 61.03 61.18 62.04 62.12 62.91 63.40 63.12 62.33 63.53 64.04 63.89 63.04 65.97 65.51 63.77
46.99 47.17 40.70 33.56 35.57 39.16 41.76 39.83 44.53 52.09 52.88 54.03 54.20 53.96 52.15 52.09 53.89 55.39 55.91 56.26 57.00 58.27 60.38 60.64 60.16 60.09 59.90 61.07 62.54 61.88 61.47 60.88 59.76 63.56 60.92 62.52 62.11 62.17 62.11 62.95 63.38 63.13 62.47 64.40 65.91 66.65 66.12 66.03 64.77
44.87 43.28 48.05 43.22 40.87 39.24 42.30 45.10 49.78 52.41 52.82 53.31 52.03 51.02 50.69 52.04 53.58 55.17 56.13 56.75 57.42 58.53 60.19 61.24 61.21 60.38 59.87 60.23 61.88 61.45 61.15 61.01 60.35 61.20 62.41 63.79 62.97 63.16 63.61 61.47 62.92 65.14 64.66 63.51 63.17 64.93 64.51 62.01 61.40
48.34 48.78 42.05 42.52 35.55 34.45 39.70 41.26 43.67 48.91 50.88 52.86 51.49 50.96 50.99 52.52 53.81 55.22 56.21 56.72 57.77 59.33 59.66 61.46 62.44 60.51 59.66 59.78 61.27 60.83 60.21 60.10 60.82 61.40 62.58 62.84 62.33 61.24 60.37 59.42 59.93 63.42 64.56 62.61 63.17 64.07 64.76 62.37 64.14
45.47 44.79 44.90 44.64 42.65 38.07 36.81 41.20 51.10 51.63 53.66 54.86 54.38 52.84 51.80 52.41 53.64 55.13 56.34 57.07 57.79 58.94 58.71 60.17 61.99 60.06 59.97 59.99 60.41 60.55 59.86 59.81 60.57 60.42 61.33 61.85 61.90 61.01 59.70 59.78 59.80 60.54 62.54 61.80 61.76 63.25 64.18 63.84 63.86
49.60 47.12 47.36 41.72 40.33 42.40 41.77 41.99 52.36 54.03 55.48 56.11 54.80 52.92 53.04 53.73 54.38 55.37 56.47 56.94 57.04 57.65 58.31 59.51 61.87 60.08 60.18 59.57 59.89 60.03 59.67 59.75 60.42 59.93 60.84 62.08 62.10 62.32 62.01 61.80 61.59 60.53 60.75 60.93 59.92 61.77 63.24 63.61 63.25

GFSSGP_sfc_wetblb_009.txt.gz
Wetbulb
67.82 65.97 70.69 68.63 59.61 57.56 54.11 55.36 57.75 55.66 55.96 58.17 58.12 56.49 54.52 54.93 52.08 49.75 63.45 64.71 64.86 65.50 68.94 71.63 74.30 73.63 73.14 73.16 72.86 73.09 72.84 72.04 71.32 69.89 68.71 68.19 67.86 67.76 67.13 66.86 66.52 66.92 68.06 69.03 70.06 69.87 69.53 70.17 70.39
68.28 69.89 69.30 64.93 56.21 52.59 52.86 57.16 54.96 56.88 58.04 58.17 57.15 56.00 54.58 53.36 56.36 56.85 60.25 65.47 65.32 65.70 68.10 67.93 73.52 74.32 73.92 73.72 73.52 73.35 72.35 71.91 70.96 70.18 69.35 68.81 68.46 68.21 67.98 67.53 67.12 66.94 67.75 68.39 69.60 69.95 70.12 69.71 70.41
70.71 69.42 63.48 60.72 57.20 53.28 52.72 56.13 56.71 57.73 57.66 57.30 56.07 57.03 55.61 56.12 57.82 58.09 64.26 65.72 65.45 65.67 66.51 68.81 74.25 74.22 73.72 73.61 73.70 73.45 72.42 71.67 70.95 70.25 70.37 69.25 69.02 68.78 68.34 68.28 67.58 67.40 67.47 68.39 69.03 69.56 69.58 69.79 70.20
67.17 66.20 63.82 55.70 53.75 55.92 55.75 56.83 57.85 57.20 57.43 57.85 56.85 54.17 58.00 61.05 59.64 61.18 64.23 63.89 63.42 63.37 64.03 69.16 69.83 69.55 70.94 72.85 72.95 72.35 71.34 70.85 69.40 68.55 69.42 69.03 68.48 69.13 68.38 67.98 68.13 67.54 67.51 68.05 68.73 69.18 68.99 69.50 69.97
66.71 63.07 57.08 55.24 55.34 57.05 57.90 58.63 58.08 55.66 56.35 56.09 56.11 54.33 56.09 61.15 62.79 63.10 63.17 63.11 62.39 62.93 63.74 65.31 69.57 68.84 69.72 71.05 70.92 70.47 69.34 69.14 68.64 68.42 68.23 68.28 68.28 68.30 67.81 67.67 67.92 67.86 67.56 67.02 67.91 68.27 68.75 68.84 69.83
60.72 61.16 54.11 52.75 53.74 56.93 58.50 58.36 56.98 56.17 56.40 56.37 54.85 54.98 56.32 62.99 62.19 62.55 62.83 63.12 63.38 63.29 65.30 65.68 68.59 69.12 68.36 66.74 65.77 65.79 66.06 66.18 66.13 66.44 66.81 66.81 66.78 66.70 66.68 67.16 67.49 67.69 67.41 67.18 67.32 67.31 67.73 68.38 68.55
58.90 57.04 54.50 54.72 54.37 55.09 56.91 59.18 56.24 55.92 56.04 55.67 57.07 53.84 57.78 60.17 61.96 63.31 62.86 63.39 63.65 63.99 63.35 64.32 64.77 67.67 66.59 66.27 64.20 62.98 63.83 64.26 64.65 65.06 65.15 65.37 65.56 66.13 66.35 66.75 67.45 67.35 67.38 67.06 66.91 66.84 66.95 67.78 68.17
59.95 58.18 54.77 55.20 53.71 54.22 58.17 58.16 59.09 56.27 55.84 58.53 58.06 53.49 54.75 60.86 63.04 63.06 62.52 61.67 62.07 62.78 62.85 63.94 64.46 63.50 64.91 65.76 66.14 63.63 63.75 64.25 64.22 64.51 64.57 64.53 65.12 65.77 66.28 66.19 66.69 66.90 67.10 66.74 66.35 66.79 66.54 67.28 67.79
62.18 54.89 52.63 53.76 53.26 55.35 58.23 57.27 59.38 59.23 57.38 57.38 57.35 57.43 59.13 61.49 61.96 61.14 61.03 60.55 61.27 62.27 63.00 63.82 63.10 64.86 65.81 66.10 66.33 64.36 65.77 65.31 64.70 64.62 64.25 64.32 64.39 65.56 65.95 66.46 66.57 66.76 66.84 66.54 66.35 66.66 66.63 67.08 67.39
57.90 54.17 53.65 56.21 56.45 55.90 57.05 57.44 58.07 57.26 56.95 56.33 56.70 58.60 59.14 60.17 60.30 59.60 59.70 59.67 60.38 61.07 62.48 62.60 63.45 65.94 66.40 65.56 66.16 66.41 65.72 65.62 65.24 64.60 64.09 64.12 64.49 64.91 65.14 64.38 64.79 65.82 66.43 66.28 65.96 66.02 66.49 66.85 67.73
57.97 54.47 56.47 55.84 56.50 57.26 56.87 56.38 58.39 56.33 54.96 57.04 55.63 57.00 59.16 59.44 60.00 59.63 59.24 59.79 60.97 62.40 62.61 62.20 64.82 66.45 66.44 65.97 65.46 65.08 65.48 64.47 64.47 64.14 64.01 64.05 63.15 64.55 66.14 65.63 64.60 65.69 65.84 65.58 65.32 65.77 65.80 65.02 66.69
55.65 57.34 56.82 55.81 56.53 57.18 56.10 57.56 56.08 56.43 56.67 58.03 57.73 57.33 58.63 58.94 59.36 59.65 59.62 59.90 60.94 61.84 61.61 64.23 65.87 66.52 67.34 66.38 65.37 65.40 64.90 64.92 64.45 64.31 65.53 64.15 63.86 65.54 64.76 64.42 64.33 65.90 65.57 66.43 66.89 65.35 66.08 66.49 68.21
55.93 56.08 56.77 56.65 56.89 57.63 57.66 55.86 56.04 56.01 57.53 57.79 57.69 57.66 57.85 58.78 59.43 60.77 60.78 61.34 62.18 61.46 61.96 64.96 66.29 67.01 67.19 66.25 65.47 65.37 64.72 63.89 65.27 64.89 65.20 64.88 64.94 65.09 63.75 64.03 64.42 64.79 64.79 65.61 67.00 65.74 66.13 66.92 67.26
57.10 56.99 56.36 56.95 56.70 57.49 55.21 55.85 55.01 56.74 57.28 56.11 57.58 57.75 57.40 57.55 59.61 60.85 60.97 61.46 61.79 61.17 63.37 65.14 65.99 66.94 66.71 65.73 66.50 65.65 66.55 65.25 65.46 65.30 64.54 65.23 65.00 65.20 64.15 65.27 64.19 65.17 65.96 64.33 67.21 66.38 65.89 65.90 67.69
57.33 54.26 55.43 56.07 56.01 55.79 56.84 53.16 54.14 56.91 57.78 56.60 56.28 57.05 57.96 59.03 59.94 60.29 61.60 62.20 62.05 61.53 64.45 64.90 65.60 65.60 65.98 66.72 66.53 66.78 66.88 67.72 65.73 65.99 65.96 65.38 66.30 66.19 65.56 65.35 65.50 66.68 67.79 67.26 67.84 64.72 66.54 66.45 66.93
54.46 54.79 51.16 55.40 56.01 56.08 54.66 50.07 56.11 57.91 57.40 56.68 56.94 57.72 58.13 59.11 59.85 60.65 61.75 62.98 62.63 62.34 62.49 64.32 65.18 65.44 66.28 66.88 66.62 66.40 67.04 66.86 67.00 65.47 64.81 65.36 65.81 65.93 65.97 65.22 65.67 66.40 67.16 65.46 64.44 64.70 64.65 65.68 65.41
53.43 49.26 50.95 52.18 56.39 55.24 53.97 51.39 55.94 57.64 57.22 56.53 57.05 57.66 58.06 58.47 60.03 61.25 62.07 63.28 62.62 62.21 63.04 62.91 65.02 65.21 65.99 66.93 66.90 67.19 67.45 67.82 67.40 65.64 64.33 64.48 66.06 65.72 66.67 66.72 65.94 66.64 67.76 65.20 64.51 64.79 65.72 65.98 64.34
49.65 50.65 51.65 51.07 54.59 55.20 53.27 52.75 55.83 57.33 57.00 56.64 57.03 57.90 58.40 58.38 59.44 61.19 62.49 63.29 62.52 62.63 64.38 63.74 65.18 66.26 66.30 66.31 65.76 67.89 66.81 67.05 67.32 64.75 62.36 63.15 65.71 65.62 66.76 67.30 66.63 66.83 66.60 65.27 65.48 66.19 66.41 64.79 63.62
52.89 51.97 50.83 53.16 54.96 53.82 53.25 53.20 55.04 57.20 56.86 56.41 56.73 57.29 58.53 59.07 60.48 61.50 62.65 63.18 62.28 62.31 64.25 63.85 63.36 65.66 65.03 64.72 64.56 67.13 66.64 65.02 65.89 65.89 63.83 64.12 64.99 65.39 66.11 67.29 66.89 67.13 66.04 65.88 66.93 65.74 65.94 64.78 64.94
53.00 51.44 50.91 53.16 55.00 54.35 53.42 52.60 54.97 55.32 55.39 56.58 56.56 57.22 58.41 59.50 59.54 60.50 62.32 62.75 62.19 62.45 63.38 63.41 63.65 64.87 65.66 66.49 66.45 65.98 66.35 65.71 64.70 65.85 65.72 64.86 64.87 65.10 65.63 66.26 65.19 65.77 64.94 66.01 66.21 67.04 62.90 62.82 66.03
52.25 50.97 50.96 50.84 53.63 54.70 52.88 50.76 52.35 55.07 56.14 56.50 56.85 57.96 59.38 59.67 59.37 60.16 61.44 62.17 62.27 61.36 63.28 63.52 63.73 64.98 66.79 67.46 67.91 67.19 67.58 66.80 66.28 65.47 64.86 65.04 64.82 65.51 65.83 65.73 65.56 65.37 65.83 65.32 67.40 66.35 65.63 63.27 66.45
49.77 53.43 52.27 51.23 50.40 46.70 52.75 44.53 50.90 53.33 53.40 54.88 56.09 57.38 58.53 59.71 60.33 60.69 61.38 61.89 61.66 61.33 63.85 63.94 64.75 65.52 66.73 67.35 66.27 65.90 65.35 64.89 66.76 65.79 66.33 65.71 65.63 65.29 65.56 65.87 65.66 66.27 65.55 66.81 66.61 68.46 67.10 66.42 63.17
51.29 53.90 52.23 51.90 50.06 49.53 49.18 46.82 49.79 53.16 51.32 52.62 54.76 56.70 58.87 60.20 60.30 60.38 61.11 61.97 61.49 61.38 63.24 64.68 65.35 65.94 66.37 66.92 66.63 66.32 66.22 66.11 66.70 66.38 65.09 65.87 65.87 65.34 65.10 65.68 65.93 66.54 68.19 68.56 67.00 67.43 66.74 68.88 64.39
54.62 52.29 51.64 51.60 50.09 43.90 47.94 47.45 47.78 49.93 50.89 52.23 54.50 56.45 59.41 59.90 60.18 60.85 61.96 62.11 61.09 61.41 63.23 64.22 64.93 64.72 65.86 66.41 66.07 66.04 65.35 64.86 65.32 62.98 64.51 64.10 65.55 65.28 65.69 65.59 66.12 67.09 67.32 67.39 68.36 67.78 67.93 67.53 67.44
52.44 49.97 43.87 42.45 43.39 42.26 49.76 47.20 49.02 52.45 52.60 53.40 54.33 56.74 59.69 60.03 60.02 60.44 60.83 60.36 60.68 60.77 62.25 63.73 63.93 63.37 63.88 65.46 65.06 65.91 66.02 65.48 65.15 64.98 62.81 62.87 64.86 62.83 65.41 66.39 66.40 67.33 67.27 67.68 67.66 68.75 67.75 67.45 66.21
50.42 49.76 44.68 38.70 41.31 44.59 49.70 44.70 49.49 53.53 54.10 55.22 56.22 58.87 60.57 59.78 60.12 60.40 60.96 60.76 60.16 61.12 61.73 62.91 63.13 62.86 63.61 64.24 64.77 65.49 66.12 65.84 65.07 63.76 64.07 63.36 63.61 65.45 66.14 66.21 66.36 66.30 67.05 67.54 68.20 68.11 68.37 68.40 65.79
50.27 47.45 51.92 47.42 48.16 44.96 47.32 50.18 52.93 52.87 53.66 55.81 56.89 58.76 59.96 59.83 59.85 60.46 60.82 61.28 60.23 61.04 61.99 63.00 63.05 62.92 63.21 63.65 64.90 64.79 65.43 65.97 66.72 66.64 66.43 64.51 66.33 65.53 66.13 65.83 66.35 66.50 66.45 66.99 67.75 67.76 66.38 67.13 66.20
52.18 53.20 46.90 47.93 40.86 39.76 45.24 46.72 48.39 50.91 52.23 56.74 57.71 58.73 59.39 59.66 59.70 60.30 60.76 61.49 60.17 61.25 62.90 63.60 63.36 62.25 62.89 63.20 63.79 63.94 64.56 65.72 65.97 65.58 65.25 65.75 64.32 66.30 64.81 65.76 64.89 65.52 66.50 66.99 67.90 67.40 66.10 64.16 64.99
49.34 48.69 50.15 50.44 48.01 42.93 41.88 45.83 53.62 52.76 54.09 55.34 58.42 59.74 59.06 59.11 59.35 60.09 60.86 61.50 59.90 60.88 62.19 63.24 63.27 61.38 61.95 62.58 63.22 63.17 63.61 64.71 65.29 65.27 65.61 64.22 65.94 63.92 65.41 65.46 65.83 65.19 64.99 66.52 67.07 66.15 65.31 63.92 63.43
52.44 50.01 51.16 45.93 45.00 47.68 47.16 47.41 54.94 55.04 55.03 57.37 58.68 59.97 59.47 59.66 59.86 60.56 61.06 61.15 59.41 60.32 61.65 62.48 63.23 61.11 61.24 61.97 62.55 62.35 63.18 64.03 64.70 65.04 65.67 65.90 65.18 63.97 62.84 64.62 65.29 64.99 65.20 64.79 65.76 65.16 64.06 62.86 62.87

GFSSGP_sfc_wetblb_012.txt.gz
Wetbulb
67.58 64.89 64.32 65.38 57.64 57.58 53.29 53.96 58.48 55.65 55.39 57.80 58.02 55.86 54.31 54.41 51.60 49.47 64.54 64.63 63.93 69.65 72.30 72.31 74.34 74.11 73.48 73.28 73.06 72.88 72.99 72.79 72.19 71.27 70.45 69.57 68.42 68.26 68.01 67.68 67.31 66.65 66.63 67.30 68.24 69.82 70.37 69.77 69.88
63.46 64.11 67.47 63.48 55.99 52.63 52.89 57.14 55.15 56.09 57.31 58.04 57.44 56.27 54.61 53.16 56.08 57.23 60.95 65.05 64.48 67.19 71.47 71.91 74.06 73.94 73.98 73.81 73.66 73.46 73.41 72.74 71.87 71.35 70.49 69.40 69.14 68.63 68.63 68.26 68.24 67.62 67.39 67.51 67.70 69.43 69.91 70.36 69.80
67.91 69.16 62.23 58.53 56.21 52.50 52.48 56.65 55.93 57.22 57.98 56.80 56.20 57.52 55.81 55.40 57.67 58.17 64.36 65.36 65.40 67.98 68.79 72.23 73.96 74.19 74.36 73.96 73.84 73.91 73.22 72.42 71.56 71.12 70.59 70.65 69.62 69.47 69.10 68.74 68.69 68.70 68.18 67.90 67.89 68.21 69.24 69.82 70.24
67.66 65.06 62.51 55.46 52.94 55.48 56.45 57.34 57.70 56.83 57.22 57.84 57.02 54.10 58.19 60.17 59.29 60.92 63.49 63.25 62.97 63.23 68.52 72.48 73.98 73.61 72.83 72.41 72.84 72.94 72.27 71.52 70.91 69.60 69.21 69.58 68.91 69.46 69.45 68.08 68.44 68.49 68.61 68.19 67.62 68.62 68.89 69.41 69.54
66.32 61.97 55.54 54.63 54.28 56.35 58.75 59.45 58.23 55.48 55.60 56.31 56.25 53.53 56.46 59.85 61.61 62.40 62.98 62.93 62.95 65.68 66.29 68.05 71.03 69.90 69.93 69.95 70.41 70.04 68.47 68.08 68.49 68.61 68.35 68.22 68.35 68.31 68.33 68.08 68.18 68.21 68.29 68.48 67.57 67.96 68.73 68.80 68.89
59.53 60.07 53.01 51.17 53.33 56.66 58.45 59.45 57.41 55.97 56.08 56.21 55.18 54.86 57.37 61.64 61.22 61.63 62.26 63.64 63.44 65.02 67.38 68.40 69.74 70.38 69.81 70.13 69.69 67.79 65.80 65.32 65.90 66.11 66.43 66.67 67.14 67.11 66.89 66.94 66.94 67.37 67.76 68.28 68.00 67.54 68.27 68.83 68.81
57.97 56.51 53.18 53.43 53.01 54.59 56.65 60.31 57.39 56.71 55.17 55.12 57.04 53.55 58.53 60.37 61.77 63.42 63.63 64.56 65.62 65.45 65.76 66.71 67.02 68.80 69.69 69.26 67.55 65.51 64.45 64.04 64.57 64.73 65.14 65.38 65.55 65.81 65.93 66.41 66.83 67.07 67.93 67.85 67.85 67.96 68.23 68.24 68.74
59.78 57.05 52.99 53.67 53.08 53.31 58.06 58.66 59.57 58.29 55.65 59.05 58.10 53.63 54.98 60.72 62.80 62.98 62.26 62.05 62.29 63.04 62.68 66.43 67.13 66.18 67.66 67.12 67.26 65.84 64.99 65.12 64.68 65.00 65.07 64.95 64.78 65.02 65.41 66.15 66.56 66.99 67.51 67.52 67.43 67.45 67.95 67.90 68.18
61.62 53.80 51.53 52.96 53.07 53.85 57.48 56.51 59.53 60.55 57.66 58.06 58.22 57.08 59.43 61.87 61.87 60.68 61.30 60.36 60.82 62.09 65.49 66.19 64.04 66.05 66.91 66.98 67.20 66.71 66.45 65.96 65.69 65.77 65.04 64.39 63.75 64.07 64.75 65.77 66.64 66.97 67.05 67.14 67.16 67.39 67.91 67.62 67.94
56.81 53.39 53.25 56.81 56.46 54.46 56.13 56.10 57.18 56.41 57.02 57.17 57.28 58.61 59.78 60.36 59.78 58.77 59.04 59.48 60.92 63.01 63.83 64.91 65.37 66.64 67.63 65.59 67.64 67.54 66.92 66.94 66.72 65.38 65.24 64.32 64.00 64.13 64.06 64.91 65.25 65.95 66.59 66.87 66.95 66.75 66.91 66.19 64.54
57.28 53.52 56.10 57.05 58.04 56.95 55.41 55.55 57.46 55.86 54.45 56.62 55.78 57.31 58.62 58.52 60.13 59.62 58.67 61.17 61.18 63.41 63.98 64.11 66.88 68.26 67.92 66.45 66.48 65.47 65.90 66.34 66.00 65.53 65.59 65.31 63.66 63.38 63.80 64.70 64.51 65.09 65.62 65.05 65.42 64.83 64.45 64.43 63.37
54.86 57.10 57.40 57.52 57.98 56.13 54.38 56.47 55.95 56.07 56.30 58.52 58.04 58.09 58.95 59.16 59.02 58.38 59.46 63.82 61.57 63.40 64.88 66.28 68.14 67.92 69.02 67.71 65.63 65.31 65.84 65.77 64.50 65.15 66.08 64.57 63.51 64.38 64.48 64.36 64.09 64.47 64.76 63.98 64.85 63.82 63.99 63.87 64.19
56.18 57.00 57.43 57.94 57.38 56.47 56.30 55.27 55.89 55.68 58.12 58.48 57.84 57.79 57.91 59.49 60.13 62.80 63.81 64.48 63.52 64.39 63.85 66.70 67.68 69.14 69.66 68.66 66.92 67.09 66.48 65.04 65.61 65.02 63.85 64.70 64.39 63.98 64.12 64.22 63.96 63.92 63.74 63.77 63.64 63.94 64.68 62.60 65.17
57.31 57.09 56.44 56.98 56.64 56.62 54.65 55.05 56.02 56.76 58.50 56.95 56.93 56.85 57.67 58.34 60.01 61.72 62.93 63.53 64.53 64.58 65.77 67.04 68.03 69.26 68.94 67.72 67.75 67.02 67.20 65.42 65.84 64.98 62.83 65.34 64.47 64.16 64.38 64.36 63.90 63.60 63.37 64.89 63.92 64.16 64.07 64.72 65.45
56.64 53.59 54.67 55.61 56.29 54.91 56.41 53.22 53.87 57.11 58.00 57.04 57.24 57.72 58.32 59.12 59.10 60.23 62.68 64.19 65.24 64.74 66.80 67.21 67.24 67.96 68.42 68.15 67.59 66.89 66.69 66.83 65.53 66.36 64.75 65.38 65.25 64.82 65.69 64.28 64.03 63.72 63.64 64.18 64.16 64.16 64.58 64.25 65.88
52.87 53.11 49.29 54.02 55.59 55.93 55.42 49.59 55.10 57.60 57.44 57.07 57.19 57.43 58.08 59.62 60.08 61.94 63.20 64.52 65.92 65.54 66.71 67.24 65.44 66.68 68.77 68.44 68.01 67.33 68.06 67.53 66.89 66.89 65.00 64.56 65.05 65.56 65.26 63.82 64.04 64.33 64.37 62.73 63.69 63.49 63.50 63.87 64.76
51.41 47.52 48.81 51.37 55.85 54.97 54.31 51.24 55.21 57.42 57.52 57.33 57.95 58.26 58.19 59.45 61.52 63.57 63.03 64.37 65.44 65.79 66.61 66.32 67.36 66.68 67.98 67.69 65.14 67.70 67.77 67.73 67.68 67.36 64.86 63.78 64.25 65.79 65.53 63.64 64.67 64.91 63.34 63.23 63.73 62.81 62.53 63.60 63.54
47.01 47.83 49.36 49.85 53.77 54.46 53.00 52.61 55.14 56.98 56.68 58.01 58.42 58.53 58.93 59.42 60.41 62.28 63.17 64.40 65.01 65.61 66.82 67.56 67.19 68.29 68.21 67.23 67.71 68.29 67.90 67.14 67.65 66.04 63.74 63.59 63.62 65.23 65.94 64.47 64.22 64.98 63.38 62.51 62.91 62.32 63.66 63.33 63.44
50.67 49.88 49.58 52.96 54.87 53.20 52.90 53.97 54.76 56.73 56.79 57.00 58.01 58.72 60.00 60.25 61.52 62.49 62.98 64.22 64.20 65.39 65.93 67.32 67.48 68.39 67.62 66.58 65.80 66.55 66.80 66.71 67.16 66.78 65.11 63.98 64.50 64.41 65.57 64.89 63.05 64.82 63.50 62.17 62.95 62.89 62.30 62.51 63.61
50.06 49.30 49.57 52.40 54.15 53.08 52.59 52.35 54.97 55.93 56.76 57.00 56.89 58.22 59.56 60.62 60.17 61.25 62.41 63.81 63.70 64.18 65.37 67.04 67.14 68.19 68.10 67.54 67.61 67.27 66.58 66.45 66.30 66.49 65.64 65.35 63.81 64.96 65.82 64.34 63.50 64.43 63.88 63.88 63.37 63.28 61.71 62.31 62.48
50.01 49.48 50.11 50.03 52.73 53.53 52.32 51.06 52.98 55.32 56.77 57.15 58.08 59.08 60.31 60.57 59.60 60.53 61.43 62.77 63.19 63.64 64.50 65.95 67.05 68.38 69.06 68.81 68.30 67.42 66.69 65.78 64.57 65.16 63.56 64.11 65.33 65.21 65.45 65.33 64.38 64.01 65.20 64.25 62.82 63.59 62.10 61.28 62.19
47.90 52.39 51.83 51.22 49.51 45.50 52.19 44.30 51.67 53.34 54.28 55.30 55.76 57.85 58.47 60.54 60.81 60.82 61.30 62.24 63.05 62.76 64.70 66.09 67.44 68.54 68.52 68.47 67.00 66.09 64.45 63.66 64.61 62.72 65.13 63.90 64.97 65.21 65.27 65.37 64.64 64.62 64.86 64.05 64.05 63.54 62.01 61.12 60.49
50.31 53.36 52.17 51.77 49.79 49.00 48.37 45.52 48.71 53.38 52.37 53.77 54.59 56.48 59.09 60.58 60.66 60.30 61.38 62.29 62.81 63.15 64.36 66.06 67.37 68.33 68.84 68.76 67.95 66.13 64.91 65.51 66.11 64.84 63.76 63.25 62.78 65.28 65.27 65.00 65.36 64.72 64.69 64.60 64.84 63.44 62.99 62.02 61.95
53.80 52.08 52.04 51.31 49.03 43.70 47.53 46.67 46.88 49.77 51.39 52.54 53.88 56.52 58.97 59.98 60.74 61.14 62.34 62.79 62.25 62.21 63.87 65.82 66.73 67.73 68.72 68.53 67.82 65.41 64.69 64.33 64.28 63.09 63.32 63.97 64.57 64.67 65.29 65.11 65.81 65.92 64.65 65.52 66.31 64.89 63.76 63.50 63.93
52.29 50.87 43.58 41.92 41.60 41.03 48.50 46.50 48.81 53.83 53.65 52.89 53.57 56.58 59.82 60.48 60.29 60.51 60.87 60.87 61.04 60.99 63.42 64.56 65.36 65.38 67.04 67.02 67.08 66.22 65.52 65.37 64.25 63.12 62.26 63.49 63.01 63.85 64.36 65.11 65.93 66.58 66.30 66.40 66.44 65.42 64.47 63.52 64.17
51.11 50.70 44.42 37.79 39.26 42.10 49.63 44.50 48.73 53.99 55.09 55.17 55.31 58.25 60.48 60.15 60.55 60.55 61.12 61.04 60.52 61.14 62.74 63.92 64.29 64.20 65.93 65.94 66.76 66.82 65.81 66.11 63.67 63.68 63.99 63.83 63.72 64.40 64.87 65.53 64.07 65.64 66.21 66.09 65.84 64.40 64.98 65.33 64.47
50.74 47.67 51.40 46.18 46.93 43.69 46.38 50.24 53.74 54.37 53.23 53.96 55.56 58.92 60.41 60.51 60.41 60.68 61.20 61.23 61.04 61.46 62.78 64.81 64.81 64.50 65.32 65.34 66.84 66.80 66.46 65.50 65.75 65.66 66.22 64.26 65.11 64.96 64.67 64.78 65.11 65.59 65.56 65.17 64.96 64.31 64.11 64.90 64.13
52.87 53.08 46.05 46.76 39.55 38.48 43.95 46.31 46.99 50.69 51.86 54.89 57.27 58.77 60.43 60.63 60.17 60.61 60.89 61.58 61.03 62.11 63.40 65.27 65.01 64.00 64.77 65.48 66.17 65.50 66.76 65.67 65.95 66.52 65.85 64.36 64.58 64.16 62.82 63.24 64.16 65.33 64.93 64.88 65.49 64.82 64.94 64.09 62.54
50.04 49.12 49.58 49.52 46.69 41.70 40.59 44.72 54.50 53.64 55.17 57.36 58.11 59.81 59.95 59.46 59.27 60.27 60.67 61.80 60.73 61.71 62.00 64.17 64.11 63.30 63.71 64.81 65.03 65.90 65.61 65.83 65.33 64.96 64.65 63.88 63.72 64.41 64.31 63.28 63.52 64.87 65.29 64.91 65.07 63.74 63.52 63.38 62.46
52.72 50.45 51.02 45.41 44.92 46.95 46.48 45.62 56.35 56.69 55.97 57.07 58.58 59.56 59.36 59.78 59.92 60.01 60.50 61.16 59.35 60.35 61.77 62.83 64.18 61.87 62.83 63.42 63.73 64.82 65.62 65.78 65.58 64.64 65.57 64.40 62.15 64.33 64.32 64.66 64.08 64.51 64.14 65.22 63.66 62.97 63.46 62.20 61.47

GFSSGP_sfc_wetblb_015.txt.gz
Wetbulb
68.16 66.70 61.53 59.09 50.58 50.87 47.64 52.01 54.88 53.28 51.08 53.07 54.28 52.77 49.53 50.11 49.20 47.18 58.47 62.58 69.24 67.90 69.87 72.67 74.22 74.12 73.55 73.50 73.25 73.05 72.86 72.58 71.56 71.48 71.11 69.85 68.93 68.51 68.37 67.99 67.35 66.95 66.83 67.02 67.18 67.52 69.26 70.54 69.54
63.23 61.50 58.35 58.98 49.79 45.41 47.96 55.19 54.90 51.65 53.52 54.41 54.38 53.26 51.23 50.60 56.11 57.43 57.88 62.42 69.26 69.06 69.79 71.03 74.20 74.10 74.10 73.70 73.50 73.18 73.05 72.78 72.04 71.56 71.25 70.24 69.27 68.98 68.84 68.67 68.43 68.42 68.27 67.83 67.81 67.42 68.68 69.84 70.44
63.74 63.13 56.78 53.00 49.24 46.56 49.99 54.92 56.22 54.69 54.24 53.70 52.57 54.97 55.04 52.77 56.94 59.17 60.72 61.94 66.88 68.14 68.56 70.04 74.10 73.95 74.17 73.90 73.57 73.60 73.50 72.95 71.79 71.15 70.65 70.50 70.25 70.19 69.70 69.14 69.18 68.81 68.80 68.76 68.18 67.98 67.71 69.13 69.67
62.09 62.16 58.75 49.06 47.11 52.60 52.49 55.19 56.98 53.56 53.74 54.64 54.18 52.43 56.19 59.09 57.82 60.42 62.23 62.15 61.21 63.36 69.19 72.60 73.82 74.00 74.19 73.65 73.67 73.52 72.91 71.89 71.19 70.29 70.19 69.05 68.69 69.97 69.59 68.62 68.56 68.62 68.83 68.79 68.81 68.04 67.96 68.33 69.44
62.48 58.05 49.57 47.88 50.18 54.40 54.55 57.36 57.46 52.36 52.81 53.01 53.43 52.85 53.15 58.13 60.58 60.62 60.48 60.21 59.81 63.97 68.38 71.15 73.72 73.40 72.38 71.34 71.53 71.67 70.19 69.07 68.34 68.43 68.61 68.44 68.35 68.31 68.43 68.43 68.55 68.41 68.37 68.55 68.62 68.48 68.43 68.88 68.83
55.50 54.44 45.40 45.25 49.95 54.16 55.35 55.97 57.08 54.25 54.09 52.39 52.50 53.83 53.35 57.88 58.92 58.97 60.08 58.49 60.31 62.71 64.14 66.49 71.15 71.37 71.49 71.64 71.64 70.73 69.34 67.64 66.83 66.53 66.31 66.41 66.83 67.24 67.51 67.48 67.40 67.64 67.59 67.73 68.18 68.37 68.93 68.82 68.16
53.13 49.85 46.83 48.66 50.19 51.74 54.97 57.56 56.26 56.30 53.25 51.80 54.06 51.77 54.03 56.46 58.19 58.66 58.78 59.00 59.21 61.09 63.44 63.82 65.56 68.66 71.59 71.23 70.93 69.14 67.22 65.86 65.55 65.08 65.07 65.20 65.54 65.85 66.07 66.33 66.56 66.82 67.04 67.23 68.05 68.37 68.32 68.60 68.24
56.19 51.45 48.51 50.18 48.84 49.70 54.88 57.40 57.73 55.89 54.35 57.09 56.92 51.62 51.40 56.19 59.08 58.61 58.12 57.94 57.50 58.49 58.55 59.00 62.59 64.07 64.11 65.17 69.20 67.46 66.34 66.50 66.27 65.68 65.49 65.44 65.39 65.06 65.44 65.54 65.88 66.49 66.90 67.30 68.18 67.80 67.51 68.22 68.15
60.06 49.36 47.47 49.01 50.09 51.80 54.64 52.20 55.68 57.68 55.61 56.48 56.39 55.14 58.30 59.51 58.86 56.97 55.24 54.75 55.05 58.00 56.43 57.09 58.50 59.95 61.10 62.07 64.18 67.77 67.57 67.12 66.43 65.90 66.06 64.05 61.11 61.01 62.74 64.33 66.01 66.84 67.08 67.00 67.34 67.59 67.41 68.07 67.71
55.08 48.22 50.24 54.07 54.39 52.86 53.79 52.35 53.42 54.59 54.53 55.54 56.31 57.55 59.53 59.18 56.81 55.46 54.23 54.36 54.84 57.24 58.13 58.31 59.68 60.55 61.74 64.07 61.92 62.35 62.62 62.79 62.50 62.24 60.88 59.90 60.07 60.06 62.47 64.06 65.52 66.17 66.79 67.22 67.15 67.25 67.11 66.51 62.50
55.08 50.24 53.82 54.81 55.82 55.65 54.78 52.39 54.12 53.43 51.74 55.08 53.56 55.18 56.78 56.85 55.37 54.48 54.36 53.85 55.80 56.84 57.92 58.88 59.58 61.62 61.23 61.21 61.52 60.94 60.79 60.87 60.81 61.14 60.92 60.52 60.83 60.01 59.93 60.54 61.16 60.90 64.51 62.95 64.98 64.61 63.66 63.02 61.55
53.11 55.11 55.72 55.87 56.86 55.67 53.08 54.47 53.70 54.03 53.77 57.07 56.43 56.99 55.86 54.94 54.20 54.52 54.23 55.11 56.44 56.61 58.25 60.87 61.45 61.11 61.31 62.05 61.18 60.78 60.90 60.63 60.16 60.81 61.42 60.54 60.20 59.99 60.04 60.26 59.95 60.33 61.33 61.16 61.70 61.48 61.71 61.63 61.50
54.10 55.14 56.65 57.17 56.66 53.93 54.79 53.71 54.06 53.37 56.70 57.74 56.26 56.25 55.18 54.53 54.77 54.70 55.42 57.27 56.72 56.13 58.31 60.32 60.76 61.06 62.54 61.94 61.06 61.27 61.23 60.96 60.75 60.97 61.29 61.31 60.41 59.93 59.64 59.96 59.88 59.56 59.68 61.05 60.77 61.14 61.47 61.35 60.94
55.43 54.69 54.71 56.01 55.47 53.79 53.17 54.03 54.36 54.42 57.20 54.92 54.69 53.64 53.79 53.46 55.28 55.34 56.38 56.13 56.33 56.01 58.67 59.85 60.83 61.49 61.70 60.85 60.70 61.57 62.18 61.93 61.39 61.05 61.40 61.78 61.77 59.60 59.36 59.60 59.84 59.59 59.41 60.31 60.83 60.83 61.56 61.00 59.76
52.62 49.82 52.65 53.94 54.14 52.44 54.63 51.60 51.76 55.01 55.69 54.78 53.67 53.74 54.03 54.88 56.45 55.86 56.66 56.69 56.86 56.30 59.37 59.50 59.87 60.84 60.31 60.49 61.37 61.99 62.07 62.63 61.87 61.46 61.87 61.57 62.33 59.97 59.67 59.85 60.05 59.55 59.73 59.60 60.74 60.27 61.12 61.15 62.17
48.63 48.73 46.02 51.13 52.91 53.64 51.92 47.25 52.59 54.99 54.17 53.95 54.83 54.89 54.99 54.69 54.94 55.82 57.95 57.84 56.76 57.50 58.87 59.77 61.89 59.37 60.95 60.70 61.69 61.81 62.15 62.26 62.27 61.99 61.47 61.62 62.66 60.99 60.14 60.19 60.43 60.06 59.65 59.52 59.99 59.91 60.64 61.70 61.50
46.31 41.85 44.13 48.12 53.12 52.52 51.46 48.87 53.54 55.10 54.00 53.38 54.20 54.48 54.80 54.65 54.97 57.81 59.43 58.83 57.14 57.68 58.06 58.91 59.93 59.85 61.07 60.67 61.56 61.80 62.39 62.02 62.20 61.97 60.66 60.67 61.80 62.23 60.53 60.04 60.42 60.28 59.88 58.95 60.11 59.52 60.20 59.42 59.91
41.23 42.20 46.13 46.31 50.88 51.34 50.41 50.81 52.57 54.14 53.64 53.05 53.20 54.42 55.40 54.82 55.78 58.19 59.20 59.30 57.83 58.29 59.22 59.38 59.31 60.12 60.58 60.66 61.75 61.50 61.83 62.13 62.28 61.82 60.60 60.72 60.04 61.76 61.32 60.60 60.25 60.08 58.79 58.77 58.74 59.07 59.59 59.57 58.89
46.75 45.69 45.42 49.17 52.01 50.78 50.60 51.25 52.52 53.67 53.46 52.47 52.84 53.21 54.60 55.19 56.30 58.16 59.23 59.17 57.88 58.20 59.13 59.72 59.51 59.20 59.67 60.69 59.93 60.19 59.52 60.84 62.02 62.59 62.20 60.98 60.95 61.55 60.46 60.46 59.77 60.45 58.44 58.28 58.75 58.53 59.34 58.54 59.08
48.13 45.37 44.81 48.47 51.56 51.60 50.51 49.90 51.74 53.45 52.48 52.55 52.97 52.77 52.40 54.57 55.66 57.41 57.97 57.47 57.04 56.73 57.97 60.06 59.16 59.63 60.72 61.20 61.45 61.33 61.83 61.83 61.55 61.82 62.75 62.32 62.18 61.49 61.26 61.01 59.88 60.19 59.50 59.91 58.86 58.43 57.16 57.71 59.57
47.02 45.90 45.58 45.59 49.76 50.96 48.53 45.57 48.42 52.79 53.02 53.91 54.16 53.47 54.59 54.69 54.77 56.32 57.66 56.29 56.36 56.76 57.79 59.16 59.16 60.39 61.57 61.65 61.82 61.09 61.04 61.20 60.42 60.69 61.92 60.97 63.05 62.28 61.70 61.23 59.91 59.93 59.77 59.59 59.03 58.56 57.87 57.03 59.30
43.49 49.95 48.98 47.84 46.59 40.91 48.59 37.52 45.05 48.85 49.91 51.88 53.02 52.25 53.98 54.86 55.94 56.55 57.26 56.05 56.19 56.91 57.81 59.63 60.21 60.81 62.39 61.55 60.67 59.33 58.52 57.95 59.77 60.86 61.72 61.12 63.00 62.00 62.22 61.19 60.63 59.85 59.73 59.54 60.14 59.83 58.43 58.52 57.52
45.86 51.00 49.03 48.58 46.23 43.87 43.98 38.81 42.57 48.13 47.97 50.05 50.28 51.90 54.18 55.21 55.60 56.10 56.90 57.52 57.77 57.51 58.35 58.91 60.17 61.02 61.39 61.61 60.78 60.01 59.19 59.83 60.14 59.09 58.91 59.05 60.06 61.94 62.55 61.66 60.48 59.77 59.83 59.64 61.00 59.47 59.01 59.73 60.24
50.98 49.06 48.42 48.08 46.25 36.84 42.66 41.32 42.16 44.91 48.43 48.52 50.61 53.59 55.13 54.96 55.50 56.81 58.15 58.23 57.33 57.54 58.11 59.73 59.73 60.44 61.22 60.91 60.92 59.83 59.62 59.87 58.94 58.04 58.71 58.91 61.08 61.81 62.15 62.08 60.90 60.12 59.79 60.36 60.80 60.17 59.27 57.26 59.61
49.55 44.69 37.85 33.66 34.83 33.34 44.39 41.47 42.73 48.43 51.25 50.07 51.78 53.94 54.31 55.65 55.73 56.44 56.82 56.33 55.46 56.36 57.76 58.75 59.04 58.62 59.51 60.32 60.36 60.70 59.83 59.46 59.06 57.88 58.43 58.49 59.54 60.13 60.59 60.97 60.81 61.01 60.15 61.73 60.93 60.21 60.49 60.19 60.02
45.16 45.10 38.37 31.01 32.48 36.54 44.96 39.61 44.45 51.34 52.92 52.25 54.87 54.84 55.13 54.76 55.85 55.86 56.47 55.67 54.96 56.23 57.76 58.22 58.21 57.95 58.71 60.05 59.83 60.58 60.36 60.14 59.04 59.11 59.65 59.15 59.65 60.59 61.72 61.84 61.81 61.82 62.07 62.22 61.41 60.84 60.78 61.06 61.86
45.28 43.24 46.68 40.22 40.84 36.64 40.76 45.80 49.29 50.37 49.99 50.92 54.26 54.56 53.19 54.30 54.96 55.65 56.27 55.09 54.97 55.72 56.48 57.40 58.15 57.29 58.80 59.69 59.26 60.17 60.68 60.68 60.64 60.08 60.42 60.13 60.92 62.60 61.68 62.54 61.57 61.80 61.90 61.81 61.41 61.75 62.00 62.11 61.31
46.88 49.15 41.91 38.61 32.65 29.95 38.74 41.30 42.70 47.40 47.79 51.81 53.44 53.03 53.44 54.04 54.83 55.57 56.15 54.97 55.26 55.75 56.05 57.82 58.20 57.45 58.25 59.20 59.39 59.40 60.96 61.30 61.35 60.99 60.41 60.52 61.06 60.11 61.16 62.45 62.13 62.14 61.98 62.80 62.64 62.41 61.10 61.67 61.68
44.42 44.73 43.51 41.89 39.14 33.17 32.42 37.58 47.70 47.22 50.40 51.95 53.17 54.45 53.89 54.05 54.61 55.31 55.27 55.40 55.63 56.01 56.57 57.71 57.11 57.27 56.86 57.82 57.48 58.81 59.39 60.75 61.69 60.54 61.78 60.06 61.42 61.49 62.42 62.30 61.78 61.85 62.77 62.62 62.02 61.66 60.87 60.07 59.85
47.70 45.26 43.78 40.38 37.12 39.63 38.36 39.93 50.74 50.92 53.25 53.69 54.43 55.33 53.94 53.78 54.29 55.08 55.48 54.28 55.33 55.36 56.07 57.23 57.00 56.97 56.69 57.68 57.31 58.36 59.80 60.78 61.19 60.79 61.25 61.37 60.34 61.46 62.09 62.94 62.70 62.67 61.86 61.11 61.15 61.25 60.93 59.99 58.53

GFSSGP_sfc_wetblb_018.txt.gz
Wetbulb
67.50 66.35 60.20 58.62 51.03 48.93 46.04 49.80 53.34 53.92 50.14 52.06 52.21 50.29 48.86 48.81 48.77 44.88 57.24 64.94 66.29 65.46 69.50 72.37 73.86 73.86 73.44 73.27 73.14 72.70 72.15 71.46 70.60 70.47 70.43 70.23 69.57 68.57 68.42 68.03 67.63 67.06 66.89 66.79 67.17 67.01 67.06 68.93 70.22
62.92 62.45 57.25 56.73 48.20 44.35 46.13 52.28 51.93 53.32 52.31 52.24 51.42 49.67 49.29 49.72 56.46 56.87 59.09 66.82 66.12 66.43 68.86 70.99 73.91 73.79 73.67 73.47 73.42 73.17 72.55 71.63 71.33 71.31 71.06 71.04 70.01 69.11 68.68 68.72 68.52 68.32 68.41 68.31 68.03 67.88 67.15 68.11 69.97
62.07 60.71 54.32 52.23 47.58 44.56 46.71 52.93 53.91 56.28 53.82 52.60 50.89 53.47 52.64 52.25 58.38 57.71 58.62 67.57 66.12 66.20 68.62 70.11 73.81 73.74 73.89 73.32 73.52 73.26 72.43 72.08 71.75 71.28 70.63 70.36 70.10 69.86 70.01 69.12 69.11 69.01 68.92 68.76 68.33 68.20 68.29 67.28 68.92
59.34 59.89 57.45 48.10 45.94 49.83 51.86 54.75 55.55 54.82 53.08 52.75 52.40 51.54 54.32 57.64 58.84 59.99 62.57 68.10 66.40 67.11 68.75 71.19 73.86 73.89 74.04 73.84 73.51 73.06 72.25 72.15 71.88 71.30 70.82 69.98 69.34 70.19 70.01 69.34 68.98 68.94 68.86 68.48 68.57 68.83 68.19 68.11 68.24
60.57 55.83 47.62 45.76 48.14 51.82 53.78 55.69 55.57 52.18 52.30 50.74 51.88 51.94 52.26 58.10 60.28 60.27 60.73 64.43 63.14 65.60 67.48 71.36 73.80 73.93 74.04 73.64 73.14 73.11 72.91 72.57 71.24 70.42 69.93 69.29 69.30 69.50 69.16 68.43 68.41 68.42 68.45 68.47 68.66 68.56 68.77 69.17 68.71
54.24 52.09 43.44 42.76 47.47 52.09 52.52 54.91 55.22 54.92 52.86 51.60 51.85 51.57 51.53 57.12 58.63 57.99 57.80 62.00 65.50 66.92 68.82 70.40 73.24 73.46 73.76 73.73 72.92 72.64 72.23 70.67 69.91 69.40 68.74 67.93 67.78 67.66 67.63 67.75 67.84 67.73 67.84 68.01 68.22 68.58 68.99 68.98 68.55
51.73 48.59 44.66 46.34 48.60 50.59 52.36 55.95 54.00 54.17 54.32 50.76 54.01 50.09 53.05 54.72 57.14 57.93 57.01 61.23 62.79 65.08 65.84 67.03 68.61 70.68 72.45 71.88 71.98 71.79 70.64 69.52 68.35 67.10 66.32 65.86 65.82 66.07 66.13 66.37 66.68 66.93 66.97 67.23 67.46 67.98 69.22 68.11 68.55
54.20 50.19 45.65 47.24 47.67 48.59 52.77 53.03 54.99 54.25 54.81 55.87 56.36 51.04 49.91 54.97 57.05 56.82 57.01 57.46 60.21 61.83 62.08 61.92 62.88 65.39 66.42 67.71 70.95 70.57 69.89 68.08 67.52 66.54 66.21 65.91 65.96 66.18 65.58 65.43 65.79 66.20 66.36 66.44 66.88 67.39 68.23 67.84 68.38
56.65 46.94 45.39 46.97 48.01 50.54 54.44 49.91 54.12 55.84 54.26 54.66 54.60 55.13 57.03 57.62 56.72 55.28 54.01 54.07 53.88 57.13 55.42 58.19 60.34 61.72 62.18 62.43 65.15 69.26 68.15 67.40 67.24 66.32 66.54 66.08 62.25 61.29 62.27 63.73 65.22 65.93 66.97 66.76 67.06 67.45 67.43 67.41 67.75
52.62 46.57 49.91 54.36 53.56 51.60 53.73 51.19 52.43 52.24 52.45 53.41 54.56 57.39 57.94 57.53 56.03 54.66 53.39 53.87 51.91 53.56 54.62 56.95 58.48 59.06 59.78 62.91 60.69 62.99 62.77 62.74 62.59 62.74 61.37 59.61 59.02 59.00 61.71 63.43 65.05 65.67 66.31 66.71 66.78 67.21 67.48 66.85 63.08
52.86 50.12 54.28 54.65 54.94 54.96 53.81 54.08 54.62 51.97 49.72 52.66 52.52 55.07 56.07 55.53 54.40 54.13 53.86 52.12 52.85 55.10 56.91 56.80 58.21 59.52 59.76 59.98 60.19 59.48 59.49 59.61 60.80 61.06 60.10 59.41 60.02 59.42 59.14 59.11 60.41 59.65 63.31 62.20 64.15 64.09 64.16 62.88 61.54
49.91 54.60 55.43 55.79 56.53 55.37 53.84 55.75 53.47 53.19 53.00 55.32 55.74 56.99 55.81 54.57 54.24 53.42 52.51 53.85 54.57 54.89 56.50 57.80 59.57 59.51 59.45 60.80 60.27 59.40 60.01 59.42 59.29 59.88 60.27 59.09 58.84 58.75 58.75 59.26 59.41 59.09 59.81 60.25 60.97 61.51 61.90 62.04 61.58
52.53 54.38 56.00 56.74 56.36 55.66 56.22 53.85 53.49 53.01 55.94 55.65 56.15 56.32 55.42 54.98 53.94 53.39 53.47 54.89 54.08 56.18 58.39 59.23 59.51 60.03 60.97 60.76 59.93 59.64 59.98 60.50 60.02 59.73 60.18 59.85 59.08 58.83 59.59 58.92 58.65 58.41 58.61 59.54 59.86 60.34 60.85 60.66 60.89
51.58 53.08 54.20 55.34 54.86 54.79 53.03 53.71 52.51 54.44 56.17 54.54 54.21 54.01 54.36 53.81 53.76 52.74 54.50 54.79 54.93 56.62 58.15 58.26 59.57 60.36 60.98 60.15 59.27 59.51 60.16 61.23 60.86 60.43 60.36 61.15 59.81 59.68 59.75 58.05 58.49 58.51 58.43 58.71 59.62 60.20 59.74 59.73 59.78
49.43 46.67 49.32 50.42 51.62 51.64 52.74 49.81 50.60 54.32 54.59 53.05 51.97 52.69 53.49 54.15 54.17 54.58 56.21 55.54 55.22 57.60 57.88 58.40 58.69 59.40 59.22 58.76 58.91 59.76 60.66 61.55 60.58 60.60 60.63 61.20 60.02 59.61 58.85 58.11 58.13 58.51 58.83 58.21 59.02 59.29 59.40 59.51 60.25
45.61 44.12 40.95 48.90 50.39 52.58 50.15 46.02 51.42 53.89 53.36 52.28 52.91 52.15 52.50 52.54 54.47 55.37 56.05 55.84 54.38 57.07 57.51 58.76 61.61 58.37 59.19 58.93 59.59 60.50 60.98 60.59 60.96 60.84 60.80 61.52 61.14 60.12 58.50 58.03 58.72 59.31 58.38 57.81 58.40 58.19 58.27 58.77 61.12
42.07 39.89 41.61 44.73 49.83 50.49 49.10 47.15 51.54 54.15 53.75 52.71 52.57 52.73 52.95 52.71 52.85 53.87 56.22 55.84 55.98 57.23 57.35 58.05 58.47 58.82 59.61 59.15 58.95 60.00 60.61 60.89 61.12 61.20 61.10 60.63 60.29 60.63 59.05 58.92 58.95 59.27 58.10 57.49 58.33 57.67 58.29 59.95 60.30
40.01 39.17 42.37 43.51 48.23 48.86 47.34 47.04 51.19 53.27 52.42 51.94 51.80 52.75 53.08 52.88 52.77 55.61 56.44 55.91 56.29 56.67 57.69 57.57 57.67 59.45 58.79 58.51 59.94 59.90 60.28 61.07 61.14 61.16 60.62 61.28 60.10 60.27 59.12 59.08 58.89 58.71 57.98 57.01 57.37 56.81 58.49 58.94 59.74
44.91 42.86 42.00 46.07 49.56 47.85 46.96 47.88 50.82 52.74 50.65 50.38 50.55 51.19 52.39 52.50 55.00 56.75 56.52 56.32 56.85 57.34 57.38 57.17 57.42 57.99 58.07 59.19 58.27 58.78 59.05 58.94 59.99 60.63 61.89 61.78 59.80 59.58 58.68 59.15 58.85 58.61 57.23 57.39 57.35 57.17 58.24 57.51 57.87
43.34 42.15 42.81 46.57 48.96 46.52 46.69 47.52 50.81 51.55 51.18 51.02 51.48 51.47 50.82 52.44 54.73 56.25 55.57 55.35 55.69 56.63 57.37 57.98 57.25 58.22 59.05 59.81 59.30 59.95 59.85 60.19 60.07 60.48 62.36 62.45 60.93 60.65 60.30 59.57 58.45 58.03 57.17 57.09 57.35 57.38 56.71 56.25 57.98
43.75 42.32 42.93 44.23 47.87 48.16 46.07 44.85 47.61 51.41 51.45 52.07 52.29 51.97 52.77 53.39 53.83 55.08 54.92 54.34 54.64 55.17 57.27 57.52 58.08 59.11 60.62 59.94 59.93 59.30 58.96 59.29 59.13 58.81 61.02 61.12 62.74 61.91 60.94 60.57 58.95 58.43 57.53 58.13 56.95 57.33 57.04 55.87 57.33
41.19 47.63 46.42 45.91 44.45 38.57 46.16 36.11 42.59 47.27 48.22 49.70 50.84 49.76 51.21 52.94 54.78 55.28 54.17 52.98 53.71 54.90 57.54 57.96 58.61 59.73 60.44 60.25 58.74 57.29 56.63 56.47 57.87 57.77 58.87 59.11 61.01 61.92 61.27 60.07 59.06 58.56 58.03 57.53 57.55 58.03 57.31 57.27 56.49
43.50 48.38 46.69 46.66 44.45 41.33 43.12 37.35 41.32 45.93 46.27 48.38 49.75 50.51 51.47 52.97 54.19 54.41 54.32 54.84 55.64 55.88 56.69 58.07 58.90 60.45 60.31 59.68 59.08 57.62 56.55 57.65 58.53 57.13 57.82 58.24 59.77 61.60 61.55 60.01 59.17 58.63 58.21 58.21 58.86 57.66 57.26 58.34 58.65
47.34 45.88 44.99 44.22 42.39 35.05 41.77 39.72 42.17 42.98 46.79 48.36 49.08 51.25 51.60 52.08 53.05 54.35 55.29 55.38 55.03 55.38 56.77 57.92 58.67 59.38 60.03 59.51 58.83 58.01 56.58 56.98 56.45 56.15 56.97 58.08 59.52 60.06 60.73 60.34 58.81 59.69 58.70 59.50 58.25 57.72 57.10 58.33 58.19
44.58 39.51 32.95 30.79 33.48 33.93 42.96 40.18 43.44 46.01 48.96 50.19 50.20 51.27 51.78 53.04 53.97 54.81 54.50 54.43 54.17 55.12 56.73 57.75 58.08 57.86 59.01 59.12 59.18 58.41 57.06 57.61 56.42 56.97 57.13 57.55 58.10 58.82 58.97 59.23 59.22 57.98 59.22 59.15 58.76 57.68 57.58 58.28 59.36
41.02 40.61 34.81 29.27 30.04 34.26 42.61 37.49 43.40 48.79 50.45 50.97 53.09 53.11 53.63 52.72 54.43 54.89 54.98 54.40 55.07 55.43 56.35 58.16 56.81 56.96 58.09 58.53 58.97 58.39 58.72 57.90 57.90 57.66 58.47 57.97 58.46 59.45 59.72 59.90 60.01 59.91 60.16 59.95 58.76 57.85 58.15 58.70 58.43
40.53 38.11 43.75 37.66 37.94 34.52 37.98 42.42 47.42 48.97 49.18 51.20 51.09 52.78 51.70 52.33 53.76 54.47 54.35 53.35 53.19 55.08 55.82 57.16 56.36 55.80 58.12 58.39 58.88 58.40 58.95 58.83 59.10 58.36 58.56 58.59 60.05 61.15 61.31 60.58 59.88 60.53 60.51 60.03 59.03 59.42 59.93 61.03 59.34
43.26 45.35 38.48 35.57 32.07 28.98 35.91 38.48 40.44 43.93 47.34 50.14 50.34 50.35 50.58 52.11 53.17 54.34 54.33 52.66 53.38 55.53 54.50 56.45 56.73 56.55 57.64 57.91 57.54 59.34 59.32 59.97 60.02 60.74 58.81 59.08 59.82 59.75 60.00 60.17 60.12 60.33 60.27 60.62 60.96 61.15 61.17 60.81 60.83
39.88 40.22 40.85 40.79 37.82 32.56 30.56 36.46 44.44 46.42 47.05 50.04 50.79 51.25 51.58 52.19 53.43 54.19 53.61 53.47 53.13 53.89 54.39 55.66 55.64 56.47 56.04 57.39 57.07 58.37 59.00 60.27 59.91 59.83 59.11 60.53 59.90 60.34 60.74 60.42 60.43 60.48 60.24 60.64 60.08 61.11 59.81 60.08 59.99
44.14 40.54 42.71 38.40 35.20 37.07 36.16 36.79 47.43 46.56 51.17 52.25 51.14 52.63 52.53 53.55 54.00 54.11 53.54 52.72 52.87 53.23 54.56 54.82 54.95 55.55 55.55 55.76 56.73 57.93 58.97 59.87 59.55 59.39 58.84 58.98 59.62 60.79 60.89 61.32 61.29 61.38 60.85 60.45 59.90 59.73 59.72 59.31 59.12

GFSSGP_sfc_wetblb_021.txt.gz
Wetbulb
67.71 65.99 58.67 57.51 50.00 47.95 45.20 48.69 51.80 52.58 50.52 50.26 50.84 49.33 48.34 48.54 47.84 44.06 56.88 65.06 64.66 63.58 67.02 72.16 73.70 73.43 72.94 72.68 72.38 71.93 71.62 70.82 69.84 69.22 68.98 69.01 69.05 68.67 68.16 68.03 67.69 67.15 66.98 67.18 67.13 67.03 66.90 66.76 69.06
64.54 62.27 57.51 55.81 47.45 43.36 45.08 51.44 51.16 53.18 53.89 49.42 49.85 48.62 48.42 48.82 55.35 56.44 61.19 64.74 65.17 65.17 68.18 70.78 73.55 73.30 73.15 72.95 72.93 72.59 71.54 70.61 70.13 69.93 70.09 70.07 70.07 69.42 68.44 68.27 68.49 68.25 68.08 68.35 68.24 68.18 68.00 66.95 67.97
60.51 59.40 53.75 51.78 46.36 43.84 45.30 51.64 53.21 55.68 56.03 50.41 48.87 52.38 51.52 51.52 57.40 57.88 59.84 65.43 64.13 65.47 68.10 69.66 73.65 73.43 73.53 73.23 73.11 72.78 71.82 71.25 71.09 70.99 70.87 70.34 70.25 69.82 69.02 68.71 68.37 68.80 69.09 68.72 68.50 68.60 68.40 68.29 67.36
57.32 58.73 56.13 48.50 45.30 48.24 50.26 53.58 54.88 54.45 55.37 52.04 51.78 50.40 52.99 57.06 57.51 58.28 63.91 65.46 64.45 64.57 66.98 70.14 73.72 73.62 73.83 73.75 73.40 73.00 72.02 71.42 71.22 71.22 71.22 70.22 69.92 69.78 69.89 69.07 68.79 68.86 68.88 68.78 68.63 68.39 69.06 68.62 68.35
60.20 54.84 47.86 44.46 47.21 49.71 52.61 53.86 53.07 52.77 51.02 49.94 51.45 50.36 50.77 55.69 59.51 60.03 65.99 65.60 63.29 64.11 66.66 69.34 73.74 73.82 73.92 73.93 73.33 73.05 72.58 72.41 72.36 71.47 71.10 70.32 69.85 69.49 68.87 68.54 68.53 68.76 68.67 68.29 68.30 68.35 68.74 68.99 69.02
53.30 50.95 43.24 42.00 46.50 49.95 52.05 53.27 52.82 52.84 52.50 50.80 50.72 50.35 50.49 55.54 57.71 59.02 64.79 63.98 64.52 65.11 65.94 68.71 73.40 73.76 73.59 73.80 73.35 73.17 72.89 72.78 72.35 71.38 70.64 69.67 69.06 68.64 68.44 68.02 67.83 67.66 67.98 68.07 68.21 68.51 69.22 69.18 68.75
50.91 47.54 44.43 44.78 48.18 48.80 51.21 52.27 51.23 51.79 52.22 50.51 52.54 49.29 51.04 54.29 57.06 56.87 59.94 62.19 63.99 65.37 66.80 68.81 70.73 72.30 73.82 73.37 73.49 73.27 73.08 72.49 71.16 70.17 69.19 67.87 67.00 66.57 66.55 66.58 66.87 67.06 67.30 67.47 67.65 67.68 68.38 68.87 68.27
53.62 49.51 44.80 45.82 45.87 47.46 52.25 52.60 51.04 51.47 53.63 54.50 55.49 50.29 49.39 53.73 56.22 55.24 59.07 60.52 61.81 64.25 65.93 65.41 65.86 67.92 68.12 68.66 72.31 72.17 71.94 70.65 70.00 68.41 66.99 66.58 66.30 66.33 66.36 66.31 65.90 66.38 66.19 66.52 66.74 67.05 68.01 68.44 68.29
54.38 45.40 43.44 45.88 46.80 49.14 51.78 50.46 54.13 54.68 53.10 53.09 53.86 54.22 55.47 56.32 55.15 54.14 53.17 53.94 54.94 59.27 58.70 60.75 62.23 63.99 64.83 65.28 66.95 70.43 69.69 69.01 68.15 66.81 66.85 66.28 62.84 61.89 63.41 64.02 64.74 65.44 66.19 66.86 66.86 66.52 67.59 67.69 67.18
51.33 45.10 46.99 51.85 51.40 50.41 52.41 50.94 52.51 52.05 52.90 51.65 53.28 55.92 56.73 55.98 54.71 53.63 53.14 53.40 52.60 54.63 54.91 58.65 59.80 60.42 60.59 62.00 60.56 61.29 63.32 62.88 62.66 63.14 62.05 61.66 60.56 59.59 61.20 62.49 64.59 65.16 65.71 66.48 66.67 66.74 67.05 66.84 63.08
50.76 48.78 52.43 52.89 54.73 54.23 52.36 53.50 56.11 51.53 50.43 52.43 52.14 53.88 54.45 54.29 53.77 54.03 54.29 54.25 54.62 53.87 54.59 56.24 57.52 57.86 58.40 59.72 59.14 59.51 59.74 59.02 59.66 61.17 61.16 59.43 58.89 58.56 59.46 58.55 59.04 59.31 62.29 61.21 62.43 63.23 63.35 63.27 62.11
48.07 52.52 54.42 54.91 56.36 55.00 53.49 55.60 54.00 54.93 54.25 56.54 54.66 55.52 54.52 53.43 53.27 53.84 53.94 52.63 51.69 53.58 55.60 56.94 57.57 58.15 58.34 59.01 59.20 58.47 58.60 58.66 59.19 59.80 59.81 58.31 57.91 57.91 57.87 58.09 58.57 58.39 58.79 58.96 59.50 60.48 61.39 61.57 61.43
49.34 51.88 53.59 54.92 55.46 55.40 55.78 53.69 53.89 54.62 56.77 57.43 54.53 55.32 54.34 54.12 53.65 54.48 55.02 53.38 52.64 53.70 55.68 56.56 58.09 58.18 58.89 59.46 58.82 58.54 58.45 59.71 59.20 58.91 59.15 58.99 58.21 57.81 58.09 58.49 58.35 57.69 57.43 57.63 58.57 59.41 60.52 60.97 60.77
49.39 49.66 50.97 52.73 53.77 54.55 52.45 52.28 51.94 53.71 55.89 54.26 53.33 53.79 54.21 54.01 53.94 52.66 51.13 52.48 52.85 54.93 56.23 58.11 58.44 58.88 59.65 59.00 58.43 58.54 58.50 59.03 59.73 59.49 59.73 60.15 58.85 58.21 58.43 59.67 57.73 57.43 57.53 57.45 58.13 58.93 59.15 59.48 59.57
47.08 44.18 46.83 48.11 50.05 50.13 51.73 47.96 49.53 53.34 53.56 52.61 51.70 52.76 53.96 54.35 54.22 53.17 53.94 53.61 54.38 56.78 58.22 58.11 58.20 59.45 59.35 58.45 58.25 58.02 59.02 60.02 59.61 59.81 60.07 60.25 59.60 58.65 58.57 57.81 57.19 57.39 57.77 57.48 57.51 58.27 58.57 58.03 58.92
43.52 42.26 39.35 47.09 49.27 50.54 48.65 43.72 50.76 53.52 51.28 51.42 52.26 51.73 52.85 53.17 53.86 54.78 53.16 54.12 54.31 57.06 57.27 57.76 60.78 58.69 57.60 58.05 58.56 59.36 59.68 59.51 59.59 60.01 60.43 61.14 61.10 59.67 57.98 57.19 56.85 57.99 57.89 57.17 56.75 57.03 57.23 57.51 57.77
39.32 37.46 39.02 43.02 48.23 47.83 47.03 44.49 49.82 52.17 51.17 50.68 51.92 51.87 50.96 52.51 51.84 52.15 54.42 53.57 55.92 57.05 56.65 57.33 57.60 57.69 57.93 57.92 57.60 58.48 59.09 59.46 60.17 59.89 59.95 60.40 61.11 60.30 57.95 57.63 57.91 58.38 57.57 56.68 56.91 56.24 56.82 56.66 58.97
36.72 37.04 39.68 41.02 45.89 45.94 44.84 44.68 49.31 51.27 50.85 51.53 51.76 51.18 51.44 51.56 51.27 52.41 53.96 54.09 56.05 56.42 57.06 56.96 57.15 58.36 57.71 57.34 58.19 58.48 58.48 59.51 60.01 59.95 59.93 60.64 60.69 60.29 58.14 58.47 58.43 58.03 56.72 55.94 56.28 55.86 57.05 58.70 59.49
42.99 40.96 40.28 43.84 47.21 45.28 44.11 45.03 47.83 50.19 49.48 50.31 50.34 49.65 50.86 50.64 51.70 53.82 54.04 55.83 56.37 56.38 56.32 56.07 56.93 57.30 56.71 57.94 57.18 57.46 57.68 58.24 58.72 59.65 60.15 61.91 60.93 59.27 57.58 58.05 58.09 57.61 56.44 56.02 56.52 56.02 56.80 58.43 57.75
42.51 39.86 40.27 44.73 47.27 44.83 44.01 44.12 47.39 48.84 49.53 49.92 50.98 50.74 49.82 51.39 52.52 53.62 53.91 56.11 57.05 56.08 55.88 56.21 56.57 56.80 57.90 58.20 57.70 58.68 58.02 58.51 59.01 58.83 59.66 61.13 61.91 60.62 59.18 58.77 58.13 57.15 56.02 55.98 56.00 56.13 55.48 57.73 58.74
41.98 39.72 40.46 41.05 44.98 46.36 44.16 43.09 45.50 49.19 49.61 50.98 51.08 50.69 50.86 51.79 51.95 52.64 54.00 55.24 55.23 55.38 56.42 56.55 56.59 57.75 59.23 58.78 58.26 57.82 57.36 58.02 57.93 57.48 58.36 59.36 60.85 62.28 60.34 59.28 58.41 56.85 56.26 55.56 55.64 56.25 56.30 56.36 56.04
37.82 44.31 43.91 43.14 40.57 35.05 43.80 33.92 41.59 45.35 47.32 48.56 49.48 48.44 49.71 51.16 52.93 53.30 53.56 52.55 54.56 55.22 56.95 56.56 57.96 58.75 58.77 58.92 57.59 55.94 55.20 55.10 56.30 56.77 57.47 57.93 60.32 61.43 60.74 59.67 58.22 57.23 56.64 56.14 56.10 57.35 56.88 56.50 55.32
41.25 46.00 44.37 43.99 40.41 38.01 41.19 36.16 40.15 43.52 44.69 46.58 48.40 48.57 48.96 50.87 52.91 52.68 52.91 53.52 53.54 55.42 55.95 57.02 58.01 58.69 58.54 58.40 57.50 56.26 55.01 56.00 56.38 56.14 56.80 56.72 58.94 59.84 60.55 58.65 57.78 57.06 56.85 56.44 57.20 56.44 56.72 56.60 56.44
45.28 43.10 41.78 41.14 38.58 33.57 39.66 37.69 37.35 41.53 44.99 46.94 48.09 49.49 49.72 50.63 52.06 51.83 52.93 53.42 53.77 54.83 56.07 57.01 58.28 58.20 58.37 58.23 57.28 56.22 55.51 54.78 54.10 55.01 55.84 57.15 58.09 58.63 58.89 59.27 57.62 57.50 56.96 56.64 57.17 56.94 56.60 57.36 57.18
41.17 35.78 28.68 26.97 29.09 30.84 40.37 37.24 41.13 44.46 47.45 48.54 48.55 49.17 49.83 51.51 51.97 52.29 52.62 52.67 52.51 54.61 56.16 56.75 57.44 57.10 58.02 58.07 57.40 56.87 56.09 55.39 54.60 55.47 56.08 56.08 56.83 57.07 57.41 57.82 57.68 56.72 57.28 57.74 57.10 56.34 56.50 57.38 57.30
39.38 38.88 31.36 25.81 27.83 32.66 40.58 35.77 40.94 47.59 49.76 49.74 50.01 49.89 50.92 51.24 52.32 52.58 52.83 53.04 53.39 54.93 56.19 56.84 57.00 56.15 57.44 57.83 57.33 57.14 57.18 56.34 56.25 57.68 57.41 56.95 57.19 57.19 58.00 58.22 58.56 58.63 58.65 58.10 56.80 56.26 56.06 57.20 57.21
38.19 36.10 41.24 34.68 35.15 32.45 35.85 40.52 45.76 47.50 47.93 48.83 49.39 50.12 49.63 51.42 52.08 52.58 52.94 52.98 53.58 54.10 55.60 56.44 55.54 55.64 57.32 57.77 57.48 57.24 57.74 57.39 58.67 58.05 57.22 58.09 58.35 60.16 58.78 58.51 58.51 58.71 59.07 57.98 57.04 56.64 57.11 57.27 57.49
39.62 41.58 34.18 33.27 27.86 27.83 34.12 36.46 38.86 43.45 45.94 48.09 48.39 48.24 49.62 50.74 51.69 52.99 52.87 52.14 53.91 54.47 54.84 55.78 55.45 55.39 57.36 57.21 56.93 58.26 58.13 58.63 58.89 58.41 58.64 57.83 57.62 58.14 58.63 58.65 58.34 58.83 58.45 58.25 58.63 59.85 60.43 60.00 60.52
37.13 37.24 36.40 36.87 35.13 29.57 28.69 34.43 42.84 44.77 46.53 47.78 48.26 48.95 49.88 51.15 52.42 53.24 52.89 52.38 53.97 53.55 53.48 55.21 54.80 55.86 56.14 56.58 56.28 57.92 57.98 58.32 58.11 57.66 58.02 58.46 58.18 59.01 59.23 58.83 58.51 58.57 58.92 59.42 60.29 59.63 59.87 59.45 59.96
42.34 38.78 38.35 35.71 31.72 35.78 34.33 36.59 45.87 45.88 46.94 49.80 48.97 50.00 49.73 51.51 52.89 53.17 52.27 50.79 52.11 52.49 52.96 54.42 54.31 55.50 55.39 56.30 56.22 57.54 58.30 58.21 57.10 57.38 58.24 58.50 58.36 59.49 59.81 59.85 59.59 59.66 58.83 59.76 59.93 59.12 57.85 58.39 59.49

GFSSGP_sfc_wetblb_024.txt.gz
Wetbulb
68.41 65.17 58.05 56.75 49.17 47.20 44.20 47.61 50.39 51.62 50.37 49.88 50.42 49.04 47.25 49.47 51.01 45.10 56.36 63.11 61.72 62.53 65.76 72.07 73.83 73.28 72.75 72.65 72.48 72.06 71.52 70.74 69.77 69.02 68.56 68.39 68.48 68.25 68.06 67.99 67.45 67.20 66.90 67.20 67.55 67.45 67.24 66.61 66.41
64.63 62.02 57.64 55.37 46.96 42.53 44.12 50.04 50.66 52.42 53.48 48.91 48.38 47.84 47.72 48.11 55.43 56.95 60.11 64.41 62.41 63.03 66.21 70.77 73.92 73.45 73.18 72.93 72.56 72.14 71.72 70.87 70.08 69.51 68.74 68.69 68.96 69.05 69.04 68.48 68.21 68.11 67.97 68.05 68.00 68.33 68.33 68.19 66.98
61.88 59.38 53.67 50.97 46.10 43.30 44.24 50.24 51.79 54.48 55.66 50.51 48.08 51.13 50.11 50.00 56.02 57.99 61.79 64.85 63.52 63.47 67.08 69.79 73.92 73.50 73.35 73.15 72.83 72.56 72.21 71.62 70.38 69.92 69.72 69.86 69.69 70.07 69.85 68.66 68.28 68.29 68.68 68.55 68.78 68.37 68.76 68.61 68.61
57.39 58.63 55.89 49.02 45.29 48.74 49.27 52.29 52.32 52.39 54.67 50.94 50.11 49.65 52.50 55.43 56.73 59.54 61.42 64.50 63.86 64.52 67.15 70.29 73.75 73.50 73.65 73.55 73.25 73.08 72.24 71.69 70.93 70.71 70.41 70.71 70.21 69.86 69.70 69.32 68.94 68.69 68.51 68.93 68.85 68.61 68.18 68.80 69.13
58.35 54.84 49.09 46.24 47.17 49.44 51.60 53.39 51.79 51.07 51.45 49.11 49.82 49.74 50.05 54.56 58.40 59.34 63.76 64.08 63.27 63.73 65.77 68.82 73.50 73.57 73.70 73.75 73.43 73.35 72.91 72.39 72.07 70.92 70.76 70.82 70.35 69.60 69.40 69.28 69.22 68.92 68.58 68.85 68.25 68.26 68.92 69.54 69.48
52.83 51.11 44.40 42.25 45.92 49.08 51.20 52.82 51.58 51.10 51.12 49.53 49.37 49.39 50.30 54.22 56.98 59.95 63.79 62.54 63.06 63.30 64.91 67.65 72.81 73.56 73.59 73.67 73.53 73.42 72.84 72.65 72.35 71.84 71.97 71.15 70.78 69.69 69.05 68.83 68.59 68.46 68.26 68.24 68.41 68.60 69.44 69.35 69.24
50.34 47.34 43.80 44.53 47.01 48.27 50.45 51.74 50.01 49.73 50.22 50.74 50.65 48.46 50.46 52.87 56.49 61.38 63.49 62.64 62.77 63.43 64.97 66.58 69.93 72.54 73.62 73.64 73.37 73.16 72.88 72.80 72.70 72.74 71.97 70.83 69.33 68.14 67.58 67.17 67.12 67.05 67.24 67.58 67.79 67.86 68.25 69.07 68.88
52.59 48.69 43.72 46.36 46.11 46.03 51.05 50.80 50.42 50.28 51.89 54.02 54.16 49.05 49.24 52.77 55.96 57.79 60.17 60.47 62.00 62.95 64.34 65.55 68.01 70.50 69.58 71.03 73.54 73.30 73.26 73.12 72.60 71.21 70.22 69.07 67.64 67.05 66.58 66.84 66.50 66.43 66.52 66.92 67.05 66.91 67.67 68.51 68.36
53.26 44.66 42.28 45.50 46.08 47.72 49.93 48.57 52.18 53.84 52.51 51.97 53.87 53.06 54.55 55.05 54.50 56.18 55.72 56.90 58.04 61.25 63.05 64.06 65.49 66.95 67.05 67.70 69.78 72.70 71.97 70.91 70.37 69.39 68.90 67.57 63.78 63.30 64.93 65.60 65.94 65.25 65.56 66.24 66.76 66.79 67.47 67.95 67.88
50.41 43.78 45.71 50.27 49.74 49.00 49.59 49.95 52.46 52.17 52.99 53.23 52.73 54.38 55.72 54.63 53.38 54.62 54.85 56.57 55.72 58.22 58.14 61.54 62.80 64.12 64.22 65.36 64.39 64.60 65.20 63.91 64.16 64.05 62.90 63.45 63.01 62.31 62.95 64.11 65.40 64.91 65.42 65.73 66.36 66.86 67.13 66.57 65.00
50.29 48.15 51.47 50.95 52.43 51.32 51.69 52.49 54.06 51.91 50.64 54.25 52.61 55.98 53.88 53.21 52.55 53.69 55.17 56.33 57.74 58.17 57.25 58.94 60.56 61.24 61.02 59.80 59.06 59.42 60.82 61.19 61.23 61.83 62.19 61.71 61.13 60.45 61.22 60.99 61.05 61.05 62.54 62.16 62.97 62.85 64.14 64.69 64.07
46.29 51.66 53.50 52.66 53.51 51.54 52.43 53.78 53.41 54.85 54.23 56.87 57.01 56.54 53.75 52.27 52.44 53.08 53.68 55.10 53.03 53.03 55.62 56.67 58.44 58.34 57.92 58.56 59.01 59.10 59.05 59.13 59.08 59.68 60.98 60.18 59.10 58.98 58.82 59.12 59.27 59.78 60.43 60.07 60.91 61.50 62.87 63.79 63.73
47.84 50.84 51.85 52.81 52.33 53.05 54.65 52.90 53.30 53.69 57.31 57.69 56.31 54.15 53.39 52.60 53.63 54.23 54.56 54.65 52.49 51.71 53.88 55.86 57.17 57.02 57.84 58.62 58.93 58.43 58.37 59.31 59.18 59.42 60.00 59.48 58.79 58.57 58.86 59.00 59.53 59.43 59.30 59.16 59.72 60.39 61.65 62.41 62.89
48.20 49.64 49.26 49.88 50.83 52.10 51.57 51.30 50.71 53.46 56.14 54.04 53.89 52.77 53.01 52.69 52.97 52.49 52.01 52.60 51.43 52.98 53.99 56.08 57.11 57.69 58.49 58.74 58.59 58.46 58.36 58.97 59.59 59.40 59.75 60.36 59.32 59.05 58.95 59.17 59.55 59.19 59.22 59.46 59.13 59.89 60.97 61.53 61.79
44.96 41.31 44.32 46.03 47.22 47.26 50.24 45.09 47.16 52.34 53.01 51.72 52.01 52.61 52.41 53.19 53.13 52.55 54.17 54.03 53.25 52.94 55.49 56.89 57.33 58.44 59.00 59.09 58.72 58.42 58.52 59.27 59.31 59.95 60.65 60.79 60.25 59.65 59.61 59.15 59.18 58.99 59.31 59.50 59.06 59.71 60.63 60.39 60.73
41.47 40.81 37.60 44.58 47.58 47.46 47.04 40.63 48.23 51.46 50.47 50.68 51.27 51.66 51.36 52.36 53.12 54.33 55.19 52.47 52.66 55.40 56.35 57.42 59.96 58.96 58.97 58.44 58.18 58.31 58.94 59.43 59.73 60.27 60.69 61.35 61.32 60.64 59.39 58.95 58.73 59.10 59.15 59.02 58.87 58.85 59.25 59.46 59.94
38.52 36.50 37.55 40.20 46.19 45.87 45.53 42.33 48.37 50.31 49.88 49.79 50.93 51.33 51.72 51.39 51.91 54.31 52.86 52.18 55.66 56.41 56.79 57.30 58.65 58.46 58.33 57.83 57.79 58.44 59.27 59.23 59.89 60.68 60.70 61.02 61.69 61.75 59.81 58.85 58.92 59.16 59.07 58.77 58.43 57.80 58.78 58.59 59.05
34.70 35.38 37.77 38.56 44.17 43.09 41.77 42.06 47.26 49.30 48.70 48.63 49.46 50.31 50.70 50.83 50.92 51.84 52.36 53.89 56.29 56.91 57.35 57.34 57.52 57.78 57.56 57.55 57.72 58.63 58.97 59.39 60.19 60.50 60.66 61.55 61.47 61.74 59.55 59.05 59.22 59.41 58.75 58.05 57.79 57.92 58.86 59.51 60.04
40.89 38.91 38.19 42.09 45.97 43.28 41.94 42.45 45.93 48.78 47.43 47.24 48.64 49.78 50.51 49.82 51.03 51.80 52.48 55.28 56.29 57.10 57.22 56.67 56.95 57.27 56.64 57.38 57.56 57.82 58.56 58.98 59.36 60.07 60.96 61.35 61.77 61.36 59.54 58.85 59.35 59.31 58.57 57.87 57.86 58.08 58.80 59.27 59.85
41.40 39.43 39.15 43.86 45.82 43.35 42.57 42.22 45.53 47.57 47.65 47.71 49.21 49.99 49.32 49.65 51.51 51.70 51.94 54.39 56.43 56.97 56.55 56.28 57.39 56.76 57.02 58.60 57.92 59.02 58.77 59.01 59.39 59.87 60.37 61.39 61.86 61.13 59.56 58.46 59.35 59.25 57.67 57.37 57.61 58.22 57.79 58.79 59.35
41.17 39.80 40.72 40.84 42.59 42.86 41.19 40.05 42.77 46.80 47.99 48.65 49.69 50.44 49.77 49.76 50.68 50.57 52.74 54.18 55.41 55.63 55.87 56.10 56.58 57.08 58.86 58.81 58.38 58.30 57.80 58.04 58.27 58.70 59.42 60.26 61.30 61.58 61.53 60.36 59.51 58.77 57.87 57.09 57.49 58.04 58.83 57.85 59.08
37.82 44.56 44.51 42.88 38.59 32.75 40.95 31.50 40.64 44.46 45.81 47.26 48.87 47.43 48.02 49.84 51.21 51.38 52.88 53.31 55.02 55.47 56.36 56.26 57.17 58.42 58.99 58.86 57.94 56.59 56.07 55.72 57.07 57.99 58.63 58.74 60.00 61.62 61.33 60.45 59.91 58.55 57.91 57.31 57.77 58.46 59.11 59.51 57.51
40.76 45.81 43.95 42.30 37.37 34.96 37.56 34.21 38.76 42.40 43.30 45.77 47.85 48.56 47.71 49.73 50.62 51.11 52.92 54.48 55.01 56.26 55.85 56.80 57.86 58.52 58.46 58.78 57.74 56.48 55.95 56.64 57.15 57.27 57.66 58.44 59.84 61.06 61.10 60.12 59.22 58.33 58.01 57.92 58.40 58.38 58.92 59.36 59.01
45.65 42.72 40.16 38.35 35.61 29.42 35.95 36.12 36.34 39.49 44.49 45.75 47.80 48.34 49.33 50.04 50.21 51.12 53.09 53.85 53.90 55.40 55.78 56.95 57.99 58.11 58.26 58.40 57.62 56.66 55.95 55.72 55.89 56.76 57.41 57.87 59.36 60.01 60.68 59.75 58.85 58.76 58.38 58.08 58.98 59.19 58.95 59.14 59.76
40.77 35.58 26.92 25.38 26.10 27.12 38.40 35.20 38.53 43.23 45.63 47.35 47.87 47.72 48.80 50.26 50.25 51.31 52.36 52.50 53.29 54.70 55.75 57.03 57.49 57.49 58.06 58.37 57.73 57.26 56.74 56.65 56.83 57.32 57.69 57.53 58.39 58.83 59.31 58.93 58.90 58.74 58.76 58.67 59.10 58.74 58.92 59.70 59.86
38.99 36.19 29.21 23.99 25.72 31.34 38.94 33.54 38.69 46.39 49.19 48.98 48.96 48.42 49.63 49.71 50.34 51.67 52.15 52.19 53.88 55.06 56.08 57.12 56.95 57.21 57.91 58.33 57.71 58.01 57.75 58.00 57.70 59.20 58.69 58.19 58.79 58.79 59.33 59.73 59.40 59.52 59.52 59.25 58.88 58.84 59.10 59.96 59.96
36.81 35.21 37.98 32.01 33.33 30.45 33.76 38.32 43.71 46.10 46.71 47.70 47.27 48.58 48.45 49.49 49.85 51.03 51.72 52.34 53.40 54.93 55.74 56.31 56.49 56.62 57.48 58.09 57.90 57.87 58.90 59.13 59.03 59.13 59.82 59.39 59.97 60.29 59.67 59.92 60.00 59.99 59.68 58.96 58.69 58.49 58.94 59.46 59.44
39.81 40.95 32.68 31.44 25.97 25.28 32.33 35.05 37.82 42.92 45.56 47.71 47.43 47.26 47.95 49.48 50.00 51.39 51.93 51.97 53.51 55.06 55.68 55.88 56.05 56.23 57.54 57.68 58.11 58.50 59.41 60.13 59.75 60.04 59.23 58.90 59.51 60.02 59.98 59.45 59.99 60.09 59.41 59.07 59.36 59.87 59.80 60.17 59.66
34.67 35.87 33.42 34.69 31.74 27.30 27.29 32.89 41.87 44.40 45.75 46.81 47.09 47.63 48.40 49.89 50.88 51.83 52.12 52.52 53.27 54.03 54.68 55.55 55.12 55.51 57.15 57.01 57.11 58.49 59.37 59.27 58.65 59.13 59.29 59.51 59.96 60.02 59.76 59.45 59.86 59.64 59.39 60.45 60.46 60.80 60.88 60.42 59.96
41.09 36.48 36.01 33.19 30.24 32.03 32.31 33.36 44.41 45.26 45.65 46.99 47.69 48.35 48.70 50.30 51.49 52.13 51.96 51.51 52.48 53.16 53.60 55.07 55.20 55.49 56.89 57.00 57.24 58.50 59.26 59.16 57.98 58.89 59.28 59.93 59.85 60.54 60.22 59.98 59.82 59.41 59.10 60.43 59.82 59.55 59.47 59.58 59.20

GFSSGP_sfc_wetblb_027.txt.gz
Wetbulb
68.00 65.37 61.07 60.29 55.55 55.21 52.06 54.03 56.45 56.28 56.34 55.98 55.88 55.86 55.32 56.83 56.74 52.29 64.11 67.68 68.15 66.01 68.74 72.97 73.98 73.25 72.87 72.70 72.53 71.88 71.34 70.94 69.98 69.03 68.64 68.28 68.08 68.06 67.89 67.75 67.57 67.27 67.29 67.37 67.53 67.59 67.38 66.90 65.97
66.18 61.94 61.65 60.26 53.61 49.62 52.23 56.10 56.21 57.77 59.25 59.91 54.94 53.92 52.50 53.52 57.06 60.30 64.95 67.17 67.85 66.86 69.78 71.21 73.96 73.33 73.20 73.08 72.89 72.44 71.99 71.32 70.48 69.72 69.24 68.88 68.66 68.78 68.90 68.67 68.54 68.17 68.01 67.65 67.94 68.23 68.62 68.27 67.80
62.92 61.50 59.72 58.35 55.54 51.52 52.49 56.09 57.57 59.07 59.45 57.72 54.65 54.67 54.39 55.25 59.18 61.96 67.33 68.30 67.14 67.59 70.29 72.21 73.98 73.53 73.33 73.31 73.21 72.81 72.39 71.90 70.58 69.50 69.66 69.68 69.36 69.43 69.92 69.50 68.94 68.28 68.18 67.86 67.83 68.70 69.29 69.00 68.62
60.58 62.37 61.16 54.17 52.25 55.03 55.36 57.76 58.43 58.26 58.55 56.68 55.20 54.16 56.77 59.45 60.19 63.13 67.80 68.87 66.84 67.46 70.03 72.00 73.83 73.73 73.61 73.38 73.28 72.84 72.76 71.99 71.22 70.46 70.63 70.20 69.98 71.10 71.15 69.98 69.65 69.04 68.84 68.48 68.46 69.77 69.16 68.51 68.74
64.24 62.23 54.70 52.85 52.96 55.44 57.31 58.85 58.74 57.17 56.99 57.36 54.49 54.26 55.97 58.80 61.64 64.19 67.22 68.61 67.50 67.36 69.06 70.93 73.61 73.85 73.90 73.73 73.38 73.16 72.84 72.37 72.14 71.59 70.98 70.91 71.42 70.76 70.51 69.79 69.37 69.31 69.14 68.81 68.55 68.96 69.76 69.98 69.83
58.62 59.05 51.45 49.32 51.46 54.91 56.73 58.58 57.62 56.92 56.66 56.69 53.95 54.43 56.83 59.51 61.29 63.86 67.29 68.72 69.04 68.25 68.93 70.98 73.04 73.75 73.73 73.61 73.51 73.25 73.10 72.81 72.53 72.29 72.00 71.82 71.65 70.76 70.33 69.68 69.18 68.94 68.96 68.89 68.73 68.82 69.41 69.23 69.58
56.50 55.44 50.15 50.18 50.12 51.93 54.90 58.05 56.19 55.80 55.87 55.78 55.82 54.25 58.24 59.27 61.42 64.20 67.19 69.02 68.51 69.42 69.11 70.87 71.97 73.44 73.65 73.53 73.33 73.22 73.24 72.92 72.87 72.64 72.25 72.28 71.70 70.98 69.25 68.26 67.72 67.67 67.70 67.84 67.98 68.23 68.48 68.63 68.32
59.38 56.29 49.63 50.85 49.10 50.13 55.63 56.33 57.04 56.75 56.08 57.73 57.28 55.07 57.25 60.89 61.06 65.06 67.31 67.41 67.54 68.40 69.20 70.18 71.82 72.19 72.25 72.26 73.69 73.54 73.35 73.20 72.95 72.56 72.41 72.32 70.42 69.03 67.82 68.12 66.98 67.00 66.90 67.00 67.28 67.47 68.53 68.34 68.32
58.06 52.00 48.01 49.10 49.62 52.26 56.19 55.27 57.04 58.07 57.94 58.04 58.76 59.26 60.47 60.55 60.50 63.58 65.16 65.61 66.14 66.91 68.29 69.12 69.70 71.30 71.90 71.70 72.07 73.65 73.01 72.58 72.72 71.90 71.13 70.30 68.50 67.58 67.48 67.47 66.89 66.46 66.17 65.95 66.26 66.67 67.23 67.86 67.96
55.76 51.43 50.59 53.91 54.06 53.34 54.84 55.24 56.29 56.24 56.75 57.25 58.60 60.78 59.97 59.87 59.88 60.91 62.98 63.18 64.61 65.65 66.85 68.13 69.30 70.43 71.11 70.71 72.02 72.18 71.19 70.51 70.81 69.97 69.34 68.94 68.16 67.98 66.84 66.53 66.28 66.22 65.69 65.69 66.07 66.40 67.11 67.11 67.88
55.75 51.46 54.65 54.97 55.72 55.56 55.29 55.45 57.44 55.74 54.39 57.11 57.16 59.29 61.58 62.01 60.65 60.18 61.50 62.92 63.81 65.58 66.53 67.39 68.80 70.32 70.61 70.10 70.38 69.70 69.34 69.18 68.74 69.24 69.31 68.45 67.42 67.52 67.14 66.94 66.35 66.22 65.40 65.59 65.47 65.59 65.73 65.78 67.00
52.21 55.19 55.82 56.16 56.92 55.99 54.91 57.05 55.49 56.70 57.15 59.58 60.01 60.88 61.26 60.75 60.35 59.89 60.29 62.02 63.45 64.33 65.62 66.54 68.35 69.22 70.28 69.13 67.89 66.93 65.98 66.47 66.66 67.28 68.08 67.64 66.58 66.58 66.24 65.35 65.23 65.35 64.82 64.97 65.40 65.11 65.53 66.34 66.91
52.60 54.10 55.95 57.25 57.14 56.61 56.92 54.94 54.58 55.15 58.02 59.55 60.21 60.26 59.66 59.67 60.70 61.19 61.12 62.09 62.85 63.02 64.02 65.00 67.22 68.29 68.05 67.06 66.21 65.96 66.11 65.91 66.37 66.45 66.74 66.46 66.02 66.14 66.19 65.71 65.03 64.99 65.16 64.58 64.44 64.47 64.77 65.34 66.62
53.09 53.82 53.94 55.40 55.23 55.61 53.25 53.00 53.49 54.12 57.32 56.68 57.01 56.95 57.79 58.87 60.09 60.86 60.73 60.97 61.79 62.62 62.22 63.95 65.85 66.87 66.24 65.89 66.46 66.19 66.50 66.22 66.07 65.78 65.99 66.43 65.93 65.83 65.13 65.04 64.71 64.92 65.28 64.76 64.34 63.91 64.08 64.91 65.65
50.80 48.71 50.62 50.89 51.99 50.68 51.01 47.63 48.58 53.05 54.65 53.94 54.68 56.38 57.52 59.10 59.75 59.58 61.70 61.92 62.57 62.47 61.62 63.06 65.00 65.67 65.57 65.87 66.39 66.48 66.09 65.89 65.59 65.95 66.79 66.33 66.59 66.33 65.89 65.18 65.29 65.11 65.01 65.11 64.56 64.53 64.49 64.48 65.23
47.27 47.08 43.99 49.11 49.57 49.88 49.30 44.71 50.84 53.81 53.63 53.71 55.20 55.99 56.80 58.46 59.45 60.84 61.87 62.63 63.03 61.32 61.09 62.83 63.25 64.49 65.40 65.93 66.24 65.92 65.77 65.89 65.73 66.00 66.63 66.75 67.06 66.70 66.17 65.16 65.13 64.78 64.88 64.77 63.97 63.85 62.95 63.64 64.22
45.19 42.21 42.64 44.75 48.60 48.20 48.91 46.26 50.62 53.28 53.24 53.00 54.39 55.45 56.16 57.28 59.88 61.99 61.52 61.86 60.44 61.05 62.32 62.53 63.65 63.87 65.20 66.29 65.81 65.86 66.17 65.79 66.12 66.36 66.39 66.93 66.75 66.39 66.05 65.56 64.26 65.27 63.99 63.84 63.82 63.48 63.06 63.02 63.82
40.69 40.19 42.89 42.54 46.45 46.88 46.36 46.54 50.09 52.39 53.03 52.92 54.27 55.38 56.22 57.05 58.69 61.12 60.66 60.12 60.97 61.56 63.30 63.92 64.55 65.07 65.90 65.55 65.09 65.54 65.47 65.61 66.12 66.34 66.48 66.69 66.48 66.22 66.08 64.72 65.18 64.71 63.84 63.15 63.06 63.55 62.91 63.45 64.21
45.28 44.03 43.85 45.41 47.77 46.18 47.07 47.75 50.02 52.55 52.65 52.71 53.77 54.71 56.15 57.63 59.92 57.65 58.04 59.73 60.66 61.97 62.57 63.92 64.10 65.27 64.59 63.88 63.73 64.25 64.18 65.64 65.76 66.17 66.42 66.28 66.26 66.32 65.68 64.57 63.95 63.42 62.98 63.60 63.50 62.70 62.34 62.92 64.17
42.65 41.88 42.40 45.48 47.28 47.07 47.38 46.82 49.90 51.44 51.63 52.79 53.46 54.59 55.92 57.86 58.21 57.00 57.28 59.46 60.57 61.51 62.50 63.33 64.42 64.48 64.59 64.87 65.16 66.35 66.53 66.26 65.79 66.05 66.15 65.93 66.23 66.36 65.36 64.11 62.06 63.43 63.24 63.31 62.85 62.89 61.34 62.44 63.22
42.19 41.49 42.26 43.13 46.32 47.67 46.66 45.01 47.48 50.76 52.45 52.94 54.13 56.24 57.15 57.36 57.74 56.77 57.20 58.86 60.54 61.25 62.37 63.66 64.39 64.38 64.97 65.86 65.48 65.71 65.46 64.95 64.92 65.33 65.42 65.97 64.97 65.59 65.30 63.53 63.01 63.61 64.15 62.75 62.57 62.67 63.05 61.41 62.60
39.92 45.48 44.65 43.51 42.11 40.36 46.22 38.81 45.99 48.48 49.10 51.64 53.83 55.82 56.88 56.69 56.99 57.47 57.70 58.87 60.15 61.41 63.31 64.13 64.44 64.38 65.49 66.13 65.48 65.04 63.16 62.52 64.23 64.38 64.61 64.86 64.69 64.78 64.95 64.96 64.57 64.54 63.81 63.40 62.48 63.27 63.65 63.75 61.52
42.51 46.48 44.69 43.67 41.98 42.44 42.90 39.91 43.78 48.41 47.04 49.77 51.85 54.97 56.84 55.75 57.46 57.31 58.07 59.40 60.87 62.03 62.62 63.63 64.16 65.33 65.63 65.84 65.51 63.87 62.98 63.94 64.30 63.90 63.45 64.59 65.69 64.68 64.29 65.17 64.74 64.63 63.87 63.64 63.25 63.37 63.42 63.55 63.81
47.10 45.60 45.31 45.04 43.46 36.79 42.34 41.19 41.01 44.68 46.80 49.34 52.26 55.20 55.55 55.96 56.52 57.57 59.01 60.12 61.03 62.34 62.36 63.42 64.26 64.89 65.40 65.43 65.00 63.85 62.85 62.49 63.43 63.78 64.26 64.22 64.43 64.06 64.86 64.05 64.70 64.60 63.87 63.42 63.29 63.73 62.50 61.82 64.48
45.97 42.93 35.91 34.55 35.27 35.79 43.13 40.39 41.95 47.91 49.69 51.20 52.81 55.66 56.09 56.52 56.65 57.08 57.98 59.18 60.40 60.98 62.06 63.13 64.18 63.98 64.87 64.95 64.43 63.73 63.28 62.89 63.03 63.67 63.76 63.41 63.33 63.95 64.63 64.96 64.45 63.75 64.33 64.38 64.23 64.08 64.16 64.31 64.81
43.48 43.39 38.18 31.33 32.72 36.78 41.84 36.95 40.87 50.04 52.03 52.70 54.76 55.52 56.18 56.36 57.08 57.38 58.56 59.64 60.23 61.27 62.20 62.95 63.75 64.15 64.70 64.78 64.39 64.40 63.79 64.76 64.80 64.58 64.62 64.27 64.33 64.27 65.43 64.64 64.49 64.40 64.44 64.27 64.67 64.32 64.28 64.78 64.98
42.55 40.08 45.62 40.61 40.09 38.61 40.59 42.53 48.36 51.64 51.85 52.80 53.49 54.27 55.38 56.24 56.64 57.47 58.69 59.64 60.59 61.30 62.40 63.28 63.61 64.32 64.66 64.64 64.46 64.21 65.03 64.85 64.96 64.40 65.27 65.38 65.22 64.64 64.94 65.09 64.29 64.51 64.50 64.27 64.59 63.78 64.26 64.84 65.14
44.77 46.05 37.90 40.20 33.11 31.35 37.33 40.23 42.36 48.65 50.49 52.83 53.49 54.19 54.96 56.20 56.31 57.26 58.14 59.30 60.82 61.88 62.93 63.44 64.11 64.00 64.37 64.56 64.35 64.58 65.04 65.13 64.36 65.45 64.26 64.91 65.23 65.35 64.74 64.83 64.97 64.84 64.44 64.35 64.58 64.08 64.74 64.58 64.71
41.51 41.38 42.24 42.70 40.20 34.77 34.01 39.37 50.89 51.33 52.63 53.94 55.73 55.61 55.12 55.70 56.40 57.15 58.39 59.27 60.82 61.93 62.14 62.72 63.05 62.88 63.61 64.13 63.78 64.23 64.97 64.28 63.86 65.13 64.91 65.36 65.43 65.12 64.65 64.44 64.57 64.47 64.00 64.43 64.52 64.42 63.97 63.42 62.34
43.90 42.83 42.92 37.88 35.87 39.82 39.88 39.97 50.59 52.88 52.76 54.28 55.16 54.52 55.84 56.98 57.23 57.92 58.51 59.14 59.94 60.75 61.43 62.01 62.67 62.35 63.27 63.89 63.19 64.16 64.47 63.78 63.89 64.42 64.61 65.64 64.97 64.72 64.75 64.39 64.21 62.33 62.31 63.07 63.31 62.12 62.75 62.11 61.80

GFSSGP_sfc_wetblb_030.txt.gz
Wetbulb
67.75 65.05 65.04 63.94 56.65 54.26 52.15 56.39 60.26 58.78 59.06 60.62 60.84 59.51 58.10 59.03 57.12 55.10 67.03 71.28 71.35 68.97 71.71 73.75 73.93 73.37 73.04 72.84 72.42 72.05 71.65 71.23 70.03 69.18 68.68 68.33 68.14 67.74 67.72 67.55 67.47 67.35 67.17 67.01 67.22 67.44 67.68 67.28 66.73
63.62 62.16 64.35 63.56 53.89 52.99 54.23 59.54 58.02 59.65 60.47 61.82 61.48 60.28 58.14 57.10 60.42 61.20 65.48 70.74 70.92 69.31 71.93 72.24 73.95 73.33 73.32 73.22 72.90 72.48 72.09 71.38 70.46 69.74 69.33 69.01 68.82 68.73 68.68 68.67 68.69 68.71 68.44 68.32 68.03 68.08 68.48 68.58 68.45
63.39 64.52 62.35 60.69 57.82 54.28 55.50 59.26 59.58 60.12 60.66 60.07 59.10 59.13 58.26 58.34 60.87 62.52 69.05 71.25 71.17 69.83 71.32 72.72 74.05 73.48 73.55 73.47 73.21 72.83 72.54 71.86 70.54 70.14 69.78 69.55 69.15 69.12 69.73 69.53 69.55 69.17 68.75 68.62 68.35 68.29 68.59 69.38 69.16
62.10 63.96 62.59 56.50 54.46 56.97 58.47 59.77 60.35 59.66 60.40 60.04 59.44 57.92 59.78 62.45 62.06 64.46 69.76 71.19 70.24 69.76 70.98 72.88 74.18 73.70 73.72 73.60 73.45 73.23 72.93 72.14 71.33 70.41 70.27 69.87 69.62 70.62 71.12 69.86 70.18 69.89 69.14 69.07 68.89 68.70 69.24 69.87 68.81
63.80 62.16 54.74 54.21 55.15 57.38 60.10 61.23 60.48 59.26 59.33 59.20 58.55 57.82 58.99 62.44 63.66 65.01 69.28 70.42 69.22 70.01 70.63 72.95 73.95 74.05 74.03 73.80 73.63 73.40 73.28 72.71 72.49 71.38 70.86 70.76 71.13 71.59 71.07 70.63 70.32 69.96 69.82 69.65 69.36 69.01 69.49 69.45 69.46
59.42 60.18 53.77 52.34 54.50 57.19 59.19 60.13 59.47 59.19 59.91 59.51 57.62 57.83 59.54 63.34 63.67 65.02 68.20 70.64 69.71 69.64 71.04 73.19 73.97 74.00 73.75 73.73 73.63 73.35 73.10 72.83 72.54 72.54 72.26 72.06 72.02 72.07 71.08 70.65 70.06 69.58 69.37 69.32 69.18 69.13 70.06 69.54 69.39
57.32 56.21 52.55 53.65 53.79 54.88 57.11 60.00 58.77 58.51 58.91 58.58 60.29 57.19 60.97 63.10 65.31 65.89 67.41 70.01 70.73 70.37 70.81 72.82 74.04 74.18 74.04 73.70 73.53 73.35 73.07 72.97 72.82 72.82 72.56 72.43 72.26 71.80 70.75 70.15 69.13 68.26 67.93 68.08 68.30 68.52 68.93 68.77 68.62
59.31 57.27 53.66 54.15 52.99 53.30 57.43 58.49 59.47 58.69 58.22 61.72 60.68 57.89 59.25 64.39 65.54 65.86 67.24 67.84 69.83 70.17 70.46 71.09 73.35 73.16 73.36 73.28 73.80 73.67 73.51 73.28 73.18 73.11 72.86 72.81 71.97 71.25 69.66 69.39 68.11 67.49 67.20 67.16 67.28 67.69 67.77 68.56 68.73
62.22 54.71 52.14 53.09 53.38 54.97 58.55 57.43 59.72 60.91 59.38 60.11 61.40 61.30 63.18 64.68 65.12 65.62 66.00 66.89 67.49 67.99 70.30 70.61 71.49 72.41 73.05 72.54 72.83 73.65 73.28 73.20 73.14 72.39 72.14 72.17 70.63 69.70 69.67 69.63 67.57 67.31 66.85 66.69 66.37 66.40 66.85 67.34 67.93
58.42 54.30 53.74 57.04 57.47 56.61 57.81 57.67 58.07 57.88 58.74 58.89 59.75 62.35 63.60 64.38 64.93 64.50 64.65 64.54 66.05 66.86 68.43 70.04 71.51 72.21 72.62 71.14 72.58 73.61 72.18 72.34 71.70 71.31 71.77 71.16 70.29 69.91 68.75 68.57 67.00 66.96 66.69 66.47 66.14 66.28 66.42 67.21 68.17
58.58 54.58 57.32 57.72 58.54 58.97 57.80 57.94 59.47 57.83 56.63 59.26 58.92 60.38 62.16 62.74 63.66 63.93 64.77 65.30 64.97 66.66 68.00 69.13 71.73 72.56 72.49 71.48 71.72 72.33 71.83 71.20 71.24 71.64 71.43 70.66 69.36 69.29 68.91 68.72 67.77 68.49 67.84 67.31 67.07 67.22 66.97 66.66 66.40
55.44 58.04 58.29 58.52 59.23 58.67 57.44 59.36 57.89 58.80 58.80 60.97 60.86 60.74 61.11 61.80 62.42 61.99 62.52 65.12 65.57 65.61 67.52 69.48 70.76 72.09 72.86 71.62 71.29 71.51 70.22 69.90 69.35 69.33 70.14 69.83 68.80 68.88 68.72 68.08 67.39 68.24 67.31 67.19 66.96 65.94 66.78 66.75 67.03
55.00 56.61 57.88 58.63 59.01 59.02 59.20 57.92 57.90 58.11 59.81 60.83 60.03 59.63 59.82 60.40 60.97 61.85 62.79 64.63 66.84 65.65 67.27 69.16 70.79 71.79 72.67 72.61 71.37 70.60 69.21 67.95 68.66 68.26 69.28 69.40 68.23 68.30 68.48 68.30 67.59 67.33 66.50 65.68 66.24 65.86 65.85 66.37 66.50
55.97 55.57 55.86 57.48 58.09 58.59 56.97 57.11 57.55 57.93 58.94 58.44 57.98 58.28 58.85 58.67 59.93 61.51 62.91 65.29 66.76 67.02 67.46 69.26 70.11 71.78 72.30 72.40 71.78 69.55 69.15 68.63 68.26 67.72 68.68 69.55 68.89 68.57 68.14 67.36 66.87 66.74 66.89 66.98 67.22 65.67 65.39 65.73 66.04
55.64 52.78 54.54 55.07 55.85 55.60 57.21 53.46 53.45 56.76 57.03 56.31 57.00 58.13 58.71 59.27 60.50 62.04 64.12 65.55 66.88 67.67 68.30 68.57 69.42 71.34 71.79 71.27 69.95 69.34 68.60 68.37 67.50 67.70 69.45 69.50 69.56 69.08 68.75 67.82 66.71 67.17 67.70 68.08 67.71 66.31 66.06 65.53 65.70
51.70 52.67 48.70 53.72 54.41 54.58 54.39 48.73 54.96 57.11 56.28 56.17 57.02 57.83 58.20 58.80 60.54 62.31 63.61 65.60 67.60 68.11 67.71 68.02 67.91 70.08 70.76 70.67 69.37 68.32 68.36 67.96 67.67 68.31 69.03 69.51 69.44 69.45 69.06 67.40 66.14 67.31 66.99 67.19 66.97 65.61 64.57 63.99 65.80
50.31 46.50 48.63 50.65 54.84 52.96 51.93 49.93 54.93 56.76 56.07 56.02 57.20 58.12 57.99 58.15 60.49 63.30 64.46 66.12 67.03 67.75 67.73 66.67 67.86 68.91 69.58 69.40 68.97 69.09 69.26 67.83 67.89 68.62 68.81 69.22 69.24 68.96 68.57 67.41 67.04 67.71 66.36 66.20 65.85 65.41 64.77 64.87 64.65
46.18 47.12 48.91 49.73 53.48 51.12 50.34 50.26 54.10 55.31 55.14 56.31 57.21 57.75 57.53 57.96 59.83 62.59 64.90 65.43 65.90 66.65 66.95 67.01 67.29 68.59 69.02 68.70 68.82 67.99 67.46 67.54 68.26 68.48 68.57 69.09 69.19 68.65 67.61 67.38 67.28 67.15 65.72 65.65 65.71 64.64 64.99 64.48 64.74
49.76 49.34 48.88 50.77 53.53 51.47 50.69 51.35 53.37 55.80 56.14 56.36 57.21 57.72 57.89 58.92 62.17 63.75 64.01 63.92 64.33 65.66 66.07 66.63 66.97 68.41 67.86 67.07 66.11 65.95 65.05 66.60 67.67 68.20 69.04 68.70 68.73 67.55 67.72 67.76 66.60 66.14 65.24 65.33 65.01 65.52 64.05 63.92 65.44
47.80 47.35 48.23 51.07 52.68 51.93 50.32 50.41 54.07 55.85 56.24 56.68 56.93 57.27 57.95 59.43 61.81 62.98 62.90 63.50 64.68 65.05 66.10 66.73 67.22 68.08 68.00 67.18 67.34 66.68 66.84 67.86 68.12 68.80 68.44 68.46 68.24 67.25 67.10 66.28 65.94 65.61 63.54 64.79 64.94 64.67 64.54 63.61 65.64
46.20 45.60 47.01 47.41 50.67 51.67 49.95 48.01 50.93 54.80 56.47 57.20 57.37 57.70 57.86 58.12 61.36 62.79 62.23 63.66 64.71 64.87 65.88 66.45 67.64 68.14 68.38 68.55 67.63 68.00 67.88 67.45 66.18 66.74 67.03 67.65 67.75 67.56 67.34 65.79 65.87 64.15 64.95 64.70 65.35 65.27 63.55 63.14 64.90
44.05 48.15 47.27 46.70 45.61 42.11 49.26 42.67 50.11 53.35 54.37 55.63 56.47 57.37 57.25 59.65 61.63 62.54 62.92 63.53 64.38 64.94 66.31 67.18 67.71 68.04 68.03 68.40 67.49 67.03 65.16 64.08 66.96 66.12 67.98 66.74 67.43 66.77 66.58 66.14 65.31 65.63 66.19 65.47 65.33 65.58 64.57 65.36 63.69
45.71 48.90 47.72 47.17 45.61 45.52 46.04 43.86 48.46 52.87 51.69 53.66 56.10 56.92 57.58 60.93 61.17 62.42 63.02 63.83 64.49 65.27 66.04 67.11 67.68 67.38 68.12 68.34 67.97 66.39 65.72 65.91 66.86 67.15 66.00 67.50 67.23 65.82 65.95 66.56 66.74 66.36 66.93 66.12 65.56 64.32 64.91 64.95 65.28
48.35 47.38 47.76 47.97 46.16 40.30 44.94 44.46 45.90 49.79 52.42 54.34 56.69 55.60 56.97 61.30 61.81 62.83 63.59 64.05 64.35 65.51 66.16 66.69 66.61 67.38 68.15 68.23 68.08 66.53 66.02 65.48 65.67 65.99 66.05 66.69 67.65 66.72 66.64 66.41 66.57 66.93 66.69 65.46 64.95 65.43 65.61 66.55 65.96
47.15 45.32 40.00 38.46 39.19 38.59 47.13 45.27 46.79 52.55 53.99 55.16 54.63 55.41 60.26 61.64 62.15 62.18 62.46 62.95 63.75 64.47 65.39 65.66 66.42 66.36 67.64 67.57 67.30 66.75 66.51 65.68 65.77 65.63 66.36 65.74 66.49 65.82 66.01 66.61 66.10 66.58 66.27 65.92 65.81 65.85 65.65 64.18 65.42
45.30 46.19 41.52 35.36 37.94 41.68 47.48 42.73 47.76 52.59 55.24 56.07 55.63 56.31 60.68 61.47 62.36 62.48 62.82 63.40 63.63 64.23 65.00 65.31 65.81 65.70 66.63 66.92 66.69 66.89 67.02 66.87 66.53 66.80 67.08 67.05 66.36 65.56 66.90 66.57 66.53 66.33 66.62 66.52 66.62 67.21 66.65 67.01 67.01
45.46 43.38 48.70 45.37 46.54 42.47 45.76 48.24 50.59 51.95 52.50 53.68 54.42 55.36 59.43 61.34 62.04 62.27 63.15 63.73 63.85 64.35 65.10 65.50 65.46 65.56 66.14 66.50 66.63 67.02 67.13 66.81 66.79 66.91 68.13 68.05 66.69 66.05 66.57 66.61 66.34 66.41 66.39 66.37 66.76 67.42 66.43 67.00 66.44
47.88 49.38 43.07 45.05 38.35 37.16 42.59 43.84 44.12 49.51 51.59 53.72 56.04 56.83 59.21 61.43 61.73 62.40 63.01 63.50 64.33 65.03 65.56 65.77 65.22 65.22 66.07 66.58 66.46 66.66 66.79 67.22 67.57 68.06 66.86 66.33 66.84 66.18 66.23 66.26 66.45 66.38 66.49 66.35 66.65 66.62 66.72 66.14 65.64
45.48 45.14 46.83 47.24 45.12 40.17 39.15 42.36 50.11 50.67 53.49 55.56 57.35 58.86 60.54 60.94 61.57 62.16 62.83 63.64 64.42 64.98 65.05 64.56 64.89 65.33 65.82 65.91 66.40 66.36 66.76 67.04 67.46 67.74 66.82 66.45 67.08 66.43 65.57 65.83 65.84 65.88 66.14 66.28 66.46 66.33 65.97 65.16 65.44
47.59 46.49 47.15 42.15 41.16 44.18 44.00 42.78 52.91 54.76 56.50 56.67 57.78 60.24 60.84 61.54 61.88 62.18 62.67 63.38 63.80 64.31 64.10 63.98 64.50 64.46 65.37 65.77 65.50 65.85 66.52 66.87 67.31 66.27 66.17 66.34 66.13 66.50 65.74 65.88 65.44 65.17 65.41 66.02 65.82 64.65 64.90 64.50 64.51

GFSSGP_sfc_wetblb_033.txt.gz
Wetbulb
68.07 65.53 66.32 63.99 55.71 53.82 53.33 54.82 60.17 58.67 59.37 61.80 62.18 60.78 59.89 60.42 57.63 55.67 68.81 69.97 69.49 69.29 74.27 72.74 73.57 73.47 73.24 72.89 72.42 72.22 71.80 71.30 70.16 69.29 68.63 68.12 67.86 67.56 67.35 67.21 67.11 67.08 67.05 66.80 67.04 67.34 67.56 67.94 67.64
62.51 62.92 63.94 61.65 53.08 51.56 53.21 58.09 58.09 60.43 61.72 62.86 62.55 61.95 60.53 58.33 62.09 62.86 66.07 70.74 69.60 69.78 74.49 71.29 73.57 73.42 73.54 73.37 72.92 72.50 72.20 71.40 70.32 69.59 69.24 68.86 68.62 68.33 68.12 68.38 68.42 68.46 68.55 68.10 67.88 67.93 68.34 68.77 68.85
67.02 64.04 61.19 58.34 56.29 53.22 53.70 58.79 59.76 61.28 61.85 61.18 60.45 61.58 60.16 59.61 62.81 63.80 69.63 70.75 69.73 69.78 74.10 72.86 73.77 73.35 73.50 73.50 73.08 72.93 72.51 71.91 70.68 70.24 70.08 69.72 69.43 69.40 69.24 69.31 69.47 69.44 69.45 69.01 68.74 68.47 68.39 68.91 69.64
63.10 62.62 61.72 57.27 55.50 57.78 57.67 59.85 61.07 59.99 61.60 61.64 61.02 58.42 61.80 64.34 63.06 65.40 68.99 70.24 69.39 69.08 71.94 74.42 73.65 73.53 73.57 73.90 73.58 73.23 73.10 72.35 71.52 70.69 70.46 70.23 69.89 70.28 70.44 69.70 69.67 69.79 70.07 69.76 69.47 69.39 68.99 69.15 70.07
63.03 61.00 55.44 54.07 54.05 56.83 59.56 60.97 61.35 59.32 59.88 59.91 60.18 58.08 59.88 64.28 65.52 65.94 68.43 69.53 68.89 68.91 70.39 74.24 73.87 73.85 73.85 73.95 73.75 73.63 73.20 72.76 72.38 71.69 71.11 70.46 70.64 71.13 70.86 70.55 70.54 70.47 70.14 70.10 69.99 69.84 69.93 70.25 69.58
58.37 59.26 53.99 51.92 53.91 57.26 59.23 60.45 60.27 59.21 59.31 60.20 59.07 59.00 60.48 65.07 65.37 66.06 67.44 69.71 69.48 69.08 70.49 72.47 74.36 73.85 73.70 73.75 73.87 73.60 73.35 73.03 72.83 72.63 72.03 72.08 71.93 71.71 71.51 71.21 70.94 70.36 69.80 69.65 69.16 69.38 69.17 69.26 68.98
57.05 57.02 53.45 53.95 53.66 55.55 58.04 60.76 58.66 58.46 59.05 59.03 61.12 57.72 61.45 63.92 66.59 67.15 67.89 68.72 70.47 69.56 70.35 71.07 75.22 74.31 73.92 73.92 73.55 73.45 73.39 73.19 73.02 72.80 72.53 72.58 72.06 72.09 71.61 71.20 70.49 69.60 68.89 68.28 68.16 68.33 68.55 68.80 68.71
58.65 57.63 54.04 54.83 53.07 53.27 58.44 58.88 60.37 58.88 58.42 63.19 62.47 58.09 59.38 64.35 66.70 66.99 67.55 67.88 68.85 70.03 69.57 70.53 73.18 74.64 73.82 72.76 73.82 73.84 73.66 73.29 73.26 72.90 72.68 72.55 72.11 71.67 71.69 71.08 69.89 69.01 67.73 67.59 67.19 67.34 67.60 68.02 68.75
61.61 54.61 52.52 53.81 54.04 55.15 58.86 57.76 60.87 61.45 59.99 60.45 61.36 61.43 63.15 65.18 65.98 65.87 66.22 66.60 67.52 67.97 69.96 70.63 70.04 72.48 73.28 72.16 72.94 73.67 73.20 72.90 73.00 72.31 72.16 72.46 70.27 69.95 71.17 70.80 70.71 68.66 67.86 67.37 67.16 66.85 66.76 67.12 67.54
57.89 55.65 55.12 58.08 57.83 56.73 59.11 58.52 59.28 58.91 58.79 59.32 60.63 62.87 63.18 64.32 64.63 64.11 63.88 63.79 64.98 66.58 68.43 69.92 70.74 72.35 72.66 71.39 73.53 73.76 72.10 71.60 71.36 71.26 71.26 71.98 72.05 70.85 69.65 70.08 67.72 68.05 67.91 67.53 67.24 67.02 66.71 66.74 66.29
59.00 55.32 58.49 58.46 59.14 59.82 58.65 58.94 60.43 58.54 57.58 59.56 59.67 61.59 62.50 62.81 63.07 62.80 63.06 63.60 63.85 65.77 67.35 69.15 74.30 75.02 73.45 71.76 71.67 72.91 72.66 71.69 72.22 72.23 73.81 73.64 70.65 69.68 69.35 69.35 68.72 68.50 68.70 67.85 67.45 66.72 67.05 67.07 65.86
55.42 58.15 59.18 59.59 60.21 59.39 58.23 59.39 59.16 59.60 59.87 62.02 62.13 62.73 62.30 61.33 61.64 61.88 62.42 62.90 63.16 63.86 67.35 68.63 71.76 74.76 75.52 72.80 71.22 71.93 72.06 72.12 71.18 71.43 73.20 72.12 69.53 69.99 69.82 68.83 69.08 70.32 68.15 68.27 69.25 66.57 68.14 68.25 66.93
54.92 55.85 57.48 59.14 59.68 59.49 59.86 58.45 58.54 59.24 61.58 62.57 62.20 61.89 61.26 60.82 61.36 62.53 62.71 62.83 63.44 63.69 65.38 68.23 72.68 74.82 75.11 75.89 72.43 72.60 72.80 70.87 71.36 70.38 70.73 70.05 69.13 70.48 69.47 69.62 68.52 68.48 68.58 67.57 66.73 66.92 66.74 66.70 65.90
57.24 57.18 56.98 57.70 57.77 58.26 57.73 58.12 59.05 59.91 62.05 61.61 61.16 60.73 60.53 60.35 61.28 62.24 62.62 62.89 64.74 67.08 67.48 69.18 72.77 75.37 74.07 74.30 75.89 74.03 74.02 71.28 69.49 69.11 69.21 70.61 69.86 70.73 68.98 68.93 68.60 68.19 69.15 68.00 69.04 67.39 65.11 65.10 65.96
57.40 54.82 56.56 57.10 57.41 56.73 57.76 55.00 56.03 59.98 60.96 60.21 59.78 59.54 60.00 60.61 61.77 62.07 62.76 65.57 65.83 67.97 69.82 70.49 74.21 75.15 74.98 74.63 74.63 73.76 71.45 70.19 68.67 68.78 70.12 69.91 70.55 70.42 69.72 68.17 67.96 68.20 70.85 68.84 68.85 67.36 67.98 65.98 66.02
53.31 54.70 50.95 55.72 56.53 56.77 56.41 51.41 56.72 59.53 59.46 58.74 58.67 58.94 59.33 60.83 61.92 63.03 62.46 64.48 68.78 70.63 70.46 70.84 69.35 72.05 73.70 74.49 73.94 71.96 69.98 69.31 68.63 68.59 69.07 70.33 70.60 70.40 69.69 68.11 67.87 68.23 69.19 69.14 67.43 66.07 65.95 65.07 66.73
52.20 48.34 50.03 52.10 56.70 55.86 55.16 52.57 56.46 58.13 58.26 57.74 58.65 58.54 59.09 60.49 61.86 64.00 62.97 64.88 68.49 70.39 70.24 70.26 71.69 70.63 72.46 73.91 72.49 72.02 73.09 69.53 68.67 68.78 68.78 69.89 70.14 69.78 69.67 69.12 68.50 69.65 68.76 67.30 67.24 65.78 67.07 64.50 65.73
46.34 47.76 49.62 49.81 53.88 54.50 53.75 53.46 56.34 57.28 56.90 57.04 58.50 58.47 58.65 60.11 61.26 63.39 64.19 65.06 67.98 68.82 70.26 71.04 70.27 72.38 73.45 72.03 71.72 69.38 68.87 68.84 68.38 68.42 68.83 69.95 69.71 69.15 69.25 68.59 68.72 69.18 68.02 67.21 66.34 66.07 66.09 65.69 65.01
50.07 49.58 49.39 52.01 54.92 52.83 52.86 53.76 55.89 56.54 56.27 56.51 57.47 58.30 59.60 60.37 62.43 63.16 64.89 67.09 66.91 68.03 69.28 69.41 69.12 72.64 71.34 68.88 67.64 67.46 66.70 67.72 67.45 68.55 69.43 69.69 69.20 69.24 69.33 68.58 68.45 68.54 67.24 66.27 66.58 66.36 65.07 65.42 66.17
48.12 47.74 48.50 52.05 54.50 53.56 53.36 52.42 55.00 56.23 56.19 56.81 57.59 58.86 59.87 60.57 61.59 61.61 66.19 66.60 66.51 67.63 68.30 68.51 68.84 70.42 70.46 69.28 70.03 68.60 68.06 67.26 68.28 68.56 69.66 69.41 68.92 69.52 68.40 68.28 67.99 67.75 67.30 66.20 65.02 65.77 64.53 65.14 66.04
47.49 47.07 48.09 48.91 52.46 53.69 52.51 50.74 52.73 55.55 56.89 56.98 57.41 58.56 59.87 60.50 60.45 61.22 65.78 66.08 66.99 67.08 67.75 68.18 68.97 69.49 70.93 71.60 69.96 68.98 68.98 68.98 66.98 67.03 67.66 68.63 68.21 68.00 68.40 67.82 67.23 67.43 67.35 65.54 66.31 66.64 63.87 63.58 64.73
44.37 49.53 49.49 49.03 48.35 44.98 52.09 44.25 50.30 52.82 53.61 55.43 57.21 59.00 60.02 60.16 61.02 61.14 66.07 66.19 66.57 67.11 68.09 68.81 69.09 69.12 69.38 70.17 70.09 69.88 66.17 64.61 66.28 67.57 66.94 68.30 67.62 67.36 67.33 67.49 66.95 66.86 66.05 67.68 65.68 67.10 65.40 65.20 63.37
46.67 50.13 49.87 49.54 47.48 47.20 47.29 44.92 48.34 51.59 51.09 54.23 56.96 58.77 60.02 60.73 60.09 62.96 65.36 66.19 66.94 67.50 67.66 68.62 68.99 68.71 69.28 69.14 69.61 67.60 66.89 65.47 66.58 66.83 67.09 68.33 68.48 67.94 66.92 67.12 66.83 66.74 68.54 66.16 66.24 65.68 65.91 65.38 65.31
49.85 48.27 49.11 49.84 47.72 41.94 46.03 45.54 46.28 49.02 51.89 54.39 57.24 59.16 59.65 59.78 60.63 64.20 65.93 66.55 66.27 67.20 67.75 68.12 68.12 68.23 68.74 68.51 68.73 68.39 67.01 66.30 65.80 66.20 66.23 67.28 69.08 68.09 67.34 66.32 66.90 67.44 66.96 66.35 65.67 65.59 65.93 66.56 66.95
48.68 46.42 40.65 40.02 40.90 41.01 47.34 45.68 48.15 51.84 54.42 55.74 56.57 58.38 58.76 59.16 63.33 64.39 64.83 64.95 65.68 66.21 66.87 67.32 67.41 67.37 68.23 68.16 67.59 67.49 67.32 66.91 66.69 66.56 67.43 66.76 67.32 67.21 67.84 66.96 66.88 67.28 66.98 66.24 66.62 66.34 66.46 66.21 67.06
46.77 46.42 41.44 35.59 38.83 41.47 47.56 43.71 47.86 55.51 56.96 57.98 58.54 58.34 58.22 62.12 63.75 64.26 64.71 65.30 65.33 66.05 66.53 66.59 67.26 66.96 67.62 67.23 67.02 67.49 67.73 66.49 66.89 67.33 67.90 67.60 66.83 67.96 67.21 66.78 66.78 66.81 66.17 66.03 66.98 68.79 67.80 67.58 67.99
46.19 44.52 49.03 44.83 46.65 43.29 46.59 50.47 54.18 55.69 55.51 55.94 56.78 58.19 58.05 62.46 63.78 64.19 64.97 65.30 65.56 65.86 66.26 67.04 66.99 66.93 66.88 66.80 67.08 66.88 67.18 67.29 66.84 67.19 68.57 67.91 67.48 66.34 66.38 66.57 66.68 66.41 66.12 66.64 67.20 67.08 66.20 66.35 66.43
47.31 50.05 43.26 45.68 38.43 38.83 45.04 46.95 48.32 50.85 52.39 54.55 54.65 55.51 58.14 62.43 63.52 64.28 64.68 65.23 65.73 66.22 66.70 67.35 67.11 66.50 66.20 66.53 66.53 66.55 68.13 67.14 67.06 68.22 67.26 67.11 67.36 66.31 66.13 66.45 66.67 66.36 66.50 66.62 67.37 67.45 67.02 66.31 64.05
45.14 45.53 46.46 47.41 45.93 41.53 40.58 45.55 54.15 52.70 54.35 55.10 55.46 56.85 58.31 62.34 63.24 63.77 64.56 65.31 65.72 66.25 66.45 66.50 65.98 65.62 65.86 66.28 66.29 66.84 67.29 66.59 66.95 67.41 66.95 66.94 67.32 65.97 65.32 65.93 65.85 65.74 65.78 66.46 66.84 66.74 65.57 64.67 65.56
47.70 46.93 47.71 43.88 43.08 46.15 46.13 46.22 53.48 54.33 55.44 57.28 58.19 58.81 60.39 63.04 63.56 64.08 64.46 64.86 65.26 65.61 65.89 65.01 65.67 65.33 65.62 65.84 65.84 66.20 67.51 65.92 66.54 66.06 66.58 67.09 66.41 66.26 65.29 65.83 64.98 64.85 65.37 66.36 65.75 64.97 65.38 64.92 64.45

GFSSGP_sfc_wetblb_036.txt.gz
Wetbulb
67.90 65.74 64.15 61.19 54.13 52.07 51.10 53.14 57.23 58.48 58.57 61.25 61.10 59.71 58.88 59.63 56.86 54.87 69.07 69.63 71.68 72.09 70.57 71.50 73.04 72.99 72.86 72.41 72.27 71.85 71.66 71.16 70.67 70.15 69.41 68.50 67.65 67.36 67.20 67.22 66.85 66.82 66.68 66.32 66.28 66.66 67.08 67.81 67.92
61.79 60.51 63.18 59.47 51.20 48.96 49.85 56.75 56.87 58.94 60.82 61.75 61.12 60.75 59.50 58.13 61.38 64.12 66.28 69.70 71.43 72.96 71.51 70.47 73.30 73.20 73.29 72.85 72.60 72.43 72.06 71.68 71.11 70.72 70.10 69.36 68.42 67.76 67.52 67.68 67.59 67.60 67.87 67.71 67.48 67.59 67.92 68.35 68.86
65.00 62.23 57.96 55.07 53.63 49.90 51.44 57.94 59.20 61.07 62.41 60.39 59.51 61.93 60.08 59.36 62.77 65.38 69.78 70.39 71.04 73.45 72.66 70.93 73.35 73.30 73.40 73.27 72.95 72.68 72.48 72.03 71.55 70.61 70.56 70.18 69.52 68.89 68.81 68.97 69.02 69.01 69.21 69.28 68.94 68.78 68.73 68.68 69.19
63.30 60.69 58.72 53.49 53.06 56.59 57.26 59.82 60.78 60.71 61.46 61.55 60.54 57.99 61.71 64.53 63.67 65.46 68.40 69.10 68.87 71.75 73.07 73.18 73.20 73.37 73.47 73.60 73.18 72.88 72.66 72.38 71.96 71.15 71.20 70.82 70.19 70.48 70.71 69.90 69.49 69.51 69.66 69.89 69.90 69.61 69.47 69.55 70.36
62.30 58.70 52.86 51.70 52.26 55.60 57.54 60.03 60.69 59.86 59.71 59.73 60.29 57.74 59.76 63.57 65.74 66.18 68.45 69.23 68.51 68.50 72.46 73.57 73.25 73.60 73.82 73.70 73.62 73.15 72.83 72.53 72.18 72.01 71.80 71.45 71.20 71.16 71.04 70.49 70.22 70.52 70.55 70.14 70.08 70.10 69.86 69.78 70.13
56.27 57.12 50.61 49.92 52.60 55.84 57.75 60.39 59.87 59.07 59.19 59.14 58.76 59.15 60.08 65.03 65.44 65.99 67.39 69.69 68.90 69.78 71.59 73.98 73.39 73.25 73.55 73.77 73.57 73.22 72.83 72.65 72.46 72.31 72.31 71.88 71.76 71.81 71.52 71.32 71.11 71.17 70.55 69.77 69.68 69.31 70.00 69.47 69.26
55.24 53.32 50.74 51.79 52.81 54.74 57.50 61.33 59.08 58.36 58.25 58.83 61.35 57.78 60.93 63.80 66.31 68.21 69.40 70.03 70.57 70.33 70.78 74.45 73.54 73.31 73.77 73.52 73.32 73.32 72.92 72.65 72.75 72.58 72.46 72.26 72.31 72.23 72.06 71.89 71.54 71.22 70.69 69.88 68.49 68.10 68.61 69.24 69.63
57.49 54.81 51.54 53.04 52.97 53.14 57.54 58.36 60.04 58.89 57.77 62.27 62.40 58.02 59.05 65.20 67.11 67.25 66.89 67.01 68.44 69.54 69.07 74.14 73.80 72.83 72.49 72.73 73.77 73.69 73.38 73.23 73.16 73.04 72.89 72.69 72.55 72.21 71.99 71.74 72.03 71.20 70.48 68.98 67.86 67.66 67.62 68.58 69.02
59.00 51.14 49.46 51.61 53.00 54.65 58.69 57.04 60.02 61.40 59.20 60.18 60.94 60.55 62.20 64.05 64.51 64.24 65.33 64.89 65.51 66.66 69.36 70.50 73.95 73.61 72.81 71.65 72.52 73.73 73.57 73.49 73.21 72.94 72.89 72.18 70.26 69.17 70.31 70.63 71.14 70.90 70.41 69.01 68.38 67.60 67.53 67.66 67.49
55.76 51.59 51.78 55.71 56.71 56.20 58.13 58.06 58.80 58.84 58.56 58.95 59.92 62.50 63.39 63.84 63.59 63.19 63.19 62.76 63.65 64.18 65.66 69.30 70.05 72.56 72.95 71.99 71.39 72.50 72.40 72.00 71.54 70.55 70.58 70.68 69.98 70.03 70.22 70.15 72.29 70.62 70.34 68.97 68.48 67.99 67.73 66.85 64.83
57.39 52.93 55.67 57.05 58.63 58.87 57.74 58.28 60.22 58.37 57.04 59.21 59.35 61.00 62.54 62.93 64.08 63.18 61.89 62.36 63.33 64.78 64.95 68.30 70.26 71.85 72.25 70.98 71.17 72.61 71.87 70.98 70.32 70.16 70.52 71.16 71.01 71.18 69.91 68.28 68.39 68.21 69.21 67.11 67.93 66.88 66.09 65.62 65.14
52.09 57.09 57.39 58.06 59.25 58.86 57.68 59.44 58.21 58.85 59.15 61.75 62.53 62.90 62.70 62.60 62.90 62.05 61.48 62.05 62.48 63.76 67.48 67.73 71.13 72.32 71.59 71.41 71.49 72.45 72.16 71.06 70.11 70.32 71.67 71.18 71.57 70.58 69.60 68.60 69.57 67.50 67.74 67.58 67.87 66.14 66.32 65.86 67.00
53.62 54.04 56.07 58.26 58.62 58.39 59.26 57.54 57.71 58.39 61.00 62.01 62.25 62.70 62.66 62.61 63.01 63.21 63.18 64.02 65.44 66.06 67.82 68.86 71.94 71.73 72.78 72.82 71.36 71.62 71.86 71.55 71.04 71.58 71.86 71.54 70.23 69.03 70.14 69.57 69.30 68.79 68.62 67.79 66.39 66.55 66.37 65.86 65.22
55.58 55.15 55.32 56.62 56.53 57.18 55.78 56.19 57.29 58.57 60.77 60.97 61.66 61.73 62.23 62.56 62.49 62.19 64.54 66.06 67.92 68.29 69.58 70.80 72.66 72.46 73.10 71.29 73.88 72.88 73.19 72.70 71.92 71.37 71.11 70.95 70.04 69.88 69.60 70.14 68.97 68.28 69.22 68.44 67.52 66.59 65.82 65.50 65.04
54.82 53.01 55.11 55.93 56.34 56.20 57.78 54.87 55.54 59.01 59.78 59.28 60.39 61.13 61.76 62.52 61.93 61.94 65.20 68.39 69.33 69.02 72.09 73.02 73.49 73.61 72.85 73.23 72.69 75.86 73.65 73.17 70.98 70.29 71.78 70.96 70.41 70.53 70.70 69.55 68.97 68.05 68.88 68.22 67.53 66.98 66.45 65.65 65.23
51.77 52.07 49.24 54.30 55.99 56.54 56.27 50.92 56.83 59.25 58.59 58.38 59.15 60.10 61.03 62.05 61.79 64.90 64.22 68.87 69.57 70.60 71.87 73.39 69.51 73.55 73.45 73.82 73.42 72.93 73.30 71.91 72.06 70.28 70.95 70.55 71.23 70.90 70.65 68.74 67.99 68.55 68.66 68.17 66.68 65.92 65.03 64.72 64.63
50.38 46.64 47.81 50.31 54.93 54.60 54.74 52.18 56.89 59.26 58.57 58.37 58.92 58.98 59.91 60.45 62.69 66.26 66.94 67.18 68.77 71.65 72.33 72.16 72.56 72.78 73.15 74.23 73.86 73.45 73.91 70.27 69.96 71.09 70.39 70.70 70.24 70.23 69.28 68.18 68.63 69.29 68.08 67.04 66.57 65.51 65.38 64.13 63.87
45.26 45.95 48.14 48.82 52.96 54.26 52.94 53.02 56.27 58.29 58.08 58.37 58.87 58.80 59.00 59.25 61.63 64.87 66.87 67.23 72.20 70.65 72.17 74.45 73.16 73.12 73.06 73.15 73.61 72.12 71.18 70.69 71.15 70.28 69.84 71.00 70.67 70.20 68.89 68.30 68.94 68.46 67.28 66.47 65.37 64.98 65.16 64.22 62.12
48.77 48.40 47.45 50.78 53.77 52.51 52.30 52.75 54.48 57.34 57.83 57.34 58.40 58.53 58.98 59.91 62.29 64.59 66.52 71.30 69.52 70.52 71.37 72.72 72.17 73.14 72.03 71.43 69.72 68.92 67.59 69.06 68.83 69.65 70.43 70.19 70.27 69.59 69.21 68.36 68.14 67.37 66.43 65.27 65.14 64.60 63.83 62.88 63.82
46.18 46.05 46.77 50.45 52.30 52.08 51.82 51.85 55.16 56.83 57.10 57.74 58.42 58.11 59.13 59.91 62.30 64.37 66.98 68.94 69.35 69.94 70.95 71.28 71.03 72.81 71.64 71.15 70.11 69.08 68.72 68.08 68.48 69.09 70.28 70.11 69.75 69.55 68.65 68.27 67.53 66.68 66.14 65.00 64.65 64.29 62.43 62.61 64.23
45.33 44.78 46.06 46.39 49.82 51.75 50.52 49.56 52.83 55.70 57.45 58.33 58.55 59.38 60.03 60.11 59.53 60.55 66.15 67.78 68.16 68.35 69.08 69.34 70.68 71.39 71.20 70.99 70.22 72.16 70.66 70.91 69.21 68.78 68.36 69.21 68.93 68.89 68.91 67.99 66.81 66.36 66.23 64.54 64.11 64.40 62.95 61.71 62.99
43.34 47.57 46.83 46.72 45.78 43.26 49.82 42.38 50.74 53.62 54.84 56.80 57.74 58.48 58.94 59.80 61.00 62.62 65.69 66.78 67.43 67.52 68.51 69.27 70.40 70.29 70.55 71.92 70.27 70.14 67.78 66.06 67.68 68.45 67.55 68.58 68.66 68.04 68.06 67.55 66.64 66.31 65.96 64.97 64.74 65.27 63.82 63.30 60.31
45.06 48.05 47.27 47.17 45.86 46.36 46.10 44.26 47.60 52.69 51.80 53.53 56.09 57.39 58.77 60.09 61.87 63.19 66.01 66.81 67.17 67.85 67.89 68.78 69.69 69.45 70.75 71.10 70.11 69.55 69.24 68.75 68.81 67.97 68.20 68.73 68.86 67.67 67.54 67.21 66.46 66.15 66.08 65.85 65.08 65.12 63.34 63.45 62.50
48.97 46.75 46.65 47.03 46.24 41.01 45.91 44.92 44.91 48.57 51.77 53.31 55.99 57.26 58.32 60.78 61.66 62.96 66.70 66.97 66.60 67.56 67.79 68.64 68.53 69.28 69.71 70.03 71.13 70.49 68.96 68.43 67.68 67.63 66.95 67.16 68.17 68.17 67.07 66.83 66.60 66.91 66.34 65.21 65.83 65.10 64.52 64.06 63.99
46.08 45.65 39.10 38.18 38.75 38.47 46.98 44.69 46.58 51.85 53.59 54.43 55.41 57.17 59.05 61.07 61.36 64.46 65.02 65.28 65.78 66.41 67.25 67.83 67.99 67.80 68.64 69.17 69.24 69.30 69.04 68.89 68.38 67.83 67.27 67.10 66.82 66.38 66.20 66.58 66.31 66.51 65.45 66.13 65.91 64.81 64.50 64.61 64.06
44.24 45.11 40.34 33.38 36.01 39.42 45.70 41.95 46.74 54.27 55.29 56.53 58.24 58.77 60.13 60.42 64.20 64.54 64.98 65.17 65.29 66.26 66.75 66.84 67.11 67.06 67.95 68.07 68.07 68.86 69.09 67.49 67.96 68.62 67.74 67.00 66.61 66.91 66.98 66.90 66.61 66.18 66.02 65.53 65.59 65.72 64.52 64.41 64.74
43.87 41.16 47.15 43.30 44.20 40.76 44.17 47.88 51.52 53.75 54.70 56.55 56.44 58.63 59.37 62.59 63.91 64.30 64.85 64.98 65.18 65.97 66.49 66.78 66.95 67.19 67.53 67.67 68.25 68.11 68.50 68.93 68.53 68.46 68.71 67.34 68.02 67.00 66.90 66.47 65.67 65.97 65.68 65.68 65.88 64.49 64.24 64.06 64.33
45.37 47.83 41.21 43.69 36.19 35.82 41.95 44.69 46.49 52.43 54.08 55.71 56.65 57.70 59.61 63.15 63.72 63.93 64.46 64.96 65.88 66.40 66.98 67.73 67.65 67.16 67.17 67.15 67.38 66.89 68.01 66.80 66.27 68.14 67.73 67.63 67.59 65.59 65.81 65.88 66.24 65.75 65.38 65.70 65.14 64.83 65.11 63.88 63.44
43.58 42.62 44.40 46.02 43.75 39.07 38.22 42.86 53.45 55.23 55.65 55.07 56.82 57.56 59.37 62.61 63.24 63.90 64.05 65.48 66.04 66.25 66.56 67.04 66.85 66.29 66.13 66.87 67.53 66.25 67.26 65.99 67.14 67.75 67.74 67.17 67.43 65.70 65.75 66.14 66.09 65.49 64.94 65.52 65.03 64.30 64.59 63.40 63.40
46.62 44.55 45.35 41.28 40.99 44.11 43.51 43.97 55.75 55.00 55.21 56.71 57.09 57.23 61.20 63.15 63.27 63.83 64.44 64.85 65.04 65.47 66.02 66.39 66.20 65.16 65.74 66.37 66.36 65.73 65.42 66.23 67.05 66.78 67.13 67.47 66.85 66.20 64.91 64.77 63.82 65.06 65.30 65.19 64.71 64.88 64.06 63.64 62.40

GFSSGP_sfc_wetblb_039.txt.gz
Wetbulb
66.11 65.45 61.75 59.23 50.16 48.88 44.93 47.85 53.14 55.74 57.32 60.06 58.80 57.46 54.96 55.74 55.93 52.50 63.17 68.79 68.73 67.45 69.63 71.65 73.17 73.17 72.89 72.72 72.42 72.03 71.54 71.19 70.83 70.24 69.42 68.54 68.28 67.44 67.33 67.43 67.33 66.96 66.76 66.52 66.22 66.21 66.51 66.92 67.36
61.94 60.43 59.86 56.63 47.09 43.41 45.84 51.18 54.27 57.28 60.24 61.77 60.63 57.85 56.33 56.39 62.08 62.98 64.26 69.76 69.31 67.51 69.02 69.90 73.22 73.02 73.07 72.67 72.45 72.01 71.78 71.39 70.91 70.28 69.33 68.66 68.35 67.99 67.83 67.74 67.61 67.81 67.76 67.68 67.41 67.32 67.08 67.41 67.81
64.07 58.77 51.78 49.81 47.85 44.71 44.79 54.67 57.13 59.83 61.67 60.80 58.81 60.69 58.42 57.99 64.29 64.38 66.30 71.05 69.27 67.47 68.46 69.08 73.22 73.03 73.07 72.75 72.58 72.31 71.96 71.79 70.90 70.13 70.01 69.46 68.95 68.96 69.43 68.60 68.33 68.54 68.66 69.01 68.83 68.57 68.41 68.38 68.27
59.21 57.67 53.79 47.38 46.98 52.07 53.53 56.23 59.58 59.56 61.13 62.27 59.85 57.04 59.33 64.37 62.88 65.35 70.65 71.33 69.80 68.62 68.03 70.89 73.30 73.13 73.30 73.25 72.90 72.53 72.41 71.89 71.50 70.71 70.44 70.12 69.64 69.90 70.41 69.49 69.31 69.38 69.43 69.72 69.86 69.57 69.41 69.36 69.30
58.45 54.50 45.90 45.62 48.34 53.36 55.78 58.71 58.84 58.88 59.39 60.54 60.87 56.77 57.01 61.98 64.42 65.42 67.99 71.54 70.12 69.11 67.68 70.99 73.03 73.37 73.65 73.50 73.35 72.80 72.65 72.23 72.01 71.81 70.91 70.83 71.19 71.17 70.95 69.97 69.60 69.63 70.09 70.38 70.20 70.06 70.42 69.83 70.04
51.55 52.28 43.71 44.31 48.77 53.63 55.74 57.39 59.38 58.42 59.49 57.74 57.54 56.86 57.24 61.88 62.53 64.13 65.66 65.44 70.50 69.63 68.20 70.71 72.70 73.32 73.35 73.62 73.30 72.95 72.70 72.50 72.31 72.28 72.09 72.04 71.94 71.64 71.52 70.60 70.25 70.67 71.08 70.66 70.00 69.85 69.38 69.75 69.33
52.62 47.33 43.86 46.06 48.33 51.22 54.48 58.00 56.43 56.48 56.61 56.62 58.30 55.69 57.61 60.91 62.81 63.09 64.40 65.07 64.93 70.14 69.20 70.03 70.52 71.74 73.67 73.27 73.09 72.89 72.45 72.30 72.28 72.20 72.06 72.16 72.06 71.91 72.11 71.84 71.47 71.37 71.44 71.35 70.42 69.25 68.71 69.21 69.41
56.35 49.65 44.80 46.64 47.84 49.27 55.70 57.05 56.30 56.67 57.10 60.96 60.25 55.39 53.03 60.33 63.77 63.41 62.43 64.00 64.07 67.96 70.46 69.60 69.77 69.91 70.43 71.33 73.61 73.08 72.64 72.61 72.34 72.30 72.27 72.13 72.25 72.32 72.45 71.89 72.04 72.23 71.81 70.90 70.34 68.96 68.62 68.77 69.18
61.04 47.77 43.47 46.09 48.24 50.75 55.71 54.91 57.98 59.79 58.92 58.79 60.17 59.00 60.19 61.51 63.01 60.93 58.92 59.31 60.59 64.34 70.43 70.01 69.55 69.63 69.55 70.15 71.98 73.26 73.56 73.13 72.73 72.46 72.52 71.38 69.36 69.58 70.21 71.19 71.28 72.23 72.08 71.03 70.26 69.60 69.16 68.63 67.73
56.35 48.60 47.87 52.07 52.70 52.07 55.24 56.29 57.00 57.44 57.97 57.67 59.05 62.16 62.09 62.15 59.88 57.88 57.48 57.41 55.90 57.45 68.11 70.18 69.77 69.53 69.31 70.21 69.75 70.88 71.07 70.79 70.78 70.45 69.81 69.49 68.11 66.34 68.24 69.76 71.91 72.21 72.10 71.08 70.34 69.92 68.63 67.68 63.66
54.82 49.89 53.35 53.43 54.58 55.65 55.81 56.40 58.82 56.85 55.32 57.55 57.74 59.23 60.54 61.16 60.43 58.46 56.97 55.74 56.12 58.04 59.23 70.03 69.75 69.76 69.34 69.18 69.31 70.30 69.99 69.78 70.04 69.09 67.87 68.63 67.94 66.94 67.97 65.69 68.28 69.03 70.73 67.52 68.21 67.03 65.94 64.32 62.89
50.24 53.90 55.60 55.95 56.93 55.74 54.74 57.31 56.43 57.02 56.03 58.88 59.68 60.90 61.90 59.73 59.04 58.20 57.89 57.61 56.64 56.62 57.99 60.71 69.26 70.28 69.78 69.32 68.62 69.59 69.11 68.94 68.64 68.68 66.80 67.68 67.26 67.56 65.94 64.22 64.90 65.15 65.92 64.63 63.74 64.41 64.17 63.38 63.88
50.90 51.88 53.57 56.54 56.74 56.15 57.15 55.98 55.74 55.77 58.65 59.35 59.81 59.39 58.53 58.81 58.74 58.94 58.93 58.84 57.63 57.74 58.96 60.10 66.04 69.54 69.59 67.75 68.66 69.31 69.11 68.73 68.10 67.45 67.38 67.73 67.86 66.19 65.11 63.45 64.50 64.70 64.06 64.45 64.33 64.36 64.64 63.50 63.31
51.25 52.58 53.60 54.28 53.36 54.05 53.65 54.31 55.39 56.10 57.43 57.75 58.19 57.62 58.04 58.55 58.96 58.75 58.83 58.21 58.52 60.72 59.26 60.42 64.82 67.70 68.61 67.82 68.34 69.26 69.52 69.11 67.85 67.80 67.83 68.83 67.66 65.42 65.25 65.25 64.79 64.13 64.19 63.86 63.60 63.13 62.61 61.89 62.33
50.47 47.69 50.23 51.36 52.92 52.61 54.35 51.22 52.36 56.39 57.80 56.77 56.89 57.49 57.49 57.98 59.14 58.44 58.23 58.15 59.82 59.95 60.69 62.18 65.97 67.79 68.22 67.32 68.23 68.79 69.18 68.93 68.40 67.99 68.77 68.36 66.20 64.77 65.72 64.52 64.36 63.84 64.14 64.30 63.44 62.68 62.89 61.95 62.75
48.89 48.55 43.53 49.22 51.47 53.00 53.31 47.07 53.21 56.32 56.35 55.64 56.60 57.39 57.29 56.84 58.46 59.10 58.42 57.72 59.79 58.81 60.62 63.91 69.86 68.53 68.52 67.52 68.24 68.99 68.64 67.12 65.90 65.17 67.36 67.35 65.91 65.68 65.25 64.21 63.57 64.13 63.90 63.73 62.86 62.45 61.83 61.83 61.39
45.12 41.45 43.39 46.22 51.67 51.48 51.28 48.43 53.62 56.11 55.74 55.15 55.97 56.54 57.16 56.81 56.69 57.76 58.91 59.39 60.02 59.95 61.07 64.19 68.03 68.88 69.01 68.81 68.31 68.37 67.83 65.67 65.24 64.87 65.05 67.11 67.00 66.95 65.10 64.61 63.81 63.99 63.66 62.91 62.62 62.02 61.67 60.68 60.33
39.38 41.85 44.47 44.20 48.70 50.29 48.94 48.82 52.20 54.16 54.19 54.60 55.35 56.23 56.69 56.62 55.64 56.79 58.90 59.48 62.19 63.65 64.88 65.35 68.58 68.70 68.95 69.18 68.68 67.76 66.25 64.36 64.62 64.96 64.74 65.83 66.24 67.07 65.56 64.56 63.94 64.32 63.16 61.86 62.04 61.26 61.52 60.87 60.13
44.35 44.60 43.82 47.02 50.04 48.40 47.67 48.52 50.83 53.20 52.79 52.82 53.62 53.74 55.06 55.56 57.19 57.31 59.28 60.24 62.63 63.90 65.37 66.37 68.08 68.04 69.61 68.67 66.79 65.03 63.78 63.35 63.36 64.05 64.58 65.92 66.39 66.54 64.86 63.81 63.53 63.68 61.94 61.48 61.85 61.26 61.27 60.02 60.04
42.43 40.61 41.02 46.09 49.94 48.42 47.65 47.33 50.91 52.74 52.56 53.45 53.90 54.46 54.68 54.48 56.29 58.42 59.33 62.57 62.29 63.64 65.11 65.32 66.72 67.68 67.62 67.34 65.65 64.64 63.90 63.28 63.25 63.44 64.21 65.06 65.34 64.81 64.46 63.72 63.45 62.15 62.25 61.91 61.35 60.61 59.27 58.59 60.36
40.74 39.69 40.43 40.85 44.98 46.58 45.20 43.35 46.26 50.00 51.78 53.59 54.34 55.10 54.85 54.82 54.84 55.75 59.50 61.29 62.53 63.45 63.75 64.39 66.22 67.06 66.70 66.27 65.42 64.87 64.10 63.47 62.68 62.61 63.53 64.50 65.13 65.11 64.32 64.19 63.24 62.21 62.90 61.07 60.73 60.15 59.04 57.19 58.40
37.95 43.98 43.50 42.78 41.51 36.95 44.15 35.60 43.42 46.88 48.57 51.01 52.94 53.88 53.56 54.66 56.08 55.72 59.79 61.22 62.25 63.10 64.05 65.18 66.79 66.16 66.10 64.82 64.10 62.90 61.02 60.02 61.05 61.05 62.96 64.35 64.47 64.32 64.87 64.79 63.72 62.41 62.10 60.74 60.31 61.47 59.59 58.79 57.03
40.44 45.97 43.69 43.40 40.70 39.57 40.60 35.99 42.27 46.48 46.60 49.03 51.38 52.99 53.47 53.80 54.69 55.26 60.52 62.86 62.97 63.56 63.86 65.47 65.68 64.85 65.44 64.18 64.16 63.01 61.85 62.03 61.58 61.80 62.30 62.68 63.18 64.17 65.27 64.63 63.10 62.29 61.51 60.56 60.69 60.47 59.80 59.77 57.73
44.77 43.36 42.64 42.09 39.62 33.14 39.08 38.87 39.70 42.51 45.60 47.91 51.04 52.55 53.11 52.70 54.09 59.84 62.69 63.21 63.05 64.21 64.75 64.94 64.54 64.32 64.41 64.42 64.01 61.92 61.03 61.00 61.03 60.80 60.85 61.03 62.17 62.72 64.11 64.21 62.56 61.92 61.37 61.10 61.53 60.74 59.67 59.71 59.39
40.82 37.30 30.28 29.82 31.14 31.10 40.57 38.58 41.68 45.06 48.50 50.19 50.81 51.59 53.00 53.92 55.15 60.99 61.31 61.92 62.45 63.37 64.28 64.21 63.81 63.39 63.51 64.41 63.48 63.09 61.68 61.11 60.05 61.16 59.99 60.62 61.10 61.52 61.55 61.73 61.32 61.64 62.01 61.85 61.30 60.38 60.17 60.14 60.15
36.52 37.47 31.61 25.17 28.52 32.55 40.97 36.27 40.01 48.69 51.28 51.86 52.59 52.47 53.83 53.50 59.75 60.73 61.31 61.55 62.55 63.78 63.85 63.46 63.59 63.11 63.34 63.07 62.32 62.57 62.13 60.87 61.64 61.58 61.62 61.62 61.03 60.90 61.66 61.78 61.56 61.78 61.80 62.00 60.85 60.28 60.26 60.98 61.21
36.32 33.60 40.26 34.82 37.46 33.16 37.29 41.56 45.63 47.73 48.39 50.61 51.28 53.24 53.24 57.63 60.11 60.35 60.94 61.64 62.88 63.23 62.94 63.12 63.18 63.16 63.27 62.63 62.42 62.13 62.09 62.37 61.74 62.03 62.89 61.81 62.08 63.14 62.27 62.03 61.52 61.59 61.83 61.87 61.36 60.71 60.41 60.68 60.92
40.46 40.68 33.50 36.05 28.06 27.27 35.76 38.04 38.60 44.45 47.07 49.98 50.94 51.14 55.68 59.23 59.76 60.34 60.76 61.85 62.98 63.29 62.57 63.22 63.14 62.90 62.76 62.65 62.04 62.01 61.67 62.45 62.31 62.06 62.08 61.86 61.90 61.80 61.87 61.62 61.44 61.50 62.23 62.27 61.04 61.12 61.58 60.33 60.15
37.98 35.43 36.17 36.04 36.09 30.82 30.47 35.40 44.96 46.00 50.44 48.83 50.85 51.98 57.76 58.68 59.44 60.19 61.00 62.27 62.70 62.85 63.25 62.81 62.78 62.47 62.00 62.01 61.32 63.35 62.15 62.53 61.98 62.15 62.56 61.76 61.20 61.36 61.69 62.07 61.74 61.48 61.21 61.82 61.59 60.74 60.83 60.01 59.84
41.59 37.72 36.94 32.41 31.79 36.68 36.16 36.87 47.15 49.13 49.87 50.97 51.66 53.11 58.58 59.25 59.97 60.40 61.58 62.07 61.90 61.69 62.85 62.13 61.95 61.30 61.64 62.02 61.58 63.20 62.42 62.32 61.84 62.14 62.29 61.75 61.47 61.74 62.13 62.02 61.78 62.00 62.09 61.60 61.17 60.99 61.28 61.21 60.16

GFSSGP_sfc_wetblb_042.txt.gz
Wetbulb
65.89 63.88 60.19 57.55 47.94 46.59 43.45 47.60 53.29 51.95 55.01 58.35 58.67 56.31 54.73 54.97 55.19 51.05 61.48 67.70 67.38 66.45 70.31 72.01 73.43 73.30 73.02 72.65 72.28 71.89 71.39 71.06 70.48 69.79 68.76 67.90 67.64 67.43 67.40 67.42 67.11 66.87 66.76 66.54 66.40 66.29 66.22 66.22 66.81
61.06 60.90 58.08 55.01 45.67 41.57 44.04 49.60 49.48 55.64 58.64 60.60 60.59 58.65 56.79 57.11 61.76 62.46 64.80 68.43 67.25 66.98 68.83 69.82 73.38 73.20 73.22 72.98 72.48 72.01 71.49 71.17 70.66 69.98 69.20 68.63 68.40 67.80 67.71 67.73 67.57 67.32 67.40 67.38 67.24 67.24 66.92 66.89 67.24
61.86 58.04 50.80 49.16 45.52 41.86 44.28 52.33 55.34 58.77 60.16 60.13 58.56 60.77 58.06 58.85 63.99 63.37 66.00 68.32 66.73 66.50 68.14 68.91 73.43 73.23 73.23 73.20 72.73 72.01 71.64 71.52 70.74 70.01 69.59 69.19 68.78 69.10 68.75 68.06 67.98 67.97 68.14 68.68 68.76 68.37 68.26 68.29 68.07
58.62 56.73 52.47 45.46 45.33 49.53 51.09 53.98 56.30 57.97 59.66 60.95 59.78 56.58 58.44 62.47 64.10 64.94 69.32 67.98 65.77 65.91 67.59 70.66 73.23 73.08 73.33 73.10 72.66 72.09 71.91 71.67 71.24 70.75 70.38 70.18 69.32 69.93 70.19 68.82 68.82 68.89 69.08 69.59 70.05 69.80 69.57 69.32 69.19
57.16 52.54 44.70 43.34 46.35 51.04 53.74 55.88 57.08 57.04 58.26 59.15 59.50 56.46 56.36 62.15 65.30 69.65 69.15 68.18 65.39 65.56 66.04 69.33 73.05 73.10 73.43 73.28 72.66 72.43 72.26 71.87 71.82 71.61 71.41 70.86 70.72 70.43 69.81 69.53 69.55 69.49 69.67 69.79 70.11 70.01 70.18 70.16 70.18
50.38 49.30 41.90 41.63 46.36 51.52 52.67 54.68 57.12 57.89 58.69 58.89 57.81 56.91 56.96 61.38 65.37 68.97 69.63 68.24 67.39 65.77 65.05 67.66 72.58 72.81 73.00 73.15 72.95 72.46 72.11 71.99 71.87 71.69 71.62 71.52 71.42 71.32 70.53 70.06 69.68 69.82 70.20 70.57 70.46 70.16 70.80 70.14 69.26
50.72 45.63 42.06 44.84 46.97 49.37 52.56 55.31 54.90 56.72 58.21 56.11 57.38 55.25 56.87 59.48 62.02 67.21 69.40 69.08 68.52 67.15 65.29 66.91 68.94 71.55 73.40 72.98 72.82 72.57 71.98 71.79 71.81 71.67 71.62 71.67 71.89 71.93 71.76 71.20 70.58 70.38 70.95 71.13 70.71 70.78 70.39 69.87 69.24
53.69 48.69 42.81 44.63 46.17 47.28 53.64 54.12 54.54 55.82 56.42 59.23 59.43 54.50 53.58 59.08 61.75 62.54 64.39 65.94 68.17 67.86 66.23 67.19 67.57 69.02 70.09 70.68 73.04 72.77 72.23 71.98 71.78 72.00 72.03 72.03 72.25 72.08 71.89 71.32 71.78 71.20 71.45 71.50 71.47 70.95 70.24 69.58 69.42
57.39 45.99 41.75 44.30 46.97 49.36 53.49 53.53 56.92 59.03 57.42 58.19 58.99 57.92 59.39 62.82 62.75 59.76 58.25 59.30 59.73 66.50 66.46 67.71 67.76 67.08 68.58 69.01 71.05 72.77 72.90 72.50 72.08 71.88 72.15 71.16 69.31 69.22 69.92 70.98 71.21 71.49 71.96 71.79 71.78 71.04 70.11 69.43 68.51
52.87 48.38 47.75 50.25 51.26 49.75 52.67 52.78 54.61 55.61 55.66 56.51 57.32 60.31 61.50 61.46 60.08 59.19 58.24 57.28 57.58 63.65 66.76 67.64 67.90 67.41 67.34 68.40 68.60 70.22 69.88 69.59 69.64 69.37 69.04 69.45 67.88 67.52 69.76 70.39 71.73 71.57 72.23 72.30 71.73 70.92 69.82 68.51 64.23
53.32 50.29 54.35 54.78 54.80 54.27 53.53 53.98 56.29 55.00 53.48 56.20 56.20 58.34 59.68 59.43 58.84 58.02 57.85 57.62 56.47 56.86 66.56 68.32 68.02 68.01 67.38 67.19 67.72 69.51 69.19 68.70 68.98 68.76 68.39 68.58 68.08 67.18 67.50 65.80 67.29 68.24 71.16 68.82 69.58 68.11 66.93 64.73 63.38
48.91 54.56 55.62 55.53 56.61 55.69 54.33 55.96 54.62 54.93 55.34 58.20 58.16 59.21 59.12 58.45 57.72 58.33 57.52 57.61 57.04 56.32 62.64 68.19 68.09 67.91 67.53 67.31 67.23 68.30 68.36 68.49 68.54 68.88 68.37 67.74 66.86 65.26 64.20 65.66 64.88 65.74 66.68 66.77 64.80 64.51 64.29 63.85 63.57
49.69 51.42 53.56 54.04 54.45 55.46 56.30 54.47 54.20 54.86 58.07 59.26 58.28 57.82 57.25 57.38 57.68 57.79 58.22 57.52 57.24 55.86 56.61 66.77 67.84 67.66 67.84 66.91 67.31 67.65 67.82 67.87 68.04 68.21 67.56 67.41 66.35 64.77 65.33 64.76 63.30 64.25 64.02 64.11 63.14 63.06 63.42 62.96 62.91
47.55 49.45 51.58 52.16 51.48 52.07 51.58 52.79 54.03 54.88 57.08 56.77 57.11 56.46 56.35 55.91 56.46 56.83 56.99 56.86 56.44 56.48 57.73 57.76 67.12 67.99 67.95 67.41 66.67 67.54 67.77 67.32 67.05 67.29 66.99 66.77 66.51 65.95 65.35 63.97 62.62 63.05 63.46 63.48 63.43 63.62 62.86 62.79 62.25
47.88 44.42 47.45 48.47 48.40 49.06 52.44 49.17 50.37 54.84 55.92 55.43 56.01 55.64 55.93 56.38 57.03 56.74 57.50 57.13 56.85 58.71 58.49 57.04 62.27 66.93 67.90 67.55 66.59 67.84 67.96 67.77 66.98 66.51 66.68 66.70 66.43 66.01 65.19 63.85 63.93 63.16 63.10 63.34 64.52 62.92 62.00 62.95 62.71
43.76 43.86 40.81 47.33 49.24 50.34 49.93 44.12 52.08 54.84 54.56 54.15 54.71 55.80 56.82 56.41 56.87 58.31 57.46 56.49 56.82 56.89 57.23 58.11 64.78 64.82 66.39 66.94 66.02 67.80 68.11 67.87 67.02 66.46 66.93 67.69 67.39 65.93 64.56 63.55 62.96 63.21 62.72 63.00 62.28 61.50 61.32 61.75 60.06
39.99 38.76 41.10 44.68 49.85 49.26 48.88 45.78 51.18 54.17 53.75 53.25 53.44 54.59 55.35 56.32 56.33 56.00 56.99 56.85 56.54 57.55 57.15 58.58 64.67 64.97 65.05 64.87 66.74 66.86 66.60 66.99 64.58 65.88 67.16 67.27 66.70 65.67 64.09 63.45 63.18 62.95 62.44 62.19 61.68 61.00 60.24 59.48 59.50
36.13 38.25 41.67 42.09 47.74 49.11 47.64 46.87 50.21 52.37 52.79 52.57 53.37 54.19 54.91 55.46 56.11 57.45 56.91 57.56 57.22 57.67 57.10 60.25 65.14 65.27 66.09 66.71 66.37 65.74 63.98 63.24 63.61 64.51 65.91 65.86 65.80 65.35 63.58 63.71 63.17 62.73 61.80 61.22 60.88 60.54 60.35 59.96 59.71
41.86 41.47 40.83 44.72 48.54 47.02 46.20 46.75 48.73 51.12 50.45 50.54 51.81 52.76 53.29 54.39 56.42 57.50 56.71 56.58 60.12 61.33 61.88 62.92 65.71 65.99 67.44 66.72 65.41 63.11 61.67 61.98 62.42 63.24 64.57 65.18 64.82 64.62 63.89 63.21 62.81 62.38 61.78 60.96 60.36 60.22 60.04 59.93 60.66
39.22 37.55 37.84 42.03 44.80 45.27 45.78 45.55 48.99 50.68 50.65 51.60 52.28 52.60 52.57 51.81 54.24 56.13 55.47 59.16 61.04 61.93 63.34 64.91 65.71 66.33 66.33 65.62 64.43 63.41 62.29 61.80 62.01 62.47 63.34 65.15 64.90 64.71 63.86 63.04 62.04 61.95 61.67 61.41 60.89 59.44 59.68 59.46 59.88
38.47 36.84 37.92 38.58 42.64 43.87 41.92 39.88 42.89 47.01 48.46 49.64 50.68 52.17 52.62 52.45 53.34 54.95 56.07 59.16 60.41 62.46 63.06 64.99 65.56 65.94 66.18 65.40 64.14 62.66 62.27 62.09 61.50 61.16 61.27 62.90 64.36 64.23 63.60 62.56 61.69 61.80 62.41 61.21 59.87 60.34 58.77 56.49 57.13
34.88 41.74 41.06 39.83 37.93 33.44 41.63 32.48 40.63 44.44 45.83 48.02 48.69 50.18 49.33 51.76 54.05 54.27 54.39 58.52 60.54 61.74 62.84 65.28 65.84 65.75 65.40 64.40 63.30 61.94 60.17 59.46 60.10 60.19 61.14 63.02 64.30 63.68 63.85 62.64 62.93 62.77 61.24 60.12 59.30 59.98 58.11 56.99 55.42
36.93 42.81 41.53 40.97 37.46 36.59 37.49 32.59 39.08 42.46 42.97 44.95 47.61 49.23 51.36 52.97 52.15 53.61 55.87 60.12 60.99 62.34 62.87 65.07 64.74 64.41 63.91 63.46 62.56 60.92 59.46 59.49 59.61 60.95 61.42 61.28 61.68 62.95 63.81 63.41 62.36 61.34 60.52 59.85 59.35 59.11 58.65 57.81 56.47
40.85 39.90 39.41 39.46 34.97 30.07 35.74 34.79 36.69 39.73 42.44 44.72 47.76 50.00 50.95 50.90 51.45 53.47 58.97 61.40 61.43 63.20 64.33 64.43 63.55 62.98 63.05 62.61 61.98 60.96 60.29 59.55 59.17 59.54 59.61 60.10 60.70 61.18 62.25 63.46 61.29 61.04 60.27 59.50 59.58 60.28 58.82 57.97 57.59
35.83 30.58 25.53 24.22 26.82 28.36 37.69 34.92 38.32 41.95 44.59 45.84 46.46 48.95 50.22 50.83 54.09 58.57 59.85 60.52 61.83 62.92 63.24 63.07 62.72 61.41 62.57 62.19 61.75 61.09 59.59 59.70 59.62 59.52 59.32 59.85 59.49 59.85 60.71 60.94 60.52 59.82 60.28 60.36 59.92 58.99 58.59 58.41 58.01
32.33 31.39 26.32 21.27 23.47 29.65 37.84 32.52 37.94 44.80 47.25 47.99 48.96 49.93 50.95 49.11 56.73 58.87 60.04 60.91 62.19 63.06 62.58 62.67 62.20 61.24 61.92 61.38 60.95 60.71 60.14 59.83 60.59 59.76 60.03 60.09 59.85 60.00 60.09 60.50 60.28 60.63 61.15 60.51 59.92 58.83 59.11 59.09 59.69
33.81 29.98 34.50 29.48 33.65 27.87 33.57 37.87 43.57 45.87 46.18 47.32 47.54 49.03 49.11 50.93 57.27 58.69 59.85 61.48 62.52 62.44 62.26 62.35 61.83 61.41 60.73 60.92 60.64 60.35 61.08 60.22 59.72 60.46 60.99 60.46 60.13 61.21 61.01 60.57 60.28 60.59 60.96 60.81 59.59 59.25 59.64 59.81 59.20
36.90 38.77 28.67 28.30 23.52 23.33 30.79 33.68 36.17 40.79 43.52 45.53 46.42 47.47 50.74 56.41 57.97 58.82 60.28 61.55 62.31 62.22 62.43 61.87 61.96 61.54 60.83 60.73 60.35 60.53 59.73 61.17 61.20 61.34 60.92 60.57 61.03 61.17 60.50 60.34 60.07 60.21 60.53 60.72 59.72 59.08 60.30 59.54 58.81
34.04 32.94 32.64 31.22 29.82 27.19 25.92 31.58 41.06 42.28 43.65 45.02 48.42 48.81 55.80 57.04 57.97 58.91 60.60 61.60 61.88 61.92 62.56 61.88 61.63 61.36 60.68 60.46 59.55 59.63 60.14 61.45 60.45 61.16 61.10 60.35 60.15 60.48 60.53 60.77 60.44 60.49 60.75 60.78 59.46 59.25 59.69 59.04 59.36
38.09 35.33 33.98 27.23 27.18 31.00 32.76 33.07 44.71 43.36 44.69 46.52 47.89 55.19 56.90 58.14 58.67 59.59 60.58 61.19 61.23 61.60 61.97 61.69 61.32 61.03 60.74 59.94 60.32 60.07 60.86 60.56 60.72 61.01 61.05 60.03 59.91 60.14 61.16 61.34 61.03 60.71 61.14 60.34 60.03 60.50 60.45 59.61 60.50

GFSSGP_sfc_wetblb_045.txt.gz
Wetbulb
66.75 63.04 58.94 56.22 46.28 44.57 40.34 44.68 51.30 51.37 53.51 57.54 56.80 54.77 52.52 54.24 55.00 49.53 60.46 66.40 66.45 65.74 70.24 72.43 73.63 73.10 72.54 72.55 72.15 71.56 71.06 70.59 70.23 69.44 68.54 67.72 67.59 67.43 67.19 67.35 67.11 66.98 66.84 66.47 66.06 65.99 65.88 65.70 65.81
60.47 59.88 57.50 53.22 43.89 40.27 40.41 47.91 48.53 52.17 56.89 58.51 57.34 56.04 55.76 56.01 60.48 61.48 62.26 66.76 66.47 67.07 69.93 70.76 73.45 73.05 73.10 72.63 72.21 71.74 71.17 70.74 70.37 69.85 68.92 68.08 67.93 67.85 67.80 67.58 67.21 67.06 66.98 66.85 66.79 66.55 66.07 66.15 66.15
59.36 57.46 50.36 48.66 44.16 39.86 41.53 49.66 53.66 57.35 59.30 58.25 57.19 58.37 57.63 58.92 63.40 62.58 64.35 66.77 65.26 66.90 68.89 69.61 73.33 73.05 73.00 72.95 72.43 71.84 71.42 71.07 70.18 69.46 69.41 68.88 68.57 68.59 68.45 67.86 67.68 67.78 67.81 68.00 68.05 67.86 67.70 67.78 67.56
57.37 55.53 51.52 45.01 43.78 47.64 47.64 50.79 54.17 55.11 58.18 59.30 58.07 55.22 57.33 62.88 63.80 63.91 67.64 66.56 65.03 65.96 67.90 70.41 73.23 73.25 73.15 73.10 72.68 72.06 71.69 71.14 70.73 69.93 69.60 69.35 68.70 69.30 69.49 68.23 68.11 68.31 68.57 68.78 68.93 69.05 68.90 68.90 68.84
55.49 50.87 43.01 42.12 44.66 49.30 52.48 53.61 53.28 54.35 56.82 57.36 57.25 54.85 55.52 61.90 65.47 67.69 66.84 66.67 64.17 64.96 66.16 68.38 73.15 73.28 73.30 73.33 72.83 72.19 71.99 71.57 71.25 71.04 70.23 69.60 70.09 69.81 69.17 68.63 68.85 69.03 69.18 69.55 69.70 69.78 69.83 70.17 69.88
50.28 49.16 41.40 40.86 44.64 50.09 51.25 52.60 52.93 56.11 57.99 57.57 56.56 54.76 55.76 60.65 65.68 67.11 67.03 65.58 65.13 64.48 64.95 65.98 72.63 73.00 73.10 73.13 72.93 72.33 71.84 71.45 71.37 71.32 71.12 70.92 70.76 70.34 69.56 69.26 69.33 69.63 69.63 69.94 69.91 70.19 69.86 70.41 69.58
48.49 43.77 41.23 43.43 45.61 48.02 50.46 52.57 51.86 52.89 54.77 55.84 57.01 53.88 55.17 59.35 62.40 67.58 67.08 65.99 64.97 64.21 63.92 64.76 69.12 71.50 73.28 72.98 72.65 72.33 71.86 71.64 71.49 71.62 71.32 71.23 71.25 71.25 70.51 70.07 69.81 69.64 69.96 70.19 70.58 70.21 70.37 70.56 69.34
52.14 47.71 42.77 43.39 44.81 46.02 51.15 51.93 52.26 54.35 54.94 58.16 58.61 53.34 52.06 57.38 61.36 66.12 65.87 65.18 64.32 63.84 62.66 63.35 66.85 68.73 69.38 70.18 72.95 72.60 72.32 71.88 71.71 71.78 71.52 71.35 71.62 71.64 71.08 71.01 70.97 70.03 70.31 70.78 71.10 70.81 70.71 70.53 69.62
54.15 44.07 40.71 43.70 45.79 47.92 50.08 49.10 53.75 56.71 55.59 56.29 57.14 57.01 58.78 60.56 60.52 59.71 58.44 59.91 62.26 65.90 63.23 62.28 65.29 66.67 67.92 68.30 70.12 72.47 72.43 72.33 71.95 71.66 71.76 70.56 68.81 68.99 69.22 70.25 70.71 70.34 70.49 70.88 71.30 71.70 71.18 70.22 68.75
51.18 44.39 45.33 49.71 50.86 48.76 52.36 51.80 52.60 53.39 53.31 53.98 55.80 58.27 59.93 60.10 59.02 58.31 57.72 58.84 59.67 63.40 64.82 64.83 65.57 64.89 66.23 67.78 66.94 69.41 69.19 68.97 69.26 68.93 68.67 68.74 67.69 66.99 68.68 69.45 70.78 70.73 70.78 71.64 71.90 71.83 70.92 69.14 64.66
51.74 48.18 51.78 52.34 54.06 54.10 52.82 52.61 54.87 52.78 50.54 53.85 54.78 56.58 58.00 58.31 58.02 57.69 57.95 57.94 58.73 62.69 65.00 66.47 66.09 65.62 64.92 65.96 66.11 67.74 68.52 67.93 68.21 67.95 67.49 68.03 67.58 67.02 67.76 66.44 67.56 67.38 70.46 68.43 69.50 69.34 67.76 65.21 64.10
47.47 53.38 54.31 54.62 55.76 56.09 54.86 56.16 54.27 54.81 53.69 57.30 57.74 58.59 58.01 57.21 57.02 56.49 56.39 57.15 55.47 54.59 60.95 66.31 66.93 66.19 64.89 65.21 65.35 65.96 67.14 66.87 66.92 67.53 67.22 67.13 66.63 65.29 64.77 65.66 64.80 64.24 66.36 67.35 66.56 65.34 65.10 64.41 64.06
47.14 50.33 53.45 56.36 56.71 55.08 55.26 53.57 53.64 54.23 57.23 58.05 58.60 58.56 56.76 56.67 56.52 56.42 56.65 56.43 56.01 54.36 55.94 63.55 66.71 66.49 66.15 64.94 64.92 65.38 66.40 66.46 66.16 66.73 67.47 66.71 66.18 64.96 64.22 63.74 63.40 63.77 64.30 66.04 64.34 63.80 63.70 62.98 62.82
45.56 48.12 50.21 51.36 50.89 51.67 51.38 51.60 52.30 53.72 56.90 56.45 55.60 55.20 55.67 54.97 55.46 54.84 55.01 55.56 55.80 56.56 55.40 58.97 65.99 66.58 66.51 65.91 65.27 65.30 66.18 66.26 66.22 66.89 67.27 66.84 65.76 64.20 63.56 63.39 62.92 62.61 63.10 63.51 63.85 63.68 63.37 61.81 62.04
45.18 42.13 45.31 45.97 46.16 47.04 50.77 47.46 48.89 53.58 54.66 53.99 54.74 55.21 54.77 55.25 55.49 54.98 56.04 55.73 56.35 56.49 56.74 55.34 64.53 65.93 65.95 65.97 65.72 65.57 66.03 66.36 65.87 66.39 66.68 66.62 65.43 64.00 63.91 63.28 62.30 62.92 62.43 62.42 62.64 63.58 62.88 62.56 62.09
42.69 41.40 39.02 45.98 47.32 47.93 48.55 42.59 50.23 53.46 53.26 53.20 53.56 53.68 54.18 54.71 55.08 56.18 56.16 55.63 56.46 55.26 55.70 56.08 62.98 65.44 65.78 65.93 65.89 65.83 66.48 66.38 65.85 65.68 66.04 66.06 65.75 65.05 63.62 63.00 62.77 62.75 61.98 62.16 62.00 61.67 62.01 60.43 61.74
38.30 37.59 39.27 42.67 48.09 48.25 47.84 44.90 50.22 53.37 52.69 51.69 52.17 53.04 53.86 54.84 54.71 55.13 55.97 56.52 55.86 55.97 56.02 55.29 57.34 61.79 65.57 65.58 64.85 65.29 65.86 66.28 66.10 65.37 65.47 65.70 65.90 65.57 64.27 63.40 62.83 62.25 61.41 61.23 61.01 60.95 60.52 58.84 59.61
34.21 35.57 40.02 40.47 45.54 47.64 46.18 45.32 48.60 50.86 51.33 50.81 51.42 52.37 53.08 53.84 54.61 56.00 56.90 57.12 55.83 55.40 55.41 54.72 57.63 61.61 62.49 63.40 63.64 64.01 64.59 64.01 64.94 65.32 66.01 66.46 66.44 65.57 64.35 63.38 62.47 61.90 61.03 60.37 59.85 59.52 59.87 59.79 59.11
38.93 38.96 37.52 42.36 46.27 46.22 45.13 45.38 47.76 49.70 49.05 49.49 50.33 51.26 51.76 51.33 53.83 55.22 55.79 56.03 54.94 54.98 55.77 55.64 59.92 62.57 64.51 64.69 63.70 62.36 62.89 61.57 61.85 63.92 65.92 65.74 65.34 64.77 63.44 62.65 62.16 61.45 60.97 60.96 60.78 59.73 60.15 59.67 59.95
37.07 34.61 34.53 40.09 43.57 41.85 41.79 42.71 45.13 47.15 48.63 49.78 50.32 50.72 51.47 52.27 51.84 54.21 54.49 54.25 55.99 56.54 58.99 58.73 61.85 64.19 64.32 64.61 62.21 61.93 60.96 60.81 61.62 62.37 64.83 65.22 65.15 65.39 64.46 62.20 61.60 61.00 60.71 60.16 60.57 60.54 58.95 58.73 59.79
35.71 34.94 35.79 36.38 40.78 42.01 39.87 38.70 40.93 44.48 45.41 47.64 48.85 49.06 49.95 49.97 50.93 52.49 52.46 53.79 55.70 58.40 60.27 61.93 63.36 64.27 64.66 63.66 62.70 60.96 60.88 60.62 60.20 59.89 60.89 63.15 65.40 64.84 63.27 62.50 61.69 60.86 61.66 60.54 59.77 60.18 58.67 56.39 58.43
32.07 39.25 39.32 38.08 35.56 31.44 38.91 30.79 38.40 41.98 42.90 45.13 46.67 47.84 47.11 48.73 51.31 51.30 52.21 52.40 56.87 58.67 62.26 63.36 64.31 64.63 64.51 63.82 62.44 61.89 59.50 58.58 59.08 59.74 60.40 61.57 63.41 63.27 63.22 62.30 61.51 61.40 60.57 59.71 58.72 59.15 57.48 55.72 54.59
33.82 38.79 37.80 38.12 34.83 32.15 34.34 30.35 36.73 40.42 40.72 43.15 45.13 46.56 46.68 49.29 49.18 49.72 50.79 52.88 57.23 61.10 62.25 63.47 64.22 64.14 63.37 63.16 62.92 60.99 59.27 58.90 58.95 59.47 60.24 60.12 61.08 62.62 63.43 62.79 61.46 60.34 59.67 59.36 58.80 57.98 57.48 56.66 55.13
39.26 36.05 36.12 35.77 32.45 25.62 32.85 32.03 34.13 37.01 40.13 42.64 44.82 45.58 48.21 47.94 48.96 49.65 52.16 57.19 59.52 61.14 62.84 63.39 64.01 62.23 62.42 62.08 61.27 60.41 59.45 58.35 58.77 58.34 59.24 59.48 59.70 60.70 61.95 62.26 60.84 60.16 59.44 58.94 58.56 58.38 57.80 56.92 56.22
33.96 27.83 22.76 21.96 22.43 25.64 35.09 32.21 35.96 39.26 41.95 43.00 42.92 44.52 46.51 47.75 47.16 52.03 56.20 58.11 59.80 61.55 62.25 62.41 63.05 60.93 61.36 60.66 60.00 59.83 59.14 59.09 59.07 58.53 58.60 58.77 58.48 58.92 59.84 60.55 59.92 59.16 59.29 59.17 58.66 58.10 57.72 57.16 56.60
30.02 29.28 23.26 20.30 22.10 26.84 36.04 30.35 36.07 42.95 45.62 46.68 47.04 46.18 46.16 46.60 46.70 52.14 56.85 58.40 60.56 61.84 62.09 61.95 61.92 60.47 60.64 60.30 59.27 58.91 59.17 59.37 59.06 58.78 58.86 58.96 58.78 58.91 59.69 59.75 59.61 59.55 60.10 59.89 59.00 58.12 57.98 57.40 57.24
31.66 27.14 32.30 26.44 28.69 25.48 30.13 35.31 41.53 44.01 43.76 45.12 44.34 45.17 44.77 45.74 47.89 54.70 57.66 59.31 61.22 61.50 61.31 61.15 61.02 60.54 60.42 59.78 59.28 59.13 59.58 59.74 59.20 58.85 59.16 59.32 58.85 59.68 59.54 59.75 59.29 59.51 59.46 59.33 58.52 57.74 57.70 58.16 57.96
34.70 36.77 26.45 24.43 21.01 20.88 27.56 30.68 33.63 38.44 41.74 43.99 43.93 43.69 45.02 46.21 52.03 56.81 59.31 60.76 61.22 61.31 60.74 60.66 60.91 60.37 60.06 59.62 59.44 60.00 59.41 59.64 59.77 59.99 59.45 59.40 59.61 60.02 59.72 59.09 59.19 58.99 59.41 59.34 58.23 57.77 58.25 58.58 58.24
32.31 31.42 31.92 29.05 27.04 22.76 22.71 27.53 37.80 39.98 41.82 41.65 43.19 45.17 47.67 49.62 55.56 57.99 60.04 60.93 60.91 61.31 60.95 60.71 60.56 60.01 59.41 59.15 58.98 58.81 59.32 59.82 59.84 59.96 59.84 59.87 59.76 59.64 59.59 59.86 59.36 59.45 59.44 59.00 58.31 57.91 59.00 58.37 57.85
34.93 33.81 32.23 27.10 25.22 29.63 26.87 29.25 42.19 39.57 40.92 42.38 43.69 45.93 52.99 52.70 56.11 59.15 60.34 60.49 60.53 60.90 60.63 60.90 60.35 59.97 59.45 58.90 58.62 58.51 59.07 58.80 59.10 59.91 60.00 58.89 59.09 59.33 60.04 60.18 59.81 59.98 59.82 59.13 58.52 58.80 58.81 58.38 58.12

GFSSGP_sfc_wetblb_048.txt.gz
Wetbulb
66.85 62.26 58.35 55.22 43.89 43.16 38.79 42.45 48.85 48.84 50.90 55.55 55.58 55.51 55.97 55.63 54.26 49.47 60.01 65.48 64.27 65.85 70.68 72.31 73.82 73.40 73.32 73.07 72.62 72.25 71.81 71.48 71.06 70.80 69.89 69.15 69.08 67.86 67.56 67.96 67.40 67.43 67.43 66.94 66.62 66.14 66.04 65.93 65.93
60.82 58.12 56.61 51.81 40.63 37.94 38.43 45.10 47.43 49.53 53.62 58.40 56.26 54.30 54.30 54.44 58.68 59.70 60.02 65.71 64.60 67.14 70.47 70.97 73.65 73.38 73.47 73.07 72.78 72.26 71.76 71.36 71.21 70.70 69.94 69.71 69.48 68.30 68.11 67.92 67.82 67.89 67.64 67.29 67.11 66.52 66.14 65.93 65.93
58.28 55.86 50.52 47.26 41.36 38.22 39.38 47.85 50.36 54.01 56.62 57.71 56.39 56.94 57.15 57.08 62.00 61.56 62.98 66.32 65.39 67.29 70.08 70.24 73.67 73.18 73.40 73.25 72.86 72.34 71.74 71.54 70.76 70.06 69.78 69.46 69.48 69.52 69.12 68.20 67.89 67.75 67.67 67.73 67.62 67.64 67.34 67.26 67.24
57.06 53.42 49.96 43.60 42.87 44.84 44.88 48.89 51.49 52.67 54.83 58.09 57.74 54.12 56.67 62.06 62.44 63.70 66.42 65.87 65.34 66.65 69.25 71.05 73.57 73.00 73.10 73.23 72.93 72.41 72.06 71.51 71.25 70.56 70.30 69.70 69.23 69.74 69.76 68.50 68.12 67.85 68.12 68.36 68.38 68.48 68.55 68.57 68.49
54.74 50.42 41.67 40.59 43.56 46.81 49.92 52.27 52.07 51.77 53.65 56.56 57.05 54.49 54.99 61.39 64.64 66.22 65.91 65.69 65.13 65.44 67.72 69.43 73.35 73.03 73.28 73.62 73.13 72.66 72.04 71.64 71.54 71.18 70.48 70.25 70.22 69.93 69.26 68.38 68.32 68.43 68.66 68.93 69.21 69.42 69.58 69.74 69.56
48.50 48.08 39.66 39.54 43.21 47.83 49.66 51.49 51.26 52.42 54.12 57.18 55.88 54.11 56.19 59.70 63.86 65.60 65.91 64.27 64.82 65.19 66.20 67.45 73.23 73.15 73.15 73.48 73.25 72.70 72.11 71.60 71.50 71.32 70.99 70.77 70.68 70.33 69.53 68.92 68.92 69.06 69.23 69.50 69.83 69.81 70.28 70.39 69.34
46.97 43.32 40.93 41.74 44.08 45.86 49.25 52.37 50.88 51.65 52.85 54.56 57.42 53.25 55.47 58.00 62.76 66.01 65.47 64.28 63.26 63.93 64.46 64.58 70.07 71.76 73.48 73.25 72.98 72.55 72.06 71.74 71.45 71.35 71.05 71.10 71.03 70.81 70.53 70.14 69.53 69.66 70.01 70.08 70.23 70.41 70.81 70.61 69.73
50.50 47.31 42.40 43.40 43.92 44.80 49.62 50.59 50.87 51.97 53.28 57.44 58.10 52.85 51.57 57.51 62.00 65.97 65.42 64.56 62.75 61.99 63.03 62.78 66.37 69.25 70.04 70.89 73.35 72.87 72.35 72.13 71.76 71.64 71.59 71.47 71.47 71.37 70.95 70.29 70.73 69.94 70.14 70.41 70.63 71.08 71.15 70.94 70.49
52.12 41.54 38.49 43.06 44.73 46.76 49.38 49.26 52.48 54.78 54.26 55.51 56.24 56.11 57.80 59.11 60.79 62.52 61.67 61.81 63.56 64.61 61.25 61.48 63.41 66.88 68.31 69.01 70.41 72.94 72.61 72.45 72.13 71.85 71.91 70.59 68.92 69.19 69.03 70.07 70.28 70.21 70.29 70.66 71.10 71.66 71.57 71.14 70.08
49.79 41.73 42.57 48.28 50.26 48.08 50.93 49.44 50.73 51.77 51.52 52.59 54.83 57.80 58.79 59.18 57.71 58.45 60.08 61.29 61.02 62.85 64.05 60.96 62.12 65.20 66.19 67.39 67.32 69.54 69.59 69.29 69.58 69.36 69.31 68.82 67.63 67.81 68.87 69.56 70.54 70.14 70.68 71.15 71.61 72.01 71.57 70.53 67.49
50.87 47.00 50.64 50.47 51.71 52.48 52.08 52.41 53.72 51.32 50.10 51.97 52.88 54.76 56.30 57.47 57.15 56.89 57.63 60.35 61.89 63.69 64.10 64.01 62.60 63.68 64.44 65.44 65.70 66.62 68.71 68.23 68.55 68.14 67.79 68.10 67.59 67.92 68.96 67.61 68.50 68.67 70.33 68.68 70.39 70.66 70.35 68.25 66.30
47.60 52.31 53.44 52.50 53.97 54.89 53.41 54.69 52.75 53.04 53.71 55.39 56.75 56.75 56.57 56.50 55.40 55.55 56.48 57.80 57.04 57.37 61.00 64.42 65.00 63.94 63.57 64.46 64.86 65.04 66.78 66.87 67.04 67.58 67.25 67.25 67.00 66.21 66.55 66.60 66.19 66.44 67.50 68.10 68.13 67.86 67.97 67.09 66.20
48.51 49.25 52.91 55.37 55.75 55.30 55.58 53.50 53.42 53.70 56.11 57.47 57.62 57.29 56.31 56.01 55.62 55.34 55.67 55.86 56.01 55.41 57.13 57.67 64.83 64.95 64.82 63.51 64.08 64.15 64.63 66.38 65.97 66.51 67.05 66.97 66.51 65.53 64.90 65.45 65.18 64.60 65.09 66.33 67.07 66.58 66.40 66.04 65.42
45.13 49.01 50.88 51.39 50.72 52.09 50.49 51.41 51.39 52.61 55.93 55.06 55.22 55.07 54.73 53.89 54.47 54.34 54.53 54.57 54.71 55.42 55.45 55.57 62.63 65.54 65.50 64.06 63.53 63.77 64.35 65.59 65.22 65.67 66.76 66.84 66.22 64.93 64.59 64.23 63.73 63.37 64.01 65.12 66.24 65.59 65.57 65.31 64.67
44.52 41.04 42.41 45.00 46.65 47.18 50.70 47.44 48.78 53.15 54.34 53.31 53.97 54.39 54.23 53.80 54.29 53.97 54.70 55.10 55.50 55.96 56.38 55.42 58.52 64.32 65.10 64.94 64.39 63.89 64.25 65.42 65.22 65.46 66.56 66.69 65.73 64.39 64.25 63.32 62.89 63.12 63.86 64.49 64.73 64.75 64.43 63.90 63.42
41.80 40.15 38.20 45.61 45.31 47.07 48.93 42.65 50.28 53.09 52.86 52.29 53.46 53.90 54.01 53.32 53.94 54.73 54.90 54.57 55.53 55.27 55.26 56.46 57.37 63.24 64.92 65.52 65.40 64.88 64.73 65.58 65.47 65.60 66.78 66.91 65.86 64.92 63.88 63.17 63.01 63.87 63.39 63.75 63.55 63.77 63.19 63.15 62.97
36.58 36.49 36.74 41.01 46.60 47.01 46.41 43.64 49.16 52.27 51.79 50.61 50.74 51.29 51.97 52.09 53.21 53.91 54.84 54.96 54.93 54.98 55.32 55.12 55.38 61.60 64.09 64.82 64.93 64.24 64.58 65.26 65.21 65.38 66.28 66.56 66.22 65.20 64.52 63.67 63.55 64.10 63.63 63.13 63.26 62.80 63.07 61.59 61.73
32.32 34.39 37.91 37.96 43.85 45.29 43.57 43.95 47.90 49.77 50.29 48.79 49.11 50.37 51.06 51.87 53.11 54.23 54.94 55.86 54.96 54.68 54.54 54.34 54.25 57.48 63.09 63.09 62.80 63.59 64.51 64.59 65.11 64.98 65.63 65.84 65.91 65.67 64.55 64.24 63.90 63.76 62.73 62.55 62.10 62.31 61.57 61.90 61.51
38.09 37.40 35.80 40.36 43.98 44.47 43.34 44.03 46.17 47.58 48.11 48.79 50.06 51.19 51.99 52.60 53.76 53.71 54.69 54.84 54.17 54.42 54.18 53.90 54.12 58.16 62.44 62.96 62.05 61.90 63.54 63.99 63.67 64.79 65.93 65.88 65.91 65.57 65.12 64.17 63.79 63.06 62.68 62.76 62.38 61.67 61.36 60.21 60.57
36.19 34.23 33.13 38.19 42.25 40.30 39.82 38.74 41.34 43.88 45.49 47.05 48.97 49.67 50.16 50.79 50.16 52.78 53.94 52.94 52.86 53.52 54.36 55.28 54.96 60.53 62.15 62.99 61.73 62.50 61.76 62.04 63.16 64.46 65.95 66.29 66.07 65.37 65.16 64.51 63.34 62.98 62.15 61.93 61.34 61.58 61.15 61.37 61.63
34.11 33.38 34.10 35.29 39.50 40.39 37.92 37.48 40.10 43.30 44.14 45.41 46.61 47.48 49.03 49.87 49.53 51.61 51.84 51.20 51.65 52.91 54.72 57.19 58.70 61.65 63.19 62.93 61.66 60.64 60.97 61.11 60.88 61.72 62.95 64.69 65.69 65.64 65.16 64.33 63.07 62.13 62.85 61.61 61.47 61.99 61.23 58.83 60.37
30.11 37.78 37.99 36.98 34.95 29.50 37.27 29.69 37.38 40.93 41.83 43.57 44.95 45.72 46.66 46.63 49.12 50.55 49.97 50.74 51.46 52.59 57.59 60.73 62.20 63.16 63.57 62.78 61.54 62.05 60.49 59.88 59.94 60.65 62.32 62.97 64.75 64.46 63.86 63.27 62.50 62.66 62.13 61.70 61.39 61.17 60.59 59.17 57.59
32.75 38.11 36.54 36.54 32.94 30.83 32.16 28.48 33.75 37.79 37.73 41.01 43.66 45.30 46.28 45.61 47.63 47.28 48.22 49.84 50.16 54.95 59.42 62.24 63.12 63.37 62.96 62.50 62.25 60.65 59.59 59.56 59.89 60.55 61.21 61.70 62.44 63.35 63.96 63.82 63.31 62.45 61.91 61.68 61.12 60.40 59.46 58.93 57.89
38.30 34.77 33.29 32.97 30.68 23.62 30.45 30.40 32.69 35.83 38.44 40.73 42.91 44.16 45.05 45.26 46.07 46.97 48.14 49.47 52.93 58.92 61.23 62.68 63.05 62.01 62.51 62.40 61.52 60.96 60.03 59.34 59.41 59.82 59.81 60.17 61.20 62.13 63.34 63.39 62.76 62.32 61.32 61.05 60.73 60.45 59.83 59.16 58.93
32.26 27.13 20.91 20.71 21.00 23.11 33.13 30.30 34.28 38.29 40.41 41.48 42.11 43.26 43.78 44.59 44.96 45.62 47.07 53.40 56.36 59.27 61.17 62.31 62.27 61.06 61.87 61.79 61.41 61.06 60.10 60.21 59.85 59.61 59.57 59.67 60.02 60.76 61.61 62.42 61.70 61.25 61.36 61.02 60.53 60.11 60.03 59.51 59.01
28.55 27.52 22.20 19.31 20.19 23.18 33.35 27.93 33.80 41.36 44.25 44.86 45.35 43.97 44.31 44.08 44.07 45.10 46.68 52.56 57.29 60.28 61.43 62.35 61.63 60.51 60.86 60.59 60.12 60.00 59.89 59.80 59.63 59.85 60.11 60.24 60.47 60.82 61.48 61.82 61.74 61.26 61.45 61.20 60.72 60.53 60.29 59.94 59.53
30.50 25.40 30.25 24.81 25.80 22.29 27.31 32.45 38.66 41.73 42.29 43.16 43.04 43.61 43.34 43.87 44.77 45.68 48.16 55.94 59.50 60.69 60.78 61.59 61.01 59.94 60.02 59.29 59.14 59.30 59.82 59.95 59.68 59.75 60.35 60.43 60.50 60.69 61.27 61.24 60.94 61.10 61.43 61.19 60.68 60.12 59.94 60.23 60.07
32.62 34.72 25.86 22.58 19.75 19.59 25.13 28.04 30.92 36.40 38.96 42.11 42.06 42.10 43.56 45.18 46.08 46.68 54.72 58.84 60.66 60.94 60.40 60.91 60.88 60.02 59.56 59.29 59.76 60.04 60.05 60.33 60.23 60.52 60.37 60.37 60.52 60.99 60.65 60.24 60.65 60.69 61.00 61.07 60.55 60.18 60.13 60.18 60.33
30.29 27.75 29.48 26.63 24.62 21.59 21.28 25.98 35.47 38.26 39.83 40.60 40.61 41.99 42.65 48.74 53.14 55.01 58.91 60.14 60.68 60.53 60.61 60.01 60.08 59.63 59.05 59.59 59.81 59.55 59.80 60.34 60.65 60.63 60.57 60.63 60.99 60.76 60.35 60.65 60.38 60.68 60.62 60.68 60.18 59.99 60.65 60.29 59.98
32.19 29.83 30.27 25.03 24.46 26.89 23.93 25.46 38.72 38.69 38.84 39.65 40.51 44.18 46.54 54.05 55.35 58.13 59.03 60.11 60.40 60.07 60.27 59.64 59.67 59.63 59.17 59.52 59.43 59.56 59.85 59.78 59.74 60.13 60.47 60.89 60.52 60.76 60.99 61.17 60.98 60.97 61.29 60.75 60.67 60.11 60.64 59.80 59.69

GFSSGP_sfc_wetblb_051.txt.gz
Wetbulb
65.80 66.31 62.85 60.16 49.91 50.62 44.92 45.59 50.20 53.24 55.06 58.31 59.56 60.80 60.44 61.19 57.32 55.81 67.42 69.02 70.07 70.19 72.90 74.04 74.36 73.96 73.63 73.66 73.29 72.91 72.39 72.17 71.99 71.81 71.52 71.06 70.66 69.68 69.00 69.25 67.89 67.61 67.66 67.91 67.51 67.11 67.03 66.81 66.84
65.86 60.12 62.23 57.80 47.05 42.96 44.53 49.17 49.45 53.10 54.84 58.72 60.49 58.39 59.84 59.94 62.80 63.68 65.34 69.52 69.99 71.46 73.24 71.97 74.29 73.74 73.76 73.69 73.24 72.79 72.45 72.20 71.80 71.59 71.09 70.79 70.54 70.06 68.76 68.78 68.24 68.23 67.99 67.63 67.26 66.94 66.65 66.60 66.71
60.51 59.56 55.23 52.59 46.91 43.18 44.62 49.51 50.44 55.96 58.57 58.60 59.73 60.26 59.92 60.32 64.24 65.07 68.00 69.59 69.61 71.66 72.42 72.76 74.26 73.91 73.96 73.81 73.19 72.72 72.35 72.05 71.92 71.59 71.04 70.84 70.71 70.26 69.91 69.75 69.15 68.61 68.02 67.67 67.78 67.70 67.48 67.27 67.08
58.40 58.07 56.29 49.10 45.87 47.98 48.54 52.90 55.94 55.76 57.45 59.50 60.67 58.42 60.60 64.59 65.47 67.05 69.49 69.48 69.38 70.83 71.75 72.42 74.04 73.96 73.96 73.84 73.49 72.80 72.35 72.00 72.07 71.62 71.32 71.08 70.74 70.48 70.41 70.28 69.88 68.64 68.64 68.56 68.56 68.75 68.66 68.40 68.40
60.26 56.69 47.26 46.59 46.32 50.08 53.31 53.90 54.94 54.52 56.31 58.49 60.28 58.13 58.75 63.89 67.34 69.33 69.60 69.41 68.92 70.26 71.61 71.53 73.84 73.79 73.99 73.91 73.79 72.94 72.35 72.05 71.93 71.79 71.47 71.28 71.08 70.86 70.59 70.21 69.02 68.99 69.11 69.40 69.46 69.57 69.49 69.49 69.45
51.98 55.04 46.19 42.01 45.40 49.65 52.95 55.43 55.28 55.20 56.54 57.84 59.48 57.84 60.19 64.23 67.64 69.03 69.74 70.32 70.32 69.87 71.75 71.41 73.62 73.54 73.54 73.76 73.61 73.04 72.37 72.00 71.95 71.75 71.50 71.45 71.26 71.11 70.67 70.41 69.54 69.54 69.73 69.81 69.91 70.24 70.01 69.87 69.57
50.70 49.85 44.95 46.13 45.74 47.32 50.33 54.61 53.60 54.70 56.43 57.37 60.06 57.17 60.21 62.52 67.72 70.02 70.01 70.25 70.33 70.35 70.47 70.79 72.49 73.03 73.34 73.39 73.29 72.99 72.32 71.93 71.68 71.44 71.34 71.26 71.41 71.09 70.75 70.50 70.46 69.66 70.44 70.51 70.31 70.34 70.42 70.50 69.77
52.57 52.50 45.75 46.35 45.24 46.77 53.53 54.48 55.83 56.09 56.07 60.26 60.43 57.23 58.34 62.11 68.32 69.78 69.52 68.85 68.36 68.93 69.33 69.30 71.40 72.05 71.67 71.68 73.59 73.29 72.69 72.15 71.78 71.73 71.44 71.31 71.44 71.34 70.87 70.35 70.70 70.34 70.27 70.47 70.60 70.92 71.41 71.23 70.59
56.18 47.32 44.49 45.59 46.17 47.67 53.48 53.13 56.76 57.31 55.78 57.42 59.28 59.91 60.94 63.26 68.86 68.83 68.40 68.50 68.76 67.82 68.20 68.47 68.29 71.12 71.28 71.21 71.71 73.46 73.16 72.82 72.22 72.05 71.93 71.04 69.45 70.25 70.15 70.16 70.91 70.84 70.60 70.70 71.24 71.70 71.84 71.61 70.64
53.92 48.74 47.69 49.87 50.58 50.41 52.32 54.29 55.22 55.03 55.60 56.52 57.39 60.72 62.18 62.40 63.56 64.94 66.85 67.43 68.00 68.96 69.05 67.56 67.60 68.97 70.58 69.81 71.30 72.04 72.05 71.74 71.18 70.53 70.94 70.45 70.21 70.42 69.48 70.32 70.43 71.29 71.17 71.51 71.65 72.01 71.79 71.26 70.23
54.22 49.48 52.22 51.62 52.05 53.19 52.41 53.29 56.20 54.40 53.55 56.83 56.57 59.22 61.73 61.53 62.51 62.16 63.06 65.40 67.66 69.35 69.76 69.23 67.93 68.34 69.20 69.23 69.67 70.20 71.74 71.94 71.90 71.53 72.60 72.29 70.09 69.86 69.82 69.39 70.03 70.02 70.66 69.91 70.67 70.97 71.16 70.94 70.46
49.21 53.42 54.30 54.53 54.27 53.39 52.18 54.63 53.95 55.32 55.85 58.72 59.80 60.94 61.01 60.85 61.24 61.59 62.35 63.33 64.77 66.27 68.20 70.47 70.20 68.50 69.17 69.39 68.75 69.39 69.60 70.95 70.54 71.21 71.90 71.25 69.81 69.63 68.99 68.63 68.77 69.94 69.46 69.79 70.21 70.45 71.19 71.42 70.90
49.46 50.95 53.78 55.38 55.62 54.80 55.65 54.40 54.71 55.88 58.82 60.51 61.09 60.50 60.02 60.46 61.38 62.67 62.86 63.13 63.83 64.11 66.07 68.51 69.86 70.61 70.20 69.84 69.17 69.22 69.32 69.49 70.36 70.11 71.12 70.86 68.55 69.16 68.86 68.96 68.49 68.70 69.03 69.37 69.45 70.13 70.52 70.63 70.83
51.84 52.06 51.66 53.32 55.17 55.94 54.39 55.11 56.36 57.00 59.33 58.53 58.75 58.70 59.53 59.37 60.09 60.82 62.33 62.61 63.77 65.28 66.36 67.60 66.40 71.15 70.35 69.77 69.99 69.39 69.62 69.29 69.38 69.32 69.83 70.75 69.42 69.53 68.34 68.41 67.83 67.84 68.05 68.26 68.52 68.86 69.55 71.48 70.73
49.87 46.84 49.20 52.14 53.00 52.60 53.94 51.07 52.15 56.20 57.23 56.37 56.98 57.92 58.59 59.51 59.91 60.19 61.92 63.53 64.75 65.62 66.93 67.49 67.28 67.87 71.00 71.14 70.43 69.58 69.03 68.71 68.70 68.99 69.86 69.99 70.39 69.64 69.06 67.77 67.70 68.01 68.75 68.90 68.36 67.95 69.57 69.89 69.95
44.95 45.67 42.24 48.86 48.70 51.07 51.48 46.49 53.52 56.50 55.49 55.06 56.19 57.43 57.63 59.24 59.85 60.86 62.33 63.55 65.03 65.39 66.80 67.62 64.34 64.71 70.10 71.08 70.45 69.48 68.91 68.74 68.76 69.23 69.36 69.83 69.86 69.69 68.74 67.71 67.20 68.13 68.24 67.68 67.04 67.43 68.81 68.57 69.47
43.40 39.98 41.37 44.06 49.31 48.45 48.05 47.04 52.50 55.17 54.38 54.68 56.11 56.91 57.31 57.96 59.08 61.72 61.48 62.04 64.40 65.83 66.59 65.45 66.18 64.43 67.43 70.16 69.91 69.84 69.91 68.68 69.21 69.36 69.31 69.86 69.64 69.35 68.74 67.93 67.74 68.54 68.00 66.95 66.90 67.82 68.55 68.74 69.16
37.98 38.85 41.78 42.39 46.94 47.41 46.27 47.10 51.48 53.43 53.47 53.95 55.18 55.94 56.44 56.94 58.03 60.57 61.03 62.27 63.99 66.21 66.79 66.31 65.44 65.27 66.57 68.32 69.54 69.08 68.94 69.10 69.59 69.46 69.43 70.20 69.83 69.52 69.11 68.33 68.41 68.28 67.98 67.01 67.31 68.35 68.84 68.26 67.48
42.34 41.22 40.73 43.92 47.34 46.09 45.83 47.63 49.49 51.66 52.12 52.44 53.68 54.89 56.00 57.48 59.60 60.06 60.40 62.68 63.90 65.97 66.10 67.25 65.03 65.66 66.30 67.26 67.30 67.75 67.74 67.92 68.71 69.35 70.08 70.38 70.09 69.50 69.21 68.43 68.95 68.25 66.67 66.75 69.26 68.85 67.50 65.42 64.31
40.73 39.32 40.08 43.53 45.26 45.68 46.08 46.01 49.53 49.66 50.71 52.52 53.25 54.08 55.09 56.60 57.46 58.99 59.85 61.75 63.87 64.32 65.49 66.32 65.29 65.26 66.79 67.88 68.77 69.12 68.61 67.35 68.85 69.73 70.15 70.11 69.91 69.93 69.43 69.01 67.52 67.15 66.82 68.92 68.50 67.09 65.20 65.24 65.15
38.86 38.48 39.02 39.76 42.79 44.97 43.34 42.58 45.24 48.77 50.32 51.26 52.16 52.89 53.31 54.19 54.83 57.50 58.04 60.94 62.56 63.14 64.50 64.95 65.76 66.18 67.09 68.43 68.59 68.25 68.26 68.26 67.99 68.77 68.96 69.49 69.96 69.94 69.69 69.23 68.20 67.83 68.88 68.20 67.96 66.91 65.79 62.95 62.32
35.75 41.56 40.90 39.84 39.17 36.58 43.58 35.83 44.30 47.23 47.85 49.15 50.55 51.48 52.57 53.23 54.05 55.51 57.50 59.10 61.03 62.06 62.27 63.33 66.44 67.53 67.64 68.52 68.32 68.61 68.10 67.36 68.43 68.62 69.45 69.80 70.23 69.79 69.99 69.99 69.33 69.12 68.65 68.38 67.80 65.96 64.41 63.06 60.11
37.29 41.81 41.15 40.94 39.23 38.74 39.24 35.69 41.07 45.72 44.28 46.65 49.90 50.74 51.82 53.27 54.00 54.75 55.90 57.90 58.75 60.58 60.34 65.05 67.53 68.45 68.47 68.51 69.12 68.67 68.92 68.48 68.46 68.66 69.05 69.68 69.93 70.21 69.37 69.45 69.17 68.65 67.88 68.07 67.59 65.99 63.15 62.69 63.40
42.30 39.14 38.68 39.05 38.00 31.31 37.43 36.27 38.22 41.91 44.29 46.08 48.72 49.97 50.89 51.80 52.65 53.60 55.25 56.44 57.05 59.00 64.12 67.22 68.33 68.76 68.65 68.74 68.96 69.20 68.30 67.57 67.34 67.77 67.31 66.97 67.48 68.20 69.11 68.79 68.71 68.97 68.31 67.42 66.90 66.66 65.98 64.55 64.51
38.70 36.83 29.48 28.19 28.78 28.97 38.47 35.80 38.89 44.95 45.68 46.15 47.10 48.92 50.74 52.69 53.09 54.05 54.78 55.64 57.28 61.26 65.40 67.73 68.43 68.06 68.32 68.30 68.23 68.60 68.32 68.40 67.88 67.33 66.87 66.70 66.77 67.33 68.32 68.85 68.50 67.82 67.83 67.14 66.97 66.20 65.61 65.09 64.21
36.25 36.36 31.10 24.12 27.00 30.45 37.00 32.68 38.90 45.93 47.88 48.69 48.87 50.25 51.34 52.66 54.15 54.78 55.84 56.53 57.00 61.81 65.83 67.59 68.26 67.80 68.01 68.08 67.79 68.15 68.43 67.51 67.52 67.73 67.21 67.23 67.23 67.68 68.72 68.39 68.19 67.65 67.08 66.28 66.40 65.47 65.11 65.45 65.14
34.97 32.41 38.22 31.63 33.26 31.65 34.46 38.22 42.85 45.16 45.80 47.33 47.65 50.15 51.77 53.38 55.18 58.53 60.22 57.42 58.56 63.65 66.66 67.94 68.04 67.89 67.89 67.72 67.43 67.45 67.55 67.43 66.84 67.66 68.14 67.28 67.67 67.01 67.23 67.43 67.21 66.81 66.38 66.24 66.40 65.24 65.27 65.33 65.12
38.15 39.91 31.68 33.09 25.76 25.45 32.19 34.20 37.28 42.62 44.04 46.47 46.86 48.61 50.99 55.54 58.69 60.85 60.86 59.72 62.72 65.44 67.43 68.16 68.08 67.48 67.07 67.02 66.95 66.61 67.07 67.30 67.26 67.35 66.98 67.19 67.14 66.90 66.77 66.46 66.44 66.11 65.92 65.93 66.21 65.32 65.49 64.81 64.45
36.20 34.65 35.79 35.81 34.34 29.60 29.98 34.43 43.57 44.24 45.59 45.40 46.81 48.58 50.26 54.07 58.70 60.67 60.51 60.82 63.62 66.05 67.20 67.36 67.02 66.13 65.76 66.40 66.53 66.32 66.35 66.53 67.04 67.11 66.78 66.86 66.85 66.27 65.74 65.36 65.41 65.22 65.49 65.87 65.71 65.53 64.79 63.78 64.80
38.26 35.17 35.66 31.40 30.06 33.20 32.76 33.49 45.51 45.10 45.56 46.69 47.22 48.71 50.40 53.72 58.85 60.47 59.96 60.39 63.44 65.62 66.42 66.27 66.03 65.62 65.69 66.01 66.06 66.24 66.31 66.58 66.68 66.39 66.53 66.72 66.01 65.98 65.28 65.12 64.78 64.90 65.14 65.83 65.31 64.52 64.26 63.83 63.49

GFSSGP_sfc_wetblb_054.txt.gz
Wetbulb
66.66 66.11 62.47 61.25 53.16 51.14 48.72 49.29 53.59 56.57 57.87 60.14 61.90 62.31 61.91 62.94 60.65 58.85 69.62 71.84 71.40 72.11 74.41 74.65 74.60 74.80 75.03 74.85 74.63 74.26 73.78 73.61 73.56 73.76 73.76 73.41 73.11 72.40 71.49 71.26 69.83 68.70 68.11 67.78 67.62 67.55 67.50 67.26 67.02
64.97 63.23 61.90 58.48 49.77 47.29 48.51 52.41 51.84 56.13 59.32 61.15 61.60 62.94 62.00 61.65 64.92 64.80 66.79 71.57 72.30 73.27 74.88 72.37 74.51 74.63 74.58 74.31 74.11 73.83 73.53 73.26 73.13 73.06 72.96 72.56 72.06 71.74 70.21 69.99 69.36 68.39 68.64 68.45 68.05 67.64 67.26 67.10 66.81
65.59 60.88 56.04 52.45 49.93 47.27 48.64 52.10 55.07 56.44 60.57 60.69 61.04 63.04 62.21 63.56 66.78 65.19 70.41 71.50 72.58 74.08 75.10 73.44 74.56 74.13 74.08 74.20 73.71 73.26 73.04 72.96 72.74 72.68 72.26 71.91 71.51 71.35 70.67 70.23 70.24 69.13 68.77 68.53 68.12 67.89 67.81 68.02 68.08
60.32 58.17 56.47 50.09 48.27 50.56 51.53 54.65 55.44 58.08 60.47 62.10 61.83 59.93 63.03 66.56 67.43 67.58 71.12 70.88 72.26 73.21 74.18 74.71 74.36 74.11 73.78 74.18 73.78 73.24 72.99 72.71 72.48 72.33 72.04 71.64 71.30 71.26 70.77 70.61 70.68 70.03 69.29 69.21 68.89 68.96 68.87 68.81 68.81
60.66 56.52 49.16 48.23 48.45 51.52 53.80 54.55 55.92 57.03 58.55 60.21 62.48 61.15 61.82 66.39 69.36 70.07 71.00 70.30 71.18 72.33 73.37 74.48 74.35 74.23 74.13 74.43 73.88 73.16 72.96 72.57 72.44 72.33 71.96 71.66 71.61 71.30 71.03 71.05 70.59 69.97 69.56 69.64 69.73 69.78 69.53 69.51 69.59
54.89 55.95 48.28 45.90 48.34 51.23 53.57 55.43 56.24 56.72 58.64 60.15 61.10 61.92 62.91 67.73 68.98 69.64 71.05 71.12 70.83 72.08 73.47 73.12 74.43 74.33 74.13 74.28 73.91 73.29 72.72 72.42 72.39 72.29 72.19 71.82 71.77 71.62 71.30 71.15 70.70 70.80 70.71 70.32 70.26 70.44 70.42 70.32 70.09
54.11 50.34 48.04 48.48 48.58 49.78 52.20 56.04 54.73 55.94 58.27 59.72 62.78 60.51 63.80 65.93 68.52 70.39 71.12 72.22 72.13 72.39 73.35 73.74 74.17 74.04 74.20 74.18 73.83 73.45 72.76 72.27 72.05 71.82 71.85 71.75 71.67 71.70 71.38 71.38 70.98 71.06 71.39 71.44 70.93 70.96 70.73 70.51 70.07
56.58 53.56 48.58 48.33 46.95 48.74 53.55 54.53 55.72 55.70 57.49 62.07 62.81 60.16 61.61 65.93 70.17 70.78 70.79 71.52 72.20 72.73 72.67 73.68 74.23 73.56 72.71 72.31 73.98 73.82 73.13 72.37 72.24 72.15 71.87 71.48 72.00 71.87 71.55 70.89 70.99 71.13 71.20 70.85 71.23 71.28 70.88 70.89 70.55
58.94 50.96 48.73 48.89 47.52 48.30 52.79 53.17 56.76 59.49 59.16 60.17 61.18 62.14 62.85 66.83 70.23 70.02 70.02 69.92 69.89 70.55 72.68 73.22 72.80 73.43 73.30 71.46 71.96 73.66 73.26 73.01 72.56 72.41 72.12 71.45 70.26 70.56 70.53 70.19 71.06 71.53 71.43 71.16 71.58 71.63 71.75 71.06 70.66
55.51 51.25 51.30 53.34 52.85 50.99 52.19 54.08 55.15 56.96 57.83 58.97 59.97 62.50 63.72 65.01 67.61 67.85 68.28 67.62 68.90 69.62 71.09 72.68 73.42 73.00 73.40 71.58 72.40 73.19 72.01 72.38 71.98 70.75 70.90 70.34 69.75 70.50 69.47 70.62 71.41 71.68 71.80 71.90 71.80 71.72 71.38 71.28 71.68
56.43 52.31 54.75 55.03 54.66 53.33 52.40 53.50 55.71 55.79 56.18 59.29 59.43 61.45 62.83 63.40 64.03 64.69 64.95 66.48 67.98 69.72 71.10 72.58 73.76 73.31 72.77 72.34 71.71 72.06 72.41 72.25 72.53 71.83 72.66 72.14 69.51 70.23 70.07 69.95 70.52 70.68 71.56 70.73 70.95 71.54 71.77 71.77 71.51
52.45 55.92 56.49 56.56 56.40 54.64 52.68 55.30 53.95 54.60 56.24 60.41 60.79 62.52 62.64 62.92 63.89 64.16 64.52 65.30 65.85 67.05 69.13 71.21 74.10 73.36 73.20 72.40 71.90 72.06 71.65 72.06 72.21 72.54 73.89 72.68 70.54 71.13 70.27 69.15 70.09 70.25 69.91 70.14 70.54 70.63 71.76 71.82 71.76
52.32 53.64 55.51 57.18 56.89 56.26 56.23 54.72 55.26 55.53 57.88 59.41 60.46 61.07 61.90 63.11 63.64 64.89 65.26 65.56 66.46 66.18 67.52 69.69 73.44 74.92 74.31 73.72 72.74 73.47 73.46 72.11 72.99 72.91 73.10 72.25 70.98 71.74 70.41 70.26 69.18 69.83 69.67 69.80 69.97 70.31 71.35 71.27 71.57
52.45 52.98 53.85 54.48 55.45 56.36 54.38 54.95 57.06 58.11 59.81 59.99 60.83 61.44 62.06 61.96 62.91 63.99 64.54 65.00 66.19 67.58 68.34 70.65 71.75 74.29 75.01 74.45 74.74 73.71 73.44 73.40 72.53 72.41 72.28 73.49 71.85 72.66 70.01 69.94 69.12 68.77 69.29 69.33 69.80 69.81 70.15 70.70 71.33
50.73 49.16 51.73 53.79 53.96 53.19 56.04 52.76 54.26 58.54 60.21 59.95 60.22 60.67 61.28 62.00 62.72 63.01 64.22 65.39 66.89 67.92 69.32 69.85 70.93 71.85 73.21 73.79 74.16 73.89 73.13 72.75 72.12 72.17 73.42 72.64 72.85 72.70 72.28 69.60 69.37 68.82 69.87 69.98 69.65 69.72 69.91 70.03 71.16
46.73 47.88 44.51 51.04 53.05 54.29 52.77 49.05 55.72 58.60 58.50 58.48 59.34 59.79 60.20 61.82 62.43 63.72 64.60 66.05 67.59 68.05 68.41 69.55 68.58 69.38 71.14 72.61 73.15 72.77 72.71 72.40 72.09 72.06 72.62 72.82 73.00 72.63 71.65 70.25 69.69 69.68 69.73 68.97 68.50 68.12 67.39 67.47 70.86
45.74 41.49 44.34 46.72 52.50 52.06 51.33 49.40 54.82 57.91 58.15 57.84 58.96 59.41 59.62 61.01 62.56 64.26 64.86 65.39 66.52 67.56 68.52 68.63 70.50 69.93 70.49 72.01 72.16 73.39 73.70 72.26 72.03 72.31 72.56 72.86 72.77 72.45 71.70 71.04 70.55 71.13 68.92 68.39 67.91 67.28 67.14 67.45 70.23
40.29 41.97 43.95 45.13 49.49 50.78 48.75 49.90 54.02 56.28 56.79 57.01 58.13 58.71 59.47 60.41 61.48 63.54 64.50 65.10 66.00 66.96 70.06 71.12 70.68 71.55 71.27 70.09 71.86 71.48 72.06 72.09 72.15 72.29 72.51 72.98 72.64 72.30 71.87 71.45 71.45 70.69 69.01 67.79 67.42 67.62 67.73 70.27 69.09
43.22 43.35 43.53 46.51 49.73 49.67 48.89 49.07 51.58 54.40 54.93 56.03 57.01 58.33 59.20 59.62 61.50 62.72 63.66 64.57 65.03 67.74 68.73 70.13 70.16 72.43 70.46 69.76 69.75 70.30 70.31 71.34 71.64 72.40 73.01 73.04 73.07 72.69 71.15 71.73 71.16 70.51 69.01 68.80 68.43 68.54 68.74 68.84 68.89
41.65 41.24 42.43 46.39 48.43 48.52 48.84 48.61 51.50 53.32 54.45 55.86 56.60 57.47 58.28 59.37 60.38 61.46 62.65 63.46 64.53 65.87 67.72 69.57 69.81 70.99 70.81 70.17 71.54 71.85 71.83 72.09 72.38 72.73 73.18 73.26 73.15 72.66 71.93 72.26 71.03 70.95 69.56 69.20 69.52 69.91 68.20 68.26 67.88
40.18 40.20 41.66 42.99 46.61 48.43 47.63 46.19 48.98 52.47 54.28 55.52 56.53 57.38 57.88 57.92 57.95 59.33 60.08 62.01 63.57 64.74 67.16 68.02 69.73 70.36 71.27 71.71 72.05 72.18 72.64 71.75 71.04 71.76 72.21 72.71 72.70 72.71 72.75 72.26 72.09 71.74 70.72 70.21 71.16 70.42 69.25 67.21 66.00
36.15 42.14 42.80 43.03 42.85 40.14 47.31 38.86 46.97 49.94 51.14 53.10 54.47 55.64 56.46 57.24 58.35 58.65 59.16 60.65 62.48 63.50 64.54 67.18 68.89 69.66 70.76 72.12 72.56 72.52 70.50 69.65 70.71 71.76 72.48 72.44 72.94 72.70 72.48 72.64 72.20 71.70 70.90 70.74 70.34 70.07 68.90 68.11 64.60
38.45 42.26 42.59 42.86 41.93 42.50 43.75 41.29 45.13 49.50 48.73 51.46 53.82 54.60 55.75 56.61 57.01 57.47 57.89 59.43 60.65 62.02 62.88 65.37 67.59 70.03 71.81 72.22 72.37 71.00 72.10 71.69 72.30 72.17 72.81 73.08 72.84 72.83 72.49 73.25 72.74 72.31 71.06 70.95 70.21 69.10 67.83 67.45 66.39
43.19 40.85 41.92 42.58 41.19 35.06 40.79 41.41 42.15 45.62 48.19 50.53 52.78 53.57 54.28 55.13 55.85 57.29 58.72 59.64 59.93 60.88 61.85 64.39 68.87 71.13 72.23 72.04 71.77 72.23 72.59 72.48 71.50 72.02 71.59 71.69 72.19 72.53 72.81 72.41 72.33 72.08 71.08 70.83 70.03 69.95 68.05 67.50 66.84
41.29 37.19 31.40 30.78 33.27 33.40 42.16 40.12 42.48 48.41 49.16 50.40 51.47 51.37 53.23 55.16 56.21 57.17 58.09 58.68 60.51 61.28 62.28 65.60 69.77 71.17 72.07 71.85 72.20 72.83 73.09 73.26 72.95 72.41 71.46 71.25 70.16 70.13 71.33 72.07 71.50 70.73 70.96 70.45 69.63 69.16 68.09 66.94 66.34
38.74 37.38 31.87 27.09 30.58 34.91 41.47 37.20 42.30 49.26 51.51 52.04 52.30 52.22 53.81 56.39 58.01 59.71 61.23 62.65 62.62 61.55 64.09 67.07 69.74 71.23 71.76 72.06 72.53 73.08 73.37 72.20 72.04 72.14 70.93 70.07 69.15 69.60 71.84 71.40 71.27 70.82 70.36 69.61 69.06 67.70 67.11 67.67 66.72
37.67 33.69 40.46 34.68 37.67 36.12 39.12 41.85 46.29 48.45 49.10 50.66 51.03 51.27 53.48 57.24 60.37 62.46 64.24 65.45 64.31 62.51 66.34 69.01 70.82 71.51 71.77 71.89 72.01 72.20 72.23 72.04 71.32 71.85 71.55 69.63 71.03 70.62 71.35 71.05 70.16 69.80 68.97 68.74 68.26 66.60 66.85 66.69 66.24
39.42 41.85 34.66 36.70 27.68 28.87 36.63 38.69 40.28 45.12 46.50 49.15 49.93 50.94 53.11 56.11 59.12 62.52 64.58 64.98 64.47 65.56 68.53 70.55 71.76 71.45 71.65 71.64 71.78 71.33 71.49 71.29 71.22 71.00 70.31 70.48 70.54 70.00 69.94 69.42 69.31 68.61 68.10 67.89 67.46 66.84 67.08 66.55 66.14
37.40 36.84 37.64 38.03 36.85 32.71 32.61 37.70 46.99 47.67 48.78 49.40 50.46 51.60 53.15 54.27 57.35 61.77 64.57 63.96 66.11 67.84 69.44 70.83 71.23 71.00 70.82 71.08 70.94 70.48 69.97 70.25 70.37 70.05 70.16 70.10 70.12 69.32 68.56 68.18 67.73 66.98 66.63 67.00 67.04 67.04 66.56 65.93 65.91
40.09 37.60 38.68 32.21 32.93 37.11 37.45 39.14 48.77 50.00 50.19 50.59 50.69 51.97 53.44 54.46 55.81 62.00 64.50 62.63 66.63 68.03 69.63 70.30 70.53 70.30 70.27 69.69 69.46 69.45 69.56 69.65 69.59 69.29 69.48 69.59 68.67 68.51 67.49 66.97 66.42 65.99 66.44 67.27 67.10 66.28 65.98 65.70 64.97

GFSSGP_sfc_wetblb_057.txt.gz
Wetbulb
67.28 64.91 65.71 61.02 53.74 52.59 50.34 51.02 55.24 54.37 55.33 60.14 61.62 61.79 61.46 62.52 61.25 59.41 70.47 69.49 69.44 71.00 75.94 74.49 75.57 75.90 75.90 75.54 75.07 74.69 74.92 75.61 76.01 76.49 76.44 75.81 75.29 74.44 73.54 72.70 71.52 70.58 69.86 68.98 67.84 67.50 67.74 67.62 67.46
62.51 62.25 61.62 58.02 50.82 48.92 49.87 53.74 52.69 55.54 60.64 62.72 62.78 62.99 63.02 61.61 65.85 66.93 68.44 70.19 70.37 73.03 75.29 73.60 75.14 75.47 75.72 75.34 75.02 74.59 74.39 74.39 75.07 75.21 75.12 74.62 74.19 73.29 72.30 71.49 70.58 69.56 68.78 68.30 67.95 67.85 67.61 67.37 67.07
67.62 63.50 56.31 53.03 51.54 48.60 50.47 54.25 54.69 58.11 60.83 61.20 61.60 64.06 63.76 63.17 66.93 66.34 70.02 70.62 71.36 73.74 74.84 74.13 74.87 74.92 75.47 75.24 74.99 74.59 74.17 73.97 74.02 74.17 74.07 73.80 73.25 72.90 72.22 71.23 70.49 69.34 69.22 69.18 68.82 68.17 67.74 67.58 67.72
62.76 58.63 56.90 51.19 49.09 52.37 52.84 55.06 55.86 58.71 60.15 63.09 63.09 61.19 63.93 67.42 67.53 68.63 70.55 70.74 71.23 72.95 74.14 75.06 74.54 74.67 75.02 75.04 74.79 74.22 74.12 73.70 73.50 73.49 73.42 72.97 72.24 72.13 71.58 71.02 70.79 70.78 69.64 69.36 68.93 68.69 68.75 68.72 68.98
61.46 57.04 50.28 49.59 49.76 52.64 55.02 55.97 58.14 57.37 60.53 62.02 63.28 61.53 62.56 66.83 69.75 69.67 69.42 69.56 70.76 71.34 73.83 75.57 74.34 74.62 74.79 74.77 74.39 73.95 73.52 73.20 72.95 73.19 72.87 72.34 72.20 71.93 71.48 71.18 70.77 70.54 70.31 69.61 69.34 69.41 69.66 69.58 69.63
56.01 55.56 49.14 47.30 49.43 52.86 54.83 56.49 55.94 56.29 60.54 61.69 61.95 62.48 64.41 68.56 68.96 69.14 68.32 69.26 69.86 70.63 73.39 76.03 74.69 74.39 74.10 74.49 74.32 73.67 73.18 72.88 72.88 72.60 72.63 72.15 72.08 71.86 71.51 71.31 71.24 71.24 71.39 71.08 70.40 70.44 70.23 70.17 70.17
55.53 53.41 48.33 48.86 50.42 51.78 53.87 56.85 55.03 56.36 59.10 60.29 63.34 61.39 64.98 66.94 69.21 69.18 68.58 69.33 69.67 71.20 72.61 75.72 75.63 74.04 74.32 74.39 73.94 73.52 73.12 73.00 72.70 72.56 72.26 72.13 72.01 72.06 71.74 71.64 71.66 71.62 71.59 71.69 71.76 71.72 71.31 71.14 70.55
58.12 54.97 49.67 50.13 48.16 49.96 54.83 55.56 56.33 56.79 58.33 63.26 63.53 60.37 62.55 66.69 69.25 69.47 68.44 68.82 69.20 70.67 71.87 72.72 75.82 73.37 72.49 72.93 74.29 73.74 73.17 73.00 72.65 72.58 72.46 72.18 72.16 72.18 71.91 71.30 71.49 71.64 71.71 71.88 72.08 72.03 72.11 71.67 71.15
59.50 52.51 50.29 50.14 49.55 49.91 52.99 52.60 56.64 58.64 58.27 60.84 63.22 63.74 65.18 68.37 69.81 68.01 67.26 67.85 68.60 69.47 71.33 73.13 73.74 74.04 72.85 71.80 72.85 73.95 73.42 73.20 72.87 72.60 72.43 71.64 69.72 70.10 70.13 70.05 70.67 71.64 71.89 72.04 72.01 72.26 72.21 71.84 71.15
56.50 52.32 52.28 55.26 54.72 53.22 53.71 54.06 54.30 55.18 57.05 59.29 61.54 63.56 64.97 67.80 67.80 66.23 65.85 66.47 67.37 68.05 69.87 72.01 73.54 74.31 74.24 72.12 73.39 73.55 71.97 72.12 71.42 70.84 70.92 69.89 69.66 69.85 69.10 69.98 70.65 71.76 72.01 71.96 72.06 72.13 71.86 71.32 70.77
56.87 52.67 55.75 55.62 56.71 56.55 54.38 54.38 56.25 54.36 55.01 59.06 60.13 61.95 63.47 64.94 66.71 66.26 66.31 66.39 67.28 68.63 69.56 71.04 76.04 75.87 74.61 73.37 72.59 72.63 73.30 72.52 72.85 72.89 73.12 72.43 69.59 70.29 69.44 69.56 69.81 70.19 71.23 69.97 70.94 70.94 70.98 70.76 70.88
52.50 56.54 56.92 57.05 57.49 56.80 54.38 55.64 54.54 55.36 55.71 60.51 62.99 63.81 64.19 63.99 64.42 65.01 65.64 66.81 67.79 68.72 70.03 71.28 74.44 76.82 77.24 74.44 73.26 73.46 72.67 73.36 73.27 73.14 74.72 72.48 71.65 71.71 71.35 69.85 69.71 71.69 70.23 70.25 70.77 69.79 71.64 71.03 71.58
51.71 53.70 55.90 57.49 57.53 57.99 57.54 55.32 55.98 56.05 57.94 58.58 61.48 62.96 63.31 63.87 64.56 65.93 66.52 66.88 67.42 67.13 67.92 69.27 71.97 77.77 77.54 76.87 73.99 74.68 74.74 73.36 73.82 74.12 75.31 73.54 71.60 71.92 70.79 71.80 70.32 70.83 70.41 70.36 70.25 70.15 71.40 71.63 71.11
51.86 52.46 53.21 55.34 55.63 56.97 55.85 56.20 56.97 58.16 59.72 58.99 58.32 59.58 61.69 62.75 64.12 65.49 66.35 66.66 67.40 68.11 68.73 69.40 71.79 78.68 76.68 76.95 77.80 76.55 77.00 74.30 73.95 73.31 74.81 75.40 73.73 73.73 70.93 71.87 70.53 70.58 70.29 69.96 70.11 70.42 69.96 70.61 70.98
51.25 47.94 50.49 52.36 53.32 53.73 56.44 52.88 54.36 58.66 59.89 59.42 59.04 59.83 60.96 62.58 64.33 64.53 65.68 66.91 67.56 67.90 69.42 70.58 72.34 75.53 78.20 77.21 76.66 76.48 74.50 74.59 73.26 73.17 77.29 76.58 75.67 74.81 74.11 71.72 70.71 70.91 71.05 73.31 72.06 72.75 71.27 69.64 70.50
46.64 48.69 44.47 49.49 52.26 53.67 53.38 48.56 54.84 58.11 58.79 58.45 59.55 60.34 61.21 62.73 63.69 64.59 65.41 66.68 68.27 68.60 69.48 70.83 69.13 69.36 74.61 76.77 75.42 74.66 73.41 73.63 73.42 73.36 74.18 76.10 76.51 75.57 75.15 71.54 71.44 72.19 71.05 70.15 69.28 68.74 68.07 68.34 68.23
43.53 40.66 44.83 46.57 50.97 51.52 51.14 50.31 54.85 56.97 57.48 58.27 59.43 60.20 60.59 61.64 63.03 65.51 65.37 66.21 67.67 69.37 70.36 70.04 71.80 70.01 72.45 76.69 74.16 74.82 76.33 73.93 73.14 73.35 73.08 75.93 74.44 73.98 74.12 71.71 72.06 74.61 70.59 69.98 69.31 68.67 68.81 67.81 67.06
39.24 40.44 42.63 43.99 49.17 50.03 49.20 50.30 54.13 56.35 56.32 56.77 58.22 59.98 60.41 60.83 61.47 64.46 65.23 66.54 67.69 68.70 72.74 73.60 72.42 74.89 76.42 73.66 75.08 71.56 71.90 72.88 73.26 72.80 72.87 75.45 73.96 73.58 73.87 72.62 73.73 73.34 70.52 69.63 69.16 70.27 68.72 67.66 67.10
43.23 41.20 40.84 45.31 49.00 48.29 48.39 49.38 51.67 54.90 55.23 56.42 57.60 59.14 60.34 61.25 62.76 63.82 65.16 66.32 66.96 70.27 71.74 72.40 72.04 76.16 73.45 70.77 69.03 69.58 70.57 72.18 72.71 73.04 74.62 74.02 73.97 73.54 74.76 72.48 73.16 72.92 71.73 71.85 72.34 69.53 68.29 66.73 69.77
42.25 40.69 40.85 43.56 46.44 47.82 48.16 47.78 51.67 53.17 54.46 55.64 56.93 58.22 58.97 60.27 61.84 63.24 64.55 66.11 67.91 69.26 71.24 72.01 73.73 74.84 74.84 71.61 72.40 72.23 73.21 72.04 72.99 73.24 74.52 74.12 73.88 73.94 73.39 74.09 73.23 72.52 70.93 71.83 70.47 70.51 67.64 69.20 70.85
41.93 40.30 40.41 40.67 44.44 46.98 47.30 46.16 48.85 52.44 54.57 55.45 56.70 58.33 59.50 59.71 60.47 62.10 62.98 65.34 66.48 68.07 69.57 70.41 72.55 73.65 74.77 74.62 73.51 73.74 73.93 74.53 72.67 73.11 73.06 73.56 73.82 73.83 73.30 72.92 73.84 72.85 72.77 70.15 70.95 70.77 70.02 67.21 69.30
38.33 43.11 41.99 40.86 40.76 38.31 46.80 39.27 46.63 49.92 51.42 54.01 55.12 56.53 57.81 59.09 60.45 61.52 61.91 64.13 65.81 65.49 67.24 70.51 71.88 73.30 73.64 75.91 72.55 75.15 71.88 71.03 71.61 73.01 73.39 73.38 73.93 72.71 72.63 73.07 73.00 73.85 71.98 73.29 71.51 70.94 70.77 69.72 67.41
40.30 43.58 42.04 41.34 39.81 40.56 42.34 41.37 45.63 49.72 49.11 51.36 54.11 55.74 57.57 59.17 59.83 59.91 60.72 62.25 62.87 64.87 66.41 68.74 70.66 72.46 73.90 75.63 74.32 72.78 73.47 71.80 72.27 72.42 74.64 75.28 73.59 72.94 73.02 73.01 73.66 72.98 71.47 72.56 72.23 71.44 70.71 69.28 67.92
43.55 41.35 41.21 41.06 39.44 33.81 40.06 41.44 43.07 46.88 49.40 51.64 53.90 55.64 56.85 57.84 59.08 59.78 60.68 61.17 61.19 61.76 63.16 67.90 69.67 71.51 72.56 74.11 73.34 75.95 75.29 75.28 72.43 73.62 72.23 72.18 71.48 71.82 72.86 72.80 73.15 73.80 72.88 71.52 70.56 71.33 69.82 68.92 69.19
41.59 38.90 31.44 30.02 31.33 31.35 41.57 40.91 43.86 50.33 51.83 52.00 53.25 54.91 56.33 57.20 57.31 57.76 58.39 59.32 60.65 61.78 62.86 64.69 68.11 69.80 72.17 72.78 72.82 72.98 75.83 77.14 76.59 74.20 72.72 72.77 71.50 71.54 72.16 73.37 73.39 71.93 71.95 71.08 71.06 70.58 69.43 68.46 67.34
38.10 38.09 31.41 25.11 28.13 32.52 41.56 37.70 43.59 50.59 52.60 52.81 53.15 54.73 55.08 55.48 57.04 58.18 59.24 60.86 61.01 62.48 63.72 63.63 66.67 69.49 72.34 72.61 72.54 73.65 75.19 73.42 73.84 74.99 73.25 72.09 71.56 72.21 73.76 72.69 71.91 71.22 71.04 70.51 70.54 69.34 67.99 69.44 67.35
39.54 34.78 39.86 34.04 34.40 29.17 35.33 42.55 47.10 49.92 50.34 51.99 52.87 53.40 54.96 56.96 59.19 60.92 62.80 64.27 65.58 65.64 64.48 65.85 67.11 70.38 72.27 72.92 73.33 74.25 74.58 75.86 74.05 75.81 75.48 71.85 73.73 71.75 71.79 71.29 70.77 70.65 70.06 69.62 69.90 67.67 67.66 68.03 67.94
42.32 41.87 33.71 35.14 26.75 24.96 33.96 36.54 41.02 46.19 48.48 50.80 51.94 52.81 54.64 56.06 57.81 60.76 64.30 65.60 67.04 66.07 65.54 68.28 69.71 71.60 72.55 73.21 73.41 73.23 73.54 73.30 73.19 72.88 73.33 72.85 72.73 70.98 70.37 70.14 70.44 69.64 68.92 68.56 68.45 67.94 67.72 67.38 67.20
39.47 37.48 38.31 38.30 35.67 28.07 30.42 36.46 47.03 48.03 49.45 50.79 52.01 53.68 54.10 55.01 56.41 61.41 65.07 65.58 66.85 66.46 67.80 70.07 71.45 71.81 72.16 72.49 72.71 72.75 72.31 72.37 71.87 71.35 70.80 70.90 71.00 70.15 69.17 69.07 68.66 68.23 67.68 67.73 67.71 67.52 67.05 65.47 66.50
42.25 40.06 38.23 33.57 33.08 36.15 34.09 34.46 49.47 51.09 52.03 52.46 52.77 53.61 54.15 55.32 56.36 59.37 65.66 64.73 67.48 67.69 69.21 70.49 71.36 71.35 71.87 72.27 72.14 71.47 71.19 70.79 70.60 70.17 70.29 70.38 69.60 69.32 68.72 68.59 67.76 66.97 66.54 67.09 67.05 66.10 66.14 65.46 65.21

GFSSGP_sfc_wetblb_060.txt.gz
Wetbulb
64.72 63.09 63.60 61.79 51.73 51.38 48.08 49.50 53.64 53.39 54.76 58.05 60.22 59.75 59.36 61.54 61.05 57.95 68.05 69.17 74.77 72.38 73.84 74.92 76.08 76.14 75.96 75.49 75.39 75.83 76.41 76.56 77.07 76.92 76.80 76.47 76.18 75.43 74.76 73.99 72.71 71.21 70.13 69.37 68.19 67.18 66.78 66.94 66.85
62.16 60.38 60.41 57.03 49.11 46.37 48.54 52.31 52.31 54.18 57.25 58.77 60.58 60.83 61.60 61.27 65.57 66.03 66.33 69.10 75.72 73.14 73.14 73.77 75.83 75.86 75.79 75.41 75.21 74.91 75.42 75.94 76.57 76.67 76.37 76.17 75.83 75.06 73.89 73.07 71.91 70.66 69.78 68.62 67.70 67.48 67.45 67.12 66.74
64.33 61.94 55.95 51.39 49.14 46.75 48.24 53.62 54.14 56.10 58.05 60.76 60.40 62.78 62.41 63.26 66.47 67.00 69.02 70.18 75.64 73.93 72.11 73.77 75.71 75.68 75.84 75.36 75.06 74.63 74.61 75.09 75.50 75.93 75.77 75.47 75.10 74.46 73.47 72.79 72.08 70.18 69.17 68.34 68.26 68.14 67.77 67.30 67.02
62.85 61.15 56.22 49.36 47.70 50.47 51.71 54.27 55.80 55.72 57.17 61.69 61.66 60.45 64.03 67.88 67.58 68.65 69.70 70.09 73.24 73.06 72.27 74.58 75.16 75.55 75.58 75.44 74.96 74.56 74.36 74.36 74.71 75.06 75.05 74.80 74.23 73.74 72.94 72.35 71.69 71.19 69.78 69.62 69.24 68.70 68.62 68.30 68.62
60.13 56.76 48.70 47.56 48.26 51.54 54.01 55.47 56.00 55.08 58.07 58.70 61.35 60.08 62.10 66.76 69.81 69.52 69.52 70.05 71.24 72.38 72.75 74.21 74.68 75.30 75.48 75.44 75.06 74.66 74.23 73.81 73.79 74.19 74.11 73.89 73.57 73.12 72.25 71.83 71.61 71.47 71.41 70.53 69.75 70.23 70.10 70.21 70.19
55.22 55.00 47.17 45.65 48.22 51.53 53.66 55.39 55.35 55.51 57.82 59.58 60.84 61.06 62.57 67.57 68.50 68.24 68.85 69.52 70.20 72.06 73.67 74.63 74.51 74.78 74.88 74.91 74.73 74.11 73.93 73.61 73.49 73.51 73.54 73.17 72.94 72.55 71.95 71.58 71.67 71.85 71.71 71.44 71.13 71.06 71.07 71.06 71.16
54.47 52.08 47.93 47.49 48.44 50.79 53.09 56.33 54.48 54.53 55.04 56.11 61.76 59.89 64.00 65.84 68.43 68.25 68.02 69.70 70.05 72.65 75.60 74.65 73.69 74.23 74.63 74.48 74.10 73.75 73.33 73.21 72.96 72.92 72.94 72.57 72.47 72.28 71.88 71.61 71.53 71.67 71.84 71.56 71.63 71.64 71.63 71.36 71.54
57.72 54.52 49.53 49.97 48.61 48.59 53.66 54.59 55.46 54.35 54.33 59.43 62.14 59.37 60.73 66.19 68.93 67.91 67.26 68.04 68.96 71.04 75.73 75.32 74.32 72.56 72.52 73.20 74.28 73.93 73.35 73.06 72.83 72.74 72.71 72.25 72.15 72.18 71.96 71.11 71.41 71.95 71.85 71.75 71.70 71.78 71.91 71.80 71.80
59.18 51.43 48.94 50.11 49.81 51.25 54.58 52.88 55.49 57.01 55.31 57.34 61.05 62.55 65.47 67.76 68.63 66.77 65.93 66.12 67.23 69.21 72.43 75.12 74.34 72.94 70.96 70.71 72.81 74.08 73.61 73.48 73.18 72.86 72.61 71.64 70.15 69.81 69.73 70.55 70.57 71.93 72.05 71.95 72.03 71.93 72.00 72.02 71.94
53.66 51.03 51.07 54.46 54.70 53.68 54.27 54.47 54.77 54.40 54.01 55.01 58.10 63.55 65.18 66.80 67.25 66.48 65.25 65.29 66.25 67.90 69.95 71.84 74.34 72.12 71.17 70.61 71.55 72.27 71.87 72.06 71.70 70.73 70.87 70.92 69.11 68.23 68.64 69.72 70.82 71.73 71.93 72.00 72.05 71.97 72.15 71.80 69.48
54.11 51.72 54.72 55.20 56.23 56.48 55.30 55.35 56.06 54.13 52.59 55.06 56.91 60.84 63.60 64.80 67.19 66.25 65.88 65.83 66.36 68.07 68.74 71.26 74.00 73.51 72.51 71.62 72.17 72.64 71.14 70.92 70.55 70.11 69.78 70.38 68.71 67.77 68.26 67.53 68.79 69.35 71.04 69.39 70.40 70.43 70.35 69.39 68.86
49.15 53.81 55.23 56.10 56.91 56.29 55.38 57.19 55.46 55.40 55.16 57.52 58.69 61.99 63.58 63.86 65.92 65.37 65.27 65.88 67.57 67.76 68.11 71.35 74.49 74.78 74.33 73.79 72.49 73.22 72.64 72.00 70.68 70.48 70.60 69.75 68.84 67.59 67.22 67.24 68.24 67.13 68.14 68.33 67.85 67.94 68.52 68.74 69.26
47.61 49.44 52.77 55.47 56.62 57.07 57.43 55.92 56.05 56.03 58.16 58.63 58.71 59.69 63.19 64.34 65.34 66.73 67.63 68.02 67.52 69.39 68.19 70.31 75.21 75.39 76.28 77.15 76.33 73.89 73.11 72.79 72.43 72.07 71.27 70.39 70.02 68.26 68.58 68.67 67.78 68.55 68.18 68.71 67.45 68.03 68.23 68.33 68.78
49.65 49.57 50.29 51.61 52.95 54.90 54.46 55.62 56.50 57.75 59.46 59.02 59.24 58.89 59.69 63.33 64.25 66.07 67.36 68.79 74.73 73.39 73.71 72.88 75.30 76.18 76.89 76.48 77.00 77.33 77.45 73.84 74.15 73.16 72.91 71.85 69.97 70.52 69.10 68.39 69.68 68.13 69.26 69.01 68.43 67.60 68.06 68.73 69.39
48.60 46.47 48.92 49.75 50.82 51.18 54.03 52.19 53.24 58.17 59.47 58.63 59.20 59.24 59.84 60.63 64.57 64.60 66.37 69.58 71.89 72.52 77.89 74.25 76.18 77.60 76.89 76.20 76.96 75.93 75.12 74.86 73.78 74.74 75.96 72.91 71.81 70.34 71.11 69.92 67.81 70.00 69.42 71.11 69.36 68.71 68.78 69.48 69.44
44.40 45.28 42.16 48.36 49.60 50.45 50.61 46.39 53.41 56.98 57.39 57.81 58.49 59.60 60.12 60.59 61.36 64.10 66.03 70.25 71.76 72.10 72.24 74.69 70.84 76.70 77.26 76.75 76.40 75.93 75.37 74.33 74.02 74.01 75.26 75.35 73.02 73.32 72.35 70.93 70.57 69.69 71.15 69.08 69.44 69.14 68.68 68.16 67.76
43.31 38.25 40.32 43.07 48.97 49.37 48.87 46.83 52.55 55.48 55.82 56.52 58.06 59.41 59.72 60.90 62.66 64.40 66.07 67.91 71.02 72.86 73.01 73.53 73.90 73.33 75.11 75.86 74.81 74.71 74.43 74.31 74.37 74.99 73.63 75.21 74.80 73.22 73.31 71.83 71.37 72.82 70.00 70.02 69.38 67.83 68.37 67.02 67.62
38.42 39.84 41.10 40.46 44.68 46.11 46.55 47.49 51.02 54.41 55.13 55.23 56.57 57.72 59.92 60.35 61.64 64.58 66.48 67.10 70.61 71.97 73.08 73.64 74.74 74.96 77.19 74.13 76.54 74.43 72.96 72.93 74.18 74.24 73.80 74.54 73.80 73.94 72.52 72.79 71.41 73.33 70.91 69.86 69.25 68.79 68.69 67.70 66.82
43.05 41.56 40.58 43.55 45.63 44.39 44.62 46.47 49.71 52.45 53.42 53.75 56.73 57.17 58.03 60.15 63.51 63.80 65.75 66.70 67.91 71.09 72.06 72.98 72.92 74.51 74.18 74.31 71.46 69.92 69.42 71.11 73.22 73.33 74.28 75.01 74.04 73.32 73.36 71.66 72.48 72.43 70.40 70.13 71.09 70.03 68.78 67.41 66.83
42.49 40.35 40.30 43.32 45.19 44.25 44.08 43.66 47.72 51.28 53.03 53.75 55.59 57.43 58.13 59.59 60.95 64.10 65.43 68.42 69.63 71.28 71.53 72.34 72.31 73.22 73.91 73.23 72.43 72.20 73.32 71.96 72.27 73.50 74.16 74.93 74.03 73.84 73.08 72.32 71.79 71.73 71.02 71.13 70.79 69.13 66.53 65.98 67.81
41.63 40.18 40.00 39.97 43.35 44.38 42.80 41.55 44.83 48.76 52.16 53.74 55.94 57.55 58.42 59.19 60.76 61.87 64.05 66.84 69.07 68.64 70.29 70.02 71.69 72.49 73.62 72.39 71.91 72.31 73.63 74.52 73.87 73.36 73.93 74.29 73.85 73.84 73.22 72.27 72.77 71.63 70.72 70.01 70.21 69.32 67.09 66.04 67.53
38.45 43.44 42.23 40.89 39.46 34.86 42.44 34.60 43.32 46.57 49.04 52.06 53.85 56.36 57.54 58.25 59.97 62.54 63.88 66.08 68.77 67.94 68.28 68.95 70.50 70.31 71.62 72.62 69.72 70.28 70.00 69.18 71.96 73.28 73.13 73.26 73.91 73.30 72.78 72.35 72.00 71.90 70.97 70.45 69.36 69.22 68.94 67.67 65.02
40.74 43.46 41.62 40.86 39.06 38.28 38.28 36.23 39.84 46.37 46.11 50.38 52.84 55.35 57.49 58.23 59.06 60.01 62.48 64.33 66.18 67.65 66.94 67.18 69.55 70.48 70.52 71.69 71.10 69.34 71.31 71.43 74.70 73.50 74.07 73.04 73.39 73.01 72.16 72.22 72.30 71.70 71.54 71.73 70.26 70.03 68.08 67.90 66.18
44.64 41.58 40.48 39.92 37.83 31.49 36.42 36.34 37.34 41.64 46.59 50.15 53.19 54.41 56.58 58.17 58.57 59.49 61.81 63.96 63.69 64.77 65.77 66.22 66.32 69.46 70.04 71.89 71.26 71.57 71.63 71.63 71.72 72.40 72.14 72.05 71.96 70.83 71.31 71.29 71.65 72.15 71.71 71.44 70.28 70.12 69.04 68.22 67.05
42.78 38.41 30.59 29.08 29.63 29.82 38.17 35.45 38.31 44.29 47.62 50.52 52.68 54.46 56.30 57.35 58.16 59.49 60.45 60.87 62.40 63.77 64.67 66.15 68.98 67.11 70.39 70.83 71.76 71.63 74.27 72.17 75.78 72.77 71.69 71.17 69.74 69.73 70.29 70.73 71.98 72.02 71.99 71.00 70.64 69.86 68.83 67.66 66.86
40.09 38.28 30.49 22.34 24.39 29.11 37.57 31.52 38.37 46.71 48.35 51.36 53.50 55.18 56.66 57.15 58.08 59.03 60.57 62.19 60.92 62.36 63.91 63.77 65.56 68.23 69.54 70.05 71.79 72.67 74.07 72.92 74.93 72.85 72.58 71.01 70.33 70.40 71.44 72.26 72.22 71.78 71.24 70.50 70.28 69.19 67.87 68.27 66.76
39.79 35.27 40.65 32.66 34.16 29.27 32.68 37.51 43.55 46.58 47.94 50.06 52.08 53.64 54.48 56.38 58.67 58.80 59.88 62.84 64.02 65.51 68.29 67.33 66.26 67.12 69.20 72.04 72.93 72.71 73.26 74.11 73.32 73.81 75.10 72.32 72.00 72.26 72.33 71.88 71.14 70.90 70.10 69.81 69.14 68.09 67.50 67.26 67.17
41.62 43.11 33.01 33.54 24.63 22.84 31.33 33.42 35.05 42.70 45.99 49.28 51.00 53.01 55.32 56.99 57.61 59.55 61.34 64.90 67.62 68.40 69.51 69.74 67.31 68.00 72.08 72.64 72.89 73.12 73.85 74.53 74.52 74.24 73.14 72.77 71.54 71.27 71.38 70.89 70.43 68.84 69.40 68.63 68.23 67.80 67.40 66.39 66.30
39.43 37.70 38.58 37.24 34.35 27.49 25.43 32.10 43.39 43.97 47.38 48.97 50.45 53.38 55.30 55.43 55.97 57.96 61.74 65.35 66.64 67.39 67.52 68.98 67.03 71.35 71.82 72.67 73.24 73.23 73.62 72.86 72.52 72.51 71.82 71.70 71.78 70.37 69.96 69.78 68.72 67.18 66.81 67.70 67.64 67.10 66.13 65.91 65.27
39.73 39.51 37.39 30.45 29.34 34.38 31.46 32.61 45.91 46.86 47.47 49.47 51.49 53.68 54.77 55.44 55.59 56.59 64.88 65.64 65.30 65.60 66.51 68.14 70.35 71.05 72.06 72.59 72.61 72.47 72.17 71.63 71.37 70.89 71.25 71.07 70.56 69.70 69.03 68.86 67.15 66.65 67.18 67.67 66.65 66.15 65.98 64.56 64.31

GFSSGP_sfc_wetblb_063.txt.gz
Wetbulb
61.52 58.66 57.89 56.32 45.75 42.78 40.06 44.62 49.27 48.66 49.32 54.54 58.38 57.09 57.78 60.53 59.17 54.18 65.90 70.85 70.31 71.01 73.33 75.23 75.84 75.84 75.68 75.59 76.48 76.63 76.72 76.75 76.66 76.72 76.44 76.32 76.22 75.43 74.68 74.01 72.73 71.64 70.68 69.61 68.68 67.93 67.29 67.42 67.63
60.03 59.68 54.98 51.52 41.85 37.36 41.28 48.96 47.92 50.68 52.34 55.38 57.98 57.81 58.84 59.38 63.58 63.11 67.76 70.34 70.09 71.31 72.74 73.56 75.66 75.61 75.54 75.19 75.56 76.33 76.44 76.67 76.78 76.65 76.46 76.31 76.09 75.30 74.39 73.27 72.10 71.20 70.39 69.39 68.21 67.67 67.78 67.65 67.25
62.69 61.43 49.05 45.44 41.93 40.86 41.83 48.63 49.89 52.86 55.16 57.03 57.42 60.06 60.26 61.56 64.13 63.59 70.18 70.10 69.70 70.59 71.39 73.41 75.56 75.36 75.56 75.21 75.03 75.39 76.08 76.47 76.80 76.53 76.41 76.03 75.81 75.04 74.33 73.22 72.31 70.77 70.09 68.91 68.22 68.16 68.09 67.52 67.20
59.96 56.67 53.68 42.95 41.55 45.96 47.85 50.36 52.15 52.49 53.60 59.20 59.09 57.77 61.44 66.29 64.81 67.49 72.79 70.75 69.11 69.45 71.19 75.13 75.43 75.33 75.41 75.21 74.66 74.73 75.44 75.98 76.28 76.32 75.91 75.46 75.00 74.77 73.85 73.02 72.27 71.25 69.88 69.21 69.03 68.90 68.55 68.18 68.12
58.08 51.40 42.43 41.03 43.64 48.30 51.31 52.72 52.59 51.30 51.84 56.58 58.34 57.10 59.89 65.69 66.91 72.08 72.18 71.99 69.26 67.99 70.94 74.05 75.37 75.33 75.31 75.21 74.81 74.28 74.53 74.94 75.48 75.76 75.52 75.17 74.86 74.27 73.55 72.67 71.49 70.89 71.11 70.55 69.87 70.25 70.44 70.36 70.22
53.41 50.76 40.18 39.56 44.26 48.62 50.70 52.03 51.55 50.76 51.45 55.07 56.07 57.77 59.08 65.66 65.76 68.14 71.23 70.51 70.56 68.55 71.68 72.57 75.17 75.10 74.93 75.03 74.53 73.98 73.81 73.83 74.42 74.86 74.83 74.76 74.41 73.84 73.26 72.55 71.80 71.58 71.80 71.91 71.42 71.30 70.90 70.82 70.92
52.68 47.11 42.72 43.63 44.67 47.30 50.23 51.47 49.80 50.23 50.51 52.10 55.62 55.40 61.25 63.60 65.64 66.75 68.88 69.46 70.14 71.28 71.39 71.12 72.71 74.12 75.03 74.72 74.32 73.87 73.64 73.47 73.33 73.55 73.77 73.62 73.67 73.38 72.86 72.25 71.95 71.92 71.92 71.75 71.56 71.32 71.31 71.41 71.16
54.30 50.61 45.74 47.36 45.99 46.66 52.59 52.69 51.56 50.76 51.73 55.75 56.81 53.85 57.95 62.94 65.70 66.06 65.92 66.24 70.04 71.62 71.25 70.88 70.48 72.16 72.42 72.73 74.41 73.96 73.73 73.41 73.15 73.30 73.32 72.95 72.93 72.83 72.59 71.38 71.51 71.85 72.03 72.05 71.83 71.68 71.83 71.55 71.49
53.59 45.69 44.43 47.00 48.33 49.67 52.97 51.00 54.46 54.78 53.03 54.21 55.41 59.53 64.86 66.31 64.86 63.10 63.86 65.16 69.87 71.86 71.03 70.82 70.24 70.16 70.40 70.84 72.58 73.66 73.41 73.33 73.17 72.93 73.05 71.81 69.26 69.30 69.81 70.85 70.57 71.90 72.13 72.23 71.98 71.95 71.72 71.95 72.07
49.11 44.36 47.39 52.55 53.21 51.96 53.59 53.90 54.07 52.48 52.20 52.99 53.91 62.03 64.36 65.55 64.46 63.25 62.30 62.88 67.03 70.61 71.41 71.27 70.50 69.51 68.47 70.14 69.69 70.66 70.75 70.65 70.80 70.40 69.69 69.57 67.35 66.25 69.04 69.73 71.43 71.61 72.10 72.17 72.12 71.94 72.16 71.84 68.89
49.04 45.28 50.01 52.52 54.37 55.11 54.16 54.19 56.01 53.34 49.85 52.26 52.16 55.45 61.68 63.20 63.97 63.64 62.56 62.50 64.60 70.35 72.13 71.78 70.75 69.27 67.80 68.15 68.45 70.00 69.73 69.68 69.94 69.03 68.24 68.63 67.74 66.46 67.38 65.75 67.98 67.10 70.57 68.27 70.05 69.95 69.72 68.83 68.27
42.65 47.64 51.11 52.50 54.62 54.65 53.47 55.39 54.58 54.89 53.88 56.68 56.99 56.94 57.82 60.93 60.23 63.18 63.12 62.47 62.82 66.95 69.19 71.43 70.47 68.60 67.65 68.06 68.90 69.13 68.40 68.40 68.42 68.82 67.65 67.98 67.05 64.41 63.61 64.55 64.65 65.28 67.40 66.87 65.56 67.71 67.79 67.32 67.42
44.44 45.81 47.65 49.43 50.65 52.30 54.51 53.71 54.29 54.82 57.86 59.06 58.47 58.22 56.72 57.94 60.57 61.88 62.60 63.92 64.04 65.29 68.38 69.88 70.73 69.70 69.19 68.06 69.47 69.44 68.94 68.46 68.04 67.91 67.81 67.35 67.01 65.03 64.20 63.50 64.12 64.89 65.94 66.45 65.47 65.50 66.28 66.84 66.85
43.87 44.76 45.94 47.66 47.53 48.70 48.16 50.28 53.36 55.13 58.25 58.44 58.34 56.95 57.57 57.48 60.73 61.33 61.62 61.96 62.51 65.02 65.06 67.84 66.70 70.74 70.98 70.76 69.58 69.72 69.88 69.78 69.07 68.64 68.30 67.72 67.31 66.45 65.11 64.23 64.49 64.71 65.02 66.17 66.16 64.85 65.39 65.68 66.32
44.91 40.89 43.46 45.19 46.81 46.53 48.87 46.59 47.74 53.73 56.40 56.69 57.60 58.11 58.15 57.41 59.38 60.43 61.39 62.99 63.31 63.53 66.00 64.88 66.02 71.52 71.88 70.57 70.12 71.10 71.26 70.89 69.94 69.78 69.53 68.72 67.55 67.20 66.34 66.01 64.86 64.73 65.86 65.26 66.50 65.46 64.51 64.95 66.13
40.24 39.27 35.00 41.84 46.15 47.38 45.92 40.97 48.17 51.46 53.85 54.52 56.21 57.70 58.48 58.21 57.88 59.59 62.10 63.07 64.19 64.00 65.00 69.33 73.42 72.60 71.67 70.89 71.17 70.56 70.95 69.82 69.44 69.40 70.58 69.96 68.91 67.79 67.67 66.44 65.45 65.31 65.72 66.04 65.91 65.51 64.79 64.57 65.66
36.26 32.75 35.42 39.33 44.29 44.43 43.87 42.74 47.73 50.28 51.19 52.52 53.71 55.96 57.62 58.01 57.95 58.04 60.57 61.90 64.19 63.66 64.03 67.56 72.93 72.47 72.27 72.15 71.66 71.71 71.47 70.79 70.40 69.25 69.11 71.31 70.16 68.86 68.17 68.13 67.22 65.33 65.98 65.96 64.79 64.22 64.46 63.89 63.75
32.55 33.83 37.17 37.60 40.75 41.17 39.57 40.91 44.84 48.44 49.59 50.19 52.13 53.42 56.05 57.33 57.39 58.82 60.31 60.68 63.90 64.26 64.58 65.50 66.45 72.27 72.57 70.80 69.95 68.62 68.47 68.14 68.09 69.11 69.66 71.50 71.31 70.62 68.77 68.60 67.78 68.38 65.66 65.29 65.11 63.91 63.41 63.12 62.82
40.17 38.48 37.36 40.46 43.68 41.27 40.16 40.84 43.09 45.52 45.89 47.33 50.51 52.37 53.93 55.15 57.77 58.77 59.35 61.20 61.21 65.08 64.68 64.62 65.71 67.46 65.99 66.80 66.46 65.91 65.47 64.90 67.31 68.47 69.90 69.30 71.83 71.61 70.53 69.08 68.53 67.96 67.21 65.84 65.58 64.82 63.36 62.76 62.78
39.95 37.63 37.05 40.61 43.18 41.37 40.09 39.80 42.82 44.35 44.79 45.99 46.75 50.05 53.27 54.95 55.96 57.69 58.54 59.35 61.27 64.63 64.52 63.92 64.29 65.34 65.58 66.86 66.11 65.12 64.50 65.24 66.01 67.98 68.57 69.96 70.85 71.15 70.17 68.63 68.33 68.21 67.27 66.40 66.18 65.38 62.88 62.22 63.27
38.67 37.10 37.54 37.49 41.01 41.77 39.88 37.69 40.14 43.63 44.94 46.13 47.43 48.39 51.86 55.02 55.52 57.02 58.14 58.81 60.61 64.67 64.83 65.25 65.42 65.93 64.68 66.56 67.05 66.11 66.44 67.55 68.04 67.28 67.83 70.25 70.86 70.91 70.74 69.50 68.38 68.29 68.47 66.63 66.05 65.21 62.59 60.84 62.89
35.23 41.86 41.13 39.65 36.27 30.73 38.46 29.08 36.91 40.73 41.91 44.28 46.23 47.07 48.87 52.15 56.17 56.22 56.87 57.77 62.64 64.30 65.00 65.23 65.72 65.43 66.15 66.39 66.26 65.64 65.83 64.36 65.24 67.56 68.95 69.97 70.75 70.41 70.28 69.89 69.12 68.75 67.93 66.81 66.32 65.74 63.63 63.43 61.83
37.65 42.23 40.39 39.37 35.15 31.99 33.79 29.83 34.53 39.46 39.18 41.48 44.02 46.78 48.99 51.47 55.10 55.98 56.65 57.15 62.86 63.59 63.86 64.49 65.63 65.70 66.39 67.92 67.51 66.02 64.96 65.81 65.46 68.18 68.61 68.79 69.42 70.12 70.49 69.36 68.79 68.96 67.59 67.33 66.48 65.67 65.02 64.14 62.33
43.42 39.60 38.82 37.43 31.60 26.05 32.02 30.93 31.54 35.21 38.45 41.66 44.21 46.16 48.90 51.37 53.91 56.17 56.50 56.59 59.75 62.05 63.23 63.13 63.13 63.85 64.71 65.55 67.23 65.21 64.30 65.70 66.82 67.27 68.75 68.90 68.63 68.85 69.53 70.00 68.78 70.04 68.80 67.44 66.92 66.38 64.80 64.01 63.31
39.03 35.15 26.14 22.33 21.93 23.65 34.44 32.10 32.54 39.16 42.43 42.65 43.65 45.46 46.82 48.33 51.20 55.15 54.04 54.80 56.72 57.83 58.93 61.37 61.86 62.85 65.35 65.55 66.96 66.91 64.74 65.50 66.43 67.83 68.99 68.62 67.44 66.85 67.93 69.02 69.00 69.58 67.98 67.71 67.90 65.69 64.73 64.06 62.71
35.25 33.21 26.38 21.38 21.12 24.78 34.27 28.00 32.94 41.90 44.89 45.93 45.73 46.68 46.62 47.85 51.27 54.37 55.17 54.59 54.75 57.16 57.52 59.31 60.13 59.44 64.00 65.20 66.95 67.16 66.33 68.43 67.90 69.37 69.41 68.90 68.15 67.68 68.53 69.20 69.02 68.88 69.04 66.94 66.12 65.03 64.33 63.98 63.26
34.65 30.52 34.61 28.39 29.77 26.47 28.41 33.72 39.39 42.49 43.24 45.47 46.51 47.62 47.03 48.70 52.46 53.35 53.38 53.73 54.08 54.96 56.19 56.64 56.51 61.91 64.00 66.10 66.00 68.42 67.81 69.24 69.58 69.16 69.62 68.61 67.95 68.40 68.87 68.84 68.92 68.55 66.94 66.30 64.91 64.04 63.71 63.63 62.29
38.27 38.92 28.73 30.68 20.10 21.35 27.16 29.58 31.07 38.46 40.24 41.70 42.57 44.84 48.50 49.82 53.46 52.80 54.81 56.74 59.51 60.87 61.68 62.02 59.32 63.11 64.33 65.63 67.90 68.68 69.00 69.99 70.96 70.81 69.13 68.55 68.49 68.90 68.94 68.69 67.55 66.11 66.00 65.27 64.03 63.26 63.58 62.93 62.31
34.48 32.16 34.81 33.54 30.86 24.05 21.53 26.67 40.47 39.04 40.95 40.34 41.87 44.22 46.64 49.75 52.56 51.56 54.25 59.91 61.04 61.77 61.62 61.85 60.55 62.55 66.54 68.52 68.51 68.61 69.46 70.45 70.57 69.82 69.28 69.25 69.44 69.21 68.53 67.42 65.64 65.25 65.26 64.24 62.94 62.23 62.84 62.25 61.65
38.06 34.30 35.10 29.34 26.79 28.74 28.99 28.34 41.50 40.92 41.65 42.64 42.18 45.50 48.41 51.82 50.01 54.86 60.19 61.08 61.30 61.12 61.35 61.61 60.58 67.43 68.79 69.26 69.43 69.66 69.25 69.38 68.30 67.41 66.97 67.83 67.67 67.65 66.62 65.90 64.37 65.50 65.46 64.86 62.57 62.48 62.46 62.00 61.10

GFSSGP_sfc_wetblb_066.txt.gz
Wetbulb
60.87 58.26 55.52 54.74 45.14 41.04 37.94 42.65 47.95 47.88 48.01 49.24 52.57 56.58 58.41 60.40 58.23 52.95 63.40 68.03 67.87 70.39 73.27 74.74 75.56 76.39 76.61 76.78 76.90 76.72 76.41 76.24 76.29 76.27 75.84 75.87 75.70 74.86 74.31 73.77 73.11 71.98 70.82 69.94 69.16 68.69 67.98 67.91 67.78
60.30 59.41 53.18 49.23 40.94 36.01 38.95 45.22 46.71 48.19 50.67 52.19 53.81 56.92 58.58 58.53 61.65 64.99 65.87 68.39 67.86 71.30 72.93 73.41 75.24 75.61 76.16 76.36 76.55 76.43 76.46 76.39 76.29 76.26 76.09 75.86 75.69 74.88 74.14 73.24 72.40 71.52 70.58 69.80 68.86 68.14 67.93 67.91 67.62
61.91 59.97 47.92 44.59 39.43 37.80 40.39 46.15 47.17 50.49 52.87 52.48 52.29 57.79 60.67 60.01 64.55 65.71 67.84 67.88 68.98 70.54 72.40 72.69 75.46 75.21 75.54 76.03 76.16 76.08 76.20 76.33 76.39 76.34 76.08 75.99 75.56 75.16 74.37 73.32 72.29 71.04 70.40 69.56 68.57 68.36 68.24 67.94 67.54
58.41 55.05 51.53 41.73 39.75 44.10 45.99 48.69 50.40 50.96 52.26 51.46 53.56 56.32 62.13 64.74 65.00 67.54 68.30 68.27 68.17 70.16 71.13 73.67 75.28 75.09 74.94 75.44 75.84 75.95 76.22 76.45 76.38 76.34 76.10 75.86 75.42 75.05 74.33 73.27 72.65 71.46 70.58 69.51 68.94 68.72 68.53 68.08 67.83
57.63 49.23 41.99 37.63 41.14 45.66 48.83 50.29 50.57 48.56 49.08 50.81 52.22 55.08 59.75 63.33 68.14 69.01 67.35 67.88 67.52 68.47 69.95 73.51 75.08 75.01 74.76 74.91 75.18 75.53 75.90 75.99 76.12 76.35 75.93 75.66 75.56 74.80 73.77 72.80 72.05 71.13 70.89 70.04 69.67 69.67 70.07 69.96 69.57
52.60 50.01 38.50 38.08 43.81 47.66 49.40 50.25 48.98 48.71 49.87 50.93 51.06 51.25 58.86 65.17 68.91 68.25 66.99 65.99 67.71 67.69 70.08 72.73 75.08 74.61 74.36 74.34 74.34 74.75 75.12 75.39 75.78 75.89 75.74 75.65 75.26 74.62 73.85 73.09 72.18 71.81 71.65 71.59 71.31 71.16 70.89 70.63 70.80
50.80 44.45 42.40 40.58 44.02 47.43 50.00 51.80 50.74 48.72 49.64 50.05 52.96 51.45 59.47 63.96 68.87 69.47 66.52 66.15 66.32 68.15 70.72 71.95 73.03 73.92 74.79 74.11 73.83 73.85 74.03 74.37 74.83 74.92 74.97 74.92 74.91 74.37 73.81 73.22 72.57 72.13 71.76 71.93 71.90 71.51 71.17 71.09 70.91
52.85 47.70 42.01 44.07 44.89 45.70 51.93 52.02 50.48 50.46 52.36 54.66 55.42 51.90 57.22 61.95 69.20 69.03 68.14 66.22 66.03 69.13 69.03 70.92 71.77 72.50 72.43 72.34 74.00 73.75 73.38 73.38 73.68 74.16 74.20 74.35 74.31 73.92 73.53 72.56 72.36 72.10 71.88 72.23 71.96 71.66 71.41 71.45 71.14
52.55 44.12 41.83 44.28 47.18 48.54 53.00 49.91 55.09 56.12 52.62 54.02 54.96 57.32 62.75 63.76 63.43 63.96 66.20 67.85 68.26 69.11 68.30 68.83 70.27 70.59 70.72 70.98 72.58 73.60 73.59 73.21 73.23 73.22 73.36 72.30 70.33 70.64 70.74 71.31 70.93 71.88 71.73 72.00 72.05 71.70 71.75 71.75 71.58
48.07 40.60 46.18 51.70 52.16 51.09 53.15 53.40 54.25 54.29 53.27 52.80 53.60 57.01 58.71 63.29 63.80 63.67 65.06 66.28 67.35 68.10 68.95 68.13 68.26 69.21 69.05 71.29 70.67 70.94 70.68 70.86 70.39 70.02 69.67 69.26 67.32 67.14 69.45 70.23 71.31 71.27 71.71 71.81 72.05 71.94 71.91 71.06 68.60
46.16 44.48 49.39 50.40 52.63 54.01 53.09 53.30 55.70 53.64 51.66 53.84 52.46 54.88 55.97 58.29 61.07 62.86 64.46 67.09 67.95 69.02 69.44 69.03 67.54 67.94 68.05 68.33 69.64 69.99 69.41 69.28 69.28 68.47 67.84 67.48 67.34 66.26 67.81 66.30 67.95 67.41 70.19 67.88 69.90 69.76 69.41 68.02 67.86
41.11 45.08 46.99 50.16 51.73 51.14 50.23 53.18 53.08 54.27 54.20 57.02 57.69 57.37 55.73 56.81 58.51 61.77 61.37 63.34 67.72 69.01 69.59 69.33 68.65 67.46 66.56 66.31 67.93 68.24 68.25 68.40 68.49 68.36 67.46 67.11 66.12 65.03 64.12 65.08 64.91 65.13 65.87 66.04 65.70 67.04 67.45 67.23 67.75
41.23 43.81 45.42 46.98 47.08 47.46 50.18 49.20 49.81 49.88 54.52 57.98 58.39 58.32 56.40 56.21 56.15 57.82 60.75 61.80 63.07 67.05 69.93 69.97 69.03 67.68 66.69 65.50 66.40 67.51 66.80 67.02 66.70 67.16 67.30 67.18 66.16 64.66 64.23 63.99 62.96 64.80 64.79 65.80 64.75 65.58 66.51 66.82 67.05
41.64 42.89 43.00 44.14 44.16 45.44 45.52 46.58 48.02 49.41 52.64 53.70 55.93 57.02 56.67 56.41 56.93 56.85 60.20 61.34 60.99 64.82 68.51 70.12 69.13 67.92 66.49 65.99 66.70 67.29 67.70 66.63 66.41 66.55 66.85 66.91 66.19 65.17 63.55 62.90 62.84 63.46 64.44 65.30 65.20 64.34 64.76 65.23 65.69
42.30 38.45 41.59 42.55 43.49 43.57 46.69 44.21 45.69 49.98 51.59 51.48 53.16 55.54 56.53 57.25 57.33 56.61 58.47 62.21 61.96 63.99 68.12 69.20 68.97 68.30 67.25 66.87 67.43 68.05 68.35 68.18 67.13 66.95 66.86 66.87 66.18 65.72 63.99 63.32 62.54 63.34 64.09 63.85 64.89 63.60 63.05 63.50 64.39
37.84 35.54 31.58 40.25 43.01 44.54 44.89 39.38 46.46 49.30 49.25 49.73 51.65 54.34 55.76 56.52 57.48 57.36 57.99 60.69 62.80 62.29 64.01 65.92 69.52 69.25 68.69 68.74 68.71 68.73 68.96 68.48 68.30 68.05 67.57 67.43 66.74 66.11 65.03 64.23 63.45 63.86 63.96 63.57 64.42 64.10 62.37 62.41 63.38
32.77 28.83 31.83 36.73 42.41 42.39 41.61 38.78 44.18 48.05 48.41 48.23 49.54 50.94 54.24 55.93 56.14 56.94 57.82 58.31 61.45 63.04 64.97 65.76 66.82 69.22 69.32 69.27 68.87 68.70 68.94 68.96 68.80 68.45 68.41 68.34 67.83 66.85 66.42 65.63 65.27 63.53 64.00 64.28 63.95 64.19 63.40 62.09 62.06
31.13 31.21 34.12 34.82 40.09 40.88 38.67 39.25 42.94 45.16 45.58 44.87 45.67 47.69 50.67 53.74 55.18 57.09 58.12 58.67 59.40 62.59 63.60 67.40 68.83 68.77 69.53 69.56 68.70 68.88 68.57 68.48 68.19 67.79 67.86 69.24 68.81 68.16 66.85 67.18 65.39 65.34 62.89 63.99 63.44 62.68 63.00 62.54 63.44
37.56 36.01 34.76 38.06 41.50 39.52 39.05 39.23 41.74 44.06 43.38 43.35 44.17 45.69 46.84 49.15 54.11 56.32 58.09 57.90 58.28 59.21 61.18 64.12 69.11 68.74 69.38 67.85 67.86 66.61 67.31 66.76 66.72 67.28 68.61 68.82 70.13 69.14 66.79 66.79 66.88 66.57 64.86 63.96 64.54 63.39 62.09 61.57 61.74
37.25 34.98 34.70 38.45 41.60 39.56 38.31 38.32 41.73 43.40 43.24 43.45 44.34 45.33 45.97 47.08 48.86 53.79 56.85 55.93 55.90 58.53 61.91 62.07 67.78 69.69 70.13 69.53 68.91 66.10 66.54 63.89 64.33 66.09 67.38 68.44 70.35 69.64 68.95 67.22 67.49 67.19 66.33 64.95 64.11 63.93 61.96 61.24 61.45
36.06 34.52 35.50 35.93 40.31 40.69 37.58 35.66 38.39 42.24 42.98 43.86 44.32 44.82 46.04 46.65 47.77 50.16 54.08 56.64 56.56 56.57 61.42 62.67 65.43 68.48 69.43 68.63 64.56 63.64 64.01 64.63 65.00 64.94 64.89 67.26 69.82 70.64 69.66 68.89 68.55 67.45 66.72 65.56 64.50 64.30 62.32 61.12 61.72
32.71 39.96 39.14 38.02 34.92 28.34 36.48 27.38 35.13 38.37 39.02 41.75 43.22 43.38 43.68 45.17 47.17 49.27 52.30 55.61 56.64 57.07 61.88 62.88 63.63 66.39 66.99 65.30 64.70 62.38 61.70 61.55 62.57 63.94 66.40 67.80 69.47 70.24 69.94 68.86 68.10 67.34 66.82 65.70 65.28 65.00 62.35 61.75 61.22
36.16 40.29 38.45 38.10 34.04 31.17 32.78 26.68 33.38 37.27 36.98 39.22 41.22 42.89 44.35 45.69 46.83 47.59 50.20 53.74 56.82 58.41 61.73 63.28 63.64 64.08 65.04 64.79 64.80 63.66 61.93 62.50 62.93 65.34 66.09 67.73 68.15 69.38 69.94 68.70 67.97 67.46 66.82 66.11 66.25 64.00 63.09 62.28 61.24
41.26 37.99 36.11 33.93 30.77 23.90 30.76 28.01 30.25 33.64 36.05 38.56 41.87 43.98 45.27 45.21 45.92 47.67 48.98 49.83 53.57 57.50 61.18 62.48 62.71 63.24 63.42 64.09 63.97 63.00 62.50 63.30 64.08 64.89 65.61 66.75 67.07 67.77 68.58 68.75 67.75 67.82 66.78 66.78 66.18 65.30 65.49 63.97 61.75
35.59 31.69 22.86 21.95 20.90 21.97 31.77 29.11 31.11 37.31 40.43 41.59 42.59 43.89 45.83 47.06 48.26 47.65 47.36 48.79 51.27 56.47 59.80 61.20 61.43 61.86 61.97 63.10 63.14 63.57 63.24 63.39 64.15 65.11 66.60 66.44 66.26 66.07 67.27 67.68 67.28 67.21 67.32 67.32 66.04 66.49 64.92 62.87 61.68
31.75 30.80 23.41 20.49 20.87 24.13 32.65 25.40 30.90 39.09 43.44 44.99 45.63 44.76 45.63 45.85 46.98 48.48 49.49 48.18 49.03 54.01 60.15 61.14 60.84 61.37 61.39 61.30 62.13 64.24 63.93 63.57 64.41 66.05 68.18 68.36 68.30 67.85 67.68 67.43 67.64 68.08 68.40 66.51 66.22 65.52 64.93 62.76 61.86
32.44 27.04 32.93 28.22 27.35 21.67 25.91 31.41 36.88 43.00 42.57 43.18 42.86 44.07 44.00 45.28 46.50 48.41 50.56 50.45 52.02 54.22 59.08 60.66 60.84 60.93 60.45 62.09 62.65 62.92 64.38 63.61 64.87 67.08 68.61 68.50 68.03 67.81 67.90 67.59 67.05 67.95 66.78 66.55 64.77 63.60 63.20 62.50 61.58
35.58 37.07 26.41 27.75 17.87 17.86 25.27 27.29 28.67 36.94 39.04 40.81 40.86 41.76 43.43 45.18 46.73 49.29 50.44 52.50 54.91 54.62 57.46 56.85 59.61 59.86 59.43 61.64 63.13 64.77 64.86 66.53 66.63 67.93 67.79 67.75 67.30 68.29 67.50 67.14 67.43 66.54 66.79 65.60 63.58 62.24 62.25 61.92 61.01
31.69 30.08 34.04 30.23 28.90 23.23 22.23 24.84 38.02 38.34 39.90 39.57 40.78 42.62 43.66 45.15 47.72 49.93 49.83 54.49 55.16 57.41 58.52 57.36 55.99 58.47 60.44 62.71 63.28 65.37 66.47 67.50 68.56 68.53 68.12 67.39 67.70 67.57 67.57 67.81 66.47 65.51 64.96 63.85 61.92 61.46 62.16 61.89 60.85
36.16 32.96 31.68 23.00 25.13 28.54 25.62 26.27 40.47 39.83 40.31 41.21 42.06 42.92 44.26 46.56 48.55 49.46 50.49 50.41 59.21 58.18 59.22 59.68 58.21 60.35 62.67 65.63 66.42 66.63 67.28 68.38 68.53 68.87 68.13 68.04 67.83 68.16 68.21 67.22 65.53 65.22 64.82 63.04 61.78 61.51 62.02 61.29 60.71

GFSSGP_sfc_wetblb_069.txt.gz
Wetbulb
64.46 57.43 54.18 54.09 44.37 40.10 36.47 41.26 43.52 45.82 47.11 48.27 50.28 51.26 54.41 56.11 57.63 52.35 62.77 64.46 67.91 67.92 72.70 75.28 76.75 77.00 76.98 76.73 76.48 76.12 75.84 75.92 75.92 75.84 75.71 75.63 75.54 74.60 74.18 74.28 73.43 72.71 71.41 70.43 69.89 69.24 68.57 67.89 67.57
63.94 58.65 52.97 47.89 40.06 34.91 37.12 43.01 43.55 46.47 49.25 51.08 51.03 51.56 56.97 57.86 61.63 63.36 63.46 65.97 67.81 69.16 72.09 73.05 76.32 76.62 76.90 76.68 76.17 75.87 75.89 75.99 75.89 75.81 75.86 75.61 75.39 74.75 73.96 73.38 72.64 71.81 70.94 70.30 69.57 68.89 68.37 68.33 67.92
64.06 59.34 48.25 44.39 38.12 37.09 39.14 44.95 45.59 49.01 50.90 50.40 48.83 52.34 56.62 59.55 63.43 64.32 65.74 66.24 67.53 69.16 71.01 71.92 75.92 76.09 76.77 76.77 76.27 75.79 75.94 75.91 75.91 75.91 75.86 75.61 75.26 74.84 74.35 73.56 72.83 71.37 70.89 69.97 69.19 68.46 68.76 68.30 67.87
58.41 55.66 49.45 41.53 39.78 43.40 44.71 46.87 47.29 48.48 50.44 49.77 49.97 50.11 59.21 64.52 65.11 66.37 66.84 66.88 67.76 69.25 70.12 73.23 75.15 75.65 76.22 76.39 76.03 75.88 75.89 75.94 76.03 75.89 75.88 75.51 75.04 74.97 74.43 73.70 72.99 71.68 71.04 70.16 69.16 68.78 68.75 68.40 67.94
55.93 50.31 43.94 38.40 41.52 44.87 47.93 48.54 47.73 47.46 47.44 49.26 50.09 49.68 53.07 62.78 67.56 67.35 65.58 67.32 66.58 68.73 69.28 72.52 74.75 75.30 75.72 76.20 76.06 75.93 75.91 75.75 75.75 75.98 75.91 75.68 75.50 74.94 74.23 73.55 72.21 71.21 71.04 70.27 69.43 69.29 69.75 69.64 68.85
51.79 47.56 38.21 38.91 42.50 46.87 48.46 49.91 48.05 47.24 48.63 51.22 49.49 49.82 54.29 64.71 66.16 66.39 66.17 65.39 67.16 67.84 68.78 71.80 74.48 74.65 74.92 75.50 75.76 75.54 75.51 75.51 75.57 75.79 75.64 75.62 75.38 74.91 74.11 73.38 72.49 71.75 71.86 71.50 70.93 70.87 70.63 70.42 70.22
50.97 44.66 41.16 42.04 43.46 46.01 49.13 51.57 48.75 48.46 48.87 51.26 51.41 49.16 56.56 64.80 66.89 65.77 64.35 63.90 65.69 67.14 68.53 70.70 71.95 73.48 74.75 74.72 75.05 75.15 75.27 75.22 75.27 75.32 75.17 75.32 75.35 74.93 74.34 73.61 72.64 72.07 72.19 71.77 71.74 71.55 71.13 70.84 70.44
53.20 47.87 43.29 44.20 44.85 44.75 51.18 51.79 50.41 50.53 52.59 54.74 54.33 49.85 51.49 60.65 67.29 64.89 63.63 62.79 64.23 66.23 68.39 69.48 70.94 71.70 71.42 71.86 74.51 74.98 75.06 75.09 75.11 75.21 75.09 75.09 74.97 74.82 74.26 73.15 73.01 72.22 72.02 71.85 72.00 71.90 71.67 71.12 70.89
52.36 44.07 41.82 44.54 45.65 46.86 51.78 50.15 52.61 55.60 53.07 54.63 53.92 54.77 59.33 66.09 66.19 64.43 64.34 64.96 65.87 66.76 67.25 69.14 69.97 70.63 70.29 70.04 72.16 73.95 74.51 74.69 74.84 74.81 74.88 73.71 72.61 72.43 72.24 72.50 72.02 72.00 71.77 71.70 72.09 71.94 71.71 71.35 71.01
46.61 40.52 44.63 50.56 50.92 49.74 52.38 51.37 52.73 52.94 53.33 53.36 54.44 56.66 59.35 63.67 64.58 63.62 61.90 61.65 63.50 65.12 66.20 68.62 69.41 69.68 69.15 70.58 69.49 69.98 70.08 70.91 71.33 71.23 71.33 71.06 68.40 68.38 70.26 70.86 71.67 71.43 71.60 71.65 71.84 71.93 71.66 70.78 67.75
44.71 42.79 48.56 50.44 50.69 51.67 50.63 50.73 53.37 51.83 50.65 52.84 52.77 53.97 55.93 57.49 59.99 62.19 63.70 63.57 63.75 65.65 66.60 67.12 68.40 68.88 68.77 68.61 69.16 69.82 69.26 68.63 68.78 67.93 68.11 67.52 66.55 66.58 68.24 66.66 67.81 67.10 69.95 67.03 69.03 69.38 68.87 67.25 67.00
38.01 43.82 44.81 46.53 48.39 49.09 48.43 50.96 50.26 51.30 51.99 55.44 55.56 56.49 55.37 56.41 57.15 59.59 61.33 61.24 65.06 66.24 66.65 66.77 67.22 67.90 67.45 66.93 68.35 68.73 68.15 68.18 67.61 67.48 66.35 66.01 64.91 63.92 64.67 65.55 64.90 65.28 65.22 65.22 65.20 66.14 66.73 66.46 66.82
38.35 41.13 43.68 44.38 44.25 44.87 46.41 45.60 46.29 46.91 50.24 52.59 53.26 54.59 55.60 55.37 56.57 58.45 58.79 59.08 62.27 66.84 67.34 67.52 66.34 65.96 66.31 64.92 66.45 67.04 66.75 67.03 66.95 66.64 66.58 65.63 64.56 64.07 63.77 64.09 63.50 63.73 63.88 64.37 63.86 64.38 65.53 65.73 66.16
40.14 40.13 41.19 42.99 43.27 43.97 44.04 44.99 46.73 48.35 51.43 51.15 51.52 51.70 53.76 54.97 56.48 55.58 58.04 59.51 60.55 65.58 68.08 68.91 67.28 65.74 64.33 63.88 64.16 64.96 65.53 65.37 65.12 66.00 66.47 66.25 65.14 64.30 63.59 62.47 62.80 62.68 63.85 64.36 64.25 63.93 64.36 64.88 65.10
39.92 36.23 39.09 41.24 42.57 42.20 45.26 41.58 43.28 48.40 50.23 49.52 50.38 51.27 52.91 54.78 55.95 55.58 56.40 58.01 61.27 61.42 67.92 69.32 68.61 67.49 65.47 64.15 64.72 64.37 64.83 64.98 64.74 65.02 65.71 66.48 65.47 63.84 62.83 61.83 61.17 62.65 63.43 63.38 63.62 62.88 62.68 62.69 63.59
35.54 32.95 28.92 37.06 40.50 42.08 42.75 37.71 44.82 47.95 47.72 48.16 48.83 50.09 51.12 51.75 55.07 55.61 56.34 58.10 60.07 60.90 63.77 69.18 70.35 68.00 66.42 65.60 65.57 66.12 66.29 65.99 65.53 65.68 65.87 66.21 65.87 64.71 63.05 62.10 61.88 61.97 62.41 62.41 63.23 62.26 61.08 61.61 61.99
32.30 27.67 30.16 35.16 40.16 40.07 39.29 35.96 42.58 45.63 45.40 45.10 45.86 47.21 48.25 48.06 50.06 53.94 55.96 57.65 58.13 60.41 62.00 64.65 68.58 67.52 66.80 66.07 66.50 66.59 67.16 66.77 66.90 66.44 66.24 66.44 66.41 65.84 64.85 63.77 63.35 62.11 62.15 62.08 62.66 62.43 62.33 60.44 60.80
29.82 29.39 32.27 32.83 38.12 39.42 37.70 38.55 41.87 44.36 44.78 44.44 44.52 45.67 46.73 47.99 48.37 50.45 52.92 55.79 57.51 59.53 60.59 62.53 64.63 67.45 67.88 67.80 67.72 67.45 67.59 67.66 67.11 67.29 67.26 67.16 67.10 66.58 65.40 65.07 63.84 62.78 62.05 62.09 62.02 62.02 62.00 61.52 61.60
35.40 33.63 32.59 36.14 39.88 37.19 36.88 37.94 40.78 42.71 42.54 42.45 43.74 44.73 45.33 46.31 48.88 49.99 50.52 53.60 55.84 58.07 59.09 60.73 62.52 64.17 68.25 67.64 66.60 66.82 67.05 67.74 67.08 67.40 67.86 67.85 68.08 67.42 65.87 65.80 64.28 64.34 62.34 62.89 63.24 62.30 61.50 61.04 61.10
35.46 32.57 32.32 36.60 40.60 38.93 37.05 37.38 41.08 41.92 41.33 41.94 42.96 43.78 44.37 45.18 46.38 48.43 49.73 50.49 52.52 54.23 58.62 59.40 61.91 64.72 65.88 67.37 67.60 66.71 67.92 65.30 67.77 67.26 67.32 67.87 68.03 68.22 66.78 65.87 65.77 64.83 64.18 62.13 62.92 62.53 60.65 60.87 60.94
33.69 32.46 33.17 33.95 38.00 38.89 36.25 34.74 36.67 39.89 41.57 42.59 42.53 43.04 44.22 44.16 44.48 46.10 47.71 48.08 48.86 51.70 53.82 58.95 61.01 65.00 67.68 68.22 64.92 62.88 63.74 64.08 63.46 63.30 64.14 65.80 67.50 68.91 68.21 66.09 65.87 65.88 65.94 64.31 63.08 63.25 62.05 59.93 60.08
31.04 38.11 37.62 35.72 32.87 26.52 35.73 25.52 33.67 36.25 37.77 39.70 40.95 40.76 41.75 42.87 44.15 45.25 46.42 46.96 47.99 49.46 52.96 56.60 59.45 63.12 67.51 68.64 65.27 64.23 65.27 65.30 64.83 63.45 63.48 64.36 66.72 69.20 68.90 67.86 66.98 66.44 66.40 65.02 64.72 64.23 62.25 61.09 61.96
34.75 39.34 36.38 35.70 32.60 29.23 31.16 25.26 30.41 36.46 35.27 36.65 38.66 40.28 41.52 45.09 46.85 47.97 49.43 49.54 48.32 48.78 49.93 54.29 59.43 61.30 65.48 67.72 67.43 65.88 61.68 62.83 61.69 63.44 63.53 64.75 66.56 69.18 69.06 68.24 67.48 66.94 66.62 65.72 65.16 63.63 62.17 61.59 60.75
40.03 35.16 33.95 32.17 27.92 21.67 29.37 27.51 30.20 31.93 34.04 36.38 39.23 43.50 45.30 46.06 47.03 47.69 49.24 50.36 51.01 51.09 49.18 51.64 57.66 60.59 63.01 66.25 65.97 65.69 65.38 61.98 61.47 62.95 63.37 65.31 66.43 68.24 68.90 68.13 67.57 67.01 66.40 65.65 65.32 65.71 64.08 61.93 60.98
33.48 27.12 20.12 19.72 20.27 20.78 29.85 26.90 30.68 36.10 38.96 39.85 41.78 43.70 44.47 44.96 45.16 45.96 46.35 47.88 49.77 50.96 51.09 52.40 56.49 59.71 61.50 64.06 64.95 65.57 64.36 63.22 62.31 63.15 63.64 65.14 65.46 66.18 67.45 67.41 67.16 66.87 66.33 66.13 66.98 65.84 63.66 63.74 61.84
30.79 28.30 19.72 16.49 19.64 22.15 31.39 24.37 29.25 37.41 42.70 44.22 44.76 44.37 45.03 44.46 44.82 45.37 46.35 47.51 49.79 50.86 52.06 49.79 52.64 59.04 61.14 62.47 63.44 64.59 63.83 61.94 62.20 63.67 64.68 65.79 66.78 66.99 67.64 67.52 67.46 67.21 66.89 66.69 66.81 64.83 63.87 62.55 61.60
30.79 26.10 30.31 24.71 25.13 20.44 24.70 30.02 35.57 39.01 41.60 42.66 41.94 43.41 42.17 43.57 44.91 45.66 47.16 48.97 50.41 51.22 52.37 53.02 51.42 58.12 60.68 61.72 62.96 62.37 62.05 60.69 61.95 63.49 65.46 66.35 66.53 67.25 67.50 67.59 67.34 67.10 66.96 66.63 66.06 63.86 62.88 61.91 60.93
33.65 35.14 25.22 21.28 14.28 16.23 23.79 25.73 27.59 33.38 36.18 40.36 40.40 40.57 42.37 44.13 44.85 45.74 46.96 48.97 51.15 51.99 52.24 55.35 54.89 56.41 60.37 61.08 61.91 61.53 62.32 62.09 62.13 64.99 66.06 66.58 66.15 67.14 67.16 66.92 66.69 66.51 65.97 66.43 65.44 63.93 62.43 61.55 60.30
29.53 27.81 29.98 26.61 28.46 22.14 20.65 24.09 33.86 35.75 38.57 38.65 39.71 41.29 42.34 43.85 45.13 46.19 47.70 49.37 50.61 51.90 51.77 55.34 53.82 57.46 59.04 57.36 59.38 60.46 62.04 63.13 64.24 65.44 66.42 66.78 66.74 67.25 67.50 67.01 66.47 66.18 65.69 65.29 64.24 63.04 61.85 61.12 59.83
34.23 30.80 29.98 21.82 23.05 25.91 24.87 25.77 38.21 38.42 39.28 40.05 39.92 42.23 43.67 43.97 45.81 47.14 48.78 49.76 51.19 51.70 51.99 55.90 53.10 56.62 57.63 58.60 60.72 62.28 63.01 64.92 65.30 65.87 66.56 66.44 66.60 67.43 67.41 67.03 66.22 66.03 65.88 64.56 63.10 61.90 61.59 61.10 59.99

GFSSGP_sfc_wetblb_072.txt.gz
Wetbulb
65.39 59.46 54.89 53.50 43.81 39.82 36.56 39.62 42.10 43.06 45.70 47.22 49.37 48.32 51.39 52.05 55.99 51.41 62.12 64.95 65.59 66.55 72.87 75.96 76.86 76.84 76.70 76.52 76.51 76.10 75.97 76.07 75.95 75.63 75.61 75.73 75.61 75.61 75.19 74.96 74.47 73.52 72.51 70.96 70.04 69.58 68.85 68.05 67.68
64.63 58.28 52.84 47.80 39.91 34.70 37.72 42.65 41.15 44.02 48.11 49.89 49.78 48.57 48.41 49.27 55.87 62.18 61.11 64.12 65.89 66.88 72.29 74.81 76.76 76.47 76.64 76.59 76.13 75.85 75.85 75.88 75.95 75.80 75.61 75.56 75.16 74.89 74.62 74.49 73.84 72.60 71.60 70.60 69.96 69.33 68.44 68.14 67.79
61.91 58.22 49.00 44.04 37.19 36.78 39.39 44.04 43.89 46.86 49.12 48.26 47.86 50.54 50.25 57.72 62.16 63.49 64.32 65.63 65.49 67.70 71.66 73.67 76.39 76.39 76.52 76.34 76.03 75.65 75.68 75.65 75.63 75.51 75.53 75.40 75.30 74.98 74.51 74.17 73.74 72.20 71.38 70.63 69.93 69.01 68.74 68.55 68.04
57.40 54.41 48.95 42.71 38.78 43.36 44.51 46.21 45.18 46.94 48.49 48.47 48.46 48.44 52.67 62.97 64.05 65.56 64.95 65.91 65.52 67.77 70.95 73.67 76.14 76.41 76.49 76.44 76.00 75.75 75.76 75.61 75.49 75.71 75.56 75.45 75.18 74.82 74.43 74.19 73.52 72.64 71.38 70.71 69.69 69.20 69.11 68.87 68.19
54.32 48.67 40.87 37.90 41.99 44.94 47.31 48.23 46.47 46.50 46.87 48.45 49.34 48.58 49.86 59.82 67.11 65.43 64.88 66.00 64.91 67.46 69.53 72.62 75.73 76.31 76.51 76.59 76.03 75.93 75.70 75.35 75.26 75.56 75.56 75.53 75.17 74.96 74.47 73.94 73.22 72.75 72.21 70.72 69.87 69.64 70.20 70.01 69.16
49.57 47.09 37.58 36.54 42.31 46.41 48.19 49.23 47.09 45.71 47.93 50.21 49.38 48.49 49.78 64.65 64.92 63.94 65.39 64.73 65.53 66.91 68.24 71.71 75.31 75.86 75.93 76.05 75.87 75.52 75.37 75.25 75.25 75.25 75.28 75.35 75.11 74.91 74.52 74.03 73.20 72.59 72.50 71.86 71.19 70.94 70.72 70.46 70.19
48.61 44.14 39.03 39.59 42.60 45.77 48.60 51.04 48.20 47.21 48.82 50.99 51.93 47.66 52.71 58.81 64.57 64.46 62.93 63.57 65.50 67.04 67.65 70.43 72.55 74.49 75.81 75.67 75.45 75.50 75.27 74.98 74.94 74.94 74.84 75.01 75.23 74.85 74.56 74.00 73.42 72.93 72.43 72.05 71.55 71.49 71.20 70.73 70.46
51.75 47.34 42.15 42.81 43.60 44.14 50.69 52.16 50.21 49.13 51.45 55.01 53.76 49.35 51.09 60.88 63.50 63.31 63.07 63.31 63.96 65.67 67.85 69.14 70.16 71.99 72.85 73.80 75.38 75.31 75.28 75.16 75.10 75.05 74.93 74.85 75.18 75.02 74.55 73.32 73.28 72.97 72.70 72.28 72.01 71.91 71.46 70.92 70.79
50.65 44.82 41.94 43.81 45.04 46.54 51.09 50.27 52.49 54.93 53.00 53.96 54.57 53.94 56.63 65.09 64.55 62.89 62.66 64.05 64.64 65.86 67.02 68.28 69.54 70.17 70.33 70.71 73.47 74.84 75.17 75.18 75.28 75.18 75.06 74.00 73.61 73.60 73.40 73.18 72.82 72.92 72.43 72.16 72.03 72.12 71.79 71.42 70.76
44.67 40.08 44.02 49.19 50.01 48.54 50.68 51.13 51.98 51.81 51.52 51.65 53.30 56.45 56.98 63.89 63.79 62.29 60.63 60.79 63.00 63.76 66.42 67.88 68.78 69.45 69.41 70.52 70.32 71.33 72.08 72.72 73.36 73.47 73.15 73.21 72.44 71.76 71.95 72.68 72.67 72.85 72.38 72.08 72.02 72.21 71.86 70.61 69.01
41.23 40.27 46.83 48.91 49.91 50.26 49.10 48.94 51.68 49.92 48.65 51.19 51.03 52.85 54.19 56.46 58.97 62.97 62.55 62.27 61.84 63.58 65.88 67.63 67.72 68.33 68.83 68.91 68.60 69.95 69.81 69.12 69.52 69.39 69.41 69.91 68.33 69.12 70.58 68.78 70.15 69.44 71.31 68.61 70.41 70.50 70.16 68.41 68.27
35.64 41.76 42.05 44.06 45.19 44.64 44.73 47.06 46.34 47.68 48.44 52.44 51.22 50.99 54.35 54.40 54.64 57.95 61.95 63.03 64.29 64.65 65.36 66.52 67.78 68.05 67.81 67.85 68.29 69.11 68.75 68.28 68.35 67.86 67.43 66.97 65.59 65.21 66.16 66.46 66.51 66.73 67.18 67.18 66.53 67.61 68.28 68.03 67.85
36.36 38.86 42.00 43.37 43.85 44.19 45.40 44.87 45.55 46.10 48.95 51.24 51.69 51.04 50.82 52.57 54.97 58.12 58.73 61.12 63.95 65.15 66.19 66.46 66.72 67.06 67.53 66.62 67.51 67.33 67.57 67.46 67.33 67.03 66.82 66.60 65.00 63.87 64.23 64.91 64.92 64.94 65.76 65.64 65.39 65.75 66.87 67.20 67.38
39.44 38.76 40.77 42.64 42.97 43.54 43.41 44.46 45.58 47.75 50.00 49.72 50.69 49.79 49.91 50.77 54.85 56.84 59.00 58.25 59.34 62.40 66.56 67.14 66.71 66.04 66.03 66.28 65.59 66.13 66.67 65.78 65.57 66.15 66.50 66.27 65.15 63.96 63.71 63.59 63.94 63.76 64.50 64.99 65.04 64.70 65.32 65.84 66.49
38.91 35.15 37.48 40.72 41.44 40.74 43.28 40.52 42.31 47.20 48.84 48.63 49.28 49.45 49.53 50.17 51.95 53.85 58.31 59.24 58.70 60.99 64.67 67.38 67.27 66.15 64.41 64.59 64.03 64.47 65.34 64.93 64.67 65.00 66.17 66.26 65.13 64.24 63.70 63.04 62.74 63.36 63.90 64.44 64.83 64.52 64.64 64.66 65.08
34.02 31.54 28.07 35.39 39.58 41.29 41.13 35.67 43.11 45.36 46.00 46.37 46.91 46.95 47.90 47.94 48.26 50.29 53.44 57.25 58.63 59.74 62.44 67.89 69.14 67.21 65.29 63.82 63.12 64.71 64.95 64.89 64.76 64.72 65.49 66.28 65.93 64.82 63.46 62.66 62.33 62.86 63.31 63.78 63.91 63.67 63.18 63.37 63.48
31.24 26.85 28.78 34.25 38.78 38.91 38.30 35.17 42.29 45.43 44.74 44.77 45.78 46.41 46.80 47.20 48.16 49.43 50.83 51.53 53.99 55.79 57.90 62.04 68.45 68.04 67.12 65.77 64.39 64.14 65.08 65.30 64.95 64.84 65.23 65.68 66.12 65.57 64.23 63.37 63.11 62.58 62.79 63.00 63.32 63.26 63.39 62.12 62.37
27.70 27.92 30.94 31.13 36.85 37.73 36.47 37.10 40.35 43.43 43.90 43.81 44.60 45.49 46.26 47.14 47.73 49.06 49.83 50.39 51.86 54.17 56.04 58.70 66.04 68.29 67.05 66.45 64.96 64.79 65.75 66.15 66.31 66.17 65.94 66.50 66.15 66.03 65.00 64.47 63.80 63.03 62.56 62.62 62.56 63.15 63.30 63.19 62.88
33.80 31.97 31.22 34.63 38.21 36.24 35.45 36.71 39.24 41.97 41.95 41.73 43.04 44.34 45.31 46.49 48.78 50.37 50.33 50.34 50.82 54.34 54.79 55.70 60.53 64.28 66.37 65.29 64.38 64.91 64.89 66.00 66.60 67.15 67.30 67.13 66.84 66.68 65.69 65.13 64.35 63.80 63.05 63.05 63.12 63.07 62.92 62.60 63.20
33.62 31.09 30.52 35.11 38.66 37.08 35.45 36.16 39.67 41.17 40.80 41.38 42.30 43.05 44.11 45.96 46.78 48.83 48.82 49.03 48.42 48.97 51.25 53.68 55.40 59.16 64.70 66.94 66.92 66.76 66.64 67.10 67.64 67.99 67.62 67.74 67.57 67.33 66.24 65.62 64.93 64.51 63.58 62.92 63.21 63.51 62.13 62.91 62.90
32.81 31.52 31.11 32.48 36.26 36.94 34.52 31.85 34.27 38.26 39.83 41.53 41.82 42.60 43.28 43.61 45.27 46.07 48.33 48.69 47.58 47.18 48.09 52.04 54.02 55.87 60.16 65.77 64.93 64.16 64.80 64.76 64.75 65.44 67.00 67.85 68.08 68.18 67.53 66.18 65.95 65.03 65.20 63.14 63.40 63.67 63.29 61.96 62.20
29.44 36.55 36.15 34.50 30.98 24.79 34.54 23.42 31.73 36.10 37.56 38.75 39.78 39.85 40.27 41.25 46.25 48.32 49.41 50.13 50.32 49.71 48.83 48.35 52.65 54.90 57.39 62.27 64.85 65.25 65.83 65.48 66.11 65.48 66.93 66.28 67.98 68.42 68.25 66.82 66.51 66.49 66.13 65.08 64.03 64.31 64.40 64.36 62.38
33.01 37.39 34.91 33.74 29.80 27.40 29.29 24.41 28.83 34.69 33.76 36.18 38.05 39.05 40.94 44.63 45.75 46.90 48.21 49.42 50.66 50.82 50.41 49.06 48.91 54.28 56.99 59.41 65.38 65.35 65.17 66.43 65.69 63.86 64.39 64.95 65.58 67.53 68.33 67.54 66.94 66.62 66.78 66.85 65.93 64.49 64.41 64.60 63.77
38.44 33.50 31.36 29.05 26.48 20.22 26.66 26.30 25.42 29.93 33.44 36.08 38.62 40.64 44.21 45.05 45.80 46.30 47.62 48.39 48.54 49.90 50.50 51.15 49.91 48.69 55.89 58.92 63.68 65.56 65.44 64.86 62.13 62.95 63.50 64.20 65.43 67.00 68.48 68.39 67.92 67.79 67.23 66.60 66.31 66.22 65.60 64.38 64.37
32.57 26.28 19.86 18.10 18.61 19.49 28.32 25.72 29.12 34.60 38.65 38.28 38.63 42.04 44.20 44.46 43.94 44.71 45.23 46.13 47.48 48.16 49.59 51.20 52.08 50.80 52.40 57.81 60.91 65.56 66.25 65.99 63.18 64.02 62.94 64.15 65.07 66.25 67.90 68.10 67.72 67.61 67.88 67.18 66.91 66.44 65.75 64.61 63.60
29.53 27.92 19.92 15.53 18.05 19.81 28.31 22.97 27.66 36.43 38.94 41.55 44.21 43.67 43.97 43.45 42.25 43.97 46.14 46.85 47.57 48.71 49.75 51.09 51.43 51.64 51.65 54.00 59.12 62.96 65.72 66.18 64.64 63.98 63.54 64.30 65.62 66.70 68.42 68.35 68.21 68.10 67.94 67.63 67.41 66.86 66.51 64.53 64.60
29.32 24.94 28.62 22.70 22.49 19.24 23.01 28.02 34.37 37.98 38.26 41.36 41.60 42.53 41.86 41.72 43.55 44.97 46.28 47.29 47.89 48.65 49.37 51.14 51.85 52.09 53.22 52.24 57.74 60.70 63.67 64.96 64.42 63.15 64.59 64.85 66.33 67.00 67.97 68.15 67.83 68.01 67.96 67.65 67.32 66.77 65.19 65.12 63.70
32.80 33.68 23.88 19.88 13.72 11.58 20.85 24.10 26.33 32.84 36.03 37.85 39.80 39.97 41.17 42.68 43.69 44.52 45.95 47.20 48.76 49.65 50.37 51.52 52.35 51.73 52.61 54.78 56.23 60.10 62.37 63.84 62.96 63.23 64.37 65.35 66.42 67.47 67.45 67.74 67.83 67.56 67.87 67.63 66.93 66.06 64.49 64.03 63.20
28.23 25.99 28.45 24.79 21.86 17.22 19.14 22.75 32.62 33.06 35.23 36.28 38.37 40.04 40.76 41.92 42.98 44.90 45.61 49.76 49.50 50.35 50.62 51.41 52.66 52.96 53.20 55.85 55.97 59.61 61.42 62.05 61.92 63.29 64.75 65.82 66.49 67.32 67.56 67.65 67.45 67.34 66.71 66.62 66.26 65.77 64.12 63.01 62.83
32.02 29.31 28.38 21.03 22.47 25.23 23.85 25.01 37.16 37.74 38.12 38.90 39.67 41.51 41.60 43.14 44.59 45.64 47.45 50.76 49.93 50.68 51.37 51.83 53.38 54.80 54.07 55.14 56.63 59.72 60.92 61.86 62.58 63.76 65.18 66.29 66.40 67.67 67.85 67.87 67.29 66.73 66.11 66.11 65.53 64.31 63.91 62.65 62.15

GFSSGP_sfc_wetblb_075.txt.gz
Wetbulb
66.26 60.69 59.13 59.84 49.86 49.12 44.87 45.85 49.39 49.40 50.22 53.43 54.08 53.08 53.33 54.93 55.67 54.62 68.56 70.01 68.40 69.68 75.53 77.13 76.64 76.77 76.59 76.06 75.97 76.02 76.13 76.55 76.91 76.96 76.93 76.78 76.71 76.69 76.44 76.13 75.46 74.42 73.37 72.14 70.48 69.80 69.42 68.63 68.13
64.83 59.39 56.83 54.18 46.76 42.51 43.72 48.05 48.14 50.48 52.85 54.40 54.31 53.44 52.92 52.91 57.39 60.13 65.28 69.20 68.60 71.54 76.33 76.15 76.64 76.62 76.60 76.14 75.92 75.56 75.66 76.01 76.31 76.30 76.53 76.43 76.36 76.13 75.89 75.54 74.76 73.83 72.52 70.99 70.34 69.80 69.14 68.60 68.50
62.67 59.60 53.60 51.65 48.02 42.14 43.12 48.00 50.44 51.94 53.45 52.49 53.45 54.98 54.12 55.83 63.48 62.39 69.29 68.97 68.60 71.25 74.99 76.76 76.53 76.34 76.54 76.44 75.94 75.66 75.56 75.61 75.69 75.81 75.91 75.73 75.71 75.41 75.16 74.96 74.59 73.47 71.75 71.21 70.56 69.58 69.20 69.15 68.58
60.89 58.83 54.45 47.83 44.28 45.74 46.94 49.98 51.46 51.67 53.13 53.55 54.87 53.53 56.86 62.98 65.37 69.46 69.45 68.31 68.21 70.27 73.84 76.12 76.36 76.21 76.42 76.42 76.14 75.75 75.66 75.76 75.69 75.61 75.51 75.31 75.26 75.03 74.63 74.64 74.29 73.51 72.00 71.48 70.53 69.96 69.82 69.20 68.89
59.13 56.28 46.90 45.66 44.51 47.41 49.79 51.28 52.43 51.33 51.89 53.69 55.77 54.33 55.99 62.45 69.26 69.68 68.75 67.77 67.30 69.86 72.71 75.61 76.10 76.26 76.37 76.54 76.19 75.91 75.75 75.50 75.43 75.66 75.59 75.21 75.28 74.82 74.53 74.51 74.02 73.48 73.13 72.30 71.08 71.05 71.02 70.77 69.57
53.89 54.23 45.75 42.30 43.58 48.18 50.66 52.00 51.62 52.43 54.23 55.59 56.07 54.64 57.22 62.73 68.11 68.26 68.30 67.74 68.26 70.26 72.51 74.36 75.92 76.15 76.08 76.16 75.86 75.55 75.32 75.15 75.18 75.33 75.23 75.08 75.03 74.80 74.60 74.36 73.92 73.54 73.08 72.53 71.94 71.48 71.13 70.94 70.60
51.14 50.28 46.47 44.96 44.78 46.20 49.36 53.23 52.15 52.92 54.60 55.39 57.74 53.99 58.66 61.05 67.46 67.82 67.98 68.25 68.54 70.65 71.70 74.27 74.95 76.33 76.17 75.95 75.44 75.46 75.28 75.02 75.05 74.92 74.75 74.82 75.00 74.81 74.50 74.13 73.74 73.35 73.04 72.39 71.83 71.58 71.41 71.02 70.78
56.16 52.38 46.63 46.82 45.21 46.11 52.29 54.00 55.57 54.61 54.65 58.75 58.78 54.69 55.19 60.42 67.72 67.67 67.62 68.00 68.47 69.66 70.57 73.02 74.31 74.55 75.13 75.33 75.84 75.50 75.40 75.22 75.03 75.01 74.94 74.84 75.04 74.91 74.57 73.61 73.41 73.25 73.12 72.65 72.15 71.96 71.56 70.95 70.72
56.79 48.65 45.42 46.92 46.85 48.71 54.10 52.92 55.11 57.58 56.34 56.81 57.69 57.31 58.40 60.47 67.79 66.97 66.74 66.90 67.51 67.90 69.93 71.88 72.83 73.97 74.50 74.42 75.00 75.55 75.52 75.23 75.29 75.35 75.05 74.47 74.62 74.92 74.50 73.59 73.49 73.56 73.10 72.82 72.38 72.30 71.77 71.33 70.72
50.99 46.58 47.04 51.78 52.10 51.14 53.17 52.86 52.27 52.78 53.92 54.49 56.09 58.22 57.58 57.98 64.52 64.44 65.47 65.12 65.94 66.26 68.20 70.86 72.44 73.26 73.69 73.05 74.28 74.51 74.28 74.55 74.84 75.01 75.33 75.01 74.78 74.50 74.08 73.93 73.38 73.68 73.16 72.85 72.40 72.32 72.16 71.09 69.40
48.93 45.87 50.17 52.15 52.99 51.41 51.16 50.36 52.62 52.09 50.78 54.09 53.26 53.73 55.37 56.93 59.22 61.01 64.10 66.21 65.37 66.48 67.45 69.72 71.58 71.96 72.22 71.80 72.51 73.10 73.25 73.55 74.45 74.88 75.17 75.07 73.73 73.29 73.93 73.29 73.57 73.29 72.71 71.45 71.32 70.96 69.69 68.89 69.17
44.00 46.83 46.40 49.81 48.17 46.98 47.17 47.50 48.15 50.34 51.60 53.54 52.85 54.46 54.99 55.40 56.85 59.72 61.08 64.52 66.52 66.26 67.36 69.07 70.90 71.12 71.85 71.46 71.39 71.73 71.64 72.50 72.57 72.96 74.57 73.61 72.45 72.46 72.35 71.86 71.74 72.46 71.41 71.03 70.52 69.57 69.75 69.78 69.26
43.64 44.14 45.66 46.87 46.61 46.97 47.58 45.89 46.95 49.02 52.14 52.27 52.95 53.90 54.07 54.78 56.60 60.15 63.33 62.99 63.95 67.16 67.75 68.56 70.14 70.89 71.76 71.61 70.77 70.86 71.64 70.93 71.06 71.67 72.69 72.47 71.58 71.29 71.16 70.91 70.50 69.97 70.10 69.83 69.43 69.01 69.19 69.08 69.07
44.33 44.36 44.93 45.96 46.37 46.84 45.31 46.56 46.79 48.90 51.05 50.74 51.40 52.49 53.23 54.68 55.90 58.35 61.28 63.83 64.00 64.47 66.36 69.99 69.47 68.84 71.21 71.00 71.43 71.21 70.91 70.42 70.35 70.18 70.59 71.52 70.72 70.58 69.45 69.45 69.05 68.84 68.84 68.89 68.79 68.51 68.10 68.06 68.11
44.25 41.48 42.95 44.05 45.13 44.78 46.32 43.60 44.50 47.84 49.60 49.60 52.34 54.49 52.71 52.76 53.91 55.08 57.56 60.87 62.24 62.42 64.77 67.88 70.71 70.69 71.63 69.75 70.98 70.57 69.48 69.18 69.08 69.10 70.33 70.29 70.39 70.14 69.53 68.28 67.88 68.18 68.85 69.11 68.80 68.66 68.58 67.71 67.96
41.22 40.29 37.58 42.04 43.68 44.95 44.73 40.39 44.68 47.99 47.40 47.64 48.69 49.40 50.61 51.99 53.46 54.93 55.90 57.90 61.16 59.48 62.33 64.91 67.33 70.43 70.28 68.57 69.85 68.64 68.36 68.62 68.98 68.96 69.17 69.90 69.70 69.82 68.84 67.83 67.61 68.19 68.15 67.92 67.68 67.82 67.37 67.31 67.44
39.75 36.80 37.07 39.80 44.68 43.70 42.98 40.62 45.23 47.77 46.99 46.79 48.17 48.53 49.78 50.81 53.40 55.47 55.49 56.77 58.59 60.83 58.92 62.06 65.76 69.57 71.36 69.38 68.92 68.59 69.32 68.38 68.50 68.58 68.07 69.02 68.99 68.97 68.52 67.37 67.87 68.62 67.34 67.77 67.94 68.02 68.02 67.53 67.59
35.26 36.09 37.43 37.34 42.12 42.92 42.06 41.79 44.51 45.99 45.97 46.20 46.91 47.96 48.85 50.21 52.12 54.47 54.96 56.27 57.49 59.11 61.15 58.01 63.60 67.05 71.68 70.88 69.68 68.15 67.77 68.23 68.58 67.98 68.42 68.74 68.24 68.52 68.66 67.55 68.71 69.21 67.19 68.18 68.11 68.73 68.61 68.29 68.04
38.91 37.58 36.55 39.66 42.62 41.07 40.83 40.82 43.02 45.14 45.57 45.30 46.42 47.86 48.89 49.57 52.61 52.93 53.82 55.21 55.98 58.46 59.37 60.28 59.32 63.10 68.39 69.68 69.58 68.40 67.53 67.80 67.80 68.93 68.99 68.91 68.32 68.54 68.77 67.37 69.28 69.67 68.16 69.54 69.09 68.82 68.38 67.64 68.11
38.45 37.03 37.12 39.82 42.23 41.26 40.36 39.91 43.52 45.29 45.81 46.61 46.31 47.35 48.48 49.16 49.37 50.21 52.83 55.55 56.73 57.42 59.80 60.34 61.33 61.93 65.19 68.26 69.72 70.39 70.20 69.85 69.68 69.93 70.69 70.50 69.23 68.04 68.87 69.84 70.00 69.84 69.37 69.79 69.30 68.73 67.63 68.01 67.92
38.81 37.10 37.07 36.74 40.09 41.29 39.86 38.28 40.22 44.03 45.46 46.49 47.33 48.45 48.48 47.06 47.45 49.86 52.59 55.15 56.32 56.33 57.51 58.77 59.89 61.09 63.30 66.49 68.56 71.11 71.15 70.53 70.07 70.25 70.25 70.44 70.45 68.57 69.74 70.09 71.12 70.86 70.44 69.52 69.77 69.21 68.94 66.94 66.95
35.66 40.59 39.45 37.96 36.12 32.30 39.32 30.59 38.27 41.57 42.89 44.14 45.75 46.99 47.44 46.77 49.03 51.34 52.46 52.90 53.67 54.91 56.43 57.38 59.54 60.02 60.46 62.91 65.26 69.00 67.25 67.51 69.88 71.18 71.63 71.73 71.05 70.81 71.04 71.68 72.03 71.54 70.78 71.02 70.25 69.54 69.23 68.72 66.11
37.93 40.87 39.59 38.45 36.27 35.51 35.76 32.38 36.81 40.68 39.79 41.94 45.08 46.83 47.91 48.77 51.14 51.70 51.05 51.46 52.19 53.81 54.58 56.13 57.91 59.68 60.35 61.06 63.13 63.10 67.79 68.26 70.25 70.87 72.92 73.30 72.64 72.33 71.98 72.74 72.13 71.61 71.15 71.21 70.78 69.64 68.64 68.02 68.15
41.82 39.32 38.78 36.51 35.22 29.14 33.49 32.95 34.30 37.99 40.52 42.13 44.84 46.46 47.63 50.17 51.35 51.43 51.98 52.17 52.23 53.64 54.43 55.25 56.87 57.85 59.82 59.71 61.03 64.07 66.76 68.46 67.64 69.66 69.01 69.12 70.59 72.07 73.14 72.78 72.14 72.25 72.01 71.59 70.78 70.15 68.61 68.81 69.43
39.47 36.67 30.03 28.37 28.38 28.52 34.54 32.15 35.31 40.73 42.72 43.64 43.81 45.91 48.82 50.66 50.79 50.65 51.22 51.63 52.17 52.67 53.72 54.51 55.72 56.71 58.61 58.93 59.60 61.40 65.26 68.35 69.79 70.15 68.88 69.59 69.26 70.32 72.34 72.84 72.01 71.62 71.84 71.56 71.13 70.28 69.56 69.73 69.43
37.57 36.44 30.14 21.65 25.17 28.92 35.15 29.27 35.85 42.01 44.15 45.06 45.90 48.28 49.82 50.05 50.43 50.83 51.36 51.82 52.64 54.10 54.63 54.69 54.54 55.19 57.19 58.11 58.80 59.76 63.49 63.34 67.11 70.05 69.20 69.02 69.76 71.56 73.46 72.52 72.12 72.23 71.24 71.14 71.02 70.41 70.64 71.12 70.06
35.93 33.20 36.73 31.77 32.50 27.64 31.49 35.26 39.54 42.23 42.63 44.10 45.43 47.16 47.70 49.27 50.01 50.51 51.40 52.26 52.79 55.46 55.54 55.73 55.74 55.89 56.66 57.90 59.15 58.99 60.19 63.73 65.58 68.67 68.48 67.53 71.01 71.45 71.87 71.88 71.66 71.61 71.44 71.74 71.84 71.03 71.17 71.07 70.24
39.02 39.93 31.41 32.87 22.88 21.52 29.03 30.79 32.30 37.87 40.10 42.98 43.92 45.44 47.29 48.67 49.53 50.59 51.43 52.16 53.86 55.13 55.03 54.81 55.78 56.18 57.23 58.03 58.71 59.02 60.88 61.14 63.92 67.45 67.95 67.65 70.29 71.62 71.01 71.12 71.86 71.79 71.91 72.25 72.35 71.75 71.86 70.67 67.79
35.94 34.71 35.21 34.16 31.84 25.27 24.34 30.50 39.93 39.96 41.70 42.41 44.05 46.35 46.50 47.78 49.75 50.51 51.66 52.73 53.30 53.22 53.76 54.32 53.78 54.83 56.60 58.31 59.51 60.17 61.69 62.83 65.64 67.26 68.58 68.98 71.19 71.71 70.83 71.16 71.56 71.56 72.03 72.45 72.05 71.74 70.78 69.02 66.99
39.09 36.58 36.52 29.82 28.11 31.33 30.25 30.39 42.52 42.77 43.41 44.54 44.64 45.52 47.04 49.74 50.32 50.82 51.65 52.37 52.30 51.99 52.51 53.40 53.28 53.69 56.44 58.59 60.91 61.90 62.36 63.63 65.73 67.35 68.52 69.94 70.69 70.74 70.61 71.32 71.51 71.87 72.08 72.15 71.36 70.75 69.48 66.58 65.83

GFSSGP_sfc_wetblb_078.txt.gz
Wetbulb
68.09 62.16 60.33 60.40 54.62 51.21 49.55 49.85 52.33 51.95 52.90 55.95 56.68 55.40 55.63 57.31 56.41 57.99 71.35 71.97 70.53 70.97 76.54 76.57 76.58 76.60 76.93 77.36 77.53 77.55 77.35 77.23 77.08 76.95 76.85 76.87 76.95 77.17 76.85 76.59 75.97 75.13 74.18 72.95 71.19 69.91 69.41 68.92 68.11
65.36 60.86 59.77 56.26 52.84 47.65 48.71 51.26 50.68 52.67 54.64 56.96 57.07 56.68 55.93 55.48 60.89 63.90 64.62 72.23 70.07 72.60 76.54 75.88 76.17 76.22 76.65 76.75 76.95 77.09 77.24 77.20 77.25 77.05 76.92 76.85 76.84 76.90 76.62 76.29 75.55 74.61 73.61 72.08 70.70 70.04 69.47 68.72 68.52
64.20 61.15 53.77 55.22 52.75 50.03 50.36 50.72 52.60 53.92 55.23 55.38 56.09 59.03 56.99 57.52 63.35 66.59 69.60 71.59 70.59 73.35 76.08 76.18 76.15 75.97 76.55 76.55 76.42 76.69 76.97 76.97 77.22 77.17 76.97 76.82 76.66 76.54 76.14 75.87 75.45 74.23 72.78 71.38 70.70 70.13 69.58 69.18 68.59
62.56 58.90 55.20 47.83 49.51 53.56 53.11 54.17 54.12 53.78 54.77 55.25 56.56 56.54 59.23 63.43 64.89 69.92 72.53 72.35 69.96 72.81 75.19 76.60 75.90 75.90 76.35 76.40 76.00 76.04 76.47 76.69 76.94 77.07 76.81 76.66 76.52 75.93 75.56 75.37 75.00 74.50 72.94 71.74 71.22 70.43 70.05 69.51 68.97
61.98 57.53 50.51 47.25 46.95 50.83 54.01 54.63 53.96 53.17 54.14 54.53 57.35 56.87 58.28 63.58 68.26 71.49 72.00 72.07 69.71 71.65 74.06 77.76 75.92 75.95 76.38 76.63 76.15 75.72 75.72 75.84 76.19 76.44 76.39 76.27 75.89 75.36 75.01 75.07 74.95 74.35 73.61 72.81 71.67 71.21 71.44 70.95 69.85
55.79 56.07 48.84 46.58 47.83 49.47 51.67 54.27 55.86 55.63 55.33 56.03 56.72 57.93 59.19 64.03 67.09 70.10 71.81 71.52 70.64 70.61 73.77 76.89 76.29 75.87 75.97 76.35 75.99 75.79 75.42 75.29 75.34 75.37 75.54 75.39 75.27 75.01 74.84 74.87 74.72 74.11 73.75 73.19 72.57 71.99 71.75 71.48 70.94
54.29 52.77 49.32 49.82 49.27 49.44 50.61 54.65 53.69 56.19 56.40 55.89 59.38 56.66 60.43 61.76 66.87 70.23 71.44 70.68 70.05 70.91 72.82 75.94 76.59 76.89 76.31 75.99 75.81 75.43 75.32 75.40 75.30 75.13 75.16 75.23 75.31 75.08 74.89 74.69 74.30 74.10 73.60 73.09 72.73 72.14 71.79 71.59 71.15
56.67 53.91 49.98 50.64 49.34 49.75 53.66 54.08 54.67 55.24 56.30 59.66 60.37 56.35 57.76 61.28 63.68 67.65 71.28 70.02 69.34 70.81 72.22 74.48 75.32 75.61 75.92 76.27 75.93 75.60 75.49 75.34 75.32 75.44 75.40 75.27 75.25 75.10 74.78 74.14 73.94 74.12 73.80 73.35 72.82 72.28 72.01 71.52 71.27
57.78 51.42 48.40 49.81 50.27 51.68 54.69 53.22 56.30 58.63 57.49 58.62 59.38 59.79 61.44 62.06 62.27 63.87 67.50 69.04 68.71 69.62 71.81 73.63 73.45 74.08 74.46 74.50 75.85 75.74 75.71 75.40 75.46 75.42 75.29 75.01 74.30 75.15 74.50 73.47 73.93 73.95 73.70 73.55 72.96 72.66 72.14 71.74 70.86
53.21 49.70 49.62 53.42 54.24 53.76 54.61 54.39 55.33 54.66 55.69 56.90 59.32 61.08 61.40 60.84 61.15 61.39 64.14 67.81 67.92 68.22 69.79 72.26 73.37 73.42 73.70 72.63 74.89 75.76 75.41 75.55 75.29 75.13 75.55 75.32 74.50 74.80 74.21 74.36 74.07 73.90 73.55 73.52 73.05 72.63 72.40 71.36 69.18
52.02 49.12 51.83 53.02 54.68 56.11 55.11 55.08 55.47 54.05 53.27 56.35 57.78 58.16 58.93 59.58 60.29 60.46 62.91 65.14 68.85 68.53 69.49 71.26 73.86 74.68 74.17 73.00 73.70 74.45 73.88 74.23 74.65 75.26 75.73 75.92 74.38 74.95 74.71 74.04 74.62 74.28 73.54 72.36 72.12 71.77 70.64 69.36 69.32
47.66 51.11 52.14 52.71 54.85 54.05 53.12 55.66 53.46 53.84 54.81 56.47 59.36 58.79 58.01 58.77 58.55 59.33 61.18 64.58 65.16 68.77 68.86 69.43 72.31 74.26 75.03 73.76 73.07 73.37 72.86 73.49 73.45 74.42 75.97 75.63 74.54 74.50 73.96 72.49 72.84 73.52 72.93 73.00 71.89 70.86 71.08 70.40 69.90
47.45 48.87 49.65 51.20 51.57 51.52 52.66 52.26 52.43 53.10 55.56 53.73 55.86 57.09 56.56 57.33 58.19 59.65 61.77 63.97 64.77 65.87 69.33 70.53 71.17 73.26 74.42 74.04 72.74 72.58 72.78 72.42 73.56 73.92 75.20 75.07 73.90 73.33 73.18 72.75 72.23 71.92 72.08 71.44 71.28 70.55 70.33 70.32 70.15
48.70 48.42 48.68 49.81 49.81 50.38 48.86 49.60 51.15 52.23 52.89 52.11 56.02 58.02 57.83 56.95 57.71 58.27 60.33 63.48 66.14 65.69 66.42 68.78 71.39 72.07 73.45 73.11 74.42 73.75 72.93 72.91 72.49 72.19 72.77 74.84 73.86 73.83 72.39 72.36 71.76 70.86 70.67 70.32 70.32 70.42 70.26 70.06 70.12
47.98 45.20 47.38 48.12 48.71 48.24 49.73 46.60 47.78 52.00 51.35 51.14 51.20 53.69 56.88 57.40 60.52 58.21 58.31 59.98 61.57 63.47 65.38 66.15 71.47 73.25 73.18 73.20 73.32 73.23 72.14 71.74 71.32 70.86 73.27 73.23 74.05 73.81 73.08 70.92 70.45 70.00 70.89 71.05 70.61 70.71 70.85 70.04 70.54
44.76 45.14 41.67 46.56 46.28 47.67 46.98 43.44 48.81 50.93 50.51 50.12 50.17 50.26 52.86 53.75 57.34 57.58 57.51 58.82 60.82 61.84 64.92 65.97 63.81 68.73 73.27 72.64 72.68 72.26 71.31 71.43 71.17 70.95 71.17 72.40 73.03 73.29 72.74 70.59 70.25 70.75 70.48 70.30 70.08 70.18 70.18 70.51 70.72
44.35 39.57 41.12 43.18 46.89 46.30 46.46 44.27 48.64 50.34 50.44 50.09 50.71 49.99 50.67 52.65 54.63 57.26 56.72 58.28 59.43 61.65 63.86 61.30 67.68 66.30 69.98 72.56 73.01 73.40 74.36 71.73 71.14 71.16 70.45 71.91 71.73 71.75 71.83 69.89 70.23 72.16 69.91 69.71 70.54 70.84 71.40 71.34 71.30
40.32 40.43 41.39 41.32 44.95 45.66 44.57 44.76 48.15 50.07 49.72 49.76 50.42 50.42 50.25 51.48 53.21 55.74 56.19 57.06 58.83 60.95 62.79 63.39 63.45 65.52 68.93 71.49 73.67 71.73 71.56 71.28 71.51 70.52 70.66 71.59 71.34 70.90 70.84 69.54 70.03 70.10 68.65 68.90 71.18 72.07 72.53 72.02 72.04
42.74 41.48 40.86 43.31 45.50 44.22 44.13 44.50 46.60 48.81 48.95 48.93 49.84 50.08 51.33 51.42 53.50 54.79 55.57 56.79 58.31 62.46 62.78 63.27 63.00 64.32 64.77 65.25 67.36 69.57 70.44 70.51 70.46 72.17 72.65 71.37 71.19 71.34 70.78 69.59 69.97 69.40 70.31 70.42 73.08 72.59 71.91 71.88 72.65
42.05 41.02 41.13 43.46 44.91 43.99 43.52 43.14 46.18 47.74 48.44 49.31 49.71 50.37 50.73 51.39 52.57 52.84 54.31 56.81 58.98 59.78 61.16 62.47 62.52 63.66 63.98 65.07 68.94 66.93 69.57 70.21 71.80 72.75 73.18 72.50 71.58 71.41 71.11 71.41 70.47 71.03 69.32 72.26 73.13 73.01 71.60 71.87 72.75
42.05 40.76 41.00 40.30 43.01 44.41 43.33 41.75 44.43 46.91 48.38 49.35 50.11 51.03 51.47 51.12 50.42 51.60 53.62 56.86 58.32 58.55 59.62 60.41 61.51 62.55 63.72 64.21 64.14 67.13 69.32 69.91 70.42 71.24 71.98 73.02 72.62 72.33 72.07 72.20 71.38 72.69 72.85 72.12 73.65 73.56 72.76 70.91 72.14
39.06 43.29 41.57 40.71 40.24 36.84 43.21 35.04 42.31 45.06 46.00 46.62 48.44 49.37 50.48 50.65 50.97 52.93 54.71 55.13 56.71 57.63 58.63 59.76 60.77 61.89 62.21 63.73 63.79 64.18 62.14 65.48 66.00 69.95 72.28 74.12 74.53 73.22 72.99 73.53 73.75 73.30 73.50 75.31 74.31 73.89 73.16 72.88 71.04
41.04 43.45 42.38 41.82 40.13 39.77 39.81 37.51 41.26 44.22 43.24 45.25 47.49 48.57 49.89 50.94 52.22 53.24 53.69 54.53 56.21 57.03 58.09 59.34 60.58 61.45 62.44 63.34 64.12 63.16 64.40 64.67 65.88 66.12 71.11 76.81 76.57 74.45 73.86 74.06 73.64 74.18 74.09 75.39 75.03 73.93 74.18 73.16 72.05
45.04 42.77 42.60 42.46 40.78 34.32 39.09 38.55 38.93 41.76 43.49 46.07 47.45 47.51 48.80 51.17 52.73 54.21 54.97 55.42 56.26 57.88 57.65 58.67 59.95 60.74 61.78 62.31 63.07 64.08 64.52 66.25 65.79 68.61 69.53 72.34 73.12 74.53 74.71 73.94 74.64 75.28 75.92 75.10 74.22 74.81 74.16 73.67 72.69
43.60 40.88 34.45 33.41 34.21 32.96 39.41 36.71 39.74 43.91 45.02 45.77 46.00 47.54 49.18 50.58 52.76 53.13 54.02 55.11 56.00 55.87 57.97 59.66 59.79 59.99 61.28 61.64 61.93 62.95 64.03 65.90 68.25 69.48 66.44 70.71 70.88 72.02 75.14 76.40 76.06 75.20 75.70 75.39 75.20 74.94 74.63 73.29 71.35
42.12 40.91 34.44 27.41 30.83 34.58 39.38 34.27 41.01 45.05 46.33 46.98 48.15 49.19 50.01 51.61 52.38 53.30 54.18 55.52 56.09 56.99 58.26 59.69 59.35 59.37 60.65 61.20 61.59 62.51 63.42 63.06 64.00 67.61 67.28 67.07 69.58 71.53 76.11 76.76 75.99 76.07 75.47 75.28 74.98 73.93 73.09 72.68 71.77
41.23 37.50 42.29 36.32 37.65 33.75 36.81 40.25 43.93 45.77 44.98 46.06 47.07 48.65 49.40 50.55 51.83 52.73 54.28 55.59 56.22 57.13 58.17 57.75 58.20 58.79 59.43 60.67 61.25 61.96 62.79 63.95 63.79 67.50 70.75 68.48 71.76 71.10 73.67 74.88 75.42 75.26 75.10 74.54 75.01 72.86 72.93 72.95 73.26
42.63 43.97 35.45 36.33 27.14 27.07 34.62 36.31 37.45 41.52 42.71 44.71 46.00 47.65 49.24 51.53 51.05 52.55 54.40 55.68 56.73 57.44 57.76 57.86 57.68 56.72 58.32 59.48 60.79 61.36 62.34 63.18 63.66 65.66 67.91 69.58 72.12 72.33 72.26 74.31 74.94 74.54 74.29 74.20 73.95 73.91 74.01 73.75 73.30
40.22 38.38 39.04 39.19 37.15 30.86 30.19 35.72 44.08 42.90 44.74 45.56 46.95 48.43 49.67 50.23 50.72 52.82 53.94 55.04 56.10 56.90 56.80 57.08 57.02 57.04 58.39 58.44 59.76 61.20 62.30 63.30 63.88 65.24 65.87 68.39 71.53 70.99 71.15 73.09 74.10 73.85 73.24 73.88 74.29 75.22 74.07 72.99 72.88
42.63 40.23 40.55 33.07 33.46 36.23 35.51 35.14 45.82 45.65 46.03 46.74 47.51 49.00 50.17 50.91 51.87 53.36 53.78 54.46 55.05 55.93 55.29 55.44 56.13 56.46 57.82 58.55 58.87 60.66 62.06 63.40 65.42 65.54 67.35 68.90 69.40 70.21 69.85 72.49 72.62 72.37 72.88 74.15 74.25 73.71 73.10 72.39 71.75

GFSSGP_sfc_wetblb_081.txt.gz
Wetbulb
67.63 65.73 61.51 59.91 55.19 55.53 52.87 54.45 56.28 54.12 55.06 57.49 57.98 56.64 56.74 58.17 56.77 55.10 69.51 71.42 70.35 74.72 74.82 75.97 76.77 77.45 77.80 78.05 77.85 77.45 77.22 76.82 76.74 76.92 77.04 76.84 77.14 77.24 76.99 76.74 76.24 75.60 74.50 73.26 71.77 70.21 69.51 68.96 68.19
63.79 63.71 59.97 61.00 50.50 52.58 53.36 56.54 52.86 55.67 56.59 57.49 57.78 57.32 56.37 55.88 62.12 64.56 67.46 72.08 70.19 75.23 75.34 74.79 76.42 77.00 77.67 77.72 77.67 77.47 77.25 76.90 76.87 76.87 76.94 76.87 77.17 77.02 76.77 76.54 75.92 74.96 74.00 72.57 70.92 69.96 69.60 68.71 68.14
64.18 62.53 56.21 55.66 55.17 49.48 54.20 55.02 54.60 56.12 56.35 56.03 56.14 58.76 58.26 57.90 63.50 66.13 71.00 72.87 71.05 74.64 75.64 75.07 76.17 76.57 77.30 77.45 77.62 77.44 77.24 77.14 77.12 77.02 76.97 76.94 76.99 76.89 76.64 76.29 75.99 74.60 73.62 71.85 70.81 70.35 69.42 68.96 68.64
61.77 60.13 57.45 50.63 51.44 55.32 55.26 58.65 55.85 54.99 56.68 56.59 56.65 55.76 59.78 64.52 64.34 68.71 72.12 73.15 72.73 72.49 75.75 75.64 75.67 76.17 76.65 77.02 77.19 77.05 77.21 77.29 77.37 77.12 76.89 76.86 76.89 76.61 76.25 76.09 75.64 75.17 73.06 71.64 71.20 70.55 69.98 69.57 69.00
60.97 57.61 52.17 50.52 50.12 52.85 56.98 59.54 59.64 55.74 55.38 55.83 56.28 55.86 58.29 63.92 65.93 69.47 72.72 73.02 72.51 71.53 75.26 76.69 75.29 75.84 76.12 76.72 76.87 76.86 77.00 76.98 77.08 77.27 77.09 76.84 76.76 76.20 75.93 75.61 75.32 74.59 73.77 72.84 71.71 71.10 71.06 70.60 69.69
57.07 56.86 49.46 48.02 50.51 52.64 53.77 56.28 58.87 56.97 57.34 56.47 55.77 57.24 59.58 65.30 63.62 67.97 72.59 72.73 72.91 71.16 74.76 77.33 75.47 75.54 75.62 76.19 76.24 76.01 76.15 76.42 76.62 76.88 76.83 76.66 76.41 75.90 75.51 75.34 75.07 74.66 73.96 73.64 72.71 72.14 72.04 71.64 70.96
54.90 54.17 50.32 50.25 50.61 52.06 53.14 55.36 54.11 56.31 57.49 58.92 59.07 55.81 60.93 63.02 64.26 65.40 70.13 72.41 72.83 71.52 73.66 77.74 75.44 76.05 75.94 75.99 75.95 75.75 75.50 75.47 75.60 75.70 75.62 75.72 75.50 75.38 75.13 75.06 74.84 74.42 74.11 73.69 73.22 72.53 72.25 71.83 71.13
56.32 54.41 50.75 51.29 49.96 50.36 55.35 54.91 55.64 54.46 55.71 61.42 62.29 56.00 57.96 62.91 63.74 64.59 67.40 72.16 70.72 71.19 72.77 76.68 74.97 75.30 75.30 75.83 76.10 75.79 75.71 75.51 75.39 75.37 75.52 75.44 75.37 75.08 74.66 74.46 74.36 74.24 74.17 73.87 73.32 72.72 72.26 72.03 71.57
57.58 51.06 49.03 50.24 50.50 52.32 55.91 54.36 56.43 58.13 55.91 57.48 60.75 60.99 61.44 63.55 63.17 63.37 64.70 68.95 70.86 69.63 72.39 74.71 74.13 74.37 74.51 74.10 75.80 75.74 75.53 75.48 75.38 75.12 75.26 74.91 73.54 74.33 74.00 73.50 74.25 74.27 74.12 73.92 73.55 73.02 72.60 72.08 71.27
53.05 50.41 50.03 53.56 54.58 53.26 55.21 55.73 54.91 56.08 55.57 56.62 58.46 61.62 62.84 62.66 62.42 61.41 62.14 65.23 69.98 69.13 70.82 72.72 73.87 74.07 73.88 72.75 75.28 74.93 74.57 74.63 74.30 74.14 74.74 74.49 73.62 74.68 73.94 74.18 74.14 74.24 74.02 73.92 73.69 73.22 72.75 71.33 68.23
52.80 49.80 53.07 53.97 54.60 55.11 54.78 55.42 57.40 55.37 53.93 56.12 56.79 59.43 61.58 61.30 61.48 61.02 61.15 64.52 67.10 70.12 69.83 71.68 74.36 76.61 73.99 72.72 73.11 74.49 73.01 73.63 74.17 74.71 76.20 76.54 73.94 74.38 73.88 73.80 73.97 74.14 73.72 72.24 72.10 71.61 70.45 69.36 68.86
49.03 51.82 52.65 53.22 54.23 54.05 53.82 56.60 55.58 56.58 56.17 58.16 58.24 59.55 61.39 61.35 60.19 60.10 60.27 62.48 65.57 69.75 69.84 70.92 73.22 74.94 76.66 73.68 72.19 73.89 72.57 73.41 73.33 74.23 77.94 76.79 74.78 76.31 75.93 73.69 73.60 75.11 73.72 73.49 72.88 71.84 72.33 70.98 70.26
49.61 50.49 51.86 52.70 52.48 53.43 55.08 54.41 54.47 55.20 58.08 58.85 58.27 57.15 59.78 60.94 59.61 60.22 60.85 62.16 65.53 67.31 70.51 70.63 72.23 75.49 76.30 76.41 75.35 74.73 74.84 73.16 73.88 74.07 76.43 75.27 74.71 75.97 75.29 75.26 73.12 73.42 72.93 72.69 72.72 72.08 72.50 71.15 71.10
51.03 50.39 50.59 51.48 51.33 51.89 50.75 51.18 51.95 53.52 57.20 56.98 56.92 55.63 57.50 59.84 59.61 59.49 60.34 60.91 64.27 67.41 66.59 69.62 72.03 75.31 74.81 75.90 76.62 76.48 76.43 74.34 73.56 73.34 74.71 77.43 76.15 77.05 73.98 74.08 72.70 72.13 71.61 71.22 71.16 72.18 71.91 71.73 71.33
49.71 47.08 49.18 49.90 50.47 49.92 51.36 48.29 49.02 53.11 54.89 54.68 54.62 54.63 55.36 58.95 60.39 60.88 61.75 61.83 62.36 66.16 66.89 67.91 73.05 74.08 74.86 74.70 74.62 74.53 73.79 73.38 72.58 72.61 77.09 76.47 77.19 77.03 76.88 72.86 72.50 71.92 72.85 72.90 72.32 71.68 72.45 71.03 71.72
46.99 46.75 43.28 48.27 49.48 50.31 49.63 44.53 50.21 53.35 53.60 53.43 53.35 54.19 53.78 54.34 56.87 59.15 61.46 60.82 62.53 63.42 65.37 64.48 66.45 71.43 74.49 74.34 73.88 74.26 72.84 72.15 72.06 72.14 73.04 75.29 76.32 76.41 76.62 72.54 71.74 72.06 72.26 70.91 71.26 70.16 70.40 70.96 71.47
45.88 41.68 43.57 45.38 48.66 47.78 48.13 45.52 50.35 53.08 52.62 52.39 53.26 54.00 54.08 54.36 55.76 59.62 59.43 59.42 60.38 63.66 63.60 62.95 68.97 68.23 71.15 74.32 73.77 74.11 74.16 73.46 72.79 72.46 71.58 74.35 73.96 74.03 74.03 72.29 72.10 75.46 70.67 71.15 69.94 70.40 71.95 72.09 72.30
42.31 43.16 44.21 43.80 47.34 47.73 46.05 46.20 48.96 51.56 51.69 51.90 52.61 53.53 54.14 54.03 54.42 57.17 59.79 59.50 59.75 62.80 64.41 65.62 64.21 69.56 69.09 72.77 74.19 73.16 72.76 73.03 73.18 72.70 72.72 73.84 73.15 73.08 74.25 72.39 73.46 73.07 70.47 70.59 70.47 72.91 73.57 72.67 72.22
44.97 43.64 43.30 45.65 47.72 46.37 45.56 45.93 47.79 50.21 50.58 50.87 51.68 52.50 53.21 54.08 56.31 56.20 57.88 58.07 59.88 61.77 63.90 65.18 65.18 66.44 67.57 65.62 67.73 68.85 70.93 72.58 72.69 73.00 74.61 74.55 73.07 73.44 74.44 71.88 71.79 72.69 71.08 70.60 73.11 72.88 72.89 72.08 73.96
44.20 42.48 42.56 45.45 47.31 46.46 45.47 45.01 47.82 49.29 49.60 50.58 50.96 51.78 52.52 53.64 55.07 55.96 57.11 58.06 60.15 60.41 61.66 64.08 64.33 65.02 65.48 63.75 67.84 67.32 68.30 68.90 70.03 72.95 75.35 74.61 73.99 72.63 72.39 72.27 72.46 71.20 70.24 73.94 71.58 74.79 72.17 72.45 73.17
43.42 42.32 42.70 42.75 45.68 46.45 44.85 43.10 45.80 48.87 50.21 50.87 51.57 52.35 52.88 53.58 53.80 55.36 55.83 57.60 58.85 59.45 59.38 60.15 62.63 63.34 64.64 67.08 65.87 65.97 66.32 68.34 67.94 70.47 72.88 74.21 74.33 74.68 74.21 74.08 72.12 72.83 71.94 69.14 74.06 75.71 75.28 70.83 72.36
40.97 45.56 44.48 42.91 41.77 37.98 45.60 37.21 44.35 47.36 47.79 49.11 50.34 51.36 51.95 53.30 53.95 54.45 55.56 57.26 58.36 57.87 58.71 59.69 61.33 63.52 63.89 65.03 64.93 63.87 63.46 61.96 66.29 70.02 70.56 71.13 74.01 74.84 74.11 73.79 74.27 74.52 72.72 72.01 75.48 76.03 75.48 74.81 70.40
42.59 45.68 44.60 43.61 41.86 41.33 41.44 39.11 42.62 46.90 45.65 47.74 49.55 51.06 52.29 53.63 54.12 54.29 55.80 56.44 57.69 58.30 59.39 60.00 60.82 63.48 64.74 64.62 65.75 64.04 63.74 63.21 65.39 66.40 70.02 71.39 69.84 75.04 74.81 75.46 74.91 74.96 73.01 74.73 76.33 76.43 76.23 74.26 71.70
46.46 44.07 43.91 43.97 42.17 35.83 40.66 40.38 40.61 43.58 45.75 47.51 49.60 49.98 50.13 52.12 53.46 55.20 56.91 57.63 57.26 58.60 59.39 59.83 60.73 62.36 64.13 64.20 64.87 65.43 64.61 64.40 64.44 66.23 67.59 69.09 68.51 68.88 73.89 74.85 75.04 75.34 76.12 75.57 76.90 77.94 77.24 75.36 74.70
45.16 42.28 35.65 33.96 33.60 33.84 43.05 39.51 41.91 45.69 46.79 47.49 48.89 49.48 49.87 51.79 52.71 54.54 55.64 55.76 56.51 56.96 58.45 59.42 60.90 60.94 63.16 63.86 64.10 63.95 65.82 66.08 66.64 66.01 65.64 66.73 69.02 68.10 66.20 69.68 74.76 75.90 75.57 76.74 76.90 77.50 77.23 76.12 74.39
42.99 42.17 36.00 28.59 31.21 34.90 40.43 36.71 41.88 47.07 48.60 49.17 48.69 49.78 51.09 51.71 52.59 54.45 55.09 55.66 56.12 57.28 57.77 58.91 59.93 60.44 60.94 61.59 62.41 64.41 65.02 62.75 63.92 66.10 64.98 65.79 66.54 68.68 70.60 71.37 76.01 76.13 75.90 77.18 77.83 76.64 75.65 75.89 74.66
42.83 39.66 43.79 37.97 38.62 33.63 38.14 41.82 45.63 47.62 47.05 47.41 48.26 49.75 50.97 52.37 53.46 53.50 54.17 55.24 56.46 57.47 58.57 58.95 59.68 59.75 59.76 60.40 61.75 62.83 64.36 64.95 64.56 67.05 67.57 66.71 67.51 67.61 71.91 74.17 77.21 76.66 76.68 77.66 78.07 74.98 75.80 76.17 75.45
44.23 45.68 37.26 38.16 29.64 28.54 35.08 36.40 37.45 42.68 44.97 47.06 47.06 48.56 50.33 51.60 52.40 53.75 53.70 54.43 56.55 57.76 58.83 59.52 59.16 59.02 59.44 59.71 60.37 61.05 62.57 64.44 65.36 65.97 66.66 66.62 67.42 70.00 71.28 73.02 74.29 76.63 77.15 77.63 77.70 75.88 76.49 74.81 73.40
41.88 40.42 41.25 40.59 37.56 30.94 29.68 33.81 44.88 43.45 46.48 46.36 48.07 49.78 50.73 51.40 52.36 53.00 53.60 54.63 55.99 56.81 57.16 58.39 58.59 58.09 58.27 58.86 59.41 61.19 61.06 62.23 64.66 65.81 66.66 67.27 68.23 68.78 68.44 72.10 73.57 75.16 76.40 77.05 76.75 76.14 74.80 73.22 74.30
44.70 41.80 40.30 33.94 34.10 36.79 35.92 36.29 46.78 46.42 47.98 48.16 48.54 50.14 51.60 52.72 53.05 53.61 53.91 54.74 55.40 55.95 56.72 57.43 58.29 57.10 57.34 58.02 58.62 60.26 60.24 61.17 64.12 64.91 66.69 67.87 68.08 68.57 69.55 71.50 70.12 74.04 75.08 76.29 75.61 73.83 73.46 73.84 74.19

GFSSGP_sfc_wetblb_087.txt.gz
Wetbulb
62.79 60.39 58.77 56.35 49.21 48.05 46.32 49.68 54.60 54.27 50.75 52.08 53.73 52.74 55.61 58.51 58.91 54.13 66.74 71.53 73.06 73.06 75.39 76.95 77.75 77.83 77.58 77.35 77.17 76.64 76.24 76.11 76.49 76.54 76.70 76.77 76.85 76.84 76.69 76.38 76.12 75.46 73.67 72.69 71.49 70.46 69.61 68.89 68.22
60.11 60.26 58.06 51.09 45.93 42.05 46.12 55.68 53.15 57.01 55.03 53.53 54.10 54.00 56.59 56.54 62.36 63.50 65.26 71.49 73.00 73.27 74.00 75.84 77.71 77.53 77.40 77.28 77.07 76.51 76.26 76.21 76.51 76.53 76.68 76.80 76.68 76.66 76.43 76.34 76.10 74.54 73.26 72.13 70.87 70.10 69.36 68.71 68.15
59.75 60.44 51.55 45.02 43.38 43.61 47.17 56.02 55.70 58.90 59.17 53.82 52.54 55.80 57.40 58.06 62.76 63.09 67.51 71.55 72.33 72.38 72.83 75.42 77.37 77.46 77.48 77.28 77.07 76.58 76.48 76.46 76.76 76.81 76.81 76.82 76.73 76.42 76.05 76.00 75.77 74.52 73.06 71.71 70.73 70.16 69.56 68.94 68.51
57.05 54.50 52.78 43.79 42.22 46.85 51.73 56.11 57.95 58.45 58.74 57.24 53.67 53.47 59.63 62.54 61.82 63.73 69.34 71.44 71.35 71.95 72.67 76.43 77.16 77.37 77.42 77.30 77.19 76.68 76.71 76.68 76.84 76.84 76.73 76.90 76.77 76.19 75.86 75.88 75.47 74.96 73.05 71.49 71.03 70.90 70.33 69.80 68.86
52.40 50.63 43.31 42.15 44.18 48.47 50.29 56.80 58.31 56.90 56.97 57.20 57.51 53.67 56.75 60.55 61.59 61.06 68.14 69.79 70.48 71.06 73.10 75.16 76.91 77.22 77.64 77.54 77.29 76.88 76.65 76.65 76.73 76.78 76.88 76.90 76.59 76.01 75.86 75.62 75.34 74.89 73.89 72.83 71.88 71.62 71.00 71.13 70.75
47.58 49.33 40.37 38.95 44.06 49.58 50.90 54.95 57.82 56.61 57.06 57.52 56.73 55.94 56.42 59.91 59.84 59.51 63.07 67.85 69.88 70.85 73.20 74.30 76.65 76.88 77.01 77.10 77.08 76.82 76.54 76.41 76.39 76.52 76.54 76.51 76.26 75.83 75.56 75.50 75.21 74.72 73.79 73.23 72.87 71.98 71.35 71.26 70.70
45.10 43.18 41.78 44.04 45.44 47.75 50.44 52.18 52.85 56.07 55.81 54.54 57.36 55.40 57.96 58.09 59.18 59.85 59.86 68.33 69.45 71.43 72.63 72.95 74.48 76.31 76.87 76.73 76.50 76.48 76.27 76.55 76.57 76.30 76.04 76.09 76.10 75.61 75.42 75.02 74.89 74.52 73.80 73.45 73.15 72.38 71.94 71.49 71.10
47.66 44.40 41.86 44.67 44.74 46.07 51.90 51.73 51.84 53.91 54.29 56.95 57.52 54.01 53.01 58.06 59.62 59.79 60.11 62.29 70.92 72.36 72.28 71.69 73.00 74.35 74.63 75.13 76.50 76.22 76.27 76.17 76.14 76.22 76.22 76.12 75.85 75.48 75.09 74.11 74.22 74.41 73.89 73.60 73.25 72.98 72.38 71.89 71.34
49.23 40.99 40.67 43.40 45.31 46.98 51.01 49.58 52.02 54.56 52.90 54.99 56.63 55.95 59.13 61.20 59.59 58.78 58.80 58.25 70.42 72.77 71.41 71.10 71.64 72.20 72.92 73.69 75.26 75.89 76.44 76.17 76.02 76.04 75.89 74.73 72.90 73.20 73.45 73.67 73.76 74.26 74.16 73.87 73.39 72.99 72.57 72.10 71.68
44.03 39.96 41.33 47.13 49.06 48.00 49.33 49.51 50.86 52.03 51.68 52.00 54.16 56.92 58.19 59.82 58.39 57.85 57.18 56.16 61.84 71.24 71.18 70.29 70.49 70.91 70.76 74.03 73.52 72.67 74.34 73.88 73.52 73.68 73.81 72.52 71.06 70.79 72.51 72.96 73.97 74.32 74.14 73.91 73.58 73.21 72.91 72.49 68.64
44.16 41.74 45.76 48.05 49.46 50.26 49.94 49.99 51.76 50.20 49.81 52.21 52.32 55.15 57.38 58.75 57.80 57.50 56.88 56.95 58.25 63.83 71.19 70.32 70.10 70.76 70.40 71.11 72.65 71.76 71.81 71.09 71.06 71.40 71.95 70.55 70.36 69.10 71.28 69.39 71.14 71.49 73.49 71.23 72.06 71.45 70.70 69.24 67.42
41.76 46.26 47.46 48.31 50.31 49.74 48.83 49.58 48.85 49.30 51.04 55.78 55.90 57.12 57.60 56.71 55.60 56.07 56.25 57.05 57.67 64.34 67.37 69.02 69.99 70.30 69.75 70.91 71.79 70.95 70.83 70.45 70.13 69.58 70.77 70.36 68.52 67.93 67.51 68.95 69.33 70.24 70.14 69.70 68.59 68.87 68.52 67.76 66.62
43.57 45.06 47.50 48.39 47.40 47.68 48.74 47.58 47.73 48.48 51.99 57.29 56.98 57.16 56.21 54.69 55.29 57.40 56.37 57.86 63.34 62.99 64.90 69.47 71.08 70.37 72.01 71.68 72.22 70.61 68.50 70.40 70.29 69.95 70.47 71.17 69.86 68.38 69.62 69.37 69.70 69.83 70.08 69.90 69.08 68.55 67.59 67.30 67.08
45.07 45.17 45.53 46.10 45.53 46.37 45.92 46.97 47.32 49.22 51.49 52.58 55.93 55.08 54.67 54.56 54.72 55.52 57.84 55.67 60.99 62.50 62.88 67.02 69.37 71.18 71.30 71.02 72.73 72.53 71.77 68.90 69.91 70.73 70.60 71.12 71.10 70.26 69.42 70.34 69.72 69.88 70.15 70.80 70.09 69.19 67.77 68.02 67.68
45.24 41.50 44.05 44.90 45.23 44.63 47.34 44.75 45.70 49.10 50.68 49.74 50.27 51.78 54.64 54.64 55.05 54.11 57.81 55.88 59.60 61.88 63.43 66.18 69.01 70.52 70.46 71.20 72.25 71.69 71.53 71.37 70.46 70.11 70.78 71.95 70.86 71.05 71.42 70.87 69.23 68.77 68.65 67.50 67.94 67.39 67.86 67.86 67.90
41.13 40.00 34.90 42.08 45.98 46.95 44.78 40.34 46.93 49.25 48.87 48.83 49.84 50.52 50.91 53.63 53.89 54.34 56.22 56.93 59.40 60.96 61.95 62.81 68.37 69.22 69.92 70.64 70.53 70.78 70.84 69.48 69.25 69.40 71.25 72.11 72.60 72.02 71.17 70.48 69.50 69.06 68.38 68.07 66.47 64.91 63.95 64.93 65.13
37.97 34.05 36.52 40.33 45.38 45.12 43.48 41.44 46.79 49.10 48.19 47.56 48.52 49.52 50.47 50.74 52.39 53.29 54.83 55.15 59.69 61.44 61.68 61.18 63.06 68.63 69.38 69.92 70.71 69.98 70.75 70.66 69.32 68.33 68.86 71.96 72.51 72.85 71.09 70.56 69.38 69.29 68.13 66.94 66.13 65.69 64.76 63.92 64.57
34.78 35.81 38.69 38.66 43.08 44.27 41.98 42.37 44.87 47.11 47.04 46.78 47.32 48.75 49.80 51.01 51.42 54.17 55.46 58.49 59.33 59.14 60.19 60.71 63.94 67.05 68.44 69.76 71.10 70.78 70.39 69.35 69.25 69.13 68.15 68.91 71.27 72.80 71.17 70.07 69.67 68.77 68.08 66.53 65.21 64.95 66.03 64.80 64.50
41.97 40.62 39.52 42.53 45.12 41.75 41.01 41.25 43.34 45.84 45.10 44.87 45.70 46.38 48.59 49.76 52.30 53.93 56.80 57.28 58.31 59.29 60.09 59.90 60.23 61.44 66.01 67.25 67.81 66.99 69.05 69.75 69.58 70.29 70.29 69.91 69.98 70.34 70.91 69.56 68.63 69.01 68.79 66.22 65.15 66.14 65.10 64.65 66.84
41.70 39.24 38.06 42.04 44.22 42.52 40.72 40.62 43.10 44.72 44.76 45.32 45.99 46.66 47.20 49.17 50.38 53.92 55.03 55.26 56.53 57.13 57.79 58.96 61.39 62.17 62.55 61.75 62.25 64.17 65.89 66.21 68.49 70.06 70.31 70.99 70.32 68.93 69.09 69.59 68.80 68.15 67.78 66.89 67.08 66.38 64.68 65.35 68.38
39.78 38.58 38.62 38.93 42.53 43.04 40.54 38.73 41.06 44.90 46.05 46.92 47.72 48.15 48.71 47.84 49.75 52.07 54.00 54.95 56.20 56.17 55.80 56.64 56.90 58.37 60.14 61.35 60.14 59.96 60.03 61.50 61.70 62.59 64.94 69.48 71.27 70.29 69.36 69.44 68.84 68.41 68.04 66.87 66.18 66.64 65.75 63.61 67.20
36.35 42.63 42.27 41.40 37.56 30.93 39.96 30.32 38.55 41.53 43.50 45.72 46.65 47.46 48.36 49.09 49.87 50.89 53.07 53.84 55.16 55.21 55.51 56.01 56.82 56.71 56.90 59.24 59.74 58.92 58.02 57.53 58.87 60.40 62.32 63.12 65.07 69.87 69.35 68.67 69.45 68.30 68.35 66.87 66.16 67.97 67.45 67.44 64.87
39.60 43.80 41.23 40.72 36.34 33.74 35.72 31.88 36.85 40.75 41.03 43.45 45.76 47.30 47.52 48.40 48.06 50.90 53.00 54.79 54.87 55.24 54.14 54.38 55.30 55.85 56.43 57.54 57.77 58.68 59.05 59.83 61.10 60.78 59.79 59.68 63.36 67.46 71.82 69.40 68.05 68.50 68.09 68.23 67.72 67.54 67.93 68.31 67.95
45.46 41.31 39.38 37.60 33.77 28.68 34.66 33.58 34.74 38.18 41.30 44.79 46.48 48.01 48.64 48.13 49.79 51.33 52.57 53.89 53.13 53.03 53.17 54.75 54.65 54.87 56.63 57.33 57.65 57.47 57.55 60.09 59.76 59.56 60.01 62.22 63.21 63.39 64.86 67.90 69.88 68.67 69.29 68.55 68.04 69.03 68.29 68.94 69.35
42.46 36.22 28.72 25.90 25.16 27.09 37.14 35.44 36.34 41.82 45.50 45.17 45.96 46.87 47.23 47.66 48.10 48.99 49.74 51.67 51.18 51.59 52.40 54.17 54.67 54.85 57.31 57.33 58.71 57.89 57.32 58.27 59.77 60.38 60.86 61.09 60.40 59.82 62.90 65.38 64.84 67.45 69.94 70.12 69.65 68.94 69.52 69.88 70.37
40.73 39.01 32.18 24.50 22.57 28.75 37.69 31.44 36.19 44.91 46.13 47.60 48.49 48.83 48.04 45.47 45.78 47.68 51.22 51.95 51.86 52.13 52.13 53.99 53.50 53.11 57.01 58.48 58.30 59.07 59.03 58.63 58.10 59.47 60.31 60.94 61.45 61.50 61.55 64.44 66.08 67.00 70.94 70.82 70.47 71.03 70.09 70.91 71.09
40.16 35.98 40.21 34.35 35.49 29.22 30.12 36.23 42.05 44.97 44.59 47.06 46.60 48.16 45.04 46.08 45.75 46.21 48.73 49.84 50.57 51.53 53.25 53.19 52.80 53.65 56.08 57.33 57.65 57.65 57.69 57.36 57.91 57.96 58.13 60.64 61.90 63.16 61.72 62.53 62.48 64.33 66.32 69.68 71.45 70.91 71.03 70.30 69.75
40.86 43.42 32.81 34.00 26.56 23.88 29.61 31.86 32.51 39.13 41.59 44.81 45.10 45.96 47.05 47.46 46.69 47.11 48.04 49.07 49.85 50.18 51.57 54.05 54.03 54.18 54.76 55.51 54.61 55.53 57.18 58.86 59.13 59.00 58.63 58.37 59.02 61.01 62.07 61.97 61.99 62.65 64.11 67.58 68.24 69.34 66.67 68.31 69.58
37.73 35.34 35.41 36.31 31.86 26.75 24.49 27.99 38.91 39.45 41.02 41.61 43.44 45.66 45.38 46.88 45.98 47.18 47.24 49.12 49.80 50.07 49.14 51.65 54.69 54.69 54.63 55.13 55.72 55.45 54.95 55.56 55.40 57.23 58.72 59.82 60.49 61.32 61.82 62.11 62.16 61.94 61.15 61.51 67.24 68.02 66.29 67.30 69.15
40.76 37.08 36.46 32.03 30.52 32.52 32.01 30.46 43.87 42.68 42.36 42.67 44.63 47.06 46.64 48.03 47.96 47.60 48.04 47.97 48.95 49.31 49.58 49.76 53.59 54.31 55.60 55.61 55.46 55.48 55.32 55.93 55.38 55.96 56.82 57.52 59.24 61.40 62.32 62.88 62.81 62.77 62.82 61.41 62.84 66.10 70.99 69.97 69.99

GFSSGP_sfc_wetblb_090.txt.gz
Wetbulb
61.60 58.47 56.44 54.51 48.36 46.25 44.79 49.09 51.48 54.00 54.42 53.94 53.44 57.55 56.53 58.63 57.74 53.07 66.13 69.99 72.72 74.57 76.35 77.21 77.36 77.38 76.95 76.69 76.49 76.06 75.98 75.83 75.93 76.38 76.45 76.48 76.38 76.36 76.16 76.03 75.59 74.40 73.03 71.99 70.89 70.10 69.50 68.79 67.90
60.23 58.67 56.06 49.50 44.54 40.92 45.14 54.71 52.73 54.18 56.94 57.52 53.00 55.43 57.71 57.46 62.63 65.18 66.98 71.63 72.53 74.29 75.58 76.22 77.49 77.12 77.05 76.77 76.26 75.93 76.01 76.06 75.93 76.40 76.50 76.55 76.40 76.11 75.61 75.78 75.37 73.73 72.62 71.27 70.40 70.13 69.48 68.74 68.31
56.34 58.69 50.69 43.97 40.65 41.92 45.45 55.20 53.61 56.46 58.79 56.85 50.64 56.62 57.69 57.95 62.70 64.10 67.01 71.10 72.48 73.14 74.61 76.23 77.28 77.09 76.89 76.59 76.13 75.87 75.90 76.10 76.23 76.35 76.27 76.29 76.19 75.97 75.76 75.68 75.12 73.70 72.33 71.00 70.57 69.97 69.43 69.05 68.16
52.84 52.88 49.95 42.11 39.95 44.41 47.91 50.27 53.73 56.52 57.95 56.86 56.00 54.35 57.26 60.81 61.41 65.84 70.57 71.35 71.40 71.84 73.79 76.90 77.00 77.11 76.99 76.66 76.26 75.95 76.25 76.37 76.22 76.48 76.29 76.19 75.92 75.66 75.51 75.40 75.06 74.41 72.19 71.13 70.61 70.06 69.74 69.25 68.08
51.09 48.51 42.47 39.40 42.93 46.44 49.58 50.71 53.52 55.01 54.60 55.58 55.94 54.07 54.90 59.05 60.32 65.27 70.26 71.10 70.00 70.25 72.94 76.21 76.80 76.90 77.06 76.97 76.46 76.08 76.30 76.21 76.32 76.42 76.45 76.12 75.91 75.46 75.43 75.17 74.86 73.79 72.64 71.54 70.91 70.52 70.66 70.24 69.23
45.88 46.32 38.92 37.25 42.35 47.79 49.38 50.16 53.74 54.97 57.38 57.13 54.77 54.77 55.14 58.70 58.13 57.68 67.51 69.98 70.43 70.15 73.35 75.36 76.86 76.86 76.79 76.68 76.28 76.00 75.86 75.86 76.11 76.06 76.30 76.22 75.80 75.33 75.36 75.10 74.88 74.22 73.47 72.93 71.69 71.47 70.76 70.25 69.83
43.21 41.00 37.54 39.69 43.15 45.47 49.71 51.24 50.18 53.50 54.64 55.29 56.27 53.61 55.42 56.72 57.55 58.53 61.47 68.99 70.05 71.39 72.38 74.53 75.56 76.40 76.94 76.53 76.06 75.68 75.63 75.68 75.68 75.59 75.76 75.78 75.72 75.27 75.18 74.79 74.63 74.16 73.35 72.70 72.55 71.88 71.22 70.80 70.53
46.15 42.60 38.35 39.78 41.53 43.01 49.93 49.42 49.46 51.59 54.56 59.03 57.36 53.32 51.67 56.28 59.49 58.36 61.43 68.32 68.55 71.25 71.91 72.79 74.49 75.32 74.67 75.49 76.47 75.93 75.68 75.53 75.35 75.47 75.61 75.51 75.56 75.32 74.98 73.85 73.97 74.38 73.76 73.20 72.83 72.70 72.01 71.47 70.92
46.75 37.87 35.42 39.39 42.17 45.10 49.77 46.73 50.02 54.14 53.84 56.10 55.16 55.56 58.84 58.79 58.30 56.96 59.62 69.45 69.75 70.71 70.26 71.24 73.28 74.27 74.26 74.60 75.81 76.12 76.37 76.13 75.75 75.75 75.54 74.51 73.60 73.52 73.70 73.65 73.89 74.37 74.13 73.64 73.31 72.96 72.36 71.80 71.60
41.70 35.47 38.90 43.68 45.56 45.07 48.16 46.86 48.34 50.72 50.49 50.59 52.64 55.85 57.58 59.42 56.66 55.53 56.35 62.40 69.11 69.35 69.45 70.05 70.57 72.36 73.43 74.91 74.26 74.71 75.20 74.81 74.45 74.32 74.15 73.04 71.71 71.52 72.44 73.16 74.09 74.11 73.98 73.86 73.41 72.98 72.95 72.22 68.52
40.28 38.10 42.26 45.11 46.52 47.69 47.59 47.73 49.19 48.90 46.71 50.31 51.31 53.64 55.66 57.42 56.07 54.85 54.93 59.12 68.84 70.39 70.13 69.98 69.98 70.33 71.32 72.97 73.36 73.64 73.05 72.03 71.64 72.29 71.87 70.40 70.86 70.21 71.14 69.97 71.11 70.30 73.28 71.14 71.98 71.19 70.63 69.14 68.36
38.26 43.23 44.75 45.44 47.11 47.13 46.49 48.81 47.09 47.48 47.89 52.39 53.69 54.98 56.17 55.36 55.24 55.26 54.15 58.40 62.67 65.33 70.34 69.38 69.52 69.17 68.44 71.45 71.42 72.26 72.37 71.21 70.44 70.74 70.80 69.49 67.53 67.08 67.53 68.14 68.00 68.86 69.55 69.76 69.07 68.72 68.43 68.27 67.77
39.41 42.80 44.93 46.11 46.48 46.52 47.71 46.32 46.12 45.73 50.22 54.17 55.29 55.67 55.42 53.79 54.76 56.41 54.85 58.58 61.28 64.66 68.15 68.16 69.24 69.09 68.14 71.11 69.87 69.25 69.74 70.45 70.22 69.92 70.27 69.71 67.55 66.50 66.26 66.76 68.02 68.40 68.56 69.05 68.12 67.57 67.32 67.03 66.79
42.44 42.11 43.22 43.75 43.46 44.05 44.13 45.45 45.57 47.82 49.75 50.19 51.08 52.71 53.94 54.38 53.78 54.60 54.45 58.90 59.99 62.30 67.62 68.87 69.14 69.32 70.30 70.54 70.18 69.01 69.26 69.82 69.48 69.47 69.15 70.27 68.94 67.30 67.10 67.79 68.22 68.75 68.76 69.08 68.91 68.51 67.28 66.33 66.61
42.75 39.19 41.07 41.73 42.66 42.12 44.32 42.55 43.81 47.74 48.76 47.96 48.87 51.50 53.92 53.46 53.72 54.69 56.39 54.67 60.04 59.99 64.92 69.24 69.32 70.34 70.27 71.35 71.66 70.75 69.50 69.41 69.36 69.67 69.48 70.13 70.17 69.05 67.66 67.77 68.66 69.19 68.96 69.03 68.95 68.42 67.51 66.69 67.12
39.03 36.48 33.18 39.65 43.13 44.14 43.26 38.60 44.64 47.45 46.74 47.58 48.14 48.40 49.58 51.51 53.83 53.26 54.37 54.67 57.33 58.73 62.70 67.49 70.38 69.67 69.48 71.18 71.23 70.50 70.11 69.58 69.19 69.65 70.08 70.19 70.14 70.21 70.44 69.44 68.70 68.71 67.74 67.15 65.61 64.98 63.34 65.20 65.12
34.20 30.72 34.05 37.89 42.24 42.57 41.49 38.96 44.45 46.56 46.54 46.40 47.14 47.91 48.01 47.82 50.31 52.32 55.13 54.80 56.87 59.55 58.56 62.87 66.80 67.02 67.87 68.22 69.42 69.81 70.06 68.97 69.40 68.93 69.18 70.77 70.95 70.78 69.54 70.16 69.83 69.26 68.20 67.04 65.87 64.98 63.63 63.13 63.08
32.29 32.82 35.81 35.89 40.88 40.97 38.75 38.84 42.40 44.92 45.08 46.09 45.56 45.91 47.74 48.92 49.58 51.82 52.57 53.27 57.08 59.15 58.75 58.92 62.47 65.20 66.51 67.55 68.00 68.47 68.54 68.58 69.89 69.37 68.42 68.72 71.50 71.71 71.05 69.74 69.58 68.71 67.42 66.94 65.26 64.17 64.46 64.14 63.21
38.80 37.09 36.41 39.73 43.41 40.11 38.36 38.97 41.56 43.34 43.58 43.44 44.01 44.40 45.40 46.94 50.56 51.11 53.94 55.77 57.24 57.62 57.89 58.39 60.18 61.68 65.83 66.45 65.58 65.63 66.19 66.73 67.29 68.67 69.87 69.43 68.34 71.65 71.36 70.31 69.05 69.09 67.80 66.60 66.00 64.51 63.70 63.40 64.77
39.96 37.03 35.96 39.35 42.55 40.40 39.20 38.91 41.88 42.55 43.09 43.80 44.78 44.88 44.95 45.28 47.46 51.32 53.55 55.62 56.80 57.24 57.79 59.03 58.70 60.24 61.16 60.42 60.09 60.73 61.58 65.46 66.32 68.13 69.22 70.07 69.50 68.94 70.11 70.40 69.32 68.37 67.89 67.38 66.24 64.97 63.27 63.30 65.86
39.33 36.42 36.10 36.80 40.45 40.01 38.14 35.55 38.59 42.12 43.86 45.13 45.13 45.31 45.95 46.13 45.82 49.72 52.75 53.27 54.36 55.60 56.47 57.66 58.40 58.42 59.08 59.63 57.94 57.56 58.17 59.05 61.75 63.54 65.10 68.20 70.45 69.71 67.85 68.79 69.18 68.37 67.45 67.20 65.45 65.52 64.86 62.31 64.74
34.59 41.22 40.82 39.67 35.96 29.82 37.59 29.59 35.10 39.10 40.81 42.92 44.43 43.96 44.28 45.55 47.50 47.93 52.45 51.13 53.45 53.91 54.77 54.83 55.07 55.42 56.46 59.46 57.98 56.35 55.34 54.86 55.82 57.79 60.86 62.93 63.88 64.64 69.18 68.43 68.20 67.89 67.37 67.05 65.54 65.84 64.99 64.39 62.70
38.93 42.79 40.12 39.52 34.60 31.42 33.41 30.04 32.43 37.89 38.64 41.18 43.16 44.37 45.59 47.01 47.32 46.95 51.73 53.42 54.86 53.85 53.80 54.36 54.06 53.92 54.75 56.86 57.59 57.36 56.89 57.49 58.35 59.08 58.81 58.82 60.35 63.70 68.48 69.36 67.84 68.11 66.72 67.08 66.25 65.87 66.43 66.39 65.25
44.01 39.84 37.48 34.86 31.44 26.40 31.31 31.07 33.30 35.54 38.43 40.50 44.60 45.59 46.66 47.69 48.38 47.30 52.21 54.74 53.75 53.18 52.13 52.28 53.51 53.35 53.89 54.66 55.14 55.32 55.64 55.72 56.91 56.82 57.40 59.23 61.04 61.30 63.40 65.65 68.79 67.80 67.82 67.66 67.31 67.39 66.29 66.69 67.37
39.66 32.44 28.68 25.43 25.35 27.06 34.14 31.31 34.37 38.70 42.19 44.01 44.49 45.25 45.67 45.59 48.00 50.22 52.23 52.68 52.54 51.32 51.01 52.13 52.44 51.99 53.48 54.75 54.75 55.34 54.93 54.66 55.95 56.38 56.88 57.14 58.01 59.58 60.31 63.33 64.18 66.10 68.46 68.46 68.47 67.41 67.23 67.25 67.44
36.80 36.20 29.47 23.33 22.60 28.49 34.73 28.21 35.20 42.15 44.47 45.75 46.73 45.92 45.28 46.54 47.67 48.52 51.62 52.13 52.16 51.78 50.60 52.70 51.62 51.58 54.01 54.70 54.54 56.22 55.43 55.66 56.30 56.81 57.83 58.61 58.64 59.72 60.23 59.84 63.03 64.91 66.56 68.54 68.91 68.99 68.03 67.91 68.27
37.31 34.00 39.79 33.91 33.92 26.18 30.05 34.50 39.96 43.36 43.90 44.85 45.07 45.28 44.42 47.89 48.32 48.84 49.54 50.64 52.06 50.24 50.15 52.50 52.84 52.67 53.39 55.48 55.39 55.29 56.93 56.53 56.00 56.06 56.62 56.98 57.69 60.30 61.57 61.47 62.16 64.25 65.20 65.77 67.90 69.02 68.79 69.33 68.86
40.71 42.27 32.47 30.81 26.59 25.21 29.70 30.77 31.88 38.33 40.28 42.89 42.69 41.90 42.73 44.20 47.07 47.21 48.99 50.48 50.63 49.62 50.63 51.93 53.38 53.22 53.42 55.11 56.21 56.67 57.08 56.16 55.64 55.34 55.27 56.08 57.16 57.73 58.83 59.58 60.75 61.90 63.01 64.09 65.08 65.88 68.58 68.93 69.65
37.13 35.38 36.92 35.42 30.89 27.97 25.58 26.89 39.11 38.62 40.71 41.16 41.53 43.26 41.99 43.15 45.26 47.08 47.34 48.60 46.57 47.45 49.45 51.70 51.96 52.86 53.23 54.12 55.93 55.56 55.14 55.65 55.91 56.36 56.69 56.72 57.07 57.74 58.56 60.18 60.29 60.89 60.99 60.73 61.07 61.21 64.31 65.78 67.37
40.58 35.75 34.51 27.36 27.35 32.88 30.22 30.11 42.12 42.58 43.48 43.20 43.33 45.64 45.29 47.48 45.96 47.25 46.80 48.58 47.92 46.71 46.55 48.31 52.14 52.74 53.53 53.49 54.92 54.26 54.07 52.77 52.97 52.48 54.15 56.01 56.67 57.55 58.67 60.14 60.92 61.35 62.11 61.75 60.92 60.66 61.93 65.30 65.16

GFSSGP_sfc_wetblb_093.txt.gz
Wetbulb
60.56 57.61 55.48 53.70 48.58 46.63 44.88 47.02 50.82 52.71 52.98 55.17 55.04 55.72 56.25 57.25 56.68 51.40 66.20 70.11 72.14 74.21 75.87 76.59 77.11 76.94 76.84 76.36 75.99 75.74 75.49 75.76 75.89 76.09 76.06 76.08 76.11 76.21 75.86 75.56 75.07 73.74 72.68 71.77 70.67 69.74 69.30 68.88 68.40
58.87 57.04 54.36 48.01 43.68 41.69 45.61 52.82 51.40 52.84 55.06 56.00 53.41 54.58 55.97 56.95 62.05 65.52 66.57 70.37 72.81 74.47 75.65 75.53 76.86 76.91 76.66 76.29 75.81 75.51 75.49 75.64 75.86 76.11 76.13 76.03 75.98 75.76 75.07 74.99 74.49 72.94 72.05 70.91 70.26 69.58 69.08 68.62 68.44
53.32 57.05 49.47 42.73 40.79 41.90 45.46 53.57 49.73 52.00 55.44 54.85 51.79 55.88 56.74 57.54 62.34 65.89 67.14 71.27 72.74 73.93 75.26 75.40 76.89 76.55 76.64 76.21 75.76 75.61 75.56 75.81 75.96 76.08 76.20 76.00 75.77 75.57 75.35 74.96 74.29 72.89 71.71 70.70 70.23 69.53 69.15 68.91 68.10
51.23 51.77 48.72 41.58 39.61 43.57 48.62 47.98 51.03 51.73 55.03 55.70 53.87 52.92 55.96 58.93 59.65 64.77 70.59 71.51 71.91 73.33 74.73 76.24 76.63 76.41 76.51 76.14 75.73 75.58 75.70 75.81 75.96 75.91 75.90 75.50 75.14 75.29 75.28 74.83 74.37 73.50 71.68 70.83 70.36 69.79 69.41 68.98 68.04
50.81 47.34 40.89 38.92 42.20 44.93 48.35 50.19 49.88 51.46 53.94 53.75 54.06 52.53 53.92 57.75 60.09 68.97 69.31 70.99 70.66 72.04 73.65 76.16 76.47 76.38 76.36 76.11 75.78 75.80 75.70 75.60 75.92 75.72 75.43 75.26 74.98 74.87 75.06 74.68 73.85 72.92 71.73 71.05 70.56 69.96 70.17 69.97 69.27
45.24 46.15 37.16 38.26 41.41 46.73 48.46 49.51 49.69 50.65 54.85 55.31 53.18 52.95 53.27 57.80 57.83 66.51 69.29 69.17 70.14 71.09 73.90 75.43 76.52 76.33 76.03 75.96 75.68 75.50 75.46 75.44 75.66 75.83 75.76 75.48 75.06 74.92 74.72 74.53 73.94 73.44 72.79 72.10 71.26 71.07 70.97 70.35 69.69
42.65 39.92 37.64 37.19 42.33 44.35 47.90 50.06 48.29 49.78 50.44 52.55 56.02 51.95 53.31 55.33 56.67 65.23 69.32 68.53 68.72 70.94 73.86 74.86 75.24 75.96 76.33 75.70 75.37 75.46 75.20 75.33 75.31 75.42 75.56 75.39 75.20 74.93 74.93 74.62 74.33 74.07 73.30 72.80 72.63 71.99 71.30 70.61 70.41
44.96 40.80 37.82 38.63 39.43 42.18 47.69 47.70 46.79 47.35 49.30 54.94 57.77 52.23 50.58 54.78 57.45 65.51 67.39 67.68 67.68 71.10 72.77 74.03 74.34 74.99 74.89 74.76 75.79 75.40 75.40 75.33 75.08 75.10 75.27 75.19 75.23 74.88 74.93 73.75 74.02 74.06 73.62 73.05 72.75 72.58 72.11 71.29 70.83
45.44 36.58 34.86 38.60 40.71 42.73 45.67 45.65 48.88 51.07 50.46 51.82 54.68 55.79 57.65 57.51 57.99 67.27 66.78 67.47 69.04 70.15 71.10 73.25 73.27 73.75 73.70 74.29 74.97 75.45 75.63 75.56 75.28 75.18 75.20 74.05 73.10 73.04 73.03 73.37 73.45 74.05 73.86 73.52 73.12 72.75 72.32 71.75 71.43
40.74 35.45 37.53 42.36 43.16 43.18 44.77 45.01 46.53 48.23 48.31 48.93 50.64 54.33 57.61 57.50 55.21 64.07 65.83 65.91 67.41 68.48 69.74 72.32 72.76 72.65 73.31 74.14 74.59 74.24 74.33 74.12 73.49 73.53 73.39 72.24 71.13 71.31 72.21 73.04 73.85 74.18 73.98 73.68 73.46 72.91 72.59 72.05 67.94
39.43 37.56 41.09 42.97 44.81 45.26 44.88 45.12 47.31 46.97 45.90 47.88 48.81 51.49 54.96 55.81 53.96 58.58 64.79 67.17 67.43 68.82 69.78 71.02 71.90 72.40 72.42 72.94 73.63 73.25 74.33 73.97 73.85 73.33 73.14 70.38 70.52 70.40 71.40 69.61 70.90 70.24 72.56 70.35 71.47 70.63 70.15 68.93 67.83
36.49 42.03 42.64 43.95 45.34 43.67 44.28 46.49 45.57 46.51 47.08 49.97 51.19 53.17 55.22 54.96 53.61 53.89 56.22 63.51 67.34 68.60 68.97 70.10 71.37 71.44 70.94 72.43 72.58 72.30 72.77 72.76 72.69 72.82 71.63 69.91 69.00 68.19 67.99 67.80 67.54 68.08 68.44 69.00 68.66 68.73 68.55 68.26 68.06
37.66 40.26 42.67 44.45 43.83 43.18 45.37 44.18 44.51 45.23 48.41 49.69 52.79 53.69 53.64 53.08 53.74 53.78 56.77 59.17 63.40 66.61 68.03 68.78 69.62 70.49 69.73 71.08 70.88 71.15 71.45 71.78 71.86 71.47 71.53 70.77 68.19 67.35 66.29 66.84 66.77 66.86 67.47 68.17 67.85 67.81 67.45 67.22 67.29
40.55 40.44 41.45 42.28 42.51 41.95 41.97 43.63 43.66 45.62 48.20 48.82 48.88 49.10 50.44 53.53 53.48 52.36 55.80 59.93 62.05 65.19 67.78 68.20 68.65 69.22 69.38 70.41 70.36 70.25 70.55 70.36 69.07 69.93 70.45 70.57 69.09 66.66 65.71 65.39 65.44 66.70 67.27 67.94 67.94 67.51 67.09 66.55 66.29
40.75 37.50 39.73 39.58 40.98 41.19 42.96 41.31 42.43 45.83 47.35 47.12 47.44 48.28 49.13 51.35 53.41 53.31 54.89 58.87 61.07 64.41 66.88 67.67 68.29 68.56 68.24 69.86 69.53 69.07 69.17 68.63 68.63 68.86 68.64 69.88 68.98 67.20 65.66 65.35 65.89 66.72 67.58 67.95 68.27 68.12 67.81 66.64 66.53
36.75 34.75 31.09 37.84 40.87 42.51 41.68 35.95 43.26 45.78 45.19 45.27 45.87 47.04 48.63 49.71 52.49 52.75 53.95 55.99 58.52 61.69 66.34 67.41 69.01 68.14 68.21 69.10 69.90 69.70 69.42 69.42 68.66 68.73 68.94 68.95 69.65 69.26 67.27 66.22 65.97 67.60 67.76 67.76 67.20 66.86 65.55 65.81 65.87
32.88 28.88 31.45 36.37 40.76 41.05 40.18 36.79 42.32 44.66 43.85 43.71 44.58 45.20 47.00 47.19 48.18 49.06 52.38 53.40 54.55 59.26 64.46 66.71 67.92 68.11 68.75 69.21 70.53 70.29 69.89 69.10 69.53 69.09 69.33 69.36 69.76 69.87 69.62 69.43 69.30 67.95 67.28 66.54 66.00 65.17 63.58 62.40 62.45
30.10 30.92 33.62 34.35 39.18 39.49 38.19 37.58 40.81 43.21 42.88 43.30 43.17 43.82 44.80 46.40 47.88 49.04 50.19 52.70 53.61 57.08 59.23 64.49 65.66 66.80 67.17 68.55 67.88 67.81 67.77 68.03 69.02 69.38 69.38 70.12 70.09 70.56 69.38 68.95 68.87 69.25 68.00 67.37 66.17 64.75 64.14 63.43 62.69
36.95 34.93 34.44 38.14 41.46 38.90 37.87 37.90 39.82 41.88 41.59 41.66 42.77 42.88 43.67 44.76 47.32 49.76 50.59 50.97 53.53 56.11 56.54 60.24 63.11 63.50 65.49 65.74 65.15 64.83 65.90 65.67 66.26 67.13 68.05 68.16 68.80 70.50 70.48 70.24 69.55 68.72 67.81 67.04 66.38 64.92 64.26 63.15 63.82
37.29 35.27 35.00 38.42 40.90 38.37 37.98 37.30 39.66 40.74 41.02 41.83 42.98 43.43 43.69 43.57 45.03 47.94 49.66 52.65 54.59 55.93 56.41 57.11 60.98 63.15 64.33 63.44 61.09 60.83 61.24 64.60 65.43 66.73 67.40 67.20 67.48 67.22 68.60 69.81 69.43 68.82 67.88 67.11 66.51 64.86 63.67 63.32 63.87
36.99 34.88 35.35 36.08 39.01 38.89 36.39 34.40 37.38 40.51 41.44 43.20 43.67 44.20 44.38 44.31 44.65 45.02 48.07 51.46 53.52 54.65 55.46 56.45 58.35 60.92 61.25 60.13 57.50 56.86 57.92 58.32 60.67 62.49 65.10 67.74 67.87 66.00 64.56 65.30 67.92 69.60 67.99 67.88 65.77 65.68 64.33 63.19 63.84
33.36 39.45 39.30 38.03 34.42 29.57 36.58 29.82 33.75 37.91 39.05 40.98 42.32 42.23 43.00 43.80 44.85 44.90 46.40 49.26 52.87 55.10 55.29 56.58 57.39 57.64 58.62 58.32 56.80 56.36 56.38 56.48 55.60 56.33 57.56 61.28 67.52 68.10 66.23 66.02 67.70 69.21 68.28 67.34 66.15 65.88 65.24 63.94 62.68
37.13 41.04 38.57 38.02 33.32 29.09 31.86 27.14 31.76 36.82 36.57 39.68 40.58 41.94 43.04 43.72 44.21 45.45 46.02 48.75 52.53 54.43 55.35 56.27 55.48 54.54 56.24 57.29 56.66 55.69 54.83 55.19 55.97 57.11 57.47 56.82 58.20 60.78 63.24 67.01 67.79 67.72 67.20 67.00 66.47 65.71 65.04 64.92 63.79
42.21 38.34 35.90 32.32 29.72 25.04 31.60 30.22 31.76 33.50 37.25 38.60 41.17 43.16 44.89 45.34 45.27 46.97 49.28 48.57 51.64 54.09 52.76 52.27 52.06 51.95 52.96 55.43 55.69 55.59 55.09 55.14 55.23 55.46 55.92 56.08 57.35 59.19 60.26 62.42 66.04 67.27 66.87 67.00 66.89 66.26 65.36 65.20 65.23
37.86 30.73 24.02 23.21 23.41 26.72 33.52 29.98 32.80 37.05 40.28 41.13 41.17 43.15 44.19 44.10 45.50 47.73 46.93 48.75 51.95 51.95 51.67 51.83 51.53 51.01 51.82 52.22 53.43 53.89 53.84 53.58 54.21 54.54 54.85 54.66 55.45 56.38 56.88 57.97 60.12 63.13 66.87 67.60 67.59 66.47 66.15 66.04 65.68
36.17 34.23 27.36 21.58 21.50 27.49 33.82 27.57 32.50 40.01 42.29 42.91 44.01 43.98 44.64 44.08 44.85 47.16 48.36 49.45 50.25 49.16 49.29 51.41 50.81 50.55 51.59 52.43 52.22 52.73 52.90 52.94 53.21 53.82 54.95 55.87 56.49 57.24 58.58 58.52 58.62 59.91 63.10 65.37 66.78 66.03 66.25 66.66 66.19
37.32 33.56 36.92 31.15 29.71 26.32 28.74 33.07 38.83 41.25 41.37 42.84 43.30 43.90 43.14 43.92 44.26 46.76 47.62 48.37 49.74 50.51 51.31 51.83 51.83 50.69 52.26 53.29 52.81 52.94 53.47 53.21 53.98 54.63 54.84 55.65 55.87 57.45 57.67 58.94 59.45 60.18 62.10 63.85 64.39 65.58 65.61 67.13 67.06
40.43 41.42 30.48 30.11 26.06 23.47 27.31 29.41 30.00 35.35 37.85 40.88 41.54 41.53 43.01 43.87 43.77 44.76 45.97 48.25 49.81 48.96 48.18 48.64 51.04 51.70 52.14 53.26 53.69 53.81 54.74 55.40 55.38 54.62 54.54 54.56 55.03 56.12 57.30 57.53 58.01 59.02 59.85 61.07 61.47 62.14 64.01 64.87 64.91
37.33 35.48 36.82 35.50 32.65 27.67 25.75 27.08 34.98 36.90 38.08 39.23 40.76 42.75 43.67 44.05 44.40 44.44 45.63 46.77 48.28 48.06 49.11 48.82 49.49 50.70 50.47 51.74 53.00 53.34 54.29 55.67 55.40 54.30 54.35 54.33 54.48 55.46 56.16 57.14 57.63 58.07 58.50 58.81 58.85 59.87 60.70 61.78 62.71
40.86 37.07 37.04 31.33 29.71 32.62 30.86 27.14 39.89 38.66 40.66 42.01 42.39 45.03 46.20 46.78 46.24 46.36 45.48 47.43 48.45 48.26 48.26 47.10 50.28 50.83 51.80 52.40 52.70 53.77 54.63 55.41 54.97 55.00 54.70 54.71 54.77 55.29 56.46 57.08 57.94 58.96 59.51 59.16 59.31 59.50 60.52 61.36 61.45

GFSSGP_sfc_wetblb_096.txt.gz
Wetbulb
60.92 56.19 55.14 52.94 47.80 45.99 41.81 45.78 49.23 51.43 51.93 54.90 54.57 54.06 54.92 56.30 56.30 51.04 65.58 69.64 72.42 73.09 75.55 76.18 76.79 76.74 76.62 76.20 76.14 76.21 76.28 76.38 76.51 76.34 76.31 76.24 76.31 76.29 76.01 76.01 75.39 74.02 72.91 72.08 71.24 70.21 69.46 69.04 68.60
55.45 56.34 53.45 48.17 43.95 42.29 44.93 50.11 49.08 50.83 52.98 56.21 53.25 52.95 55.15 55.63 61.41 64.20 65.91 70.71 72.62 73.94 75.00 75.23 76.56 76.41 76.49 75.94 75.81 75.68 75.95 76.13 76.08 76.11 75.96 76.03 76.01 75.81 75.19 75.12 74.52 73.37 72.41 71.34 70.64 70.07 69.24 68.85 68.32
52.30 55.39 49.07 43.05 41.19 42.54 45.80 50.08 47.85 50.08 54.50 53.77 51.19 55.05 55.31 56.17 61.27 64.83 66.92 71.87 73.10 73.51 74.75 75.18 76.63 76.36 76.19 76.04 75.48 75.45 75.83 75.78 75.91 76.03 75.81 75.88 75.68 75.31 75.06 74.74 74.14 72.90 71.77 70.91 70.56 69.85 69.39 69.01 68.39
51.06 51.35 47.46 41.65 38.44 43.83 47.65 46.84 50.01 50.87 54.97 53.86 52.85 51.89 55.01 58.07 58.92 64.21 70.13 72.32 72.67 73.65 74.39 76.26 76.57 76.25 76.04 75.86 75.43 75.36 75.70 75.68 75.91 75.96 75.88 75.78 75.36 75.12 74.95 74.46 74.02 73.37 71.82 71.16 70.66 69.88 69.77 69.09 68.34
49.76 46.20 41.40 38.81 41.47 44.71 47.35 47.93 48.60 49.82 52.74 53.12 53.09 51.42 52.43 56.68 64.63 68.94 69.99 71.96 71.75 73.07 73.85 75.45 76.24 76.35 76.09 75.82 75.66 75.51 75.53 75.45 75.63 75.61 75.61 75.53 75.17 74.92 74.74 74.44 73.70 72.95 72.15 71.21 70.70 70.15 70.38 70.17 69.33
44.78 44.78 37.74 36.75 42.03 45.87 47.55 48.81 48.03 48.26 50.48 54.36 53.28 52.13 51.99 56.75 60.33 67.16 69.82 69.43 72.10 72.43 73.82 75.16 76.30 76.19 75.78 75.64 75.61 75.22 75.15 75.22 75.27 75.40 75.33 75.04 74.92 74.84 74.48 74.21 73.67 73.42 72.86 72.42 71.32 71.17 71.07 70.38 69.78
43.76 39.13 36.74 38.04 41.58 44.26 47.26 48.62 45.64 45.68 46.05 49.14 54.31 51.05 52.49 54.72 56.97 67.14 67.86 68.67 70.65 72.79 74.06 74.24 74.74 75.64 76.01 75.55 75.22 75.21 75.03 74.88 75.01 74.88 74.98 74.93 74.74 74.63 74.62 74.32 74.08 73.92 73.15 72.73 72.43 71.99 71.30 70.48 70.26
44.14 41.29 37.72 38.07 39.69 41.72 46.49 47.10 45.08 46.34 46.94 51.96 54.22 50.54 49.50 54.71 60.20 65.16 66.86 66.75 69.01 72.30 73.26 73.42 74.04 74.59 73.83 74.06 75.49 75.40 75.27 74.98 74.91 74.88 74.86 74.62 74.52 74.64 74.62 73.75 74.09 73.99 73.54 72.98 72.75 72.41 71.72 70.95 70.51
43.66 36.69 35.28 38.77 39.39 40.88 44.89 42.86 46.62 48.91 47.59 49.14 51.71 53.47 56.04 56.92 65.89 65.46 65.15 66.42 68.55 70.92 72.45 73.00 73.13 73.61 74.16 73.36 74.32 75.25 75.18 75.24 74.98 74.93 74.80 73.78 72.53 73.05 73.29 73.42 73.20 74.16 73.84 73.25 72.80 72.33 71.98 71.56 71.09
40.23 35.05 38.05 41.79 42.47 41.51 43.63 42.58 44.29 45.99 46.70 46.26 48.55 51.13 55.42 58.65 62.52 64.12 64.45 64.49 66.89 68.52 71.23 72.48 72.78 72.94 72.98 73.89 73.58 73.20 73.32 73.63 73.58 73.48 73.38 72.07 71.53 71.51 72.19 72.79 73.41 74.01 74.11 73.68 73.16 72.77 72.25 71.94 69.69
37.41 36.72 39.81 42.16 43.78 44.18 43.22 44.23 45.70 44.74 43.37 46.04 46.90 48.71 51.59 54.79 55.18 62.71 64.50 65.37 66.40 68.11 70.50 71.83 72.17 72.41 72.43 73.12 73.26 73.48 73.58 73.69 72.94 72.93 72.42 71.83 71.22 70.85 71.79 70.87 71.69 71.99 72.74 71.23 71.92 71.89 71.26 70.21 69.27
35.40 40.75 41.02 41.54 43.27 41.74 42.17 44.33 43.24 45.30 46.32 48.35 49.13 50.04 52.12 52.47 52.78 57.68 63.36 65.43 66.16 67.88 69.08 71.37 71.60 71.26 71.66 72.17 72.07 72.51 72.75 73.35 72.97 72.65 72.76 71.46 70.47 69.52 69.48 69.36 69.22 69.32 69.56 69.32 69.79 69.82 69.84 69.37 69.36
35.70 38.58 41.03 42.76 42.00 41.51 42.82 42.27 42.39 42.94 46.92 48.20 48.30 49.47 52.98 52.68 52.44 52.57 57.45 64.26 66.54 67.12 68.22 70.42 71.07 70.94 71.10 71.79 72.04 71.82 71.84 72.23 72.42 72.39 72.24 71.93 70.58 69.61 68.84 68.66 68.21 67.65 68.27 68.63 68.74 69.11 68.96 68.77 68.52
39.75 38.75 39.51 40.86 40.96 40.83 40.72 41.68 42.39 44.50 47.39 47.19 47.39 47.20 47.02 52.47 53.14 52.85 54.12 59.26 64.65 67.09 67.53 69.32 70.40 70.69 71.08 71.54 71.21 70.89 71.43 72.10 71.60 71.72 71.88 71.71 70.95 69.90 68.50 67.74 67.18 67.27 67.76 68.26 68.83 68.72 68.70 68.39 68.13
38.88 35.63 37.70 39.30 40.12 40.32 41.21 40.30 40.62 44.53 46.37 45.98 46.21 46.66 47.34 48.13 52.22 53.01 54.31 58.59 61.94 64.71 67.28 67.78 68.73 69.95 69.97 70.73 70.54 70.40 71.19 71.38 70.06 69.45 69.71 70.77 70.17 68.73 68.25 66.89 66.26 66.08 67.12 67.99 68.55 68.90 68.83 68.37 68.28
35.41 33.40 30.33 37.10 39.42 41.18 40.31 35.41 42.09 43.36 42.97 43.57 44.98 45.48 46.27 47.00 49.62 52.10 53.12 55.36 58.66 61.99 66.21 67.14 68.87 68.40 68.78 69.47 69.63 69.65 69.42 69.54 70.08 69.84 68.99 69.44 70.04 69.14 67.51 66.30 65.88 67.18 67.51 68.35 68.22 68.44 68.04 67.69 67.60
31.56 27.74 29.03 34.71 38.45 38.78 38.11 34.79 41.39 43.58 42.82 42.49 42.73 43.51 44.56 45.22 47.07 48.20 51.79 52.81 54.97 59.15 63.76 65.75 67.66 67.50 67.55 68.04 68.98 68.73 68.27 68.54 68.68 69.04 68.91 68.93 69.17 69.61 68.83 67.96 67.95 68.18 67.94 67.92 67.89 67.58 66.55 65.18 65.08
27.99 28.88 31.92 32.67 37.79 37.18 36.07 36.19 39.80 42.30 41.51 41.89 42.03 42.71 42.96 44.16 45.72 47.80 49.46 49.72 51.73 54.76 60.46 64.86 66.42 67.15 67.15 66.86 67.87 68.33 68.37 68.28 68.41 68.52 68.90 69.12 69.15 69.57 69.52 69.42 69.59 69.75 69.25 68.75 67.85 67.27 66.38 65.78 65.11
35.13 33.03 32.82 36.12 40.36 37.05 36.41 36.56 39.09 41.14 40.22 40.55 41.46 42.23 43.24 43.92 46.17 47.22 48.46 50.33 50.61 51.75 55.90 61.92 63.94 65.19 66.78 66.61 66.54 66.56 67.34 67.79 67.58 68.87 69.20 69.55 69.56 69.82 69.75 69.69 69.17 69.08 68.97 68.51 68.27 67.31 66.70 65.78 65.68
35.44 33.07 32.70 36.72 39.45 36.72 36.15 35.74 38.62 39.35 40.03 41.17 41.78 42.46 43.16 43.25 44.54 46.25 46.83 48.39 51.15 53.08 54.20 57.57 62.49 63.48 66.40 67.72 64.68 65.76 65.12 65.57 66.73 67.22 67.87 68.58 69.42 70.36 69.82 68.85 68.54 69.27 68.91 68.55 68.12 67.02 66.04 65.13 65.08
34.52 32.74 33.49 34.50 37.76 36.72 34.98 32.62 35.69 39.79 40.05 41.86 42.38 42.72 43.12 43.40 44.00 44.98 45.63 46.82 49.23 51.66 54.00 55.75 60.57 63.64 64.88 64.58 60.26 58.75 60.28 61.76 64.16 65.66 66.57 67.76 68.09 68.06 68.16 67.14 65.75 68.75 68.59 67.96 67.91 67.18 65.99 65.64 65.42
31.87 37.94 38.36 36.70 32.77 28.79 34.88 28.73 33.66 36.33 38.41 39.81 41.06 40.90 41.69 43.11 43.66 43.54 44.46 45.03 47.10 50.55 52.82 55.28 56.36 61.90 64.46 62.46 61.31 59.11 59.73 58.75 60.98 62.52 62.90 66.46 67.98 67.29 66.30 65.35 64.70 66.75 68.01 67.50 67.57 66.93 66.57 65.58 64.94
35.70 39.04 37.19 36.49 32.32 27.86 30.60 26.93 30.10 34.46 35.50 38.12 40.14 41.28 41.97 42.81 43.04 43.51 44.95 45.79 46.73 49.70 51.98 54.99 56.28 58.74 60.92 61.39 62.53 58.57 57.10 57.59 56.88 57.97 58.95 59.25 62.66 66.29 66.72 67.21 66.71 67.65 68.01 68.44 68.23 67.22 66.06 65.92 65.42
40.83 36.92 33.89 30.34 28.30 23.24 30.13 29.08 29.82 32.62 36.29 38.34 40.94 41.45 42.54 43.18 44.05 45.35 46.52 48.12 49.23 47.98 51.07 54.06 55.68 56.92 57.88 58.72 57.87 58.18 57.72 56.86 56.50 56.33 56.84 57.33 58.38 59.32 60.93 62.60 66.24 67.76 67.56 66.42 66.76 66.93 66.20 66.28 66.28
37.02 30.32 23.64 22.69 23.12 26.45 32.38 28.26 31.16 36.54 39.61 39.77 39.85 41.44 43.43 44.38 43.09 44.14 46.62 48.69 47.90 47.85 51.25 53.06 54.72 54.14 55.63 56.69 56.81 56.89 57.22 56.60 56.32 55.64 55.75 55.62 56.20 57.66 59.56 61.68 62.46 63.96 66.58 67.20 67.25 66.06 65.51 65.88 65.34
34.62 32.48 25.30 20.78 20.46 26.37 31.98 26.52 32.02 38.61 41.20 42.41 44.08 43.51 43.92 43.52 44.19 43.04 47.11 49.23 49.53 50.68 51.06 51.98 51.94 51.60 51.90 53.55 54.34 54.86 54.98 54.74 54.04 54.34 54.95 55.19 55.70 56.86 58.87 59.47 59.98 60.78 62.67 64.71 66.82 67.08 65.35 66.60 65.77
37.33 32.99 36.93 30.30 27.55 24.11 28.39 31.46 37.76 39.91 40.85 41.96 42.42 43.41 42.50 43.35 43.81 43.16 45.16 47.89 49.05 48.75 49.25 50.83 51.09 51.37 52.71 53.11 52.91 53.01 52.70 52.49 52.71 53.67 54.52 55.33 56.52 57.85 58.45 59.43 59.66 60.89 62.01 63.50 64.26 64.97 66.31 67.72 66.46
39.84 40.99 31.48 31.77 25.19 22.07 25.72 27.92 29.90 35.51 37.47 39.96 40.32 40.65 41.34 43.28 44.14 44.64 44.83 45.69 48.28 48.70 48.88 49.52 51.54 50.73 52.69 53.91 53.94 53.72 53.65 53.32 53.54 53.85 54.65 55.58 56.30 56.72 58.12 58.90 59.76 60.14 60.78 61.39 62.00 62.01 63.62 64.81 66.17
36.67 35.25 35.75 34.97 32.91 26.49 25.41 26.55 35.50 35.42 37.06 38.88 39.15 40.42 40.13 41.77 43.52 44.59 45.31 46.13 46.59 47.42 48.73 49.48 50.48 51.97 51.93 51.53 53.43 52.77 53.75 54.27 54.51 54.71 55.38 55.81 56.21 56.20 56.91 57.84 58.22 58.79 59.23 60.14 60.23 60.63 61.49 61.48 62.16
41.15 37.62 36.79 31.27 29.91 33.75 31.62 27.59 38.19 38.09 40.38 39.58 39.86 41.51 41.89 42.99 44.02 45.72 46.14 46.39 46.76 47.28 47.90 47.40 51.36 52.15 52.77 52.38 52.21 52.70 54.15 54.55 54.80 55.40 55.54 55.78 55.66 55.84 56.79 57.55 57.98 58.59 59.34 60.01 59.51 60.15 61.84 61.51 61.55

GFSSGP_sfc_wetblb_099.txt.gz
Wetbulb
62.79 58.14 61.09 59.93 53.70 54.86 51.27 52.68 55.85 54.07 55.61 58.92 59.92 60.08 60.61 61.59 59.92 59.01 70.75 72.10 72.74 75.54 76.74 76.50 76.66 76.87 77.00 77.04 77.16 77.19 77.19 76.99 76.79 76.67 76.54 76.34 76.44 76.59 76.48 76.41 76.11 75.03 73.63 72.61 72.11 70.94 70.12 70.15 71.18
57.28 60.13 59.58 56.08 51.13 48.21 50.63 54.43 51.30 53.52 55.41 58.22 58.91 58.71 60.12 60.46 65.19 68.06 70.24 72.34 73.53 75.95 76.67 75.93 76.53 76.69 76.59 76.64 76.68 76.85 76.85 76.83 76.81 76.59 76.34 76.31 76.38 76.36 76.16 75.88 75.16 73.94 72.80 72.05 71.22 70.40 69.87 69.37 69.02
56.06 58.54 55.47 52.36 50.87 48.22 50.75 50.84 52.10 54.28 56.79 58.34 56.88 58.99 59.50 60.13 64.10 68.83 71.99 73.60 74.24 75.78 76.62 76.17 76.68 76.43 76.26 76.24 76.18 76.32 76.60 76.58 76.59 76.46 76.16 76.23 76.16 75.75 75.50 75.16 74.91 73.81 72.54 71.46 70.78 70.34 70.32 69.75 69.25
55.83 57.46 54.51 49.34 46.38 49.19 52.79 51.79 52.64 53.75 56.73 58.32 57.69 56.50 58.89 61.25 61.87 67.86 73.29 74.08 74.19 75.16 76.37 76.57 76.47 76.38 76.13 76.04 76.05 75.92 76.20 76.28 76.28 76.11 75.98 75.88 75.88 75.37 74.93 74.76 74.34 73.85 72.59 71.35 70.86 70.61 70.28 70.10 68.91
55.80 54.39 49.15 47.19 46.49 48.50 51.08 52.47 53.26 52.53 53.05 55.22 57.78 55.87 58.13 60.57 68.30 72.25 73.56 74.09 73.20 74.56 76.07 76.49 76.32 76.13 76.26 75.69 75.66 75.90 75.85 75.80 75.85 76.01 75.86 75.83 75.58 74.95 74.80 74.63 74.26 73.82 73.22 72.22 71.01 70.46 70.66 70.44 69.32
51.64 52.78 45.70 44.04 46.33 48.58 51.62 53.14 52.94 52.04 52.80 53.77 54.22 55.35 58.09 61.71 68.42 72.15 73.67 73.93 73.95 74.22 75.94 76.54 76.16 75.94 75.62 75.78 75.55 75.59 75.53 75.39 75.57 75.60 75.43 75.45 75.09 74.92 74.72 74.53 74.09 73.69 73.22 72.83 71.90 71.37 70.82 70.45 69.65
49.41 48.95 44.37 44.50 45.22 47.25 49.97 53.24 51.67 50.94 51.97 51.87 54.38 52.95 58.95 60.76 62.22 72.12 73.24 73.94 74.03 74.49 75.48 76.31 75.71 76.01 75.77 75.57 75.31 75.33 75.19 75.20 75.18 74.96 74.82 74.97 74.90 74.65 74.50 74.38 74.33 73.87 73.17 73.04 72.62 71.95 71.26 70.64 69.97
50.18 49.72 44.25 45.25 43.54 44.57 50.13 51.44 52.14 51.10 50.61 54.29 55.31 53.27 54.92 60.16 65.79 70.89 71.95 72.90 73.18 73.71 74.59 75.46 75.84 74.93 74.57 74.84 75.53 75.13 75.12 75.15 75.05 75.08 74.91 74.62 74.65 74.52 74.35 73.71 74.12 74.11 73.57 73.10 72.72 72.18 71.49 71.02 70.58
49.73 45.55 42.57 43.46 43.94 45.97 50.15 48.82 51.27 52.62 50.80 52.03 53.81 54.02 56.15 60.62 67.77 69.73 69.48 70.32 71.64 72.50 73.87 74.77 75.11 75.11 74.73 74.18 74.62 75.25 74.95 75.12 74.95 74.93 74.93 73.91 73.01 73.42 73.54 73.12 73.84 74.26 73.59 73.02 72.67 72.48 72.06 71.59 71.27
47.86 44.63 44.24 47.18 48.16 47.15 47.98 48.36 48.63 49.34 50.16 50.26 52.08 54.68 55.68 60.68 67.16 68.36 68.45 68.48 69.05 70.62 72.75 74.26 74.95 75.04 74.71 73.57 74.32 74.05 74.07 74.09 73.80 73.78 74.18 73.55 73.97 73.93 73.31 73.20 73.14 73.54 73.49 73.37 73.19 72.62 72.33 71.80 71.52
45.57 44.24 46.03 47.05 48.66 49.08 47.77 47.98 49.01 47.94 47.60 49.61 49.90 52.75 54.36 55.38 64.28 67.48 69.17 69.65 69.67 70.70 72.09 73.48 74.91 75.37 74.79 73.90 74.21 74.05 73.90 74.38 74.54 74.62 74.73 74.77 73.76 73.74 73.14 73.13 73.09 73.59 73.35 72.84 72.53 72.65 72.40 72.47 72.70
43.62 46.10 46.74 46.78 47.37 47.04 46.28 47.94 47.18 48.28 49.58 52.31 51.89 53.04 53.57 55.62 58.29 64.15 68.60 69.56 70.03 70.65 71.83 73.29 74.44 74.84 75.00 74.50 74.28 74.19 73.84 74.10 73.85 74.31 75.09 74.19 73.28 73.50 73.15 72.65 72.75 73.19 73.01 72.66 72.53 71.81 72.73 73.19 73.26
43.99 44.84 45.46 46.71 46.59 46.28 46.93 46.30 46.73 47.63 51.01 52.19 52.18 52.00 53.66 55.78 59.28 60.13 65.02 69.52 70.47 70.44 71.71 72.86 73.88 74.60 74.88 74.38 74.40 74.48 74.12 74.04 74.36 74.51 74.93 74.28 73.35 72.74 73.20 72.99 72.74 72.54 72.41 71.67 72.07 72.52 72.72 72.97 73.28
45.79 45.21 46.02 46.30 46.55 46.15 45.53 46.96 46.78 49.11 51.51 51.55 51.70 52.09 52.30 53.29 57.25 59.31 59.91 63.35 68.69 71.19 71.71 72.44 73.04 74.21 74.57 74.74 75.19 74.82 74.90 74.73 74.70 74.34 74.20 73.49 74.29 73.98 73.15 72.96 72.42 72.34 72.07 71.45 71.85 72.09 72.22 72.47 72.88
45.16 42.88 44.37 45.87 47.06 46.62 46.97 45.23 45.28 49.57 50.16 50.68 51.18 51.77 52.31 53.34 54.11 57.22 61.69 62.89 67.90 70.99 72.44 72.28 72.56 73.58 73.79 73.98 74.33 74.54 74.32 74.21 73.73 72.74 73.69 74.49 74.65 74.62 74.26 72.80 72.29 71.80 71.35 71.70 71.45 72.01 72.26 72.15 72.83
42.48 41.77 40.41 44.28 44.39 45.55 45.98 41.96 46.91 48.79 48.59 48.86 49.82 50.60 51.09 53.00 53.77 55.52 58.66 62.43 65.09 69.45 71.14 72.34 72.64 72.69 73.01 73.50 73.75 73.50 73.33 73.61 73.64 72.30 73.03 73.30 74.54 74.81 73.62 71.83 71.56 71.04 70.60 70.16 70.24 71.27 71.86 72.10 72.25
40.42 38.17 38.34 40.39 44.89 43.78 44.29 42.13 47.81 48.92 48.31 49.13 49.97 50.42 50.74 52.34 54.72 56.63 56.38 58.93 62.13 65.48 68.64 71.49 72.21 72.33 72.93 73.56 73.13 73.32 73.31 73.07 72.94 72.30 70.75 73.04 72.23 73.32 73.26 71.99 71.11 70.75 69.80 69.88 70.50 71.24 71.43 70.84 70.66
36.59 36.83 38.64 39.63 44.24 44.98 44.18 44.09 47.24 49.21 48.70 48.82 49.81 50.44 51.16 52.11 54.13 56.08 56.19 57.11 58.92 60.93 64.48 69.26 71.55 72.23 72.37 72.41 72.46 72.18 71.90 72.04 72.33 72.12 71.84 72.28 71.69 72.06 72.17 71.95 71.49 71.14 70.39 70.77 71.31 71.86 71.98 71.20 71.32
40.61 39.49 39.18 41.99 44.96 42.46 43.57 43.86 46.00 48.79 48.63 48.62 49.47 50.78 51.64 52.68 54.80 55.51 56.13 56.83 57.93 60.54 60.85 64.26 67.90 71.34 71.45 70.52 69.84 70.33 69.80 70.63 70.87 71.89 72.82 72.55 72.42 72.06 72.31 71.52 72.10 72.82 71.97 72.05 72.23 73.04 72.01 70.74 71.28
40.58 39.39 39.60 42.44 44.24 42.95 43.86 43.19 45.93 47.33 47.82 48.96 49.33 50.49 51.53 52.82 53.63 54.95 56.79 57.44 57.65 59.71 62.00 62.19 64.77 69.71 70.85 71.07 71.33 71.73 71.48 71.63 71.57 71.59 72.02 72.30 72.22 72.75 72.86 72.35 72.37 71.62 72.36 70.53 70.96 69.55 69.52 69.73 70.67
40.72 39.49 39.66 39.85 43.56 43.52 42.34 41.33 43.95 46.55 47.00 48.56 49.69 50.94 51.71 51.47 52.56 54.35 55.42 56.59 57.24 58.06 60.62 62.21 64.11 67.45 70.38 71.60 71.66 69.82 71.21 70.77 70.52 70.94 71.29 71.87 72.10 72.66 73.25 73.25 72.60 72.14 71.50 65.96 66.09 69.83 69.33 67.81 69.70
38.35 42.99 41.87 41.07 39.81 36.49 41.82 34.08 42.02 44.97 45.67 47.53 49.05 50.50 50.86 51.79 53.08 53.51 53.75 55.24 56.87 57.28 58.48 60.85 63.13 64.90 68.20 71.09 70.48 70.10 69.30 68.95 70.23 71.45 72.40 72.74 72.50 72.13 72.50 72.93 70.59 70.12 69.96 70.37 69.29 68.16 69.48 71.14 68.56
40.64 42.99 42.07 41.69 40.11 39.09 39.67 36.58 40.70 43.15 42.81 45.94 48.66 50.20 51.19 50.97 51.16 51.64 52.86 54.66 56.14 57.08 57.86 59.89 61.85 63.15 66.23 69.67 71.00 70.42 70.53 70.95 70.85 71.58 72.61 72.22 72.24 72.21 71.54 71.58 71.46 70.49 70.04 70.56 70.74 71.33 70.39 70.52 69.05
44.55 42.90 42.67 39.79 38.68 32.94 38.66 37.44 38.71 42.09 44.16 46.56 48.06 48.82 50.10 51.33 52.39 53.32 54.36 55.29 55.98 57.92 58.56 58.89 59.78 62.27 63.53 67.00 69.08 70.98 70.80 70.28 66.96 67.87 68.75 69.54 70.31 70.85 71.52 71.67 71.21 70.58 69.81 69.99 69.80 71.60 71.14 70.48 70.22
43.41 40.27 33.95 32.60 32.98 32.16 40.90 37.73 39.83 44.69 46.46 47.03 47.09 49.04 50.64 51.33 51.68 52.66 52.68 52.95 55.53 57.77 58.69 58.80 58.77 59.33 61.34 63.16 66.64 68.78 70.21 69.67 67.71 66.73 67.15 66.16 65.53 65.48 66.95 68.11 68.53 69.59 71.35 71.29 70.96 71.04 70.99 70.45 69.33
41.72 40.59 34.66 28.18 30.49 33.93 39.85 34.31 40.03 46.23 47.13 47.87 48.49 49.25 49.68 49.95 51.07 52.05 53.41 53.86 54.85 56.46 58.22 58.41 58.76 59.21 60.24 60.98 63.43 66.64 67.67 67.67 67.34 66.69 65.48 65.24 64.99 65.56 67.19 67.13 67.69 67.84 68.16 69.27 70.69 69.83 69.13 70.34 68.85
41.49 37.65 43.02 36.84 38.05 32.93 36.49 40.43 44.11 46.14 45.79 46.71 47.32 47.97 48.07 48.98 50.39 51.39 52.87 54.31 55.16 55.60 56.67 57.27 57.60 58.59 59.51 60.35 62.70 64.91 65.25 64.89 64.30 65.04 64.69 63.86 64.45 63.43 64.66 65.06 65.30 65.73 66.11 66.77 67.67 67.40 68.94 69.63 69.89
42.85 44.15 36.05 37.23 28.41 27.43 34.58 35.87 37.12 42.38 43.45 45.10 46.03 46.44 47.36 48.96 49.85 51.27 52.57 53.80 54.75 55.50 56.05 56.82 56.96 57.44 58.25 59.65 61.12 62.27 62.00 62.15 62.25 62.20 61.66 62.42 62.49 62.93 63.21 63.72 64.27 64.65 65.16 66.22 67.41 66.64 67.55 67.91 68.05
40.93 39.11 39.80 38.42 36.47 29.94 29.25 34.90 43.55 42.98 43.53 43.33 44.58 45.94 47.45 48.96 50.21 51.48 52.91 53.96 54.00 55.08 55.16 55.70 56.43 57.29 58.51 58.65 59.08 58.98 58.75 58.61 58.93 60.04 61.25 62.57 63.46 63.24 62.74 62.82 63.29 63.59 63.95 64.86 65.34 65.48 65.52 65.62 66.15
42.50 39.94 39.66 34.25 33.08 34.57 34.55 34.37 44.34 44.35 44.15 44.87 45.11 46.94 48.62 48.97 50.37 51.93 52.29 52.36 52.74 52.78 53.33 53.51 54.49 54.53 56.01 58.59 59.00 58.83 59.03 58.77 59.50 59.60 59.83 61.94 62.97 63.28 62.71 62.40 62.15 62.52 62.83 63.75 63.75 63.47 63.16 64.13 64.47

GFSSGP_sfc_wetblb_102.txt.gz
Wetbulb
66.62 61.57 63.36 61.71 56.55 57.26 55.56 57.19 59.30 58.19 58.50 61.19 61.97 62.20 62.82 64.51 62.91 61.96 73.56 73.30 73.13 75.37 77.77 76.69 77.12 77.43 77.63 78.00 77.85 77.55 77.27 76.90 76.60 76.57 76.47 76.27 76.59 76.72 76.64 76.62 76.22 75.42 74.27 72.92 72.17 71.27 71.19 72.00 72.68
61.24 61.03 62.02 59.04 54.15 53.24 55.56 58.25 57.95 58.38 59.51 60.97 61.33 61.07 62.86 62.96 67.73 70.79 72.03 73.02 74.36 75.95 77.58 76.24 76.82 77.05 77.42 77.65 77.59 77.37 77.15 76.92 76.75 76.59 76.37 76.37 76.52 76.54 76.29 76.14 75.59 74.67 73.14 72.33 71.33 70.36 70.14 70.51 71.59
59.37 60.45 57.06 55.21 53.60 53.01 54.99 55.95 56.74 57.91 60.79 60.51 59.21 61.66 62.43 63.48 66.81 70.68 74.52 73.82 75.07 76.24 77.01 76.80 76.62 76.74 77.15 77.29 77.31 77.13 77.19 76.97 77.02 76.74 76.59 76.39 76.44 76.39 76.21 75.99 75.29 73.64 72.77 71.85 70.75 70.12 69.62 69.20 68.98
58.46 58.90 57.83 51.11 50.89 53.92 56.80 56.47 56.44 57.50 59.80 61.14 60.29 58.32 62.73 65.70 65.71 70.66 74.91 74.59 75.42 75.74 76.38 76.23 76.41 76.64 76.77 76.69 77.11 76.98 77.04 77.04 76.91 76.87 76.54 76.29 76.36 76.11 75.70 75.24 74.96 74.06 72.47 71.60 70.89 70.29 69.75 69.11 68.54
58.49 56.31 51.62 50.44 50.55 51.73 55.89 57.46 56.76 56.31 57.12 58.60 59.69 58.30 60.89 65.40 72.10 73.55 75.04 75.16 75.14 75.20 76.25 77.60 76.28 76.36 76.44 76.49 76.39 76.68 76.78 76.58 76.64 76.62 76.31 76.19 75.93 75.58 75.23 74.69 74.00 73.40 72.64 71.84 71.16 70.48 70.04 69.37 68.37
53.62 54.27 48.81 47.66 49.20 51.49 54.20 56.38 56.32 55.67 56.17 57.71 57.52 57.40 60.99 65.88 70.71 73.90 75.60 75.69 75.13 74.94 76.02 77.22 76.26 76.04 75.91 76.14 76.13 76.00 76.10 76.10 76.08 76.03 75.91 75.81 75.58 75.18 74.86 74.59 73.99 73.66 73.28 72.26 71.28 70.68 70.28 69.73 68.64
51.01 49.69 46.87 47.89 48.73 51.36 53.29 56.18 54.85 54.72 54.97 55.20 57.45 56.51 61.53 63.63 66.18 73.84 75.00 75.64 74.88 74.97 75.82 77.14 75.87 75.98 75.80 75.63 75.59 75.54 75.43 75.54 75.67 75.64 75.49 75.40 75.25 74.93 74.63 74.64 74.54 73.89 73.33 72.35 71.45 70.67 70.16 69.75 69.14
53.67 51.47 46.73 47.60 46.00 47.85 53.19 54.67 55.42 54.42 53.64 56.70 57.33 57.01 58.72 59.65 64.43 71.81 74.76 75.31 74.88 74.66 74.94 76.70 76.03 75.17 74.94 75.07 75.62 75.56 75.46 75.38 75.41 75.46 75.32 75.14 74.61 74.22 73.99 74.02 73.99 73.19 72.63 71.94 71.71 71.14 70.66 70.48 70.14
54.72 48.16 45.62 46.42 47.12 47.70 52.31 51.06 53.89 54.45 53.15 54.43 56.39 56.71 57.82 59.24 66.83 70.24 72.61 73.75 74.03 73.53 74.25 76.06 75.99 75.54 75.06 74.84 75.00 75.24 75.15 75.37 75.31 75.19 75.10 74.59 73.32 73.56 73.69 72.98 73.87 73.12 72.61 72.00 71.80 71.74 72.03 71.48 71.29
50.95 47.95 47.85 50.14 50.36 49.51 50.68 50.47 51.36 51.07 51.56 52.75 54.88 57.58 58.06 58.42 64.39 67.21 70.38 70.93 72.20 72.43 73.12 74.82 76.17 75.84 75.13 73.90 75.09 74.25 73.69 73.96 74.21 74.46 74.71 73.93 72.87 73.23 72.58 73.46 72.99 73.07 72.99 72.59 72.37 72.22 71.95 71.51 72.41
50.47 47.98 50.46 50.42 51.16 51.46 50.21 49.79 51.97 49.77 49.84 52.50 52.95 55.57 56.93 57.66 59.88 66.12 67.68 70.57 71.27 72.92 73.61 74.40 75.71 76.86 76.02 74.59 74.60 73.76 73.15 72.94 73.70 74.55 74.98 74.28 72.71 73.87 73.47 73.08 73.36 73.16 73.20 72.47 72.95 73.16 73.17 74.13 74.53
47.10 50.15 50.52 50.58 50.88 50.48 49.70 51.16 49.78 50.96 51.44 53.88 53.69 55.05 56.34 56.89 58.86 60.46 65.87 67.89 71.37 72.17 73.38 74.65 75.99 76.78 76.94 75.42 74.47 74.17 73.18 73.25 73.01 73.17 74.72 74.03 73.34 73.82 72.84 71.92 72.40 73.67 73.11 73.13 73.21 72.45 74.20 75.25 75.45
47.64 49.00 49.42 50.33 49.96 49.86 50.54 49.14 49.76 50.32 53.06 54.34 54.59 54.75 55.60 55.64 57.18 60.84 62.91 65.33 70.60 72.07 73.49 74.57 75.80 76.55 76.79 76.56 75.10 74.84 74.31 73.79 74.43 74.28 75.06 74.38 73.30 73.28 73.06 73.10 72.70 72.55 72.26 72.29 71.86 73.13 74.64 75.05 75.45
49.63 49.24 49.18 49.84 50.14 50.33 48.75 49.59 49.61 51.29 53.60 53.47 53.76 54.38 55.15 55.59 56.42 58.52 61.88 63.73 66.63 71.76 72.84 75.10 75.69 76.76 76.70 76.96 77.17 75.73 75.52 75.35 74.92 74.50 74.80 75.53 74.65 74.59 73.38 73.46 72.86 73.06 72.44 71.94 71.74 72.31 73.31 73.92 74.94
48.93 46.46 48.79 49.38 50.07 49.54 50.69 47.65 48.01 51.95 52.71 52.62 53.24 54.08 54.55 55.47 56.58 57.38 59.21 62.72 66.09 68.58 73.12 74.63 75.29 76.16 76.76 76.24 76.06 76.91 75.59 75.54 74.82 74.76 75.89 75.86 75.85 75.98 75.51 74.07 73.83 73.60 74.00 73.64 72.72 72.62 72.82 73.35 74.14
46.48 46.73 44.38 48.55 48.04 48.90 48.42 44.50 49.57 51.79 51.78 51.62 52.22 53.05 53.56 54.94 56.19 58.15 59.69 61.66 64.56 68.39 71.82 74.93 74.68 75.72 76.48 76.33 76.15 75.67 75.35 75.27 75.08 74.04 74.69 75.90 75.65 76.53 76.78 74.72 74.40 74.72 74.22 73.15 71.50 70.42 70.27 72.08 72.86
46.22 42.28 43.75 44.73 47.72 47.28 46.71 45.02 49.37 51.83 51.76 51.50 52.81 53.41 53.56 54.64 56.53 58.86 60.70 61.08 62.66 65.42 69.58 74.12 75.66 75.35 75.85 76.34 76.15 76.04 76.53 75.61 74.84 75.50 75.09 75.04 75.37 76.23 76.60 74.53 75.08 75.77 72.74 71.61 70.84 70.60 71.84 72.03 73.49
42.06 42.29 42.90 42.55 46.73 47.30 46.33 46.32 49.06 51.27 51.46 51.93 52.59 53.23 53.75 54.38 55.56 57.93 59.92 61.21 62.08 63.43 65.66 69.06 73.10 75.67 76.35 76.02 75.83 75.35 74.79 74.78 74.74 74.51 74.28 75.24 75.59 75.28 75.54 74.53 74.67 73.37 72.13 71.05 71.10 72.18 74.13 73.87 72.99
44.08 42.94 42.88 45.59 47.83 46.58 46.55 46.96 48.82 51.07 51.47 51.41 52.19 52.96 53.57 54.52 56.64 58.04 59.14 60.56 61.17 63.08 65.04 66.40 67.13 73.53 74.97 74.36 73.71 73.56 72.90 73.74 73.87 74.11 74.43 73.96 72.98 73.46 74.40 73.25 73.45 73.01 71.89 72.39 74.18 73.99 74.20 72.35 72.91
44.08 43.06 43.45 46.22 47.72 46.74 46.63 46.40 49.23 50.48 51.12 51.86 52.18 52.88 53.58 54.52 55.78 56.93 58.29 59.26 61.08 62.72 64.48 65.78 67.39 68.88 73.31 73.66 73.89 73.63 73.19 73.50 74.17 74.57 74.85 74.28 73.92 73.66 73.06 72.96 73.12 73.54 71.55 73.66 74.41 74.61 70.97 71.24 73.16
44.11 43.04 43.64 43.69 46.32 47.67 46.30 44.76 47.08 49.79 51.28 51.82 52.67 53.52 54.10 54.41 54.98 56.33 57.24 58.88 60.38 61.47 63.23 64.73 66.72 68.64 69.73 73.49 72.91 73.64 73.81 74.16 73.63 73.83 73.74 74.13 73.94 74.03 73.47 73.72 74.61 74.31 74.11 73.52 74.07 72.64 71.00 66.58 68.39
41.93 46.02 45.12 44.17 43.38 40.26 46.84 38.59 45.73 48.21 49.13 50.60 52.06 53.00 53.67 54.57 55.70 56.45 56.92 57.84 59.24 60.05 61.51 63.57 65.24 66.97 68.21 70.51 71.95 74.65 72.02 70.29 71.76 73.42 73.92 74.38 73.97 73.53 73.78 74.18 74.49 75.97 74.62 75.04 74.09 72.96 72.06 70.79 66.92
43.52 46.41 45.06 44.81 43.64 43.60 43.71 41.61 44.90 49.07 46.86 48.93 51.36 52.74 53.95 54.98 54.97 55.99 57.30 58.46 59.41 60.62 61.27 62.85 64.53 66.01 67.56 68.64 71.24 71.10 72.20 70.26 71.11 71.85 74.75 75.53 75.61 73.98 73.70 74.50 74.61 74.81 73.98 75.17 73.53 73.24 72.64 69.25 67.30
47.58 45.81 46.14 46.35 44.55 38.27 42.97 42.37 42.93 46.01 48.25 50.17 52.06 52.39 52.92 54.30 55.26 56.25 57.80 58.64 58.91 60.12 61.26 63.25 64.02 64.58 65.73 67.04 68.19 70.62 72.17 72.44 69.99 71.34 71.57 72.82 74.19 74.62 74.71 74.53 74.72 74.62 73.30 72.78 72.64 73.51 73.15 71.54 71.17
46.63 44.04 38.08 37.52 38.49 37.67 45.45 42.89 44.50 48.59 50.14 50.65 50.94 51.81 53.68 53.65 54.19 54.85 55.87 57.04 58.20 59.29 60.76 62.37 63.24 63.78 65.10 65.22 65.59 66.75 69.71 72.69 74.01 73.74 71.47 73.48 72.24 72.33 74.78 74.73 74.32 73.58 73.96 73.72 73.38 73.19 72.72 72.58 71.46
45.73 45.22 39.48 32.62 34.01 38.48 44.87 40.08 44.40 49.16 50.35 51.27 52.02 52.92 52.97 53.04 53.60 54.12 55.13 55.98 57.25 58.54 59.45 60.12 61.53 62.64 63.99 64.28 64.71 65.44 65.91 66.92 69.71 72.26 71.10 71.09 71.14 71.83 74.63 74.07 73.87 74.07 73.63 73.44 73.47 72.45 72.38 73.27 71.45
44.74 42.48 46.49 40.43 41.93 38.18 41.25 44.98 48.52 50.09 49.85 50.33 50.91 50.93 51.51 52.72 53.58 53.72 55.10 56.15 56.84 57.81 59.09 59.62 60.39 61.78 63.25 63.94 64.66 64.78 65.19 66.20 68.02 72.01 72.42 71.53 72.83 70.51 70.85 71.39 71.05 71.15 71.07 71.01 72.06 71.03 71.40 71.90 72.04
45.04 47.31 39.48 40.53 32.20 31.39 38.81 39.99 41.69 45.08 46.24 48.71 49.36 49.22 50.70 52.45 52.65 53.47 54.35 55.69 56.94 57.53 58.34 59.62 60.25 60.11 61.73 62.67 63.45 64.34 65.02 65.95 67.70 69.41 70.00 69.99 69.16 69.00 63.81 67.78 68.72 68.58 68.55 68.90 69.43 69.26 69.64 69.67 69.80
42.75 41.47 42.36 41.56 40.02 33.22 32.85 38.38 46.95 46.59 48.00 47.97 48.46 49.76 50.99 51.65 52.08 52.80 54.43 55.61 56.41 57.33 57.50 58.06 58.61 59.09 59.04 60.36 62.43 62.74 63.84 64.06 65.94 66.87 67.54 66.76 66.16 65.16 63.40 63.96 63.97 64.24 64.74 65.87 66.74 67.14 66.49 66.56 67.97
45.88 43.23 42.22 35.94 36.36 40.02 37.78 37.79 49.22 49.18 48.72 48.80 49.41 50.23 51.16 51.66 52.13 52.84 54.03 55.22 55.55 55.94 56.58 56.81 57.30 57.02 58.25 59.19 59.92 61.60 62.38 62.44 62.40 62.85 63.90 64.80 65.11 65.07 64.28 63.99 63.59 63.14 63.25 64.50 64.93 64.63 64.30 64.70 65.21

GFSSGP_sfc_wetblb_105.txt.gz
Wetbulb
66.90 63.46 63.23 61.85 56.70 58.53 56.08 56.49 61.29 59.46 59.44 62.39 62.79 61.18 62.35 65.52 64.43 62.38 74.29 72.92 73.44 76.26 77.04 76.97 77.62 78.16 78.48 78.49 78.01 77.60 76.97 76.79 77.09 76.82 76.64 76.59 76.77 76.85 76.62 76.69 76.01 75.46 74.24 73.03 72.49 72.22 72.33 72.86 73.09
62.51 61.62 61.52 59.55 54.84 54.02 56.15 59.71 59.30 61.23 62.01 62.48 62.37 61.25 61.46 63.75 69.71 71.08 71.24 72.96 74.28 76.71 77.36 76.87 77.24 77.80 78.35 78.30 77.97 77.39 77.22 76.87 76.87 76.77 76.67 76.69 76.74 76.77 76.29 76.12 75.60 74.75 73.16 72.41 71.37 70.78 71.34 72.05 72.65
62.63 60.95 57.20 56.17 54.91 53.47 54.19 60.47 60.29 60.66 61.90 62.30 61.12 62.42 63.59 64.65 68.42 72.11 73.86 73.92 74.79 76.13 76.98 77.54 77.12 77.47 78.10 78.10 77.82 77.54 77.29 77.02 77.02 76.84 76.54 76.62 76.82 76.71 76.41 75.99 75.20 73.78 72.71 71.86 70.75 70.12 69.79 69.71 70.00
58.72 58.81 57.82 52.72 52.91 56.51 57.69 60.42 59.56 59.79 61.70 62.54 62.03 59.79 63.69 67.88 67.89 72.55 73.98 74.47 75.05 75.04 75.91 76.31 76.86 77.31 77.69 77.82 77.10 77.41 77.37 77.14 77.04 76.82 76.59 76.67 76.59 76.56 76.38 75.69 74.85 73.70 72.71 71.42 70.74 70.17 69.55 68.73 68.10
57.48 56.36 52.43 52.39 52.88 56.08 57.61 60.76 59.66 59.06 59.94 60.33 61.23 60.20 61.94 68.40 71.28 73.94 74.04 74.42 74.89 74.78 75.36 77.32 76.51 77.04 77.31 77.47 77.47 77.39 77.14 76.96 76.96 76.94 76.77 76.67 76.51 76.03 75.69 74.96 74.11 73.40 72.35 71.65 71.15 70.31 69.61 68.84 68.01
53.82 54.82 48.26 48.90 52.33 55.45 56.08 59.00 59.39 59.18 59.54 60.10 60.15 59.67 62.74 68.94 71.10 72.80 74.38 74.73 75.48 74.90 75.71 77.41 76.23 76.46 76.68 77.08 77.00 76.90 76.70 76.78 76.78 76.76 76.59 76.31 75.93 75.29 74.66 74.09 73.73 73.14 72.36 71.72 70.91 70.33 70.01 68.98 68.06
51.91 51.88 49.09 49.82 50.09 52.84 55.08 58.33 56.77 58.21 58.84 58.24 60.22 57.96 63.00 64.68 69.15 73.22 74.17 74.80 74.91 75.42 75.64 76.73 75.07 76.03 76.46 76.47 76.49 76.49 76.31 76.32 76.32 76.20 76.03 76.08 75.38 74.74 74.19 73.64 73.12 72.94 72.23 71.67 70.89 70.30 69.81 69.45 69.00
53.23 52.01 48.81 49.59 48.23 48.99 54.74 56.95 57.68 56.80 56.84 59.36 58.68 57.54 60.13 61.85 65.49 72.67 73.55 73.91 73.93 74.70 75.39 76.29 75.30 74.43 74.57 75.45 76.12 76.14 75.98 76.09 76.01 75.95 75.73 75.55 74.81 74.37 73.87 74.03 73.57 72.74 72.01 71.68 71.34 70.68 70.22 70.05 70.52
55.67 49.57 45.96 47.87 48.45 50.24 54.23 52.39 56.42 57.80 55.55 56.75 58.48 59.57 61.76 60.91 64.89 68.34 71.31 72.21 72.60 73.36 74.93 76.52 75.29 74.79 74.41 73.89 74.94 75.61 75.61 75.73 75.77 75.44 75.28 74.84 73.56 74.01 73.95 72.72 74.01 73.15 72.42 71.74 71.45 71.51 71.40 71.37 71.63
51.84 48.60 48.48 51.35 51.81 50.92 52.47 52.46 53.89 52.87 53.37 54.50 56.04 58.91 61.00 61.23 62.04 66.35 68.74 69.40 70.94 71.74 73.03 75.70 76.15 75.69 75.15 73.93 75.56 73.56 73.64 74.16 74.64 74.58 74.86 73.78 73.20 73.61 71.66 73.26 74.06 73.24 72.97 72.50 72.48 72.69 72.39 71.77 70.89
51.88 48.59 51.91 51.72 52.59 52.94 51.91 51.80 52.97 51.61 49.93 53.38 54.39 57.26 59.82 60.38 61.47 64.11 66.91 68.75 69.85 71.60 72.43 74.05 76.75 77.72 75.64 74.30 74.90 73.77 72.63 72.31 72.69 74.00 76.09 75.42 73.04 73.14 71.86 73.13 72.83 72.67 73.21 71.71 72.24 72.32 72.11 73.06 74.45
49.15 51.72 52.08 52.36 53.09 52.09 51.22 53.07 51.48 52.08 52.53 54.37 54.86 56.50 57.18 58.63 59.91 62.34 65.16 66.88 68.26 70.85 72.67 73.91 76.30 77.47 77.81 75.49 74.18 74.48 71.83 72.22 71.91 73.06 76.86 76.21 73.42 74.92 74.48 71.77 72.75 73.54 72.31 73.01 73.34 71.78 73.15 74.64 75.33
50.01 51.11 52.02 52.51 52.43 52.01 52.42 50.80 50.96 51.58 54.13 55.54 55.81 55.48 55.86 57.25 58.86 61.06 63.59 65.19 67.34 68.93 72.38 73.77 75.78 77.83 78.63 78.92 75.37 75.21 73.98 72.53 72.55 73.28 75.17 74.18 72.88 74.72 73.89 74.24 72.21 73.01 72.46 72.43 72.23 71.76 73.46 74.76 75.44
51.87 51.12 51.27 51.58 51.41 51.77 50.21 50.58 51.49 52.58 54.81 54.58 55.24 55.29 56.18 57.70 58.26 58.90 60.69 62.90 64.71 68.25 72.61 74.02 75.04 79.05 77.78 78.01 78.93 76.66 76.87 74.06 73.39 72.89 74.19 75.68 74.26 75.75 72.83 73.54 72.73 72.47 72.32 71.86 72.13 72.43 73.43 74.83 74.50
51.29 48.60 50.24 50.73 51.25 50.73 52.06 48.79 49.40 53.24 54.59 54.04 54.54 55.34 56.30 57.16 58.46 58.71 60.39 62.06 65.31 66.73 71.60 74.14 75.40 77.59 78.96 77.87 77.97 77.62 75.57 74.87 73.97 74.28 76.62 76.72 76.62 77.34 75.65 73.08 72.84 72.25 73.49 74.74 73.77 72.57 73.56 71.80 72.35
48.58 48.97 45.55 50.06 50.90 51.20 50.66 45.72 51.20 54.09 53.50 53.10 53.84 54.52 55.24 56.65 57.51 59.18 60.28 61.68 63.47 65.44 68.44 71.82 73.11 75.28 77.75 78.42 77.96 76.88 76.01 75.88 74.81 74.62 73.88 76.60 75.89 76.27 75.72 74.11 73.90 74.75 74.32 73.24 72.36 71.26 70.31 70.86 71.48
47.87 43.84 45.85 47.26 51.01 49.50 48.65 46.74 50.89 53.33 53.18 52.96 53.89 54.36 54.87 55.79 57.63 59.65 60.23 61.34 62.64 64.33 66.99 70.06 74.07 74.41 76.08 78.54 77.80 78.05 78.67 76.28 75.91 76.19 75.17 77.49 77.17 75.98 74.94 75.38 74.68 75.42 74.76 74.59 73.30 71.46 71.01 70.70 73.07
44.33 44.98 45.95 45.88 49.09 48.85 47.65 47.16 50.12 52.51 52.71 53.01 54.07 54.67 55.14 55.54 56.47 58.93 60.17 61.41 62.11 64.17 65.87 67.55 70.82 76.49 77.73 77.46 78.08 76.78 76.26 76.19 76.22 75.62 75.92 77.68 76.19 75.24 76.90 74.79 76.13 76.70 74.15 73.18 72.46 72.78 71.26 71.85 72.94
47.13 45.60 45.18 47.60 49.18 47.65 48.03 48.49 50.21 52.31 52.64 52.58 53.45 54.22 55.10 55.66 57.63 58.88 59.71 60.84 61.95 63.75 64.68 66.68 68.17 73.94 75.66 74.95 74.18 74.55 73.91 74.79 74.98 75.66 77.50 77.47 76.22 75.58 77.10 74.66 75.81 76.10 74.76 73.79 75.07 72.86 73.74 71.60 75.00
46.62 44.81 45.13 47.52 49.35 48.82 48.19 47.86 50.48 51.75 52.29 53.36 53.53 54.08 54.89 55.83 56.95 57.99 59.27 60.43 61.22 63.04 65.10 66.46 67.64 70.61 72.41 72.51 75.42 75.00 75.14 73.95 74.29 74.78 76.81 76.72 76.50 77.15 77.03 76.05 75.08 75.97 73.34 74.92 74.91 74.16 70.84 72.44 73.98
46.36 45.00 45.51 45.43 48.15 49.35 48.04 46.43 48.48 51.18 52.45 53.18 54.02 54.77 55.22 55.58 56.06 57.30 58.12 59.47 60.45 61.32 63.51 66.23 68.38 70.29 71.74 73.16 73.13 76.16 75.50 74.90 72.55 72.69 73.80 76.01 76.69 76.38 75.53 76.23 75.52 75.44 74.42 72.38 74.42 74.67 74.68 70.40 72.39
43.93 47.99 46.88 45.45 44.78 41.50 48.45 40.70 47.70 50.14 50.89 52.22 53.36 54.26 54.87 55.48 56.43 57.14 57.85 59.14 60.32 60.92 62.18 63.62 66.02 68.74 69.56 72.62 70.55 72.05 70.93 70.20 70.78 71.38 72.28 75.21 77.11 76.51 75.84 75.55 75.72 74.84 74.01 73.21 74.80 75.29 74.73 73.71 69.32
45.17 48.24 46.84 46.51 45.17 44.86 44.85 42.83 46.47 50.60 49.44 51.52 53.26 54.05 55.18 56.15 57.04 56.96 57.69 59.41 60.35 61.42 61.61 63.15 66.46 66.99 68.09 69.96 71.97 69.12 70.22 68.76 70.36 71.69 73.75 75.45 76.70 77.08 76.06 75.91 75.14 75.61 75.85 75.73 75.99 75.63 75.27 72.54 70.64
49.19 46.94 47.24 47.16 45.75 40.19 44.98 44.60 44.96 47.80 50.10 51.95 53.85 54.93 55.58 55.88 56.57 57.27 58.40 59.66 60.03 60.78 61.70 63.19 64.65 66.19 67.22 67.51 69.03 71.15 71.42 71.51 69.73 70.19 70.45 71.73 73.81 75.44 75.91 75.11 75.36 76.42 76.55 76.05 75.23 75.52 75.12 74.23 72.58
48.25 45.61 39.78 38.90 39.76 39.03 47.09 44.76 46.97 51.07 52.29 52.68 53.10 54.20 55.89 56.09 55.77 55.74 56.68 57.39 58.57 59.74 60.77 61.54 62.69 63.72 65.72 66.21 66.75 67.24 69.69 71.08 72.47 71.86 69.56 69.95 71.15 72.74 74.60 74.97 74.14 74.29 76.15 76.11 75.36 74.97 74.22 74.41 72.80
46.39 45.31 38.82 32.75 35.64 39.74 46.41 41.58 46.75 52.93 53.36 53.56 53.41 54.29 55.06 54.96 56.07 55.70 56.54 57.00 57.65 58.72 59.81 60.43 61.09 61.51 63.25 64.76 65.78 66.78 67.47 65.94 66.47 69.32 69.46 70.40 69.16 70.59 68.66 73.25 72.05 71.71 74.09 75.08 75.44 73.80 73.25 74.53 73.48
45.43 42.66 47.15 41.41 43.29 40.11 42.59 46.40 50.67 52.64 52.64 52.64 52.67 53.74 53.57 54.38 55.18 55.91 56.38 56.88 57.49 58.41 59.37 59.80 60.33 61.11 61.76 62.94 64.78 65.69 66.68 67.50 66.96 69.45 70.39 70.46 72.11 71.84 74.34 68.66 68.34 68.91 70.01 73.71 74.46 72.68 73.04 73.62 73.57
47.10 48.35 39.38 41.27 33.94 33.50 39.60 42.31 43.84 48.06 50.03 51.51 51.75 52.43 53.47 54.03 54.98 55.54 55.86 56.75 57.75 58.40 59.24 59.71 59.75 59.90 60.88 61.55 62.65 63.70 64.96 66.38 67.23 69.14 69.53 70.42 72.46 73.24 73.37 69.22 66.37 65.53 69.74 70.57 72.57 72.46 73.04 72.56 70.45
44.02 42.27 43.30 42.88 41.33 35.21 34.80 39.41 49.07 48.56 50.08 51.01 51.39 51.68 51.81 52.59 54.22 54.84 55.67 56.43 56.57 57.57 57.84 58.52 58.78 58.63 59.09 60.61 61.33 62.12 63.44 64.58 65.51 66.84 67.76 69.59 71.52 71.26 69.68 69.24 68.96 68.27 69.26 68.04 68.38 68.80 68.39 68.12 70.39
46.93 44.22 43.52 37.00 37.68 40.36 38.97 39.62 51.44 50.50 51.59 51.53 51.49 51.43 52.55 53.44 53.71 54.31 54.22 54.72 55.17 56.04 57.14 57.56 58.16 58.16 58.68 59.05 59.20 60.32 62.19 63.84 64.04 64.61 65.69 67.50 67.96 68.74 67.40 64.83 65.35 63.23 62.68 62.99 62.92 63.71 64.31 65.28 66.32

GFSSGP_sfc_wetblb_108.txt.gz
Wetbulb
64.68 62.29 61.94 59.96 54.15 55.63 53.52 54.57 57.81 59.52 60.03 62.33 62.93 60.67 59.76 65.95 64.18 62.31 73.75 73.33 75.07 74.62 76.49 77.10 78.03 78.34 78.24 77.91 77.73 77.27 76.61 76.69 76.71 76.46 76.49 76.56 76.94 76.77 76.84 76.74 76.60 75.52 74.04 73.36 72.96 72.80 72.90 73.16 73.19
60.89 60.46 60.24 57.08 52.47 51.16 53.73 58.59 58.90 60.72 61.23 62.67 61.93 61.27 59.32 64.44 69.72 69.99 69.23 74.36 75.18 75.13 75.90 76.51 77.85 78.18 78.11 77.91 77.73 77.12 76.77 76.89 76.84 76.49 76.49 76.66 76.81 76.69 76.42 76.47 76.01 74.81 73.34 72.61 71.91 72.15 72.26 72.60 72.91
61.45 61.43 54.96 53.68 52.87 50.71 53.59 59.28 60.50 61.83 62.75 61.58 61.11 62.22 62.59 64.41 70.12 70.53 71.66 74.56 75.39 75.13 75.91 77.12 77.72 78.05 78.13 78.03 77.57 77.22 76.84 76.99 76.89 76.74 76.59 76.64 76.76 76.71 76.49 76.22 75.68 74.39 72.83 71.91 71.17 71.31 71.74 71.39 71.68
58.19 57.47 55.70 50.62 50.22 54.62 56.12 59.19 61.50 60.22 61.58 62.44 62.19 59.61 64.25 67.96 69.18 72.72 72.76 73.83 74.99 74.61 75.59 76.50 77.41 77.74 77.92 78.02 77.62 77.22 76.99 76.89 76.99 76.82 76.56 76.69 76.61 76.56 76.21 75.89 74.98 74.20 73.28 71.61 71.28 71.52 70.98 70.47 70.03
57.11 55.07 50.35 50.40 51.51 54.62 57.78 60.90 60.25 58.73 60.15 60.62 61.40 59.73 62.72 68.49 71.48 72.65 72.84 73.71 73.27 74.11 76.61 76.10 77.21 77.64 77.82 77.95 77.56 77.29 77.07 76.86 76.89 76.67 76.59 76.59 76.56 76.08 75.71 75.09 74.42 74.00 73.15 72.33 71.17 71.24 70.86 70.62 70.19
52.03 54.01 47.72 47.44 50.86 54.69 57.10 58.62 59.85 59.42 60.01 60.28 59.47 60.14 63.51 69.11 70.69 72.28 72.93 73.91 73.64 75.33 76.39 75.38 76.72 77.18 77.26 77.39 77.36 77.10 76.85 76.68 76.69 76.69 76.54 76.66 76.21 75.76 75.19 74.59 73.92 73.43 73.05 72.57 71.58 71.30 70.91 70.80 70.65
50.18 49.91 48.05 49.06 49.17 51.17 54.40 58.33 56.51 56.97 58.41 58.73 60.82 57.77 62.91 66.47 70.93 72.27 72.88 73.64 74.10 75.82 76.68 75.45 74.83 76.50 77.18 77.17 76.97 76.87 76.69 76.42 76.40 76.35 76.35 76.07 75.78 75.28 74.96 74.42 74.11 73.62 73.18 72.84 72.15 71.39 71.35 70.94 70.36
52.23 49.99 46.89 48.47 48.59 49.21 54.83 56.72 57.44 56.40 56.35 60.05 59.77 56.27 57.45 62.16 66.54 72.00 72.45 72.43 73.02 73.63 76.23 74.72 74.59 74.47 75.42 76.12 76.84 76.61 76.44 76.21 76.17 76.25 76.02 75.77 75.28 74.93 74.64 74.13 74.04 73.89 73.28 72.87 72.30 71.67 71.10 71.07 70.84
54.53 46.82 45.00 46.64 47.58 49.95 53.99 52.49 56.80 58.75 57.10 57.79 57.83 58.40 60.95 61.76 64.44 67.17 69.83 70.43 71.22 72.32 75.75 74.33 73.12 73.65 73.69 74.59 75.90 76.42 76.43 76.50 76.27 76.18 75.87 74.69 73.65 73.71 73.38 72.76 73.84 73.84 73.42 72.96 72.77 72.32 71.95 71.69 71.79
50.61 47.31 47.25 50.73 51.32 50.46 52.41 52.63 53.38 53.08 54.16 54.53 55.52 58.16 59.90 61.31 61.45 63.80 66.97 67.99 69.25 70.69 73.54 74.82 73.65 73.26 72.90 72.93 74.97 75.24 75.57 75.57 75.52 75.19 75.09 74.15 73.08 73.25 71.87 72.43 73.94 74.02 73.67 73.22 73.00 72.80 72.75 72.30 68.76
50.74 47.17 50.46 51.20 52.74 53.12 51.99 51.81 53.69 52.33 50.93 53.18 53.60 56.25 58.38 59.68 62.15 61.97 64.50 67.86 69.57 70.86 71.85 75.16 75.16 74.75 73.55 72.85 74.46 73.01 73.21 73.81 74.60 75.10 75.10 74.06 72.67 73.12 71.05 72.36 71.29 72.40 73.22 71.07 71.48 71.16 70.39 68.84 69.28
47.98 50.86 51.21 51.61 53.00 52.10 51.34 52.65 51.61 51.98 52.33 54.62 54.83 55.67 56.62 57.46 59.45 60.15 62.06 65.72 68.46 69.55 71.77 72.37 75.98 76.13 75.43 74.41 74.20 73.47 71.87 72.00 71.98 72.56 74.58 73.84 72.98 72.44 71.60 71.94 71.04 71.02 70.48 69.35 69.66 70.11 70.61 71.05 73.93
49.11 50.18 51.51 52.24 52.04 52.24 52.46 50.91 51.00 51.20 53.77 54.37 54.69 55.38 55.21 56.27 58.20 60.37 62.52 63.91 64.79 68.03 71.58 71.33 71.69 74.86 75.46 77.03 74.65 74.18 72.07 71.50 71.43 72.00 73.56 74.16 72.05 73.00 73.65 72.57 72.51 71.42 70.65 70.68 71.01 71.39 72.73 72.68 73.71
51.20 50.73 50.88 51.63 51.39 51.58 50.07 50.20 50.76 51.65 54.00 53.96 54.32 54.28 55.03 55.85 56.94 59.26 62.78 63.20 67.83 69.48 72.03 72.21 69.46 71.09 77.73 75.89 76.98 75.92 73.23 72.79 72.11 72.22 73.22 73.42 73.16 72.24 72.57 73.00 73.76 72.86 72.15 72.06 71.41 71.44 71.76 73.33 73.69
51.28 48.53 49.91 50.34 50.71 50.04 51.28 47.94 48.64 52.33 53.53 53.11 53.72 54.98 55.19 56.39 57.21 58.82 61.33 64.36 66.56 71.30 72.02 72.22 69.78 67.15 73.32 76.69 77.14 77.60 75.87 72.89 71.55 71.89 73.15 73.22 73.61 72.47 71.79 71.53 71.16 71.97 73.28 74.08 73.25 72.48 73.19 72.86 72.51
48.45 48.45 44.18 49.04 50.23 50.62 50.07 44.73 50.24 53.29 52.90 52.17 53.29 53.99 54.85 56.77 57.53 60.29 61.76 65.14 70.14 70.00 69.73 73.78 72.77 74.72 76.83 77.67 77.56 77.13 77.16 76.30 74.69 73.03 73.90 73.64 73.19 74.13 74.01 72.11 71.31 71.66 71.92 71.80 71.40 70.66 70.70 69.72 69.11
47.58 42.86 44.45 46.26 50.60 49.98 49.02 46.18 50.51 52.87 53.21 52.58 53.38 53.85 54.40 55.64 58.73 61.23 62.31 64.86 71.73 70.43 70.76 71.52 73.83 73.63 77.24 77.69 77.58 77.46 77.15 76.69 76.29 75.71 74.18 75.05 74.22 73.75 75.05 72.21 72.98 73.29 71.28 70.41 70.36 70.20 69.48 68.65 68.62
42.85 43.68 44.98 44.93 49.14 49.34 47.71 46.87 49.40 51.37 52.15 52.39 53.07 53.78 54.80 55.42 57.14 60.36 62.26 63.50 66.85 66.92 68.90 69.51 69.97 72.96 78.17 77.86 77.42 77.16 76.68 76.31 76.15 75.65 74.92 73.48 74.65 74.85 73.47 74.79 72.61 75.06 72.24 72.32 72.18 71.36 71.15 69.64 69.51
46.73 45.58 45.01 47.70 49.81 48.25 47.29 47.70 49.30 51.37 51.48 51.65 53.19 54.32 55.56 56.29 58.38 60.92 62.43 64.25 65.99 65.76 66.88 69.67 70.05 71.23 72.95 75.63 74.64 75.21 74.44 75.27 75.11 75.53 75.78 75.36 75.55 75.37 74.72 73.53 73.34 74.38 73.05 72.26 73.11 72.08 70.61 68.69 70.80
47.09 45.19 44.76 47.19 49.03 48.11 47.34 46.94 49.57 50.97 52.07 52.81 53.12 54.39 55.44 56.50 57.50 59.00 61.75 64.32 65.24 66.24 67.79 68.41 69.15 72.77 71.60 70.65 75.22 75.47 75.16 74.21 75.34 75.33 75.23 76.55 75.16 74.93 74.36 73.51 73.16 72.69 73.25 74.21 73.10 71.17 68.80 68.85 69.88
46.33 44.95 44.92 44.67 47.61 48.72 47.49 45.68 47.69 50.58 52.03 53.18 54.10 55.35 55.87 56.29 57.14 59.27 60.56 63.79 64.71 65.78 66.27 67.84 70.21 71.04 73.26 71.60 69.97 71.12 74.19 73.66 72.51 73.08 74.00 74.86 75.70 75.27 74.58 73.97 73.49 73.15 73.15 72.38 72.28 71.93 69.43 67.31 70.21
43.19 48.02 47.03 45.76 44.33 40.14 47.22 39.65 47.08 49.55 50.70 52.37 53.57 54.32 54.89 55.75 57.36 58.55 59.75 62.61 63.09 63.64 65.67 67.90 69.85 71.05 70.06 72.07 70.86 69.97 68.45 69.65 70.78 72.01 72.82 73.66 74.60 74.53 74.85 74.28 74.50 73.79 73.06 72.12 71.86 71.53 70.54 69.08 68.72
45.51 48.23 46.62 46.06 44.18 43.72 43.73 41.16 44.54 48.93 48.09 50.74 53.52 54.88 55.88 56.84 57.71 58.10 58.67 60.81 61.37 63.62 64.78 66.70 68.89 68.86 70.59 71.77 71.61 68.37 67.92 67.50 68.12 69.58 71.06 71.54 74.13 74.33 73.99 74.14 72.78 73.02 72.81 72.73 71.53 70.43 70.50 70.45 70.13
49.27 46.82 46.46 46.10 43.79 38.39 42.42 42.15 42.65 46.51 49.46 52.21 54.40 55.27 55.83 55.90 57.04 57.81 59.03 60.16 60.94 62.09 63.47 65.48 65.87 67.91 69.25 70.28 70.22 69.53 69.10 68.52 67.86 68.53 69.53 70.58 70.10 74.06 74.48 74.22 73.50 71.54 72.70 71.36 71.33 71.59 71.50 71.44 71.28
47.49 44.70 37.91 36.88 37.52 37.17 45.19 43.15 45.81 51.26 52.99 53.31 53.33 54.33 55.93 56.43 56.32 56.53 56.69 56.87 60.15 61.35 63.19 62.52 65.35 64.59 66.53 66.87 67.77 68.33 69.19 69.69 68.65 67.50 67.69 68.40 67.98 68.68 71.44 73.92 73.43 71.07 69.95 71.20 71.02 70.66 70.66 71.77 70.90
45.11 44.56 38.19 31.44 33.94 37.58 45.33 40.15 45.09 52.79 54.15 55.12 55.33 55.24 56.02 55.77 56.00 56.07 56.32 57.20 57.05 59.89 62.07 62.60 62.91 61.85 64.14 63.67 65.15 68.04 69.16 66.42 66.24 67.03 66.85 66.68 66.64 66.93 68.90 68.97 70.16 64.69 63.06 64.49 65.45 65.23 67.38 68.23 69.94
44.61 41.04 46.32 40.25 41.46 37.73 40.94 45.05 49.64 52.20 52.54 53.56 53.68 54.15 54.71 55.85 55.86 55.51 56.28 57.53 58.92 60.06 62.35 63.03 62.73 63.00 62.83 61.79 62.39 65.32 67.16 66.81 66.37 67.57 66.94 66.00 66.61 67.63 68.86 68.30 67.80 63.41 61.23 59.42 58.10 61.92 60.48 60.18 64.67
46.80 48.17 38.64 39.63 33.08 31.74 38.53 41.07 42.51 46.36 49.11 51.80 52.18 52.60 53.91 55.20 54.55 55.23 55.82 57.86 59.01 59.81 62.59 62.10 62.37 61.92 61.98 61.60 61.86 61.57 62.50 62.81 66.14 66.81 66.82 67.11 67.77 67.58 67.03 69.10 69.25 62.71 60.95 60.65 62.09 61.66 61.90 59.73 59.61
44.30 42.57 43.43 42.98 40.05 33.28 32.74 38.38 49.68 48.44 50.23 50.66 52.29 52.89 53.58 53.74 53.99 54.56 54.98 56.56 56.48 56.81 56.66 57.86 60.68 60.36 60.17 60.80 61.58 61.07 60.77 61.48 62.35 63.95 65.01 66.47 67.06 67.85 68.16 69.02 68.92 65.68 63.90 63.63 63.81 61.55 61.79 60.44 56.13
47.19 44.51 44.47 37.74 36.30 39.67 38.40 37.73 50.69 50.46 50.78 51.73 51.79 52.57 53.28 53.72 53.54 53.48 54.17 54.76 54.51 55.15 55.91 56.57 59.66 59.19 58.74 59.28 58.91 61.04 61.40 60.29 60.68 61.31 63.12 65.22 65.29 66.27 67.15 67.73 67.05 65.29 64.26 63.14 65.00 58.81 56.66 58.02 55.84

GFSSGP_sfc_wetblb_111.txt.gz
Wetbulb
63.59 57.83 57.69 54.85 46.70 46.50 45.09 49.54 55.21 55.14 57.45 59.50 59.37 57.37 62.29 64.93 64.02 58.60 70.59 73.96 74.38 75.16 76.72 77.24 77.20 77.37 77.47 77.46 77.06 76.60 76.65 76.65 76.35 76.53 76.48 76.60 76.87 77.18 77.01 76.58 76.06 75.60 74.13 73.48 73.08 73.08 73.26 73.39 73.90
60.17 58.68 55.70 51.09 43.83 40.38 45.54 53.38 54.25 57.82 58.94 59.91 59.72 59.00 64.84 63.72 68.13 68.75 69.79 74.23 74.56 75.21 75.72 76.51 77.32 77.17 77.45 77.49 76.93 76.43 76.55 76.58 76.38 76.30 76.50 76.60 76.67 76.80 76.70 76.36 75.64 75.06 73.23 72.67 72.39 72.66 72.80 73.03 73.19
60.77 58.62 49.75 45.43 43.85 42.80 45.19 54.97 56.18 60.28 61.27 59.89 58.19 60.04 62.85 64.15 67.69 67.36 72.09 73.91 74.56 73.94 75.16 76.98 77.49 77.14 77.29 77.49 76.83 76.35 76.55 76.58 76.53 76.38 76.48 76.67 76.50 76.37 76.19 75.88 75.11 74.57 72.75 71.84 71.40 71.55 72.19 72.38 72.69
55.04 51.39 49.82 42.41 41.92 47.79 51.77 55.30 59.42 60.16 60.69 60.57 59.70 59.34 63.97 70.00 70.20 70.95 73.11 73.93 73.17 72.95 75.56 77.22 77.48 77.24 77.37 77.22 76.89 76.46 76.70 76.75 76.53 76.51 76.48 76.47 76.55 76.08 75.84 75.58 74.66 74.25 73.35 71.67 71.21 71.92 71.46 70.88 70.50
51.96 47.71 41.74 40.62 44.32 50.46 53.68 56.29 59.56 59.08 58.11 59.06 59.11 60.02 62.14 68.96 70.60 72.67 72.81 73.64 72.38 73.34 75.13 76.66 77.37 77.48 77.49 77.57 77.09 76.71 76.58 76.42 76.40 76.48 76.40 76.53 76.19 75.96 75.69 75.11 74.51 74.17 73.58 72.53 71.48 71.86 71.16 70.29 69.98
46.27 47.28 39.30 38.47 43.88 50.73 52.21 53.25 57.32 56.24 57.63 58.38 57.22 61.07 61.72 68.78 69.52 69.55 72.72 72.63 72.95 74.05 74.56 75.78 77.12 77.24 77.34 77.28 77.20 76.67 76.34 76.09 76.10 76.02 76.22 76.19 75.86 75.56 75.37 74.73 74.44 73.93 73.42 73.11 72.48 71.82 70.97 69.90 69.33
46.08 42.61 40.06 42.26 44.50 47.67 50.92 53.20 51.82 52.98 55.68 55.22 57.55 56.48 57.36 64.29 68.82 69.95 70.57 72.92 74.31 74.28 73.55 74.25 75.76 76.79 77.27 76.98 76.78 76.50 76.27 75.98 75.78 75.78 75.65 75.78 75.59 75.31 75.02 74.33 74.31 73.86 73.46 73.01 72.44 71.72 71.17 70.30 69.68
47.55 43.93 40.08 43.28 44.16 45.32 51.45 52.69 52.43 53.08 54.55 58.07 58.40 54.61 52.34 58.41 63.32 69.01 70.22 73.64 73.59 73.62 73.00 72.79 74.08 75.55 75.36 75.87 76.95 76.52 76.22 76.15 75.87 75.78 75.70 75.51 75.31 75.04 74.80 73.62 73.83 73.89 73.49 73.37 72.75 72.08 71.61 70.92 70.43
50.00 39.00 37.56 40.97 43.32 46.08 50.03 49.01 52.13 56.41 55.25 56.06 55.59 56.82 58.79 60.19 62.44 61.33 66.00 70.63 73.00 73.51 72.06 71.97 72.16 72.67 73.58 74.57 76.16 76.53 76.74 76.35 76.05 75.93 75.75 74.37 72.88 73.09 73.49 73.07 73.93 74.09 73.71 73.34 72.92 72.47 71.51 71.12 71.02
44.09 40.67 42.17 47.29 47.91 46.23 48.40 47.76 49.12 51.14 51.89 52.92 54.11 57.09 59.07 58.92 57.13 58.98 61.48 65.25 69.64 71.53 71.28 71.17 71.26 71.25 71.10 74.50 74.30 74.28 75.26 75.16 74.65 74.57 74.35 72.78 71.47 71.73 72.42 72.31 73.81 74.01 73.74 73.46 73.14 72.64 72.20 71.86 67.76
44.96 42.23 46.90 48.80 49.61 49.81 47.25 47.66 49.57 49.73 47.80 52.16 51.34 54.43 54.28 55.08 56.01 57.09 59.23 63.17 68.33 71.89 71.45 70.61 70.86 70.93 70.25 70.38 73.79 73.62 73.41 73.70 73.71 73.50 73.37 71.68 71.09 71.47 71.09 68.84 71.12 70.68 73.01 70.26 70.98 70.26 69.72 68.06 67.35
41.70 47.03 48.29 49.10 50.31 47.30 47.87 50.52 48.79 48.04 49.08 52.82 53.10 53.74 53.80 52.86 53.09 53.88 56.41 58.66 64.15 68.46 71.73 70.98 71.16 70.69 69.79 70.53 72.40 71.58 71.90 72.64 73.04 73.10 73.06 71.98 70.02 67.99 69.01 69.04 68.91 69.47 69.53 68.16 66.72 67.32 67.49 66.77 66.86
43.83 45.86 48.82 50.03 49.33 47.20 49.37 48.03 48.69 47.87 51.90 52.45 52.05 52.82 51.56 51.13 52.27 53.47 54.77 58.32 62.33 68.26 70.94 72.68 72.22 71.15 70.96 72.28 71.75 70.82 70.31 71.11 70.88 71.36 72.19 72.09 69.82 68.78 67.72 68.79 67.87 68.63 68.34 67.69 65.96 66.10 67.02 67.91 68.18
46.11 47.05 47.30 47.94 48.12 47.50 46.59 47.56 47.46 48.73 51.57 51.70 51.97 51.10 51.12 51.77 52.35 52.70 53.98 55.80 59.66 67.55 70.42 71.47 69.62 69.51 70.48 71.48 72.03 71.32 69.93 69.87 69.47 70.03 70.59 71.46 70.38 68.84 68.96 68.52 68.75 68.87 68.61 68.11 66.30 67.10 67.69 69.02 69.77
47.22 43.62 45.97 46.74 46.39 46.21 48.12 45.35 46.37 49.83 50.78 49.67 50.39 51.55 51.79 52.05 52.95 53.14 54.35 55.76 57.78 65.93 69.92 68.94 65.15 64.45 65.29 72.20 72.14 73.88 71.05 69.79 69.18 69.33 69.57 71.31 71.28 68.83 69.40 68.79 69.28 69.10 69.20 68.11 68.59 68.55 67.80 67.84 69.88
43.72 42.06 36.90 43.87 47.30 47.92 46.06 40.48 47.58 49.90 49.63 49.01 50.49 51.18 52.23 51.73 52.54 53.06 54.87 55.93 58.70 67.01 68.19 67.77 68.14 66.69 66.10 72.80 72.75 73.71 73.86 70.36 69.04 68.86 69.84 71.30 71.17 70.59 69.38 69.23 68.73 68.56 68.50 68.81 68.62 67.95 67.31 68.50 68.17
40.24 35.98 39.11 42.53 47.35 47.10 46.12 42.09 47.61 50.11 48.95 49.21 49.76 50.54 51.57 51.30 52.51 53.86 55.68 56.16 57.10 59.81 64.23 66.22 66.17 66.98 65.88 69.13 73.82 73.85 73.51 73.02 71.29 70.41 70.13 71.34 71.16 71.47 70.44 69.94 69.42 68.35 68.60 67.38 66.74 66.11 65.78 64.94 64.49
37.18 37.85 40.61 41.45 45.62 45.62 44.28 43.97 46.30 47.98 47.66 48.72 49.24 50.07 50.93 51.21 51.64 54.39 54.50 55.23 58.32 59.68 59.87 60.57 61.33 63.65 69.42 73.08 73.43 73.98 73.27 72.93 73.22 72.13 71.35 71.66 71.37 71.04 71.24 70.84 69.61 69.97 68.88 68.11 66.91 65.55 66.07 64.86 64.90
42.97 41.74 40.77 43.29 46.18 43.68 41.72 43.14 44.94 47.13 45.82 46.55 47.71 49.03 49.38 50.36 52.60 53.65 56.52 55.57 57.33 57.35 57.26 58.02 58.92 59.65 64.10 64.20 70.98 71.32 71.86 71.97 72.79 73.25 72.99 71.55 71.80 71.60 70.49 70.82 71.14 69.73 69.39 68.82 68.50 66.95 65.71 66.06 65.64
43.49 41.08 40.39 43.86 46.48 43.98 42.34 42.49 45.28 46.77 46.26 46.85 47.87 48.45 49.17 50.41 52.12 53.49 54.49 55.15 56.67 57.21 57.46 58.85 59.87 62.44 61.19 63.69 64.17 69.73 70.44 71.21 72.67 72.85 73.53 73.22 70.41 72.00 71.70 70.41 69.95 71.31 70.55 69.61 68.21 68.63 66.58 66.85 66.28
42.48 40.66 41.22 41.24 44.86 44.93 42.69 40.57 43.06 46.90 47.53 48.60 49.13 49.09 50.19 50.80 51.25 52.54 53.55 54.59 55.89 57.03 58.52 58.90 59.73 60.24 64.91 62.54 61.78 62.55 63.51 67.62 68.83 70.00 71.49 72.10 71.71 71.40 70.38 71.16 71.28 70.20 70.64 70.13 69.99 69.99 67.33 66.76 65.29
39.27 45.06 44.58 43.80 40.67 35.45 42.00 34.03 39.72 44.55 45.69 47.95 49.12 48.75 48.61 50.69 51.69 52.55 53.54 53.72 54.97 55.87 57.57 59.08 59.79 61.07 61.85 62.65 63.89 62.40 62.17 62.47 64.05 65.00 67.87 71.00 69.68 66.63 67.15 63.82 70.72 69.69 69.79 69.10 69.77 71.04 68.52 65.02 64.77
42.16 46.38 43.97 43.40 39.22 35.15 38.31 33.34 37.06 43.67 43.67 45.73 47.14 49.81 50.05 49.90 50.45 53.65 53.64 54.35 54.70 55.32 57.56 57.52 58.56 59.65 61.73 62.03 61.45 61.09 61.05 61.90 63.82 65.15 64.77 66.27 68.31 63.86 63.67 63.93 70.29 62.09 63.17 70.24 70.00 69.79 69.74 67.30 66.39
47.83 43.78 42.41 40.53 36.53 31.78 36.34 36.11 36.60 40.85 43.94 46.39 51.37 51.53 52.08 53.26 52.96 52.81 53.28 53.56 53.72 54.65 55.93 55.61 57.30 56.62 58.10 59.76 61.10 62.32 61.31 61.18 61.87 62.43 63.79 64.36 65.27 66.46 69.80 70.42 65.94 62.83 66.99 70.59 68.24 65.57 66.18 68.08 68.08
43.96 37.82 30.51 27.96 28.60 29.77 39.59 38.07 38.08 45.70 49.02 51.30 50.16 50.44 51.08 51.59 51.06 51.02 50.99 51.46 52.01 52.93 53.52 54.98 55.55 54.78 57.66 57.42 57.68 58.92 60.49 62.61 62.67 62.38 62.30 61.67 62.62 62.98 63.62 66.64 68.46 68.97 65.71 63.07 61.52 58.62 61.18 64.78 64.28
42.54 38.77 32.46 25.97 26.82 31.49 40.88 33.63 39.56 48.32 51.78 50.97 51.88 50.96 51.45 51.24 50.82 50.74 51.01 51.17 51.25 52.76 53.37 54.16 53.89 53.63 55.68 55.82 55.67 56.40 58.85 60.59 60.70 61.34 61.35 62.09 62.69 63.23 63.96 64.38 65.51 66.38 65.56 65.08 64.42 59.86 59.48 60.05 61.35
42.54 37.74 42.90 35.10 36.31 31.24 35.35 40.36 45.30 48.48 49.22 50.60 51.63 52.16 51.35 50.90 49.99 50.41 51.38 51.38 51.39 51.97 52.85 53.78 53.46 53.68 54.92 54.85 53.96 55.64 56.27 56.61 57.46 60.32 62.33 63.77 63.08 64.64 64.81 63.59 62.83 64.56 65.05 63.89 64.18 61.28 59.93 61.00 59.89
44.75 46.29 36.59 37.35 30.68 27.00 33.55 36.48 37.84 44.32 46.33 49.30 49.51 49.97 51.10 50.27 50.44 50.10 50.27 51.31 51.90 50.93 51.32 52.94 53.47 54.13 54.44 54.28 53.73 55.49 54.07 55.68 56.33 57.53 57.96 59.56 61.99 63.40 64.15 64.76 64.48 63.80 61.81 61.95 61.38 60.13 59.24 59.16 58.24
39.82 37.70 40.21 39.43 36.30 31.23 26.16 31.57 45.23 44.45 46.64 46.70 48.30 49.74 50.35 49.58 50.22 50.65 50.29 49.96 49.28 49.29 49.67 49.92 51.20 52.91 53.15 54.23 54.04 53.96 53.42 54.66 54.54 55.67 57.20 58.55 60.09 60.38 61.65 63.26 64.77 64.92 60.30 58.82 57.11 56.41 58.59 58.76 58.06
42.62 39.66 40.81 34.74 34.55 35.82 35.15 34.03 47.27 46.56 46.27 47.19 47.90 49.14 50.68 50.35 49.49 49.65 49.56 50.27 49.98 48.70 49.61 50.07 51.04 51.99 52.69 52.72 51.81 51.53 54.82 54.35 53.75 54.25 56.12 56.90 57.95 59.09 58.36 57.94 59.57 60.58 62.27 61.53 59.71 58.21 60.12 60.59 57.95

GFSSGP_sfc_wetblb_114.txt.gz
Wetbulb
63.01 57.12 54.97 53.33 45.43 44.02 41.37 46.73 52.13 54.59 55.60 57.41 58.53 63.63 62.56 63.67 62.06 57.03 69.14 72.91 75.41 75.46 76.24 76.62 77.14 77.15 77.07 76.77 76.69 76.55 76.28 76.13 76.16 76.38 76.68 76.82 76.73 76.71 76.44 76.24 76.02 75.44 74.37 73.51 73.16 73.10 73.45 73.68 73.86
61.27 57.65 54.22 49.05 42.40 38.56 41.65 49.69 53.50 56.73 58.47 59.03 62.88 64.30 63.95 62.54 67.55 69.04 70.38 74.05 75.35 75.75 75.82 75.60 76.87 76.97 77.00 76.67 76.46 76.33 76.20 76.10 76.18 76.28 76.47 76.70 76.65 76.58 76.09 75.89 75.34 74.01 73.25 72.95 72.81 72.91 72.99 73.30 73.50
56.38 57.21 48.77 43.94 40.15 39.45 42.17 50.21 52.85 58.12 59.87 58.33 57.01 62.98 63.51 63.34 69.09 69.06 72.27 74.11 75.29 75.28 75.63 75.70 76.94 76.87 77.10 76.74 76.26 76.35 76.33 76.08 76.10 76.26 76.28 76.50 76.42 76.19 75.85 75.41 74.87 73.67 72.44 72.26 72.28 72.50 72.84 73.00 73.06
53.15 49.47 47.66 40.97 40.02 44.81 49.29 51.01 53.54 58.01 59.97 58.80 60.26 60.24 65.48 69.45 68.68 71.06 73.71 74.22 73.84 74.64 75.70 76.93 76.79 76.74 76.84 76.94 76.36 76.23 76.37 76.18 76.16 76.23 76.30 76.32 76.07 75.99 75.49 75.11 74.44 74.02 72.74 71.62 71.29 71.70 71.94 71.98 71.77
49.76 45.17 39.81 38.31 41.88 46.25 49.59 52.45 52.08 56.24 56.25 56.65 58.33 59.88 62.82 69.05 71.67 73.18 72.88 72.96 72.83 74.33 75.86 76.38 77.03 76.91 77.00 77.00 76.44 76.28 76.28 76.00 75.90 76.03 76.23 76.17 75.86 75.69 75.37 74.74 74.42 73.96 73.21 72.28 71.50 71.93 71.57 71.12 70.57
45.25 44.14 37.76 36.61 42.26 48.23 48.67 50.61 51.03 54.66 56.65 55.71 58.95 60.47 60.92 70.61 70.65 71.69 72.48 71.81 73.91 73.74 75.33 76.01 77.05 76.93 76.58 76.72 76.41 76.18 76.02 75.86 75.85 75.75 75.85 75.94 75.61 75.52 75.22 74.51 74.22 74.07 73.51 72.96 72.37 72.14 71.47 70.38 69.82
43.90 39.77 38.05 39.34 42.01 44.47 47.85 51.42 49.89 51.79 53.00 53.59 58.26 55.31 57.95 64.50 70.96 71.90 71.88 71.97 73.66 73.89 74.16 75.14 76.00 76.72 77.11 76.70 76.21 76.04 75.87 75.73 75.53 75.48 75.58 75.51 75.34 75.24 74.87 74.29 74.17 73.85 73.37 73.00 72.65 72.20 71.64 70.72 70.02
47.20 43.21 37.11 39.68 40.62 43.23 48.14 48.55 48.45 49.44 52.87 56.71 58.46 54.23 53.93 57.99 68.81 71.40 71.45 72.18 73.02 72.98 73.05 74.20 75.01 75.84 75.57 75.78 76.48 76.26 75.85 75.78 75.55 75.43 75.38 75.21 75.24 74.99 74.85 73.57 73.89 73.87 73.40 73.08 72.70 72.26 71.74 70.90 70.31
48.63 37.88 36.73 40.13 41.70 44.42 48.48 45.52 49.09 52.81 53.12 53.87 55.19 56.77 58.05 60.31 66.05 69.96 70.49 71.09 71.68 72.01 71.92 73.22 74.19 74.73 75.08 74.98 75.94 76.31 76.47 76.04 75.58 75.44 75.33 74.19 73.13 72.95 72.93 72.94 73.21 73.82 73.55 73.20 72.90 72.28 71.62 71.25 70.90
42.12 37.67 40.70 45.54 46.51 45.58 47.63 47.32 48.46 49.61 49.81 51.10 52.87 56.70 57.75 57.24 56.49 66.29 68.01 69.23 70.19 70.39 70.41 71.94 72.89 73.37 73.83 75.32 74.85 75.13 75.23 75.17 74.67 74.18 74.00 72.79 71.62 71.73 72.10 72.54 73.56 73.99 73.74 73.24 73.14 72.60 72.08 71.47 66.74
40.86 39.47 44.26 46.87 48.56 47.92 46.69 46.49 48.20 47.44 45.82 49.16 50.50 53.36 53.59 53.36 53.15 54.05 59.19 69.36 70.50 71.27 70.82 71.00 71.62 72.29 72.47 73.07 73.51 74.20 74.30 74.33 73.97 73.74 73.42 71.75 71.27 70.96 71.35 69.93 70.64 70.44 72.73 69.97 70.90 70.01 69.52 67.71 66.89
38.05 44.53 45.71 47.32 48.92 47.20 46.22 48.67 48.27 47.54 48.51 52.37 51.43 52.78 51.96 51.09 50.64 50.89 53.82 60.52 69.30 70.54 70.35 70.81 70.92 70.85 71.07 72.48 73.05 73.22 73.63 73.43 73.30 73.19 73.01 71.68 70.27 69.41 69.78 68.95 67.61 68.69 68.51 68.17 67.40 67.29 67.23 67.09 66.82
39.69 43.56 46.18 47.89 48.04 46.68 47.31 46.73 47.89 47.73 50.75 51.61 51.65 51.64 50.50 49.15 50.48 50.64 53.62 62.24 67.01 69.31 69.42 69.42 70.01 69.86 69.96 70.11 71.82 71.87 72.35 72.93 72.88 72.80 72.87 72.35 70.55 68.63 68.90 68.03 67.63 68.10 67.55 67.78 65.88 65.08 65.04 65.32 65.34
43.60 43.67 44.95 46.08 46.41 45.17 45.19 46.28 46.70 48.71 50.41 50.47 50.66 50.58 50.15 49.72 50.93 50.25 51.96 58.47 66.65 69.37 68.97 70.33 69.72 69.60 69.25 69.06 70.66 70.09 70.68 71.70 72.02 72.31 72.54 72.55 71.37 69.87 67.92 67.77 67.79 67.18 67.50 67.54 66.35 64.69 64.09 64.33 65.66
43.92 40.90 43.54 44.51 45.00 44.56 46.85 44.17 44.85 49.23 50.02 48.49 48.49 48.97 50.50 50.71 51.79 51.00 51.69 53.56 64.00 69.14 70.35 70.51 69.97 70.66 69.99 69.38 69.87 70.07 69.12 69.48 69.53 70.21 71.24 72.22 71.59 69.67 68.94 67.62 67.54 67.00 67.14 66.62 66.00 63.83 63.98 64.62 66.99
41.68 39.46 35.77 42.37 45.56 46.38 44.87 39.81 46.18 49.03 48.30 47.96 48.51 48.77 49.98 50.19 51.19 51.53 52.23 51.67 60.12 66.84 69.55 69.99 70.80 67.12 64.24 70.51 71.31 71.59 69.99 68.67 68.75 68.50 68.77 69.90 71.40 70.95 68.00 67.95 67.84 67.87 67.07 66.54 65.59 64.99 64.75 64.93 65.20
37.80 33.86 36.92 41.42 44.37 44.08 43.31 40.61 45.97 47.99 47.56 47.12 47.59 48.42 49.26 49.68 50.26 51.61 52.68 53.88 63.52 65.96 67.48 66.64 65.41 65.37 64.71 64.50 70.06 71.33 72.28 69.50 68.70 66.86 67.70 68.31 69.65 70.80 69.72 67.99 68.48 67.02 67.55 66.87 66.36 65.64 64.76 64.00 65.08
34.76 34.88 38.24 38.82 42.98 42.69 41.49 41.38 45.76 46.74 46.38 45.77 47.50 47.79 48.69 49.64 50.20 51.24 53.04 54.98 59.11 64.92 66.17 65.87 64.59 64.71 66.62 64.69 68.30 71.65 71.77 71.97 71.81 69.51 68.10 68.03 68.69 69.60 70.00 69.87 68.16 67.31 66.76 65.89 65.55 65.26 64.86 64.77 65.08
40.38 38.38 38.01 41.50 44.52 41.65 39.96 40.97 42.85 44.92 43.38 43.30 45.66 46.15 47.54 49.02 51.25 51.66 53.25 53.79 56.76 61.63 65.16 64.77 61.62 62.21 62.05 62.64 69.61 69.88 70.62 70.70 71.22 71.47 72.11 70.23 69.38 69.42 68.90 69.69 68.97 67.78 68.02 67.86 66.03 65.40 64.83 65.10 64.05
40.94 38.53 38.07 40.81 44.36 42.21 40.73 40.94 43.21 44.49 43.97 45.19 46.02 46.49 47.35 47.52 48.94 50.89 51.66 52.73 56.05 56.59 59.38 57.68 57.71 60.04 59.67 58.17 62.12 68.88 69.11 68.86 70.35 71.23 71.19 70.77 70.70 70.44 69.40 68.61 68.69 69.43 68.27 67.76 66.91 66.20 66.18 65.16 64.60
40.77 38.69 38.92 39.57 43.08 42.33 40.64 38.17 40.63 44.11 45.81 46.78 46.66 46.92 47.40 48.08 48.74 49.55 50.56 51.04 53.86 54.18 55.10 56.11 57.55 58.36 59.13 59.87 60.52 61.01 61.28 62.40 64.88 65.02 67.25 68.99 70.42 70.77 69.62 68.95 68.15 68.08 68.66 68.24 68.59 68.11 66.46 65.93 64.57
39.23 43.90 43.00 41.65 38.58 33.18 40.11 30.18 36.91 41.17 42.63 45.06 46.16 45.63 46.26 47.57 49.53 50.03 51.45 52.72 55.03 55.17 56.65 58.20 59.56 59.24 60.70 62.51 61.31 59.99 58.97 58.19 60.08 60.97 63.43 64.31 66.42 69.39 70.23 69.56 68.23 65.46 63.96 65.13 68.36 69.23 68.85 68.33 66.55
40.59 44.50 42.34 41.90 36.84 33.31 35.67 31.11 35.53 39.96 40.94 42.60 44.65 46.75 48.78 49.32 48.33 50.90 51.60 53.00 53.96 55.21 54.66 56.14 57.96 59.40 59.87 59.84 59.01 58.42 57.77 58.51 59.92 60.27 59.89 61.32 64.36 67.20 66.46 67.63 64.33 63.49 64.47 65.66 65.95 66.15 67.62 67.80 66.80
45.89 41.90 39.59 36.90 34.08 28.17 33.92 32.75 32.39 37.18 39.82 42.79 46.29 49.04 49.49 48.00 50.38 50.51 50.80 52.98 53.32 53.27 54.35 53.81 54.68 54.95 56.74 57.35 57.23 57.58 58.09 58.82 59.56 60.11 60.46 59.99 59.58 62.03 66.39 65.79 62.78 62.60 62.55 62.37 63.28 64.39 65.17 66.71 66.07
42.66 35.72 28.91 26.94 27.30 27.47 37.75 35.16 34.67 41.34 47.48 47.88 47.57 47.63 48.66 48.05 48.02 48.77 49.22 49.81 51.26 51.53 52.96 53.24 53.09 54.37 54.49 54.99 55.05 54.38 55.24 57.76 58.23 58.07 58.64 59.10 59.24 59.61 60.65 62.75 64.93 64.46 65.32 64.84 63.73 63.52 64.52 65.25 63.65
39.64 36.01 28.91 23.86 24.74 28.79 38.55 31.94 37.86 46.74 48.97 50.09 50.53 48.14 48.96 48.25 47.71 48.18 48.30 49.18 50.48 51.16 51.68 52.72 51.88 53.20 53.31 53.68 53.41 53.61 56.49 56.57 55.94 56.32 57.31 58.45 59.60 61.18 60.88 61.44 63.15 64.18 65.71 66.08 65.97 64.38 63.72 64.30 63.26
40.66 37.05 39.38 32.69 33.53 28.90 32.68 37.36 42.65 47.09 47.83 48.90 48.66 48.38 46.95 47.82 48.23 48.34 49.47 49.42 49.69 50.32 50.67 51.17 51.00 50.89 52.81 52.91 52.69 53.13 53.89 53.23 53.90 54.69 55.66 56.57 57.48 60.56 61.37 62.17 62.16 62.52 63.54 64.39 65.10 64.00 62.34 62.61 60.43
41.33 43.95 33.91 32.63 24.66 24.01 30.95 33.38 35.47 42.80 44.37 47.52 47.69 47.29 47.09 47.34 48.19 49.46 49.75 49.96 48.66 48.13 48.89 49.60 50.87 51.35 53.17 52.55 51.92 52.36 52.76 52.35 53.14 53.32 53.92 54.61 55.90 57.60 57.98 59.27 60.73 61.69 63.09 63.27 63.04 63.42 63.01 58.20 58.42
36.91 34.88 37.06 36.91 36.81 30.28 26.93 30.27 41.35 41.97 44.21 45.33 47.13 48.10 48.88 48.99 48.69 48.15 48.60 49.89 49.41 49.14 49.05 49.48 49.72 51.24 51.57 51.99 51.67 51.77 52.56 52.36 52.56 51.89 52.75 54.12 55.67 55.94 57.24 57.99 57.92 58.26 58.60 61.08 59.27 59.89 61.18 57.74 56.80
39.03 36.51 37.66 32.35 32.88 36.42 35.38 33.33 43.26 44.30 44.75 46.09 45.76 48.09 49.64 50.29 51.08 50.54 50.36 49.45 50.66 50.47 49.26 47.51 47.48 49.80 50.74 51.52 51.93 51.24 51.46 52.38 51.89 52.05 52.81 53.47 53.79 54.59 56.22 57.17 57.05 57.73 58.38 57.96 58.83 58.28 58.72 58.07 57.16

GFSSGP_sfc_wetblb_117.txt.gz
Wetbulb
62.37 57.94 53.75 52.18 45.18 42.95 39.58 45.65 50.62 51.68 55.25 57.19 58.61 62.37 62.20 61.80 60.66 55.00 68.83 72.61 74.48 74.24 75.45 76.39 76.79 76.73 76.75 76.52 76.31 75.92 75.92 76.02 75.97 75.95 75.85 75.94 76.12 76.10 76.03 76.22 76.20 75.38 74.73 73.72 72.94 73.08 73.42 73.62 73.77
60.24 56.34 52.64 47.50 41.18 37.37 40.84 47.24 48.81 51.50 57.10 60.01 63.71 63.54 63.06 61.29 67.64 68.01 69.10 74.32 74.43 74.66 75.04 75.56 76.89 76.60 76.53 76.27 76.11 75.71 75.87 75.82 75.96 76.14 76.14 76.09 76.19 76.00 75.40 75.52 75.46 74.44 73.67 73.32 72.83 73.09 73.43 73.50 73.60
54.10 55.28 47.24 42.92 38.33 38.49 41.32 47.01 50.97 53.80 54.62 57.98 57.66 62.24 63.45 63.92 68.85 68.84 71.93 74.64 75.04 74.46 74.62 75.55 76.94 76.39 76.37 76.05 76.16 75.76 75.81 75.61 75.89 76.04 76.14 75.94 76.01 76.06 75.56 75.30 74.95 73.64 73.04 72.89 72.81 73.01 73.21 73.27 73.30
50.83 48.69 46.06 40.44 38.62 43.25 45.72 48.26 49.61 50.66 55.60 57.70 61.14 60.41 65.04 68.95 69.18 71.48 73.97 74.80 74.18 73.97 74.35 76.21 76.66 76.39 76.30 76.15 76.04 75.73 75.66 75.61 75.82 75.75 75.82 75.79 75.62 75.68 75.28 74.87 74.43 73.79 72.72 72.50 72.46 72.57 72.82 73.13 73.24
48.02 44.14 39.19 36.46 39.81 44.87 48.60 49.20 49.06 48.92 54.76 54.66 59.82 59.82 62.26 69.11 72.23 72.75 73.13 74.04 73.27 73.88 74.40 75.56 76.43 76.59 76.40 76.25 76.04 75.96 75.66 75.48 75.69 75.77 75.52 75.59 75.63 75.42 74.93 74.70 74.13 73.66 73.41 72.75 72.18 72.52 72.96 72.96 72.34
43.99 42.71 36.99 35.81 41.04 46.96 48.09 49.07 48.21 47.90 52.79 60.44 61.04 60.02 60.63 70.02 70.91 71.67 72.53 72.44 73.88 74.02 74.71 74.79 76.34 76.46 76.36 76.17 76.04 75.88 75.60 75.33 75.48 75.56 75.56 75.73 75.42 75.17 74.96 74.50 74.41 74.05 73.65 72.99 72.47 72.22 71.69 70.94 70.57
42.25 39.37 37.62 38.86 42.55 43.52 47.36 48.92 47.06 47.72 48.15 52.32 60.28 58.60 60.40 67.47 70.32 71.35 71.17 72.26 73.28 74.26 74.47 74.63 74.88 75.74 76.49 75.93 75.58 75.64 75.41 75.22 75.27 75.20 75.32 75.39 75.25 75.07 74.98 74.39 74.18 74.01 73.48 73.19 72.76 72.34 71.60 70.70 70.30
45.84 40.70 36.05 39.26 40.92 42.58 48.29 46.12 45.19 45.77 48.44 55.57 60.60 55.74 56.64 63.18 70.36 70.56 70.02 71.26 71.47 73.17 73.69 74.04 74.77 75.11 74.57 74.71 76.01 75.75 75.56 75.39 75.06 75.12 75.06 74.99 75.00 74.97 74.78 73.94 73.79 73.98 73.66 73.14 72.76 72.27 71.58 71.18 70.42
47.79 37.44 36.06 39.44 40.82 43.24 45.32 44.83 47.82 50.10 50.59 52.41 54.21 57.48 59.45 67.50 69.55 68.62 69.30 70.46 70.74 71.49 72.19 73.25 73.84 74.45 74.29 74.22 74.97 75.74 75.89 75.78 75.39 75.32 75.09 74.02 72.40 72.51 72.83 73.24 72.92 73.92 73.60 73.28 73.06 72.34 71.80 71.26 71.11
42.66 36.14 39.87 44.71 45.61 44.98 45.77 44.08 45.66 47.92 48.96 50.32 52.69 54.35 58.63 68.30 68.36 67.97 68.42 68.48 69.47 69.88 70.80 72.40 73.16 73.54 73.91 74.62 74.19 74.53 74.32 74.44 73.84 73.55 73.07 72.16 71.03 70.87 72.16 72.59 73.28 73.51 73.75 73.43 73.25 72.76 72.19 71.53 67.38
42.36 39.75 44.07 46.13 47.49 47.04 44.60 45.74 46.59 46.45 44.41 47.95 49.53 51.46 52.11 56.05 62.99 67.26 68.19 69.08 69.34 70.44 70.43 71.56 72.36 72.85 73.00 73.61 74.09 73.86 73.92 74.17 73.95 73.08 72.54 71.12 71.04 70.26 71.21 70.15 70.66 70.55 72.49 70.30 70.96 70.10 69.35 67.68 66.67
38.58 43.33 45.02 46.27 47.71 46.76 46.41 47.92 47.06 45.79 47.29 50.66 50.39 52.05 50.90 50.86 53.71 60.44 65.07 67.09 68.95 69.48 69.64 70.44 71.56 71.73 72.19 73.00 72.86 72.61 72.75 72.95 72.83 73.15 72.36 71.13 69.54 68.75 69.07 68.98 67.96 67.87 68.46 68.28 67.51 67.01 66.80 66.77 66.82
37.91 42.44 44.70 46.15 45.98 45.18 46.45 45.00 45.94 46.03 49.53 50.53 50.22 50.56 49.19 48.93 49.91 52.49 56.54 60.97 68.50 69.18 69.31 69.61 70.58 70.67 71.17 70.52 71.97 71.97 72.53 72.48 72.61 72.64 72.62 71.92 70.24 68.89 69.18 68.28 67.31 67.26 67.76 67.24 66.36 65.86 65.63 64.75 64.54
42.16 42.58 43.96 44.29 44.29 43.41 43.71 45.18 45.09 47.76 50.17 49.90 49.28 49.02 48.49 48.47 49.37 48.48 53.50 60.94 65.10 69.66 69.30 69.39 69.52 69.79 69.30 69.31 70.38 70.46 71.53 72.03 72.27 72.14 72.28 71.99 70.91 69.75 68.48 68.35 67.84 67.39 66.97 66.64 66.10 64.68 63.67 62.80 62.46
42.64 39.37 41.98 43.25 44.66 43.75 44.73 42.63 43.49 48.50 49.28 48.18 47.76 47.61 48.55 49.47 49.46 50.11 49.72 56.98 65.14 67.59 68.66 68.46 69.17 69.51 68.18 68.21 69.59 69.53 70.40 70.87 71.36 71.68 71.86 72.17 71.63 70.04 68.87 67.29 67.02 67.05 65.77 65.70 65.48 64.54 62.81 62.52 63.36
40.00 38.82 34.92 41.70 44.20 45.27 44.80 39.44 45.63 47.89 47.17 46.48 47.38 47.68 47.82 48.45 50.06 50.18 50.33 51.48 62.66 67.01 67.69 68.68 69.83 68.73 67.05 68.24 69.06 69.17 69.07 68.44 69.57 69.45 69.84 71.10 71.54 70.81 68.21 67.13 66.70 66.50 65.19 65.23 64.74 63.86 62.96 62.90 62.81
37.42 33.84 35.73 40.45 43.63 43.42 41.46 38.86 44.94 46.87 46.33 45.83 46.40 46.74 47.38 47.71 48.95 49.95 50.71 49.63 55.00 66.49 67.66 68.20 67.97 67.38 66.15 69.37 70.53 69.91 68.76 67.38 68.14 66.97 66.66 67.67 69.36 70.87 69.39 68.26 67.87 66.35 65.95 65.86 65.62 64.21 64.52 63.52 64.12
35.20 34.82 36.84 37.62 41.42 41.78 40.23 40.02 43.12 45.46 44.85 45.01 45.72 45.95 46.71 47.59 48.47 50.36 51.38 52.19 55.23 64.30 67.80 67.39 65.93 64.96 65.10 64.42 64.84 68.89 70.69 70.89 68.59 66.64 66.64 67.01 67.31 68.77 69.31 69.46 67.15 66.46 65.97 66.75 65.58 65.54 65.08 65.17 65.41
39.53 37.44 37.06 39.98 42.90 40.11 39.53 39.25 42.25 44.32 42.67 42.30 43.07 44.73 45.93 46.54 49.37 49.61 50.16 52.39 58.99 62.81 65.12 65.88 64.33 64.13 64.83 64.70 63.86 65.40 67.33 69.00 70.40 70.49 69.75 67.85 68.16 68.62 68.71 68.75 68.42 66.61 66.14 66.70 65.92 65.79 65.17 65.39 63.53
39.29 36.61 36.63 39.86 42.30 39.92 39.46 39.66 41.85 43.19 43.30 42.47 42.94 43.99 45.36 45.42 47.56 49.18 49.44 50.62 55.86 61.58 64.20 63.90 64.02 61.92 61.56 60.62 67.04 68.46 68.41 68.48 68.63 68.55 68.56 70.12 70.00 68.77 68.96 68.54 68.61 68.63 67.35 66.79 66.44 64.97 64.71 64.77 64.29
38.56 36.29 36.90 37.85 41.50 40.62 38.90 36.66 39.20 42.96 43.91 44.85 44.95 44.81 45.36 46.03 46.34 47.56 48.29 49.68 53.24 57.54 59.69 61.20 59.63 60.25 59.07 57.01 59.79 60.37 60.56 60.79 61.81 62.16 63.36 64.79 65.78 67.79 68.86 69.04 68.55 68.34 68.73 66.92 65.82 65.61 65.31 64.81 64.95
35.55 41.90 42.23 40.13 36.97 31.84 38.15 29.00 35.58 39.45 41.41 43.00 44.15 44.03 44.51 45.14 46.59 47.91 47.51 48.56 52.30 53.00 54.16 55.98 56.99 57.10 57.99 58.10 58.24 57.19 55.66 55.55 58.45 58.96 61.11 61.91 64.67 65.63 66.61 68.10 67.85 67.53 66.51 65.14 66.84 66.07 63.50 64.22 64.92
39.04 42.80 40.98 40.15 35.75 32.35 33.69 30.14 33.87 37.75 39.43 40.62 44.07 45.22 46.22 48.29 47.98 46.67 47.43 50.37 51.64 54.14 54.88 56.18 56.48 58.40 59.53 58.68 57.50 56.85 56.35 57.06 58.16 58.66 58.05 59.17 61.05 64.51 65.43 64.50 64.91 65.25 64.57 64.00 64.09 64.43 65.21 66.86 64.65
45.05 39.98 37.52 34.66 32.17 27.18 32.21 31.94 30.42 35.74 37.97 43.76 46.75 46.80 47.32 46.64 47.40 48.63 50.62 52.70 52.36 53.05 53.62 54.54 55.71 55.40 56.92 57.06 56.84 56.82 56.40 57.25 57.89 58.00 57.80 57.69 58.20 59.33 61.46 63.17 63.60 62.04 61.37 60.97 62.87 63.41 61.89 62.73 63.59
40.24 33.34 26.94 25.65 25.55 26.22 35.23 32.38 33.92 40.04 45.70 46.10 45.21 45.69 46.34 47.01 48.21 49.62 49.94 50.47 51.18 51.01 51.84 53.07 54.03 53.15 53.41 54.05 53.56 53.54 54.24 56.45 57.39 56.47 56.16 55.67 56.76 57.84 59.30 60.61 61.33 61.94 62.21 61.61 61.65 60.98 60.92 61.66 62.78
37.29 34.30 27.83 23.25 23.59 27.09 35.93 30.21 35.75 45.18 47.18 46.66 47.04 45.78 46.52 45.96 45.45 46.44 47.52 48.85 49.74 50.47 50.81 51.10 52.17 52.23 51.98 52.66 52.37 52.49 54.58 54.73 54.25 55.01 55.35 55.97 56.23 57.61 59.00 59.79 60.15 61.11 62.59 63.04 62.80 63.42 63.42 62.44 62.51
39.52 34.78 36.65 31.46 31.37 28.57 31.11 35.66 41.02 45.17 45.81 47.00 47.23 47.06 46.24 45.77 45.70 46.50 47.42 47.33 48.58 49.26 50.13 50.27 49.98 50.17 51.78 51.99 51.60 51.76 53.68 53.01 52.81 53.30 54.11 54.98 55.71 57.94 57.98 58.14 58.74 59.48 60.35 61.40 61.95 62.46 62.36 62.93 63.84
40.28 42.53 33.62 31.92 25.30 22.91 28.74 31.46 33.03 40.12 42.62 45.56 45.60 46.18 47.10 48.45 48.25 46.69 46.56 47.63 48.54 49.17 49.86 50.21 50.33 50.74 50.90 52.11 51.60 51.72 51.88 52.02 52.02 51.86 52.62 53.28 53.90 56.22 55.97 56.18 56.20 56.73 57.92 58.74 59.12 60.06 61.72 63.01 62.47
35.91 33.53 34.79 33.74 31.72 24.95 24.78 29.26 38.28 40.40 41.60 42.39 43.94 46.52 48.61 50.31 52.24 51.30 49.65 47.86 48.42 47.34 47.61 48.03 48.92 49.80 51.21 51.54 51.14 50.51 50.69 51.47 51.13 50.75 51.27 52.19 53.08 54.62 55.30 56.16 55.57 55.70 55.42 55.29 55.12 56.39 58.24 59.31 60.04
37.34 35.49 34.66 26.91 28.02 34.23 34.94 32.11 42.78 41.92 41.03 41.63 42.83 44.59 45.33 46.58 48.25 49.50 50.36 48.62 47.70 46.01 47.95 47.51 47.96 47.86 47.24 47.96 49.34 49.42 49.05 49.40 49.89 50.53 50.74 51.33 52.48 53.06 54.66 55.11 55.48 55.84 55.69 54.72 54.43 55.63 57.40 58.00 58.00

GFSSGP_sfc_wetblb_120.txt.gz
Wetbulb
62.20 57.31 52.76 51.43 45.39 42.37 39.25 44.74 48.97 50.77 53.44 56.32 60.17 59.33 58.17 60.77 59.35 53.89 68.29 72.22 73.89 74.00 75.32 75.57 76.68 76.57 76.87 76.79 76.56 76.33 76.17 76.15 76.25 76.51 76.43 76.41 76.46 76.39 76.34 76.26 75.99 75.21 74.88 73.93 73.05 73.04 73.42 73.51 73.65
57.85 54.78 51.18 46.62 41.55 37.74 40.69 46.33 48.49 49.91 53.77 56.27 58.35 62.28 61.22 60.60 67.20 67.59 68.78 73.62 73.82 74.29 75.01 75.05 76.75 76.49 76.56 76.43 76.18 76.02 76.25 75.90 75.90 76.03 76.10 76.17 76.28 76.01 75.76 75.86 75.72 75.23 74.43 73.47 72.97 73.36 73.52 73.76 73.76
52.54 52.90 46.46 42.52 38.08 38.66 41.40 46.52 48.17 50.75 51.78 51.70 56.92 62.22 62.68 62.71 68.62 68.24 71.19 73.67 73.99 73.95 74.69 75.16 76.52 76.48 76.51 76.01 76.03 75.85 76.02 75.97 75.95 76.03 75.93 75.98 75.93 75.68 75.65 75.71 75.59 74.67 73.76 72.97 72.89 73.32 73.65 73.68 73.65
49.66 48.05 45.13 40.16 37.46 42.27 44.86 46.18 47.36 48.52 50.95 55.63 59.44 60.15 64.31 68.68 68.93 70.37 73.89 74.22 73.26 73.37 74.36 75.98 76.42 76.25 76.36 76.06 75.95 75.60 75.70 75.85 75.96 76.04 75.93 75.93 75.83 75.54 75.27 75.23 74.86 74.35 73.20 72.79 72.73 73.04 73.27 73.65 73.86
46.57 43.75 38.73 36.06 38.55 42.76 47.13 47.68 47.31 47.22 48.41 54.92 59.21 59.65 61.25 69.01 72.03 73.30 73.71 73.74 72.77 72.95 73.73 75.50 76.29 76.22 76.36 76.09 75.86 75.65 75.53 75.50 75.70 75.98 75.86 75.78 75.79 75.44 75.14 75.01 74.39 73.65 73.83 73.43 72.90 73.22 73.59 73.84 73.69
43.14 42.25 36.82 36.04 38.68 45.67 46.78 47.33 47.01 45.59 48.00 50.22 59.62 60.11 60.89 70.21 71.01 72.31 73.55 72.68 73.41 72.96 73.98 74.80 75.99 76.17 75.92 75.90 75.75 75.30 75.07 75.14 75.44 75.49 75.65 75.67 75.63 75.24 75.02 74.51 74.29 73.87 73.73 73.48 72.94 72.94 72.87 72.48 71.93
41.52 39.36 36.63 37.27 39.26 42.21 46.58 47.04 44.24 44.91 44.96 48.22 60.68 58.47 60.82 67.55 70.18 72.03 71.98 72.66 73.28 73.71 73.85 74.00 74.71 75.60 75.98 75.67 75.61 75.29 75.06 75.00 75.03 75.12 75.15 75.35 75.25 75.16 74.84 74.37 74.21 73.99 73.72 73.27 72.80 72.45 71.76 70.99 70.34
42.96 40.40 35.95 37.59 39.94 40.24 46.46 45.41 44.29 44.21 47.05 53.41 60.93 57.50 58.37 65.26 70.29 69.83 70.87 71.34 71.99 72.95 73.10 72.99 73.62 74.42 74.49 74.60 75.74 75.55 75.25 75.00 74.95 75.12 75.17 75.07 75.00 74.91 74.89 73.88 73.80 73.89 73.59 73.10 72.68 72.40 71.79 70.97 70.48
46.45 37.86 35.28 37.71 40.54 41.65 44.65 43.95 46.79 48.27 49.03 51.09 53.11 57.12 61.07 69.00 68.75 68.00 69.21 69.86 70.48 71.95 71.66 72.45 72.68 73.02 73.17 73.39 74.71 75.51 75.55 75.39 75.21 74.93 75.05 74.14 72.97 73.27 73.46 73.52 72.83 73.62 73.59 73.29 72.97 72.48 71.81 71.32 71.00
43.44 36.54 39.77 43.73 43.49 41.69 45.48 45.14 45.31 46.55 46.84 49.62 51.87 56.38 67.43 68.59 67.35 66.54 67.30 67.61 68.77 70.13 70.94 72.21 72.34 73.04 72.79 73.87 73.28 73.46 73.67 73.98 73.99 73.82 73.34 72.69 71.90 71.60 72.43 72.82 73.66 73.39 74.01 73.61 73.29 72.82 72.30 72.01 69.01
40.82 39.12 43.89 45.49 46.82 44.49 43.83 45.36 46.41 44.99 44.31 47.83 48.96 51.58 60.12 64.90 66.37 66.53 66.90 67.35 68.23 69.35 70.70 72.08 72.77 72.74 72.77 72.70 73.39 73.67 73.60 73.65 73.31 72.94 72.60 72.07 71.59 71.39 72.19 70.90 71.24 71.67 71.98 71.36 71.10 71.10 70.42 69.50 67.97
39.94 43.42 44.91 45.91 46.99 46.00 44.57 45.40 45.09 45.10 46.42 48.69 49.38 50.56 52.04 62.06 64.38 66.33 66.80 67.46 68.22 68.74 69.40 71.20 72.08 72.50 72.68 72.45 73.33 72.79 72.57 72.73 72.52 73.27 72.49 71.71 70.82 69.85 70.12 70.18 69.84 69.39 69.61 69.40 69.27 68.41 68.35 67.41 67.77
40.27 43.14 44.71 45.89 45.39 44.76 45.40 43.86 44.32 44.65 48.14 49.15 48.87 49.48 49.34 51.95 56.76 60.82 66.41 67.46 68.12 68.39 68.83 69.73 71.29 71.55 71.99 71.41 72.74 71.59 71.81 72.20 72.37 72.57 72.80 72.05 70.35 69.29 69.51 69.55 69.07 68.59 68.66 68.26 67.96 67.64 67.14 66.60 66.02
42.34 42.97 43.94 43.73 43.66 43.54 42.97 44.05 44.58 46.17 48.62 48.63 48.50 48.05 47.94 47.94 49.66 52.07 54.81 58.89 62.24 68.65 68.99 69.37 70.60 71.22 71.31 70.86 71.37 71.65 71.71 72.19 71.69 72.15 71.90 71.93 70.61 69.62 69.01 69.10 68.89 68.53 68.46 68.38 67.95 67.08 66.02 65.29 64.98
42.66 40.37 42.13 42.41 43.55 43.47 44.36 42.78 42.14 47.69 48.56 47.50 47.10 47.33 47.49 47.87 47.90 49.74 51.74 55.72 60.82 64.71 69.04 68.88 69.80 70.51 70.11 70.30 70.56 70.73 71.65 71.95 72.05 71.77 71.96 72.21 71.53 70.14 69.83 68.86 68.38 68.74 68.12 67.89 67.40 66.69 65.94 64.77 64.45
39.72 39.12 35.87 41.94 43.83 44.73 44.77 39.00 45.41 47.45 47.02 45.81 46.47 46.50 47.09 47.27 48.24 48.45 49.02 51.70 57.55 64.10 67.23 68.18 70.21 69.08 69.08 69.11 70.01 70.35 70.33 70.73 71.38 71.65 71.64 72.23 72.14 71.28 69.82 69.01 68.59 68.34 67.56 67.05 66.39 66.01 65.52 64.72 64.77
36.90 32.97 35.25 40.00 43.41 42.88 40.92 37.10 43.84 45.26 44.76 44.39 44.79 45.66 46.49 46.68 47.60 48.82 49.82 49.66 51.40 63.26 66.01 66.39 68.53 68.25 68.16 67.50 68.51 69.07 69.01 68.99 69.38 69.36 69.36 70.63 71.42 71.70 70.47 69.76 69.63 68.11 67.19 66.70 66.58 65.61 65.65 65.42 65.47
33.83 33.66 36.29 37.48 40.92 40.22 37.13 38.70 42.62 43.85 43.87 44.08 44.33 44.65 45.30 46.46 47.80 49.55 49.91 49.98 49.99 57.39 64.88 66.26 66.96 67.17 67.74 68.07 68.82 69.51 69.29 68.39 68.01 67.71 67.87 68.31 69.05 70.41 70.78 70.60 69.13 68.01 67.17 66.86 66.86 66.41 65.98 65.72 66.27
38.82 36.94 36.57 39.18 41.72 39.05 38.16 38.12 41.44 43.25 42.56 43.20 44.36 43.25 44.15 45.74 48.41 48.77 49.88 50.50 51.12 54.22 64.08 66.10 65.63 65.27 65.41 65.02 65.08 65.95 69.22 69.97 69.77 68.07 68.33 68.10 67.86 68.71 69.12 69.36 69.58 67.74 66.74 67.38 67.46 67.40 66.62 66.72 65.58
38.45 36.03 35.91 39.17 41.37 39.10 38.59 38.94 41.15 42.53 42.52 43.01 43.72 43.85 43.40 44.67 46.65 48.36 48.64 49.86 55.95 57.94 62.42 65.11 65.97 64.05 66.32 66.58 65.72 65.48 66.75 68.43 69.38 70.33 70.32 70.47 69.07 68.55 68.63 68.23 68.57 68.79 67.85 67.65 67.49 65.96 65.30 65.68 65.48
36.85 35.24 36.10 37.28 40.03 39.48 38.12 36.13 38.14 42.29 42.61 43.92 44.24 44.45 44.83 45.38 45.87 47.13 47.93 48.65 49.99 55.14 60.39 64.02 65.44 64.13 63.49 61.30 64.09 62.23 61.73 61.86 62.33 63.44 64.55 65.12 66.84 69.17 69.19 68.95 68.48 68.55 68.86 68.12 67.62 66.97 66.20 64.51 65.33
33.56 40.58 40.84 39.43 36.18 31.52 36.70 28.73 35.01 38.64 40.61 41.89 43.88 45.00 45.23 45.52 46.18 46.84 47.61 47.42 48.82 52.70 57.86 60.31 60.14 60.08 59.07 59.29 59.71 59.67 57.41 57.31 59.42 60.12 61.92 62.99 64.98 65.49 66.13 67.42 68.21 67.96 68.27 67.98 67.60 67.89 66.19 64.81 62.33
38.46 41.55 39.42 39.01 34.82 31.73 32.04 29.62 33.92 37.01 38.42 40.40 45.02 46.03 46.27 46.47 46.71 47.09 47.35 46.85 48.96 52.02 53.63 56.24 57.37 58.80 59.36 59.73 58.32 57.42 57.24 57.79 59.31 60.03 60.05 60.85 61.91 63.14 64.48 65.14 65.52 65.41 65.80 65.84 65.59 66.05 66.13 64.63 63.30
43.50 38.49 36.40 33.54 31.33 26.27 30.96 31.09 30.34 34.53 37.72 43.48 45.09 44.72 45.45 45.57 47.28 49.51 50.75 51.64 51.49 52.83 54.55 56.23 57.36 57.52 58.85 58.75 58.39 58.39 58.14 58.14 58.12 58.60 58.15 58.79 59.74 61.19 62.77 63.64 64.00 64.30 63.49 63.24 63.75 64.57 64.81 64.99 65.77
38.47 32.71 26.33 25.67 25.26 25.82 33.11 31.52 32.85 38.34 44.23 44.21 42.96 43.87 44.49 44.82 44.92 45.97 48.12 49.83 51.18 51.94 53.46 54.84 55.48 54.94 55.53 55.81 56.02 56.40 57.10 58.02 57.88 58.38 57.17 57.22 57.56 58.50 59.74 62.29 62.33 62.65 63.45 63.44 63.22 62.85 62.80 62.96 63.00
35.96 33.29 27.09 22.83 23.03 25.88 34.09 29.39 34.03 43.96 44.98 45.69 46.30 45.75 46.67 45.32 44.66 45.99 46.31 47.46 48.73 50.47 50.81 52.41 52.76 52.74 53.24 53.97 53.91 53.93 54.84 55.94 56.83 56.83 56.13 55.89 56.27 57.31 59.77 60.53 60.83 61.42 62.24 62.28 62.71 63.08 63.82 63.46 62.81
36.95 32.87 34.22 29.66 29.98 27.93 29.88 34.13 40.45 43.71 44.80 45.70 46.38 47.33 46.88 47.36 47.23 46.65 47.48 46.80 47.47 48.90 49.65 50.21 50.95 51.91 53.09 53.13 52.83 52.65 53.34 54.75 54.44 55.58 56.04 56.14 56.82 57.62 59.62 59.61 59.41 59.93 60.13 60.94 61.38 61.04 61.30 62.77 62.78
38.88 40.86 32.54 30.50 24.11 23.37 27.49 30.17 31.72 39.60 40.99 42.93 42.59 43.04 45.32 47.23 47.93 48.53 49.43 49.27 47.94 47.67 47.40 47.72 48.05 49.24 50.50 51.40 52.16 52.48 52.39 53.84 54.28 53.98 54.43 55.37 55.84 56.80 58.71 57.45 58.11 58.00 58.91 59.52 59.08 58.33 59.19 60.19 61.29
35.59 32.81 33.80 32.81 29.79 24.21 24.17 28.27 37.23 40.11 41.32 41.02 41.05 42.56 43.51 45.43 47.65 48.93 50.27 49.20 49.07 48.00 48.02 48.15 48.21 48.39 48.90 49.09 50.09 51.33 51.99 52.28 52.50 52.64 52.47 52.84 53.77 54.94 56.72 56.67 56.44 56.35 56.89 57.09 56.47 56.41 56.89 57.87 58.97
36.22 34.14 32.93 26.89 27.26 30.89 32.89 30.54 41.42 40.93 40.78 41.30 41.12 42.97 44.15 44.72 45.85 46.45 45.20 46.15 46.09 46.60 46.97 47.43 47.89 47.96 48.26 49.36 48.85 49.20 48.98 49.52 49.41 49.83 51.25 52.37 52.45 53.46 54.82 55.61 56.28 55.92 56.16 56.67 55.29 54.84 56.67 57.28 57.44

GFSSGP_sfc_wetblb_123.txt.gz
Wetbulb
63.75 58.69 58.98 57.31 52.46 52.99 50.79 52.23 53.80 55.14 55.28 59.38 58.19 61.26 62.94 64.73 63.08 60.94 72.32 74.68 75.20 75.85 76.94 76.00 76.63 77.01 77.18 76.98 76.88 76.87 77.12 77.12 77.23 77.08 76.85 76.90 76.85 76.78 76.68 76.45 76.13 75.39 74.67 73.81 73.02 73.17 73.62 73.68 73.84
58.31 58.00 57.75 55.17 51.63 49.26 51.50 52.91 53.09 54.36 55.40 56.44 59.49 64.79 65.05 63.90 69.11 70.05 71.38 74.78 75.52 76.11 76.71 76.08 76.49 76.85 76.98 76.73 76.52 76.29 76.64 76.74 76.72 76.75 76.70 76.67 76.62 76.48 76.08 76.13 75.76 75.01 74.55 73.63 72.94 73.35 73.60 73.88 73.79
56.23 56.40 54.03 52.02 50.69 50.64 52.37 53.02 53.08 53.98 54.90 55.41 59.57 65.81 66.02 65.34 69.93 71.00 73.43 75.38 75.67 76.04 76.62 76.21 76.60 76.59 76.80 76.63 76.40 76.27 76.27 76.24 76.42 76.47 76.37 76.44 76.40 76.22 75.97 76.10 75.93 75.26 74.35 73.48 73.23 73.55 73.87 74.00 73.73
54.70 55.41 53.04 48.61 48.37 50.67 52.97 54.06 52.71 53.75 53.59 56.75 62.62 63.39 67.64 71.44 70.59 72.37 75.01 75.29 75.13 75.82 76.47 76.39 76.46 76.44 76.47 76.55 76.22 76.16 76.04 76.09 76.10 75.97 76.14 76.19 76.00 75.91 75.71 75.87 75.70 74.84 73.85 73.15 73.09 73.50 73.77 73.70 73.58
54.25 52.56 48.35 46.42 47.75 49.17 51.33 52.65 53.18 52.75 51.98 53.18 62.57 63.18 65.59 71.41 73.90 75.14 74.75 74.94 74.70 75.32 75.88 76.16 76.41 76.42 76.40 76.30 76.07 76.09 76.11 75.78 75.89 75.92 75.77 75.77 75.64 75.51 75.44 75.15 74.40 73.95 73.30 72.95 72.86 72.99 72.91 72.87 72.92
50.66 51.13 45.80 44.15 46.06 49.08 51.49 53.18 52.94 51.45 52.06 52.82 60.58 64.37 66.34 72.51 73.50 74.61 75.14 74.78 75.23 75.16 75.71 75.65 76.06 76.19 76.04 75.95 75.79 75.61 75.51 75.63 75.61 75.79 75.74 75.86 75.71 75.26 75.02 74.58 74.00 73.31 73.09 72.52 72.06 72.13 72.01 72.29 72.36
47.69 48.58 45.42 44.96 46.06 47.72 50.57 52.91 50.89 50.76 51.22 53.31 64.45 63.79 66.41 70.82 73.71 75.23 75.04 75.09 75.26 75.58 75.56 75.59 75.12 75.93 76.16 75.76 75.56 75.26 75.13 75.25 75.42 75.40 75.47 75.52 75.53 75.31 74.72 74.35 73.63 73.23 72.85 72.22 71.83 71.64 71.71 71.17 70.66
49.76 48.65 44.01 45.64 46.15 47.12 50.45 50.72 51.02 50.62 51.55 55.79 64.27 63.32 64.27 70.16 73.81 74.44 74.81 74.62 74.69 75.05 75.29 75.07 75.16 74.70 74.66 75.27 75.61 75.28 75.10 74.97 75.12 75.12 75.15 75.24 75.18 74.89 74.37 73.88 73.75 73.18 72.73 72.33 72.26 72.04 71.82 71.05 70.63
48.92 45.06 42.76 44.74 45.48 48.34 49.96 49.43 51.93 52.76 52.11 54.70 57.54 60.04 64.96 72.45 72.83 72.61 72.78 73.12 73.55 73.96 74.93 75.19 74.32 74.60 74.69 74.22 74.91 75.33 74.83 75.09 74.93 74.85 74.95 74.30 73.22 73.93 74.00 73.75 72.91 73.24 73.06 72.84 72.79 72.42 71.82 71.50 71.18
46.24 43.64 44.70 48.10 49.08 49.38 49.52 49.32 49.94 51.00 51.66 54.86 56.73 67.62 70.53 71.27 71.22 70.41 70.55 70.45 71.49 72.45 73.92 74.75 74.73 74.41 74.46 74.00 74.80 74.67 74.29 74.46 74.16 74.06 74.41 73.68 74.00 74.06 73.35 73.44 73.70 73.19 73.31 73.58 73.28 72.96 72.39 71.43 69.58
46.72 43.38 48.54 47.94 49.76 49.80 49.16 49.13 50.77 49.90 49.97 52.28 53.52 62.44 69.21 70.28 70.14 69.68 69.85 70.29 71.01 72.41 73.69 74.57 75.14 75.26 74.32 73.78 74.71 74.75 74.24 74.60 74.98 75.02 75.03 74.69 73.89 73.90 73.49 73.31 73.24 73.60 73.15 72.12 72.10 71.85 71.15 70.37 70.17
43.76 47.40 46.17 48.54 49.17 49.18 48.39 49.80 48.87 49.85 51.32 53.14 53.24 54.56 68.08 69.38 69.99 69.80 69.76 70.31 71.00 71.60 72.91 74.41 75.24 75.32 75.27 74.67 74.44 74.76 74.38 74.87 74.52 74.50 75.34 74.36 73.61 73.54 73.45 73.20 73.27 73.36 72.74 72.36 72.22 70.98 70.96 70.65 70.07
44.74 47.33 49.96 47.88 49.16 48.79 49.10 48.08 48.62 49.53 52.37 53.69 53.55 54.34 55.65 68.19 70.12 71.44 71.96 71.90 71.94 71.38 72.35 73.62 74.93 75.15 75.37 75.37 74.98 74.93 74.68 74.57 74.78 75.02 75.23 74.77 73.82 73.40 73.30 73.36 73.47 73.39 73.17 72.52 71.87 71.08 70.98 70.18 69.64
46.01 45.53 47.42 47.44 47.52 48.24 46.84 47.93 48.13 50.67 52.91 52.87 53.19 53.60 54.63 56.87 65.47 67.23 68.51 71.36 72.16 72.71 72.62 73.52 74.24 75.26 75.11 74.72 75.45 74.65 75.11 75.17 74.54 74.96 74.93 74.54 74.32 74.02 73.06 72.95 72.78 73.05 73.39 73.12 72.72 72.49 71.74 70.99 70.61
46.07 43.47 45.01 45.31 46.60 46.64 48.24 45.44 46.15 50.80 52.57 51.99 52.85 53.60 53.94 54.65 55.35 57.21 64.47 67.43 71.10 72.70 74.14 73.81 73.80 74.89 74.97 74.87 75.03 74.96 75.07 74.90 74.32 74.60 75.21 74.27 73.55 74.25 73.93 73.28 73.06 73.22 73.64 73.75 73.28 72.94 72.62 71.85 71.50
43.19 43.87 41.82 46.28 46.10 47.76 47.40 42.64 48.85 50.66 50.35 51.22 51.80 52.98 53.47 55.22 55.06 56.76 58.58 61.62 65.52 67.92 69.94 73.64 73.27 73.69 74.01 74.24 74.65 74.66 74.52 74.58 73.91 74.20 74.06 74.52 73.17 74.23 74.35 73.65 72.80 74.07 73.52 73.11 72.81 72.48 71.50 71.17 70.91
42.11 39.39 40.64 43.50 46.35 45.95 45.83 43.80 48.58 50.56 50.38 51.24 52.71 53.15 53.24 54.64 56.53 57.72 57.73 58.65 61.92 64.45 68.91 71.51 73.27 73.33 73.64 73.81 73.86 74.06 74.45 73.92 73.93 74.20 74.23 74.71 74.70 74.63 74.70 73.97 73.59 74.35 73.08 72.70 72.24 71.69 71.26 70.67 70.51
39.27 39.05 40.40 41.82 44.58 45.76 44.48 45.63 48.51 49.71 49.65 50.89 51.76 52.47 52.48 52.75 54.57 58.04 58.34 58.52 59.74 61.62 66.02 70.74 72.51 73.82 73.49 73.29 72.88 72.90 72.85 73.09 73.58 73.73 73.83 74.50 74.66 74.54 74.73 74.15 74.49 74.13 72.70 72.16 71.97 71.75 71.64 70.97 70.63
43.41 41.73 41.08 42.99 45.63 44.81 44.79 45.25 48.43 48.84 49.55 50.68 51.36 51.18 51.82 52.23 54.80 55.90 56.98 58.29 59.45 60.36 63.54 69.59 71.32 72.85 72.52 71.53 70.69 71.18 70.84 71.78 72.11 72.82 73.69 73.66 73.58 73.58 73.82 73.65 73.77 73.59 72.15 72.48 72.37 71.74 71.25 70.56 70.65
42.89 41.45 41.21 43.29 44.97 44.84 44.95 44.95 47.77 49.07 49.40 49.88 50.34 51.30 52.47 54.42 55.77 56.65 57.03 57.62 58.65 61.24 62.05 66.05 70.81 72.28 71.97 71.97 72.25 71.98 71.85 72.51 73.06 73.89 73.87 73.56 72.77 73.02 72.76 72.90 72.81 73.34 72.39 72.74 72.17 70.99 69.99 69.79 70.71
42.45 41.51 41.45 41.40 43.42 44.75 43.61 43.16 44.96 47.56 48.10 49.25 51.11 53.40 54.50 54.17 54.65 56.24 57.14 57.63 58.17 60.04 64.55 65.67 69.00 71.58 71.69 72.44 71.47 69.90 70.69 70.90 71.57 72.86 73.33 73.06 72.74 73.00 73.09 72.60 72.22 72.36 71.72 70.79 71.26 70.45 69.53 68.25 70.16
39.86 44.51 43.85 42.83 41.58 38.50 42.91 37.15 42.75 45.88 47.37 48.04 52.49 53.13 53.28 54.12 55.51 57.01 57.83 58.70 57.86 57.27 58.93 64.42 68.35 69.93 69.83 70.47 70.70 70.59 69.59 68.15 69.69 69.68 70.09 68.45 69.60 69.38 70.15 70.76 71.42 71.71 71.20 70.24 70.15 70.88 69.53 69.47 67.39
42.62 45.29 44.17 43.21 41.27 40.57 39.86 39.29 42.35 43.12 44.78 48.61 50.52 51.45 53.03 54.31 55.69 56.93 57.88 58.25 59.14 59.63 59.97 62.61 65.64 67.45 67.49 68.22 70.05 69.47 68.04 68.31 66.51 66.66 67.42 67.87 68.55 68.86 68.68 69.49 69.86 69.99 69.11 69.56 69.44 69.27 68.99 68.28 67.76
46.04 43.58 42.20 41.27 40.74 36.31 40.33 39.95 40.30 42.70 45.39 49.24 49.69 51.01 51.93 53.51 55.36 56.41 57.96 59.76 60.55 61.76 62.50 64.18 65.50 65.28 66.16 66.40 66.63 67.37 66.59 65.71 65.12 65.48 65.16 65.12 65.96 66.85 67.98 68.00 69.04 69.31 68.55 68.28 67.93 68.47 68.43 67.64 67.38
44.39 42.41 36.79 35.03 35.33 34.65 39.19 38.26 41.92 44.36 47.49 48.56 49.44 50.83 52.41 53.62 54.59 55.64 56.11 56.67 57.76 59.24 61.54 63.73 64.39 63.80 65.14 65.52 65.73 66.16 66.96 67.08 66.74 66.10 64.90 65.00 64.36 64.56 65.99 67.62 67.68 66.66 67.78 67.56 67.63 67.62 67.32 67.06 66.19
44.00 43.12 37.27 29.89 32.01 35.88 39.49 37.31 42.12 48.04 49.64 50.72 51.77 52.89 54.43 55.18 55.44 55.39 55.37 56.35 56.97 57.81 58.59 59.51 60.43 60.29 61.26 61.67 61.83 62.43 63.36 64.28 64.62 65.75 64.62 64.00 63.63 64.05 65.99 66.25 66.17 66.17 65.99 66.17 66.67 64.92 64.87 66.48 65.42
42.95 41.06 42.40 38.16 37.76 36.70 39.61 41.14 46.52 49.03 49.06 49.55 49.37 50.35 51.44 53.16 54.40 55.78 57.19 56.86 56.75 56.92 57.26 57.97 58.70 59.04 58.99 59.58 60.87 61.12 61.53 61.31 62.61 63.83 64.16 63.35 64.41 63.32 64.29 64.86 64.59 64.60 64.58 64.08 64.74 62.88 63.77 64.40 64.42
46.12 46.08 40.17 41.27 32.38 30.62 36.39 37.91 40.99 45.09 46.69 47.66 48.24 48.82 50.11 52.05 53.32 54.47 55.85 57.34 57.71 56.30 56.22 56.75 56.81 56.32 56.85 57.69 58.22 58.61 59.35 59.84 60.23 60.97 61.30 62.55 63.09 62.97 62.85 63.50 63.77 63.52 63.35 63.25 63.61 62.26 62.62 62.54 62.05
43.28 42.59 41.61 42.29 40.48 34.69 33.00 37.95 45.43 47.99 48.40 47.34 47.93 48.88 49.79 51.39 52.58 53.59 54.26 54.79 54.37 54.57 54.09 53.87 53.79 53.95 53.95 54.43 55.30 55.66 56.09 56.87 58.34 58.86 59.48 59.64 60.17 60.32 60.15 60.88 62.00 62.05 62.05 62.54 62.64 62.24 61.09 60.12 60.67
43.34 41.89 42.91 39.18 36.26 39.09 38.17 38.62 47.75 49.43 48.58 48.07 47.68 48.67 50.52 51.93 52.16 51.87 52.20 52.83 52.68 52.29 52.38 52.50 52.74 52.43 52.68 53.22 53.61 54.19 54.71 54.84 54.93 55.47 56.43 57.31 57.52 58.11 58.30 59.03 59.42 60.01 60.47 60.88 60.55 60.06 58.81 58.56 58.48